<?xml version="1.0" encoding="UTF-8" standalone="no" ?>
<gpx xmlns="http://www.topografix.com/GPX/1/1" xmlns:xsi="http://www.w3.org/2001/XMLSchema-instance" xsi:schemaLocation="http://www.topografix.com/GPX/1/1 http://www.topografix.com/GPX/1/1/gpx.xsd" version="1.1" creator="VisuGPX - https://www.visugpx.com">
  <metadata>
    <name>MB. Sortie du 04/08/2019</name>
    <desc><![CDATA[Sortie VTT du dimanche 04 août 2019]]></desc>
  </metadata>
  <trk>
    <name><![CDATA[Pornichet Cyclisme]]></name>
    <trkseg>
      <trkpt lat="47.26391" lon="-2.31652">
        <ele>8.5</ele>
        <time>2019-08-04T06:59:56.000Z</time>
      </trkpt>
      <trkpt lat="47.26375" lon="-2.31659">
        <ele>8.1</ele>
        <time>2019-08-04T07:00:00.000Z</time>
      </trkpt>
      <trkpt lat="47.2637" lon="-2.31662">
        <ele>-1</ele>
        <time>2019-08-04T07:00:01.000Z</time>
      </trkpt>
      <trkpt lat="47.26366" lon="-2.31665">
        <ele>-1.3999999761581</ele>
        <time>2019-08-04T07:00:02.000Z</time>
      </trkpt>
      <trkpt lat="47.26361" lon="-2.31669">
        <ele>-1.7999999523163</ele>
        <time>2019-08-04T07:00:03.000Z</time>
      </trkpt>
      <trkpt lat="47.26346" lon="-2.31679">
        <ele>-1.7999999523163</ele>
        <time>2019-08-04T07:00:06.000Z</time>
      </trkpt>
      <trkpt lat="47.26323" lon="-2.31688">
        <ele>-1.7999999523163</ele>
        <time>2019-08-04T07:00:10.000Z</time>
      </trkpt>
      <trkpt lat="47.26311" lon="-2.31695">
        <ele>-1.7999999523163</ele>
        <time>2019-08-04T07:00:12.000Z</time>
      </trkpt>
      <trkpt lat="47.26306" lon="-2.31698">
        <ele>-1.7999999523163</ele>
        <time>2019-08-04T07:00:13.000Z</time>
      </trkpt>
      <trkpt lat="47.26296" lon="-2.31703">
        <ele>-2</ele>
        <time>2019-08-04T07:00:15.000Z</time>
      </trkpt>
      <trkpt lat="47.26292" lon="-2.31708">
        <ele>-2</ele>
        <time>2019-08-04T07:00:16.000Z</time>
      </trkpt>
      <trkpt lat="47.26289" lon="-2.31712">
        <ele>-2</ele>
        <time>2019-08-04T07:00:17.000Z</time>
      </trkpt>
      <trkpt lat="47.26286" lon="-2.31715">
        <ele>-2.2000000476837</ele>
        <time>2019-08-04T07:00:18.000Z</time>
      </trkpt>
      <trkpt lat="47.26283" lon="-2.31718">
        <ele>-2.2000000476837</ele>
        <time>2019-08-04T07:00:19.000Z</time>
      </trkpt>
      <trkpt lat="47.26283" lon="-2.31722">
        <ele>-2.2000000476837</ele>
        <time>2019-08-04T07:00:20.000Z</time>
      </trkpt>
      <trkpt lat="47.26287" lon="-2.31747">
        <ele>-2.2000000476837</ele>
        <time>2019-08-04T07:00:24.000Z</time>
      </trkpt>
      <trkpt lat="47.26289" lon="-2.31787">
        <ele>-2.2000000476837</ele>
        <time>2019-08-04T07:00:30.000Z</time>
      </trkpt>
      <trkpt lat="47.26285" lon="-2.31834">
        <ele>-2.2000000476837</ele>
        <time>2019-08-04T07:00:37.000Z</time>
      </trkpt>
      <trkpt lat="47.26283" lon="-2.31846">
        <ele>-2.2000000476837</ele>
        <time>2019-08-04T07:00:39.000Z</time>
      </trkpt>
      <trkpt lat="47.2628" lon="-2.31857">
        <ele>-2.2000000476837</ele>
        <time>2019-08-04T07:00:41.000Z</time>
      </trkpt>
      <trkpt lat="47.26274" lon="-2.31866">
        <ele>-2.2000000476837</ele>
        <time>2019-08-04T07:00:43.000Z</time>
      </trkpt>
      <trkpt lat="47.26265" lon="-2.31881">
        <ele>-2.2000000476837</ele>
        <time>2019-08-04T07:00:46.000Z</time>
      </trkpt>
      <trkpt lat="47.26253" lon="-2.31901">
        <ele>-2.2000000476837</ele>
        <time>2019-08-04T07:00:50.000Z</time>
      </trkpt>
      <trkpt lat="47.2625" lon="-2.31906">
        <ele>-2.2000000476837</ele>
        <time>2019-08-04T07:00:51.000Z</time>
      </trkpt>
      <trkpt lat="47.26239" lon="-2.31933">
        <ele>-2.5999999046326</ele>
        <time>2019-08-04T07:00:56.000Z</time>
      </trkpt>
      <trkpt lat="47.26236" lon="-2.31938">
        <ele>-3</ele>
        <time>2019-08-04T07:00:57.000Z</time>
      </trkpt>
      <trkpt lat="47.26233" lon="-2.3194">
        <ele>-3.4000000953674</ele>
        <time>2019-08-04T07:00:58.000Z</time>
      </trkpt>
      <trkpt lat="47.2623" lon="-2.31941">
        <ele>-3.7999999523163</ele>
        <time>2019-08-04T07:00:59.000Z</time>
      </trkpt>
      <trkpt lat="47.26227" lon="-2.31943">
        <ele>-4.1999998092651</ele>
        <time>2019-08-04T07:01:00.000Z</time>
      </trkpt>
      <trkpt lat="47.26215" lon="-2.31953">
        <ele>-4.1999998092651</ele>
        <time>2019-08-04T07:01:04.000Z</time>
      </trkpt>
      <trkpt lat="47.26197" lon="-2.31971">
        <ele>-4.1999998092651</ele>
        <time>2019-08-04T07:01:10.000Z</time>
      </trkpt>
      <trkpt lat="47.26191" lon="-2.31986">
        <ele>-4.1999998092651</ele>
        <time>2019-08-04T07:01:14.000Z</time>
      </trkpt>
      <trkpt lat="47.26182" lon="-2.3199">
        <ele>-4.1999998092651</ele>
        <time>2019-08-04T07:01:18.000Z</time>
      </trkpt>
      <trkpt lat="47.26179" lon="-2.3199">
        <ele>-4.1999998092651</ele>
        <time>2019-08-04T07:01:19.000Z</time>
      </trkpt>
      <trkpt lat="47.26166" lon="-2.31998">
        <ele>-4.1999998092651</ele>
        <time>2019-08-04T07:01:23.000Z</time>
      </trkpt>
      <trkpt lat="47.26159" lon="-2.32005">
        <ele>-4.1999998092651</ele>
        <time>2019-08-04T07:01:25.000Z</time>
      </trkpt>
      <trkpt lat="47.26148" lon="-2.32024">
        <ele>-4.1999998092651</ele>
        <time>2019-08-04T07:01:28.000Z</time>
      </trkpt>
      <trkpt lat="47.26145" lon="-2.3203">
        <ele>-4.1999998092651</ele>
        <time>2019-08-04T07:01:29.000Z</time>
      </trkpt>
      <trkpt lat="47.26143" lon="-2.32037">
        <ele>-4.1999998092651</ele>
        <time>2019-08-04T07:01:30.000Z</time>
      </trkpt>
      <trkpt lat="47.26135" lon="-2.32065">
        <ele>-4.1999998092651</ele>
        <time>2019-08-04T07:01:34.000Z</time>
      </trkpt>
      <trkpt lat="47.26119" lon="-2.32113">
        <ele>-4.1999998092651</ele>
        <time>2019-08-04T07:01:41.000Z</time>
      </trkpt>
      <trkpt lat="47.26117" lon="-2.32119">
        <ele>-4.1999998092651</ele>
        <time>2019-08-04T07:01:42.000Z</time>
      </trkpt>
      <trkpt lat="47.26113" lon="-2.32132">
        <ele>-4.1999998092651</ele>
        <time>2019-08-04T07:01:44.000Z</time>
      </trkpt>
      <trkpt lat="47.26102" lon="-2.32158">
        <ele>-4.1999998092651</ele>
        <time>2019-08-04T07:01:48.000Z</time>
      </trkpt>
      <trkpt lat="47.26086" lon="-2.32192">
        <ele>-4.1999998092651</ele>
        <time>2019-08-04T07:01:54.000Z</time>
      </trkpt>
      <trkpt lat="47.26059" lon="-2.32226">
        <ele>-4.1999998092651</ele>
        <time>2019-08-04T07:02:01.000Z</time>
      </trkpt>
      <trkpt lat="47.26028" lon="-2.3226">
        <ele>-4.1999998092651</ele>
        <time>2019-08-04T07:02:08.000Z</time>
      </trkpt>
      <trkpt lat="47.26005" lon="-2.32285">
        <ele>-4.1999998092651</ele>
        <time>2019-08-04T07:02:13.000Z</time>
      </trkpt>
      <trkpt lat="47.25997" lon="-2.32295">
        <ele>-4.1999998092651</ele>
        <time>2019-08-04T07:02:15.000Z</time>
      </trkpt>
      <trkpt lat="47.25956" lon="-2.32352">
        <ele>-4.1999998092651</ele>
        <time>2019-08-04T07:02:25.000Z</time>
      </trkpt>
      <trkpt lat="47.25933" lon="-2.32385">
        <ele>-4.1999998092651</ele>
        <time>2019-08-04T07:02:32.000Z</time>
      </trkpt>
      <trkpt lat="47.25905" lon="-2.32423">
        <ele>-4.1999998092651</ele>
        <time>2019-08-04T07:02:39.000Z</time>
      </trkpt>
      <trkpt lat="47.25878" lon="-2.32458">
        <ele>-4.1999998092651</ele>
        <time>2019-08-04T07:02:47.000Z</time>
      </trkpt>
      <trkpt lat="47.2587" lon="-2.32464">
        <ele>-4.1999998092651</ele>
        <time>2019-08-04T07:02:49.000Z</time>
      </trkpt>
      <trkpt lat="47.25861" lon="-2.32466">
        <ele>-4.1999998092651</ele>
        <time>2019-08-04T07:02:51.000Z</time>
      </trkpt>
      <trkpt lat="47.25833" lon="-2.32468">
        <ele>-4.1999998092651</ele>
        <time>2019-08-04T07:02:57.000Z</time>
      </trkpt>
      <trkpt lat="47.25828" lon="-2.32467">
        <ele>-4.1999998092651</ele>
        <time>2019-08-04T07:02:58.000Z</time>
      </trkpt>
      <trkpt lat="47.258" lon="-2.32453">
        <ele>-4.1999998092651</ele>
        <time>2019-08-04T07:03:04.000Z</time>
      </trkpt>
      <trkpt lat="47.2579" lon="-2.32451">
        <ele>-4.1999998092651</ele>
        <time>2019-08-04T07:03:06.000Z</time>
      </trkpt>
      <trkpt lat="47.2578" lon="-2.32451">
        <ele>-4.1999998092651</ele>
        <time>2019-08-04T07:03:08.000Z</time>
      </trkpt>
      <trkpt lat="47.25765" lon="-2.32441">
        <ele>-4.1999998092651</ele>
        <time>2019-08-04T07:03:12.000Z</time>
      </trkpt>
      <trkpt lat="47.25761" lon="-2.32436">
        <ele>-4.1999998092651</ele>
        <time>2019-08-04T07:03:13.000Z</time>
      </trkpt>
      <trkpt lat="47.25759" lon="-2.3243">
        <ele>-4.1999998092651</ele>
        <time>2019-08-04T07:03:14.000Z</time>
      </trkpt>
      <trkpt lat="47.25752" lon="-2.32422">
        <ele>-4.1999998092651</ele>
        <time>2019-08-04T07:03:16.000Z</time>
      </trkpt>
      <trkpt lat="47.25747" lon="-2.32421">
        <ele>-4.1999998092651</ele>
        <time>2019-08-04T07:03:17.000Z</time>
      </trkpt>
      <trkpt lat="47.25719" lon="-2.32421">
        <ele>-4.1999998092651</ele>
        <time>2019-08-04T07:03:22.000Z</time>
      </trkpt>
      <trkpt lat="47.25672" lon="-2.3242">
        <ele>-4.1999998092651</ele>
        <time>2019-08-04T07:03:31.000Z</time>
      </trkpt>
      <trkpt lat="47.25658" lon="-2.3242">
        <ele>-4.1999998092651</ele>
        <time>2019-08-04T07:03:34.000Z</time>
      </trkpt>
      <trkpt lat="47.25651" lon="-2.32428">
        <ele>-4.1999998092651</ele>
        <time>2019-08-04T07:03:36.000Z</time>
      </trkpt>
      <trkpt lat="47.25648" lon="-2.32445">
        <ele>-4.1999998092651</ele>
        <time>2019-08-04T07:03:39.000Z</time>
      </trkpt>
      <trkpt lat="47.25652" lon="-2.32458">
        <ele>-3.7999999523163</ele>
        <time>2019-08-04T07:03:41.000Z</time>
      </trkpt>
      <trkpt lat="47.25654" lon="-2.32464">
        <ele>-3.4000000953674</ele>
        <time>2019-08-04T07:03:42.000Z</time>
      </trkpt>
      <trkpt lat="47.25656" lon="-2.3247">
        <ele>-3</ele>
        <time>2019-08-04T07:03:43.000Z</time>
      </trkpt>
      <trkpt lat="47.25658" lon="-2.32476">
        <ele>-2.2000000476837</ele>
        <time>2019-08-04T07:03:44.000Z</time>
      </trkpt>
      <trkpt lat="47.2567" lon="-2.32505">
        <ele>-2.2000000476837</ele>
        <time>2019-08-04T07:03:49.000Z</time>
      </trkpt>
      <trkpt lat="47.25676" lon="-2.32521">
        <ele>-1.7999999523163</ele>
        <time>2019-08-04T07:03:52.000Z</time>
      </trkpt>
      <trkpt lat="47.25678" lon="-2.32527">
        <ele>-1.2000000476837</ele>
        <time>2019-08-04T07:03:53.000Z</time>
      </trkpt>
      <trkpt lat="47.2568" lon="-2.32532">
        <ele>-0.80000001192093</ele>
        <time>2019-08-04T07:03:54.000Z</time>
      </trkpt>
      <trkpt lat="47.25682" lon="-2.32538">
        <ele>-0.40000000596046</ele>
        <time>2019-08-04T07:03:55.000Z</time>
      </trkpt>
      <trkpt lat="47.25684" lon="-2.32543">
        <ele>8.9</ele>
        <time>2019-08-04T07:03:56.000Z</time>
      </trkpt>
      <trkpt lat="47.25697" lon="-2.32585">
        <ele>9.9</ele>
        <time>2019-08-04T07:04:03.000Z</time>
      </trkpt>
      <trkpt lat="47.25701" lon="-2.32608">
        <ele>0.60000002384186</ele>
        <time>2019-08-04T07:04:06.000Z</time>
      </trkpt>
      <trkpt lat="47.25702" lon="-2.32615">
        <ele>1</ele>
        <time>2019-08-04T07:04:07.000Z</time>
      </trkpt>
      <trkpt lat="47.25702" lon="-2.32622">
        <ele>1.3999999761581</ele>
        <time>2019-08-04T07:04:08.000Z</time>
      </trkpt>
      <trkpt lat="47.257" lon="-2.32627">
        <ele>2.2000000476837</ele>
        <time>2019-08-04T07:04:09.000Z</time>
      </trkpt>
      <trkpt lat="47.25693" lon="-2.32637">
        <ele>2.2000000476837</ele>
        <time>2019-08-04T07:04:12.000Z</time>
      </trkpt>
      <trkpt lat="47.25682" lon="-2.32639">
        <ele>2.2000000476837</ele>
        <time>2019-08-04T07:04:14.000Z</time>
      </trkpt>
      <trkpt lat="47.25668" lon="-2.32644">
        <ele>2.2000000476837</ele>
        <time>2019-08-04T07:04:17.000Z</time>
      </trkpt>
      <trkpt lat="47.25632" lon="-2.32658">
        <ele>2.2000000476837</ele>
        <time>2019-08-04T07:04:25.000Z</time>
      </trkpt>
      <trkpt lat="47.25604" lon="-2.3267">
        <ele>2.5999999046326</ele>
        <time>2019-08-04T07:04:32.000Z</time>
      </trkpt>
      <trkpt lat="47.256" lon="-2.32673">
        <ele>3</ele>
        <time>2019-08-04T07:04:33.000Z</time>
      </trkpt>
      <trkpt lat="47.25595" lon="-2.32675">
        <ele>3.7999999523163</ele>
        <time>2019-08-04T07:04:34.000Z</time>
      </trkpt>
      <trkpt lat="47.25592" lon="-2.32678">
        <ele>4.1999998092651</ele>
        <time>2019-08-04T07:04:35.000Z</time>
      </trkpt>
      <trkpt lat="47.25574" lon="-2.32684">
        <ele>4.1999998092651</ele>
        <time>2019-08-04T07:04:39.000Z</time>
      </trkpt>
      <trkpt lat="47.2554" lon="-2.32697">
        <ele>4.1999998092651</ele>
        <time>2019-08-04T07:04:46.000Z</time>
      </trkpt>
      <trkpt lat="47.255" lon="-2.32706">
        <ele>4.1999998092651</ele>
        <time>2019-08-04T07:04:54.000Z</time>
      </trkpt>
      <trkpt lat="47.25482" lon="-2.32711">
        <ele>4.1999998092651</ele>
        <time>2019-08-04T07:04:58.000Z</time>
      </trkpt>
      <trkpt lat="47.25474" lon="-2.32716">
        <ele>4.1999998092651</ele>
        <time>2019-08-04T07:05:00.000Z</time>
      </trkpt>
      <trkpt lat="47.25457" lon="-2.32735">
        <ele>4.1999998092651</ele>
        <time>2019-08-04T07:05:05.000Z</time>
      </trkpt>
      <trkpt lat="47.25448" lon="-2.32748">
        <ele>4.1999998092651</ele>
        <time>2019-08-04T07:05:09.000Z</time>
      </trkpt>
      <trkpt lat="47.25433" lon="-2.32769">
        <ele>4.1999998092651</ele>
        <time>2019-08-04T07:05:14.000Z</time>
      </trkpt>
      <trkpt lat="47.25431" lon="-2.32775">
        <ele>4.1999998092651</ele>
        <time>2019-08-04T07:05:15.000Z</time>
      </trkpt>
      <trkpt lat="47.25424" lon="-2.32788">
        <ele>4.1999998092651</ele>
        <time>2019-08-04T07:05:18.000Z</time>
      </trkpt>
      <trkpt lat="47.25422" lon="-2.32787">
        <ele>4.1999998092651</ele>
        <time>2019-08-04T07:05:19.000Z</time>
      </trkpt>
      <trkpt lat="47.2542" lon="-2.32783">
        <ele>3.7999999523163</ele>
        <time>2019-08-04T07:05:20.000Z</time>
      </trkpt>
      <trkpt lat="47.2542" lon="-2.32778">
        <ele>3.2000000476837</ele>
        <time>2019-08-04T07:05:21.000Z</time>
      </trkpt>
      <trkpt lat="47.25421" lon="-2.32773">
        <ele>2.7999999523163</ele>
        <time>2019-08-04T07:05:22.000Z</time>
      </trkpt>
      <trkpt lat="47.25423" lon="-2.32769">
        <ele>1.7999999523163</ele>
        <time>2019-08-04T07:05:23.000Z</time>
      </trkpt>
      <trkpt lat="47.25425" lon="-2.3277">
        <ele>1.7999999523163</ele>
        <time>2019-08-04T07:05:25.000Z</time>
      </trkpt>
      <trkpt lat="47.2543" lon="-2.3278">
        <ele>1.7999999523163</ele>
        <time>2019-08-04T07:05:28.000Z</time>
      </trkpt>
      <trkpt lat="47.25431" lon="-2.32782">
        <ele>1.7999999523163</ele>
        <time>2019-08-04T07:05:32.000Z</time>
      </trkpt>
      <trkpt lat="47.25431" lon="-2.32786">
        <ele>1.7999999523163</ele>
        <time>2019-08-04T07:05:35.000Z</time>
      </trkpt>
      <trkpt lat="47.25429" lon="-2.3279">
        <ele>1.7999999523163</ele>
        <time>2019-08-04T07:05:37.000Z</time>
      </trkpt>
      <trkpt lat="47.2542" lon="-2.32793">
        <ele>1.7999999523163</ele>
        <time>2019-08-04T07:05:40.000Z</time>
      </trkpt>
      <trkpt lat="47.2541" lon="-2.32806">
        <ele>1.7999999523163</ele>
        <time>2019-08-04T07:05:43.000Z</time>
      </trkpt>
      <trkpt lat="47.25386" lon="-2.32839">
        <ele>1.7999999523163</ele>
        <time>2019-08-04T07:05:49.000Z</time>
      </trkpt>
      <trkpt lat="47.25373" lon="-2.32856">
        <ele>1.7999999523163</ele>
        <time>2019-08-04T07:05:52.000Z</time>
      </trkpt>
      <trkpt lat="47.25356" lon="-2.32874">
        <ele>1.7999999523163</ele>
        <time>2019-08-04T07:05:56.000Z</time>
      </trkpt>
      <trkpt lat="47.25331" lon="-2.32898">
        <ele>1.7999999523163</ele>
        <time>2019-08-04T07:06:02.000Z</time>
      </trkpt>
      <trkpt lat="47.2533" lon="-2.329">
        <ele>1.7999999523163</ele>
        <time>2019-08-04T07:06:03.000Z</time>
      </trkpt>
      <trkpt lat="47.25314" lon="-2.32915">
        <ele>1.7999999523163</ele>
        <time>2019-08-04T07:06:06.000Z</time>
      </trkpt>
      <trkpt lat="47.25307" lon="-2.32925">
        <ele>1.7999999523163</ele>
        <time>2019-08-04T07:06:08.000Z</time>
      </trkpt>
      <trkpt lat="47.25304" lon="-2.3294">
        <ele>1.7999999523163</ele>
        <time>2019-08-04T07:06:10.000Z</time>
      </trkpt>
      <trkpt lat="47.25303" lon="-2.32946">
        <ele>1.7999999523163</ele>
        <time>2019-08-04T07:06:11.000Z</time>
      </trkpt>
      <trkpt lat="47.25306" lon="-2.32974">
        <ele>1.7999999523163</ele>
        <time>2019-08-04T07:06:16.000Z</time>
      </trkpt>
      <trkpt lat="47.25325" lon="-2.3301">
        <ele>1.7999999523163</ele>
        <time>2019-08-04T07:06:21.000Z</time>
      </trkpt>
      <trkpt lat="47.25333" lon="-2.33027">
        <ele>1.7999999523163</ele>
        <time>2019-08-04T07:06:23.000Z</time>
      </trkpt>
      <trkpt lat="47.25353" lon="-2.33075">
        <ele>1.7999999523163</ele>
        <time>2019-08-04T07:06:30.000Z</time>
      </trkpt>
      <trkpt lat="47.25366" lon="-2.33106">
        <ele>1.3999999761581</ele>
        <time>2019-08-04T07:06:35.000Z</time>
      </trkpt>
      <trkpt lat="47.25369" lon="-2.33111">
        <ele>0.60000002384186</ele>
        <time>2019-08-04T07:06:36.000Z</time>
      </trkpt>
      <trkpt lat="47.25371" lon="-2.33115">
        <ele>0.20000000298023</ele>
        <time>2019-08-04T07:06:37.000Z</time>
      </trkpt>
      <trkpt lat="47.25372" lon="-2.3312">
        <ele>-0.20000000298023</ele>
        <time>2019-08-04T07:06:38.000Z</time>
      </trkpt>
      <trkpt lat="47.25373" lon="-2.33123">
        <ele>-0.20000000298023</ele>
        <time>2019-08-04T07:06:41.000Z</time>
      </trkpt>
      <trkpt lat="47.25375" lon="-2.33131">
        <ele>-4.4000000953674</ele>
        <time>2019-08-04T07:11:07.000Z</time>
      </trkpt>
      <trkpt lat="47.25379" lon="-2.3314">
        <ele>-4.4000000953674</ele>
        <time>2019-08-04T07:11:10.000Z</time>
      </trkpt>
      <trkpt lat="47.25392" lon="-2.33159">
        <ele>-4.4000000953674</ele>
        <time>2019-08-04T07:11:16.000Z</time>
      </trkpt>
      <trkpt lat="47.25406" lon="-2.33187">
        <ele>-4.4000000953674</ele>
        <time>2019-08-04T07:11:23.000Z</time>
      </trkpt>
      <trkpt lat="47.2542" lon="-2.33221">
        <ele>-4.4000000953674</ele>
        <time>2019-08-04T07:11:30.000Z</time>
      </trkpt>
      <trkpt lat="47.25436" lon="-2.33256">
        <ele>-4.4000000953674</ele>
        <time>2019-08-04T07:11:37.000Z</time>
      </trkpt>
      <trkpt lat="47.2545" lon="-2.33293">
        <ele>-4.4000000953674</ele>
        <time>2019-08-04T07:11:44.000Z</time>
      </trkpt>
      <trkpt lat="47.25446" lon="-2.33315">
        <ele>-4.4000000953674</ele>
        <time>2019-08-04T07:11:48.000Z</time>
      </trkpt>
      <trkpt lat="47.25432" lon="-2.33349">
        <ele>-4.4000000953674</ele>
        <time>2019-08-04T07:11:54.000Z</time>
      </trkpt>
      <trkpt lat="47.25433" lon="-2.33356">
        <ele>-4.4000000953674</ele>
        <time>2019-08-04T07:11:55.000Z</time>
      </trkpt>
      <trkpt lat="47.25433" lon="-2.33402">
        <ele>-4.4000000953674</ele>
        <time>2019-08-04T07:12:02.000Z</time>
      </trkpt>
      <trkpt lat="47.25432" lon="-2.3345">
        <ele>-4.4000000953674</ele>
        <time>2019-08-04T07:12:09.000Z</time>
      </trkpt>
      <trkpt lat="47.25433" lon="-2.33463">
        <ele>-4.4000000953674</ele>
        <time>2019-08-04T07:12:11.000Z</time>
      </trkpt>
      <trkpt lat="47.25438" lon="-2.33486">
        <ele>-4.4000000953674</ele>
        <time>2019-08-04T07:12:15.000Z</time>
      </trkpt>
      <trkpt lat="47.25446" lon="-2.3352">
        <ele>-4.4000000953674</ele>
        <time>2019-08-04T07:12:21.000Z</time>
      </trkpt>
      <trkpt lat="47.25456" lon="-2.33568">
        <ele>-4.4000000953674</ele>
        <time>2019-08-04T07:12:29.000Z</time>
      </trkpt>
      <trkpt lat="47.25455" lon="-2.33578">
        <ele>-4.4000000953674</ele>
        <time>2019-08-04T07:12:32.000Z</time>
      </trkpt>
      <trkpt lat="47.25445" lon="-2.33582">
        <ele>-4.4000000953674</ele>
        <time>2019-08-04T07:12:35.000Z</time>
      </trkpt>
      <trkpt lat="47.2544" lon="-2.33595">
        <ele>-4.4000000953674</ele>
        <time>2019-08-04T07:12:39.000Z</time>
      </trkpt>
      <trkpt lat="47.25441" lon="-2.33608">
        <ele>-4.4000000953674</ele>
        <time>2019-08-04T07:12:42.000Z</time>
      </trkpt>
      <trkpt lat="47.25442" lon="-2.33618">
        <ele>-4.8000001907349</ele>
        <time>2019-08-04T07:12:44.000Z</time>
      </trkpt>
      <trkpt lat="47.25443" lon="-2.33623">
        <ele>-5.1999998092651</ele>
        <time>2019-08-04T07:12:45.000Z</time>
      </trkpt>
      <trkpt lat="47.25443" lon="-2.33629">
        <ele>-5.5999999046326</ele>
        <time>2019-08-04T07:12:46.000Z</time>
      </trkpt>
      <trkpt lat="47.25443" lon="-2.33634">
        <ele>-6</ele>
        <time>2019-08-04T07:12:47.000Z</time>
      </trkpt>
      <trkpt lat="47.25444" lon="-2.3364">
        <ele>-6.4000000953674</ele>
        <time>2019-08-04T07:12:48.000Z</time>
      </trkpt>
      <trkpt lat="47.25446" lon="-2.33656">
        <ele>-6.4000000953674</ele>
        <time>2019-08-04T07:12:51.000Z</time>
      </trkpt>
      <trkpt lat="47.2545" lon="-2.33686">
        <ele>-6.4000000953674</ele>
        <time>2019-08-04T07:12:57.000Z</time>
      </trkpt>
      <trkpt lat="47.25454" lon="-2.33718">
        <ele>-6.4000000953674</ele>
        <time>2019-08-04T07:13:05.000Z</time>
      </trkpt>
      <trkpt lat="47.25458" lon="-2.33738">
        <ele>-6.4000000953674</ele>
        <time>2019-08-04T07:13:11.000Z</time>
      </trkpt>
      <trkpt lat="47.25464" lon="-2.33744">
        <ele>-6.4000000953674</ele>
        <time>2019-08-04T07:13:15.000Z</time>
      </trkpt>
      <trkpt lat="47.25483" lon="-2.33753">
        <ele>-6.4000000953674</ele>
        <time>2019-08-04T07:13:21.000Z</time>
      </trkpt>
      <trkpt lat="47.25503" lon="-2.33752">
        <ele>-6.4000000953674</ele>
        <time>2019-08-04T07:13:28.000Z</time>
      </trkpt>
      <trkpt lat="47.25508" lon="-2.33753">
        <ele>-6.4000000953674</ele>
        <time>2019-08-04T07:13:30.000Z</time>
      </trkpt>
      <trkpt lat="47.25516" lon="-2.33755">
        <ele>-6.4000000953674</ele>
        <time>2019-08-04T07:13:33.000Z</time>
      </trkpt>
      <trkpt lat="47.25522" lon="-2.33755">
        <ele>-6.4000000953674</ele>
        <time>2019-08-04T07:13:35.000Z</time>
      </trkpt>
      <trkpt lat="47.25535" lon="-2.33757">
        <ele>-6.4000000953674</ele>
        <time>2019-08-04T07:13:39.000Z</time>
      </trkpt>
      <trkpt lat="47.25553" lon="-2.33756">
        <ele>-6.4000000953674</ele>
        <time>2019-08-04T07:13:45.000Z</time>
      </trkpt>
      <trkpt lat="47.25574" lon="-2.33753">
        <ele>-6.4000000953674</ele>
        <time>2019-08-04T07:13:52.000Z</time>
      </trkpt>
      <trkpt lat="47.25595" lon="-2.33755">
        <ele>-6.4000000953674</ele>
        <time>2019-08-04T07:13:57.000Z</time>
      </trkpt>
      <trkpt lat="47.25603" lon="-2.33757">
        <ele>-6.4000000953674</ele>
        <time>2019-08-04T07:13:59.000Z</time>
      </trkpt>
      <trkpt lat="47.25607" lon="-2.33759">
        <ele>-6.4000000953674</ele>
        <time>2019-08-04T07:14:00.000Z</time>
      </trkpt>
      <trkpt lat="47.25623" lon="-2.33766">
        <ele>-6.4000000953674</ele>
        <time>2019-08-04T07:14:04.000Z</time>
      </trkpt>
      <trkpt lat="47.25627" lon="-2.33768">
        <ele>-6.4000000953674</ele>
        <time>2019-08-04T07:14:05.000Z</time>
      </trkpt>
      <trkpt lat="47.25634" lon="-2.33787">
        <ele>-6.4000000953674</ele>
        <time>2019-08-04T07:14:08.000Z</time>
      </trkpt>
      <trkpt lat="47.25635" lon="-2.33793">
        <ele>-6.4000000953674</ele>
        <time>2019-08-04T07:14:09.000Z</time>
      </trkpt>
      <trkpt lat="47.2564" lon="-2.33827">
        <ele>-6.4000000953674</ele>
        <time>2019-08-04T07:14:14.000Z</time>
      </trkpt>
      <trkpt lat="47.25649" lon="-2.33877">
        <ele>-6.4000000953674</ele>
        <time>2019-08-04T07:14:22.000Z</time>
      </trkpt>
      <trkpt lat="47.25654" lon="-2.33899">
        <ele>-6.4000000953674</ele>
        <time>2019-08-04T07:14:26.000Z</time>
      </trkpt>
      <trkpt lat="47.25657" lon="-2.33917">
        <ele>-6.4000000953674</ele>
        <time>2019-08-04T07:14:29.000Z</time>
      </trkpt>
      <trkpt lat="47.25657" lon="-2.33923">
        <ele>-6.4000000953674</ele>
        <time>2019-08-04T07:14:30.000Z</time>
      </trkpt>
      <trkpt lat="47.25662" lon="-2.33952">
        <ele>-6.4000000953674</ele>
        <time>2019-08-04T07:14:35.000Z</time>
      </trkpt>
      <trkpt lat="47.25663" lon="-2.33969">
        <ele>-6.4000000953674</ele>
        <time>2019-08-04T07:14:38.000Z</time>
      </trkpt>
      <trkpt lat="47.2566" lon="-2.33982">
        <ele>-6.4000000953674</ele>
        <time>2019-08-04T07:14:40.000Z</time>
      </trkpt>
      <trkpt lat="47.25658" lon="-2.33995">
        <ele>-6.4000000953674</ele>
        <time>2019-08-04T07:14:42.000Z</time>
      </trkpt>
      <trkpt lat="47.25656" lon="-2.34007">
        <ele>-6.4000000953674</ele>
        <time>2019-08-04T07:14:44.000Z</time>
      </trkpt>
      <trkpt lat="47.25652" lon="-2.34019">
        <ele>-6.4000000953674</ele>
        <time>2019-08-04T07:14:46.000Z</time>
      </trkpt>
      <trkpt lat="47.25651" lon="-2.34025">
        <ele>-6.4000000953674</ele>
        <time>2019-08-04T07:14:47.000Z</time>
      </trkpt>
      <trkpt lat="47.25647" lon="-2.34057">
        <ele>-6.4000000953674</ele>
        <time>2019-08-04T07:14:52.000Z</time>
      </trkpt>
      <trkpt lat="47.25641" lon="-2.34096">
        <ele>-6.4000000953674</ele>
        <time>2019-08-04T07:14:59.000Z</time>
      </trkpt>
      <trkpt lat="47.25642" lon="-2.34102">
        <ele>-6.4000000953674</ele>
        <time>2019-08-04T07:15:00.000Z</time>
      </trkpt>
      <trkpt lat="47.25645" lon="-2.34129">
        <ele>-6.4000000953674</ele>
        <time>2019-08-04T07:15:04.000Z</time>
      </trkpt>
      <trkpt lat="47.25652" lon="-2.34155">
        <ele>-6.4000000953674</ele>
        <time>2019-08-04T07:15:08.000Z</time>
      </trkpt>
      <trkpt lat="47.25657" lon="-2.34167">
        <ele>-6.4000000953674</ele>
        <time>2019-08-04T07:15:10.000Z</time>
      </trkpt>
      <trkpt lat="47.25671" lon="-2.34193">
        <ele>-6.4000000953674</ele>
        <time>2019-08-04T07:15:15.000Z</time>
      </trkpt>
      <trkpt lat="47.2568" lon="-2.34197">
        <ele>-7.1999998092651</ele>
        <time>2019-08-04T07:15:17.000Z</time>
      </trkpt>
      <trkpt lat="47.25685" lon="-2.34196">
        <ele>-7.5999999046326</ele>
        <time>2019-08-04T07:15:18.000Z</time>
      </trkpt>
      <trkpt lat="47.2569" lon="-2.34194">
        <ele>-8</ele>
        <time>2019-08-04T07:15:19.000Z</time>
      </trkpt>
      <trkpt lat="47.25695" lon="-2.34194">
        <ele>-8.6000003814697</ele>
        <time>2019-08-04T07:15:20.000Z</time>
      </trkpt>
      <trkpt lat="47.257" lon="-2.34194">
        <ele>-8.6000003814697</ele>
        <time>2019-08-04T07:15:21.000Z</time>
      </trkpt>
      <trkpt lat="47.25718" lon="-2.34189">
        <ele>-8.6000003814697</ele>
        <time>2019-08-04T07:15:26.000Z</time>
      </trkpt>
      <trkpt lat="47.25745" lon="-2.34182">
        <ele>-8.6000003814697</ele>
        <time>2019-08-04T07:15:33.000Z</time>
      </trkpt>
      <trkpt lat="47.25774" lon="-2.34176">
        <ele>-8.6000003814697</ele>
        <time>2019-08-04T07:15:40.000Z</time>
      </trkpt>
      <trkpt lat="47.25795" lon="-2.34172">
        <ele>-8.6000003814697</ele>
        <time>2019-08-04T07:15:46.000Z</time>
      </trkpt>
      <trkpt lat="47.2581" lon="-2.34175">
        <ele>-8.6000003814697</ele>
        <time>2019-08-04T07:15:51.000Z</time>
      </trkpt>
      <trkpt lat="47.25828" lon="-2.34176">
        <ele>-8.6000003814697</ele>
        <time>2019-08-04T07:15:57.000Z</time>
      </trkpt>
      <trkpt lat="47.25831" lon="-2.34172">
        <ele>-8.6000003814697</ele>
        <time>2019-08-04T07:15:58.000Z</time>
      </trkpt>
      <trkpt lat="47.25834" lon="-2.34163">
        <ele>-8.6000003814697</ele>
        <time>2019-08-04T07:16:00.000Z</time>
      </trkpt>
      <trkpt lat="47.25845" lon="-2.34162">
        <ele>-8.6000003814697</ele>
        <time>2019-08-04T07:16:04.000Z</time>
      </trkpt>
      <trkpt lat="47.25853" lon="-2.34167">
        <ele>-8.6000003814697</ele>
        <time>2019-08-04T07:16:06.000Z</time>
      </trkpt>
      <trkpt lat="47.25864" lon="-2.34171">
        <ele>-8.6000003814697</ele>
        <time>2019-08-04T07:16:09.000Z</time>
      </trkpt>
      <trkpt lat="47.25867" lon="-2.34173">
        <ele>-9</ele>
        <time>2019-08-04T07:16:10.000Z</time>
      </trkpt>
      <trkpt lat="47.25871" lon="-2.34174">
        <ele>-9.3999996185303</ele>
        <time>2019-08-04T07:16:11.000Z</time>
      </trkpt>
      <trkpt lat="47.25874" lon="-2.34172">
        <ele>-10</ele>
        <time>2019-08-04T07:16:12.000Z</time>
      </trkpt>
      <trkpt lat="47.25875" lon="-2.34168">
        <ele>-10.39999961853</ele>
        <time>2019-08-04T07:16:13.000Z</time>
      </trkpt>
      <trkpt lat="47.25877" lon="-2.34167">
        <ele>-11</ele>
        <time>2019-08-04T07:16:14.000Z</time>
      </trkpt>
      <trkpt lat="47.25886" lon="-2.34158">
        <ele>-11</ele>
        <time>2019-08-04T07:16:17.000Z</time>
      </trkpt>
      <trkpt lat="47.25892" lon="-2.34157">
        <ele>-11</ele>
        <time>2019-08-04T07:16:20.000Z</time>
      </trkpt>
      <trkpt lat="47.25894" lon="-2.34156">
        <ele>-11</ele>
        <time>2019-08-04T07:16:21.000Z</time>
      </trkpt>
      <trkpt lat="47.25912" lon="-2.34147">
        <ele>-11</ele>
        <time>2019-08-04T07:16:26.000Z</time>
      </trkpt>
      <trkpt lat="47.25924" lon="-2.34141">
        <ele>-11</ele>
        <time>2019-08-04T07:16:29.000Z</time>
      </trkpt>
      <trkpt lat="47.25934" lon="-2.34132">
        <ele>-11</ele>
        <time>2019-08-04T07:16:32.000Z</time>
      </trkpt>
      <trkpt lat="47.25958" lon="-2.34115">
        <ele>-11</ele>
        <time>2019-08-04T07:16:39.000Z</time>
      </trkpt>
      <trkpt lat="47.25982" lon="-2.34117">
        <ele>-11</ele>
        <time>2019-08-04T07:16:45.000Z</time>
      </trkpt>
      <trkpt lat="47.2599" lon="-2.3412">
        <ele>-11</ele>
        <time>2019-08-04T07:16:47.000Z</time>
      </trkpt>
      <trkpt lat="47.26006" lon="-2.34128">
        <ele>-11</ele>
        <time>2019-08-04T07:16:51.000Z</time>
      </trkpt>
      <trkpt lat="47.26014" lon="-2.34132">
        <ele>-11</ele>
        <time>2019-08-04T07:16:53.000Z</time>
      </trkpt>
      <trkpt lat="47.2603" lon="-2.34137">
        <ele>-11</ele>
        <time>2019-08-04T07:16:57.000Z</time>
      </trkpt>
      <trkpt lat="47.26059" lon="-2.3415">
        <ele>-11</ele>
        <time>2019-08-04T07:17:04.000Z</time>
      </trkpt>
      <trkpt lat="47.26089" lon="-2.34166">
        <ele>-11</ele>
        <time>2019-08-04T07:17:12.000Z</time>
      </trkpt>
      <trkpt lat="47.26114" lon="-2.34179">
        <ele>-11</ele>
        <time>2019-08-04T07:17:19.000Z</time>
      </trkpt>
      <trkpt lat="47.26129" lon="-2.34187">
        <ele>-11</ele>
        <time>2019-08-04T07:17:24.000Z</time>
      </trkpt>
      <trkpt lat="47.26131" lon="-2.34186">
        <ele>-11</ele>
        <time>2019-08-04T07:17:27.000Z</time>
      </trkpt>
      <trkpt lat="47.26132" lon="-2.34183">
        <ele>-11</ele>
        <time>2019-08-04T07:17:28.000Z</time>
      </trkpt>
      <trkpt lat="47.26132" lon="-2.34176">
        <ele>-11</ele>
        <time>2019-08-04T07:17:30.000Z</time>
      </trkpt>
      <trkpt lat="47.26137" lon="-2.34161">
        <ele>-11</ele>
        <time>2019-08-04T07:17:34.000Z</time>
      </trkpt>
      <trkpt lat="47.26149" lon="-2.3417">
        <ele>-11</ele>
        <time>2019-08-04T07:17:37.000Z</time>
      </trkpt>
      <trkpt lat="47.26157" lon="-2.34179">
        <ele>-11</ele>
        <time>2019-08-04T07:17:39.000Z</time>
      </trkpt>
      <trkpt lat="47.26172" lon="-2.34193">
        <ele>-11</ele>
        <time>2019-08-04T07:17:43.000Z</time>
      </trkpt>
      <trkpt lat="47.26208" lon="-2.34228">
        <ele>-11</ele>
        <time>2019-08-04T07:17:52.000Z</time>
      </trkpt>
      <trkpt lat="47.26231" lon="-2.34251">
        <ele>-10.60000038147</ele>
        <time>2019-08-04T07:17:58.000Z</time>
      </trkpt>
      <trkpt lat="47.26235" lon="-2.34255">
        <ele>-10.199999809265</ele>
        <time>2019-08-04T07:17:59.000Z</time>
      </trkpt>
      <trkpt lat="47.26238" lon="-2.34259">
        <ele>-9.6000003814697</ele>
        <time>2019-08-04T07:18:00.000Z</time>
      </trkpt>
      <trkpt lat="47.26242" lon="-2.34263">
        <ele>-9.1999998092651</ele>
        <time>2019-08-04T07:18:01.000Z</time>
      </trkpt>
      <trkpt lat="47.26246" lon="-2.34267">
        <ele>-8.8000001907349</ele>
        <time>2019-08-04T07:18:02.000Z</time>
      </trkpt>
      <trkpt lat="47.2625" lon="-2.34271">
        <ele>-8.8000001907349</ele>
        <time>2019-08-04T07:18:03.000Z</time>
      </trkpt>
      <trkpt lat="47.26282" lon="-2.34304">
        <ele>-8.8000001907349</ele>
        <time>2019-08-04T07:18:11.000Z</time>
      </trkpt>
      <trkpt lat="47.26317" lon="-2.34342">
        <ele>-8.8000001907349</ele>
        <time>2019-08-04T07:18:20.000Z</time>
      </trkpt>
      <trkpt lat="47.26325" lon="-2.3435">
        <ele>-8.8000001907349</ele>
        <time>2019-08-04T07:18:22.000Z</time>
      </trkpt>
      <trkpt lat="47.26339" lon="-2.34356">
        <ele>-8.8000001907349</ele>
        <time>2019-08-04T07:18:25.000Z</time>
      </trkpt>
      <trkpt lat="47.26353" lon="-2.34375">
        <ele>-8.8000001907349</ele>
        <time>2019-08-04T07:18:29.000Z</time>
      </trkpt>
      <trkpt lat="47.26381" lon="-2.34399">
        <ele>-8.8000001907349</ele>
        <time>2019-08-04T07:18:36.000Z</time>
      </trkpt>
      <trkpt lat="47.26421" lon="-2.34432">
        <ele>-8.8000001907349</ele>
        <time>2019-08-04T07:18:45.000Z</time>
      </trkpt>
      <trkpt lat="47.26429" lon="-2.34438">
        <ele>-8.8000001907349</ele>
        <time>2019-08-04T07:18:47.000Z</time>
      </trkpt>
      <trkpt lat="47.26452" lon="-2.34454">
        <ele>-8.8000001907349</ele>
        <time>2019-08-04T07:18:52.000Z</time>
      </trkpt>
      <trkpt lat="47.265" lon="-2.34489">
        <ele>-8.8000001907349</ele>
        <time>2019-08-04T07:19:03.000Z</time>
      </trkpt>
      <trkpt lat="47.2654" lon="-2.34518">
        <ele>-8.8000001907349</ele>
        <time>2019-08-04T07:19:12.000Z</time>
      </trkpt>
      <trkpt lat="47.26544" lon="-2.34522">
        <ele>-8.8000001907349</ele>
        <time>2019-08-04T07:19:13.000Z</time>
      </trkpt>
      <trkpt lat="47.26547" lon="-2.34527">
        <ele>-8.8000001907349</ele>
        <time>2019-08-04T07:19:14.000Z</time>
      </trkpt>
      <trkpt lat="47.26567" lon="-2.34551">
        <ele>-8.8000001907349</ele>
        <time>2019-08-04T07:19:19.000Z</time>
      </trkpt>
      <trkpt lat="47.26608" lon="-2.34596">
        <ele>-8.8000001907349</ele>
        <time>2019-08-04T07:19:29.000Z</time>
      </trkpt>
      <trkpt lat="47.26644" lon="-2.34641">
        <ele>-8.8000001907349</ele>
        <time>2019-08-04T07:19:38.000Z</time>
      </trkpt>
      <trkpt lat="47.2668" lon="-2.34685">
        <ele>-8.8000001907349</ele>
        <time>2019-08-04T07:19:47.000Z</time>
      </trkpt>
      <trkpt lat="47.26707" lon="-2.34718">
        <ele>-8.8000001907349</ele>
        <time>2019-08-04T07:19:54.000Z</time>
      </trkpt>
      <trkpt lat="47.26723" lon="-2.34736">
        <ele>-8.8000001907349</ele>
        <time>2019-08-04T07:19:58.000Z</time>
      </trkpt>
      <trkpt lat="47.26735" lon="-2.3475">
        <ele>-8.8000001907349</ele>
        <time>2019-08-04T07:20:01.000Z</time>
      </trkpt>
      <trkpt lat="47.26766" lon="-2.3479">
        <ele>-8.8000001907349</ele>
        <time>2019-08-04T07:20:09.000Z</time>
      </trkpt>
      <trkpt lat="47.26778" lon="-2.34804">
        <ele>-8.8000001907349</ele>
        <time>2019-08-04T07:20:12.000Z</time>
      </trkpt>
      <trkpt lat="47.26789" lon="-2.34821">
        <ele>-8.8000001907349</ele>
        <time>2019-08-04T07:20:15.000Z</time>
      </trkpt>
      <trkpt lat="47.26814" lon="-2.34858">
        <ele>-8.8000001907349</ele>
        <time>2019-08-04T07:20:22.000Z</time>
      </trkpt>
      <trkpt lat="47.26839" lon="-2.34896">
        <ele>-8.8000001907349</ele>
        <time>2019-08-04T07:20:29.000Z</time>
      </trkpt>
      <trkpt lat="47.26843" lon="-2.34902">
        <ele>-8.8000001907349</ele>
        <time>2019-08-04T07:20:30.000Z</time>
      </trkpt>
      <trkpt lat="47.26868" lon="-2.3494">
        <ele>-8.8000001907349</ele>
        <time>2019-08-04T07:20:37.000Z</time>
      </trkpt>
      <trkpt lat="47.269" lon="-2.3499">
        <ele>-8.8000001907349</ele>
        <time>2019-08-04T07:20:46.000Z</time>
      </trkpt>
      <trkpt lat="47.26938" lon="-2.35046">
        <ele>-8.8000001907349</ele>
        <time>2019-08-04T07:20:56.000Z</time>
      </trkpt>
      <trkpt lat="47.26974" lon="-2.35101">
        <ele>-8.8000001907349</ele>
        <time>2019-08-04T07:21:06.000Z</time>
      </trkpt>
      <trkpt lat="47.27002" lon="-2.35144">
        <ele>-8.8000001907349</ele>
        <time>2019-08-04T07:21:14.000Z</time>
      </trkpt>
      <trkpt lat="47.27031" lon="-2.35187">
        <ele>-8.8000001907349</ele>
        <time>2019-08-04T07:21:22.000Z</time>
      </trkpt>
      <trkpt lat="47.27055" lon="-2.35227">
        <ele>-8.8000001907349</ele>
        <time>2019-08-04T07:21:29.000Z</time>
      </trkpt>
      <trkpt lat="47.27076" lon="-2.35259">
        <ele>-8.8000001907349</ele>
        <time>2019-08-04T07:21:35.000Z</time>
      </trkpt>
      <trkpt lat="47.27098" lon="-2.35293">
        <ele>-8.8000001907349</ele>
        <time>2019-08-04T07:21:42.000Z</time>
      </trkpt>
      <trkpt lat="47.27125" lon="-2.35337">
        <ele>-8.8000001907349</ele>
        <time>2019-08-04T07:21:51.000Z</time>
      </trkpt>
      <trkpt lat="47.27148" lon="-2.35379">
        <ele>-8.8000001907349</ele>
        <time>2019-08-04T07:21:59.000Z</time>
      </trkpt>
      <trkpt lat="47.27173" lon="-2.35427">
        <ele>-8.8000001907349</ele>
        <time>2019-08-04T07:22:08.000Z</time>
      </trkpt>
      <trkpt lat="47.27197" lon="-2.35469">
        <ele>-8.8000001907349</ele>
        <time>2019-08-04T07:22:16.000Z</time>
      </trkpt>
      <trkpt lat="47.27215" lon="-2.35506">
        <ele>-8.8000001907349</ele>
        <time>2019-08-04T07:22:23.000Z</time>
      </trkpt>
      <trkpt lat="47.27233" lon="-2.35547">
        <ele>-8.8000001907349</ele>
        <time>2019-08-04T07:22:30.000Z</time>
      </trkpt>
      <trkpt lat="47.27253" lon="-2.35588">
        <ele>-8.8000001907349</ele>
        <time>2019-08-04T07:22:37.000Z</time>
      </trkpt>
      <trkpt lat="47.27261" lon="-2.35608">
        <ele>-9.1999998092651</ele>
        <time>2019-08-04T07:22:40.000Z</time>
      </trkpt>
      <trkpt lat="47.27264" lon="-2.35614">
        <ele>-9.6000003814697</ele>
        <time>2019-08-04T07:22:41.000Z</time>
      </trkpt>
      <trkpt lat="47.27267" lon="-2.35621">
        <ele>-10.39999961853</ele>
        <time>2019-08-04T07:22:42.000Z</time>
      </trkpt>
      <trkpt lat="47.2727" lon="-2.35627">
        <ele>-10.800000190735</ele>
        <time>2019-08-04T07:22:43.000Z</time>
      </trkpt>
      <trkpt lat="47.27275" lon="-2.35641">
        <ele>-10.800000190735</ele>
        <time>2019-08-04T07:22:45.000Z</time>
      </trkpt>
      <trkpt lat="47.27283" lon="-2.35661">
        <ele>-10.800000190735</ele>
        <time>2019-08-04T07:22:48.000Z</time>
      </trkpt>
      <trkpt lat="47.2729" lon="-2.35673">
        <ele>-10.800000190735</ele>
        <time>2019-08-04T07:22:50.000Z</time>
      </trkpt>
      <trkpt lat="47.27309" lon="-2.35712">
        <ele>-10.800000190735</ele>
        <time>2019-08-04T07:22:56.000Z</time>
      </trkpt>
      <trkpt lat="47.27312" lon="-2.35718">
        <ele>-10.800000190735</ele>
        <time>2019-08-04T07:22:57.000Z</time>
      </trkpt>
      <trkpt lat="47.27321" lon="-2.35722">
        <ele>-10.800000190735</ele>
        <time>2019-08-04T07:22:59.000Z</time>
      </trkpt>
      <trkpt lat="47.27332" lon="-2.35716">
        <ele>-11.39999961853</ele>
        <time>2019-08-04T07:23:01.000Z</time>
      </trkpt>
      <trkpt lat="47.27338" lon="-2.35712">
        <ele>-11.800000190735</ele>
        <time>2019-08-04T07:23:02.000Z</time>
      </trkpt>
      <trkpt lat="47.27344" lon="-2.35707">
        <ele>-12.199999809265</ele>
        <time>2019-08-04T07:23:03.000Z</time>
      </trkpt>
      <trkpt lat="47.2735" lon="-2.35702">
        <ele>-12.800000190735</ele>
        <time>2019-08-04T07:23:04.000Z</time>
      </trkpt>
      <trkpt lat="47.27355" lon="-2.35698">
        <ele>-13.199999809265</ele>
        <time>2019-08-04T07:23:05.000Z</time>
      </trkpt>
      <trkpt lat="47.27382" lon="-2.35678">
        <ele>-13.199999809265</ele>
        <time>2019-08-04T07:23:10.000Z</time>
      </trkpt>
      <trkpt lat="47.27412" lon="-2.35657">
        <ele>-13.199999809265</ele>
        <time>2019-08-04T07:23:16.000Z</time>
      </trkpt>
      <trkpt lat="47.27427" lon="-2.35663">
        <ele>-13.199999809265</ele>
        <time>2019-08-04T07:23:19.000Z</time>
      </trkpt>
      <trkpt lat="47.27437" lon="-2.35667">
        <ele>-13.199999809265</ele>
        <time>2019-08-04T07:23:21.000Z</time>
      </trkpt>
      <trkpt lat="47.27443" lon="-2.35668">
        <ele>-13.199999809265</ele>
        <time>2019-08-04T07:23:22.000Z</time>
      </trkpt>
      <trkpt lat="47.27448" lon="-2.35669">
        <ele>-13.199999809265</ele>
        <time>2019-08-04T07:23:23.000Z</time>
      </trkpt>
      <trkpt lat="47.27474" lon="-2.35675">
        <ele>-13.199999809265</ele>
        <time>2019-08-04T07:23:28.000Z</time>
      </trkpt>
      <trkpt lat="47.27479" lon="-2.35675">
        <ele>-13.199999809265</ele>
        <time>2019-08-04T07:23:29.000Z</time>
      </trkpt>
      <trkpt lat="47.27511" lon="-2.35683">
        <ele>-13.199999809265</ele>
        <time>2019-08-04T07:23:35.000Z</time>
      </trkpt>
      <trkpt lat="47.27548" lon="-2.35691">
        <ele>-12.800000190735</ele>
        <time>2019-08-04T07:23:42.000Z</time>
      </trkpt>
      <trkpt lat="47.27553" lon="-2.35692">
        <ele>-12.39999961853</ele>
        <time>2019-08-04T07:23:43.000Z</time>
      </trkpt>
      <trkpt lat="47.27559" lon="-2.35693">
        <ele>-12</ele>
        <time>2019-08-04T07:23:44.000Z</time>
      </trkpt>
      <trkpt lat="47.27564" lon="-2.35695">
        <ele>-11.60000038147</ele>
        <time>2019-08-04T07:23:45.000Z</time>
      </trkpt>
      <trkpt lat="47.27569" lon="-2.35696">
        <ele>-11.199999809265</ele>
        <time>2019-08-04T07:23:46.000Z</time>
      </trkpt>
      <trkpt lat="47.276" lon="-2.35704">
        <ele>-11.199999809265</ele>
        <time>2019-08-04T07:23:52.000Z</time>
      </trkpt>
      <trkpt lat="47.27622" lon="-2.35711">
        <ele>-11.199999809265</ele>
        <time>2019-08-04T07:23:56.000Z</time>
      </trkpt>
      <trkpt lat="47.27638" lon="-2.35717">
        <ele>-11.199999809265</ele>
        <time>2019-08-04T07:23:59.000Z</time>
      </trkpt>
      <trkpt lat="47.27659" lon="-2.35723">
        <ele>-11.199999809265</ele>
        <time>2019-08-04T07:24:03.000Z</time>
      </trkpt>
      <trkpt lat="47.27674" lon="-2.35726">
        <ele>-10.800000190735</ele>
        <time>2019-08-04T07:24:06.000Z</time>
      </trkpt>
      <trkpt lat="47.27679" lon="-2.35726">
        <ele>-10.39999961853</ele>
        <time>2019-08-04T07:24:07.000Z</time>
      </trkpt>
      <trkpt lat="47.27684" lon="-2.35727">
        <ele>-10</ele>
        <time>2019-08-04T07:24:08.000Z</time>
      </trkpt>
      <trkpt lat="47.2769" lon="-2.35728">
        <ele>-9.6000003814697</ele>
        <time>2019-08-04T07:24:09.000Z</time>
      </trkpt>
      <trkpt lat="47.27696" lon="-2.35728">
        <ele>-9.1999998092651</ele>
        <time>2019-08-04T07:24:10.000Z</time>
      </trkpt>
      <trkpt lat="47.27712" lon="-2.35721">
        <ele>-9.1999998092651</ele>
        <time>2019-08-04T07:24:13.000Z</time>
      </trkpt>
      <trkpt lat="47.27724" lon="-2.35707">
        <ele>-9.1999998092651</ele>
        <time>2019-08-04T07:24:16.000Z</time>
      </trkpt>
      <trkpt lat="47.27731" lon="-2.35695">
        <ele>-9.1999998092651</ele>
        <time>2019-08-04T07:24:18.000Z</time>
      </trkpt>
      <trkpt lat="47.27736" lon="-2.35683">
        <ele>-8.3999996185303</ele>
        <time>2019-08-04T07:24:20.000Z</time>
      </trkpt>
      <trkpt lat="47.2774" lon="-2.35677">
        <ele>-7.8000001907349</ele>
        <time>2019-08-04T07:24:21.000Z</time>
      </trkpt>
      <trkpt lat="47.27743" lon="-2.35671">
        <ele>-7.4000000953674</ele>
        <time>2019-08-04T07:24:22.000Z</time>
      </trkpt>
      <trkpt lat="47.27747" lon="-2.35665">
        <ele>-7</ele>
        <time>2019-08-04T07:24:23.000Z</time>
      </trkpt>
      <trkpt lat="47.27754" lon="-2.35654">
        <ele>-7</ele>
        <time>2019-08-04T07:24:25.000Z</time>
      </trkpt>
      <trkpt lat="47.27777" lon="-2.35625">
        <ele>-7</ele>
        <time>2019-08-04T07:24:31.000Z</time>
      </trkpt>
      <trkpt lat="47.27781" lon="-2.35622">
        <ele>-7</ele>
        <time>2019-08-04T07:24:32.000Z</time>
      </trkpt>
      <trkpt lat="47.27794" lon="-2.35613">
        <ele>-7</ele>
        <time>2019-08-04T07:24:35.000Z</time>
      </trkpt>
      <trkpt lat="47.27804" lon="-2.35609">
        <ele>-6.5999999046326</ele>
        <time>2019-08-04T07:24:37.000Z</time>
      </trkpt>
      <trkpt lat="47.27809" lon="-2.35607">
        <ele>-6.1999998092651</ele>
        <time>2019-08-04T07:24:38.000Z</time>
      </trkpt>
      <trkpt lat="47.27814" lon="-2.35606">
        <ele>-5.8000001907349</ele>
        <time>2019-08-04T07:24:39.000Z</time>
      </trkpt>
      <trkpt lat="47.27818" lon="-2.35604">
        <ele>-5.4000000953674</ele>
        <time>2019-08-04T07:24:40.000Z</time>
      </trkpt>
      <trkpt lat="47.27823" lon="-2.35602">
        <ele>-5</ele>
        <time>2019-08-04T07:24:41.000Z</time>
      </trkpt>
      <trkpt lat="47.27827" lon="-2.356">
        <ele>-5</ele>
        <time>2019-08-04T07:24:42.000Z</time>
      </trkpt>
      <trkpt lat="47.27841" lon="-2.35596">
        <ele>-5</ele>
        <time>2019-08-04T07:24:45.000Z</time>
      </trkpt>
      <trkpt lat="47.27845" lon="-2.35594">
        <ele>-5</ele>
        <time>2019-08-04T07:24:46.000Z</time>
      </trkpt>
      <trkpt lat="47.27876" lon="-2.35587">
        <ele>-5</ele>
        <time>2019-08-04T07:24:52.000Z</time>
      </trkpt>
      <trkpt lat="47.2789" lon="-2.35585">
        <ele>-4.5999999046326</ele>
        <time>2019-08-04T07:24:55.000Z</time>
      </trkpt>
      <trkpt lat="47.27895" lon="-2.35584">
        <ele>-4.1999998092651</ele>
        <time>2019-08-04T07:24:56.000Z</time>
      </trkpt>
      <trkpt lat="47.27899" lon="-2.35583">
        <ele>-3.7999999523163</ele>
        <time>2019-08-04T07:24:57.000Z</time>
      </trkpt>
      <trkpt lat="47.27905" lon="-2.35582">
        <ele>-3.4000000953674</ele>
        <time>2019-08-04T07:24:58.000Z</time>
      </trkpt>
      <trkpt lat="47.2791" lon="-2.35581">
        <ele>-3</ele>
        <time>2019-08-04T07:24:59.000Z</time>
      </trkpt>
      <trkpt lat="47.27915" lon="-2.3558">
        <ele>-3</ele>
        <time>2019-08-04T07:25:00.000Z</time>
      </trkpt>
      <trkpt lat="47.27947" lon="-2.35573">
        <ele>-3</ele>
        <time>2019-08-04T07:25:06.000Z</time>
      </trkpt>
      <trkpt lat="47.27951" lon="-2.35571">
        <ele>-3</ele>
        <time>2019-08-04T07:25:07.000Z</time>
      </trkpt>
      <trkpt lat="47.27969" lon="-2.35565">
        <ele>-3</ele>
        <time>2019-08-04T07:25:11.000Z</time>
      </trkpt>
      <trkpt lat="47.27996" lon="-2.35555">
        <ele>-2.5999999046326</ele>
        <time>2019-08-04T07:25:17.000Z</time>
      </trkpt>
      <trkpt lat="47.28" lon="-2.35554">
        <ele>-2</ele>
        <time>2019-08-04T07:25:18.000Z</time>
      </trkpt>
      <trkpt lat="47.28005" lon="-2.35555">
        <ele>-1.6000000238419</ele>
        <time>2019-08-04T07:25:19.000Z</time>
      </trkpt>
      <trkpt lat="47.2801" lon="-2.35555">
        <ele>-1.2000000476837</ele>
        <time>2019-08-04T07:25:20.000Z</time>
      </trkpt>
      <trkpt lat="47.28014" lon="-2.35556">
        <ele>-0.80000001192093</ele>
        <time>2019-08-04T07:25:21.000Z</time>
      </trkpt>
      <trkpt lat="47.28023" lon="-2.35559">
        <ele>-0.80000001192093</ele>
        <time>2019-08-04T07:25:23.000Z</time>
      </trkpt>
      <trkpt lat="47.28041" lon="-2.35572">
        <ele>-0.80000001192093</ele>
        <time>2019-08-04T07:25:28.000Z</time>
      </trkpt>
      <trkpt lat="47.28059" lon="-2.35576">
        <ele>-0.80000001192093</ele>
        <time>2019-08-04T07:25:33.000Z</time>
      </trkpt>
      <trkpt lat="47.28067" lon="-2.35584">
        <ele>-0.80000001192093</ele>
        <time>2019-08-04T07:25:36.000Z</time>
      </trkpt>
      <trkpt lat="47.28068" lon="-2.35588">
        <ele>-0.80000001192093</ele>
        <time>2019-08-04T07:25:37.000Z</time>
      </trkpt>
      <trkpt lat="47.28072" lon="-2.35599">
        <ele>-0.80000001192093</ele>
        <time>2019-08-04T07:25:39.000Z</time>
      </trkpt>
      <trkpt lat="47.28074" lon="-2.35611">
        <ele>-0.80000001192093</ele>
        <time>2019-08-04T07:25:41.000Z</time>
      </trkpt>
      <trkpt lat="47.28074" lon="-2.35617">
        <ele>-0.40000000596046</ele>
        <time>2019-08-04T07:25:42.000Z</time>
      </trkpt>
      <trkpt lat="47.28075" lon="-2.35622">
        <ele>22.6</ele>
        <time>2019-08-04T07:25:43.000Z</time>
      </trkpt>
      <trkpt lat="47.28076" lon="-2.35626">
        <ele>0.40000000596046</ele>
        <time>2019-08-04T07:25:44.000Z</time>
      </trkpt>
      <trkpt lat="47.28077" lon="-2.35629">
        <ele>0.80000001192093</ele>
        <time>2019-08-04T07:25:45.000Z</time>
      </trkpt>
      <trkpt lat="47.28077" lon="-2.35632">
        <ele>1.3999999761581</ele>
        <time>2019-08-04T07:25:46.000Z</time>
      </trkpt>
      <trkpt lat="47.28081" lon="-2.35644">
        <ele>1.7999999523163</ele>
        <time>2019-08-04T07:25:49.000Z</time>
      </trkpt>
      <trkpt lat="47.28083" lon="-2.35648">
        <ele>2.2000000476837</ele>
        <time>2019-08-04T07:25:50.000Z</time>
      </trkpt>
      <trkpt lat="47.28084" lon="-2.35652">
        <ele>2.7999999523163</ele>
        <time>2019-08-04T07:25:51.000Z</time>
      </trkpt>
      <trkpt lat="47.28084" lon="-2.35656">
        <ele>3.2000000476837</ele>
        <time>2019-08-04T07:25:52.000Z</time>
      </trkpt>
      <trkpt lat="47.28085" lon="-2.35661">
        <ele>3.5999999046326</ele>
        <time>2019-08-04T07:25:53.000Z</time>
      </trkpt>
      <trkpt lat="47.28087" lon="-2.35673">
        <ele>4.1999998092651</ele>
        <time>2019-08-04T07:25:56.000Z</time>
      </trkpt>
      <trkpt lat="47.28088" lon="-2.35677">
        <ele>5</ele>
        <time>2019-08-04T07:25:57.000Z</time>
      </trkpt>
      <trkpt lat="47.28089" lon="-2.35681">
        <ele>5.4000000953674</ele>
        <time>2019-08-04T07:25:58.000Z</time>
      </trkpt>
      <trkpt lat="47.28089" lon="-2.35684">
        <ele>5.8000001907349</ele>
        <time>2019-08-04T07:25:59.000Z</time>
      </trkpt>
      <trkpt lat="47.2809" lon="-2.35688">
        <ele>5.8000001907349</ele>
        <time>2019-08-04T07:26:00.000Z</time>
      </trkpt>
      <trkpt lat="47.28093" lon="-2.35701">
        <ele>5.8000001907349</ele>
        <time>2019-08-04T07:26:04.000Z</time>
      </trkpt>
      <trkpt lat="47.28092" lon="-2.35713">
        <ele>5.8000001907349</ele>
        <time>2019-08-04T07:26:07.000Z</time>
      </trkpt>
      <trkpt lat="47.28085" lon="-2.3574">
        <ele>5.8000001907349</ele>
        <time>2019-08-04T07:26:13.000Z</time>
      </trkpt>
      <trkpt lat="47.28076" lon="-2.35769">
        <ele>5.8000001907349</ele>
        <time>2019-08-04T07:26:19.000Z</time>
      </trkpt>
      <trkpt lat="47.28074" lon="-2.35792">
        <ele>5.4000000953674</ele>
        <time>2019-08-04T07:26:23.000Z</time>
      </trkpt>
      <trkpt lat="47.28074" lon="-2.35797">
        <ele>4.8000001907349</ele>
        <time>2019-08-04T07:26:24.000Z</time>
      </trkpt>
      <trkpt lat="47.28076" lon="-2.35803">
        <ele>4.4000000953674</ele>
        <time>2019-08-04T07:26:25.000Z</time>
      </trkpt>
      <trkpt lat="47.28077" lon="-2.3581">
        <ele>4</ele>
        <time>2019-08-04T07:26:26.000Z</time>
      </trkpt>
      <trkpt lat="47.28081" lon="-2.35817">
        <ele>3.5999999046326</ele>
        <time>2019-08-04T07:26:27.000Z</time>
      </trkpt>
      <trkpt lat="47.28089" lon="-2.35831">
        <ele>3.5999999046326</ele>
        <time>2019-08-04T07:26:29.000Z</time>
      </trkpt>
      <trkpt lat="47.28107" lon="-2.35859">
        <ele>3.5999999046326</ele>
        <time>2019-08-04T07:26:34.000Z</time>
      </trkpt>
      <trkpt lat="47.28131" lon="-2.35894">
        <ele>3.5999999046326</ele>
        <time>2019-08-04T07:26:42.000Z</time>
      </trkpt>
      <trkpt lat="47.28151" lon="-2.35924">
        <ele>3.5999999046326</ele>
        <time>2019-08-04T07:26:48.000Z</time>
      </trkpt>
      <trkpt lat="47.28154" lon="-2.35929">
        <ele>3.5999999046326</ele>
        <time>2019-08-04T07:26:49.000Z</time>
      </trkpt>
      <trkpt lat="47.28167" lon="-2.35951">
        <ele>3.5999999046326</ele>
        <time>2019-08-04T07:26:53.000Z</time>
      </trkpt>
      <trkpt lat="47.28173" lon="-2.35965">
        <ele>3</ele>
        <time>2019-08-04T07:26:55.000Z</time>
      </trkpt>
      <trkpt lat="47.28176" lon="-2.3597">
        <ele>2.5999999046326</ele>
        <time>2019-08-04T07:26:56.000Z</time>
      </trkpt>
      <trkpt lat="47.28179" lon="-2.35976">
        <ele>2.2000000476837</ele>
        <time>2019-08-04T07:26:57.000Z</time>
      </trkpt>
      <trkpt lat="47.28182" lon="-2.35982">
        <ele>1.6000000238419</ele>
        <time>2019-08-04T07:26:58.000Z</time>
      </trkpt>
      <trkpt lat="47.28184" lon="-2.35988">
        <ele>1.2000000476837</ele>
        <time>2019-08-04T07:26:59.000Z</time>
      </trkpt>
      <trkpt lat="47.28189" lon="-2.36001">
        <ele>1.2000000476837</ele>
        <time>2019-08-04T07:27:01.000Z</time>
      </trkpt>
      <trkpt lat="47.28193" lon="-2.36014">
        <ele>1.2000000476837</ele>
        <time>2019-08-04T07:27:03.000Z</time>
      </trkpt>
      <trkpt lat="47.28202" lon="-2.3605">
        <ele>1.2000000476837</ele>
        <time>2019-08-04T07:27:08.000Z</time>
      </trkpt>
      <trkpt lat="47.28215" lon="-2.36091">
        <ele>1.2000000476837</ele>
        <time>2019-08-04T07:27:15.000Z</time>
      </trkpt>
      <trkpt lat="47.28224" lon="-2.36114">
        <ele>1.2000000476837</ele>
        <time>2019-08-04T07:27:20.000Z</time>
      </trkpt>
      <trkpt lat="47.28232" lon="-2.3614">
        <ele>1.2000000476837</ele>
        <time>2019-08-04T07:27:25.000Z</time>
      </trkpt>
      <trkpt lat="47.28239" lon="-2.36157">
        <ele>1.2000000476837</ele>
        <time>2019-08-04T07:27:28.000Z</time>
      </trkpt>
      <trkpt lat="47.28243" lon="-2.36169">
        <ele>1.2000000476837</ele>
        <time>2019-08-04T07:27:30.000Z</time>
      </trkpt>
      <trkpt lat="47.28254" lon="-2.36194">
        <ele>1.2000000476837</ele>
        <time>2019-08-04T07:27:35.000Z</time>
      </trkpt>
      <trkpt lat="47.28265" lon="-2.36222">
        <ele>1.2000000476837</ele>
        <time>2019-08-04T07:27:40.000Z</time>
      </trkpt>
      <trkpt lat="47.28274" lon="-2.36239">
        <ele>1.2000000476837</ele>
        <time>2019-08-04T07:27:43.000Z</time>
      </trkpt>
      <trkpt lat="47.28282" lon="-2.36244">
        <ele>1.2000000476837</ele>
        <time>2019-08-04T07:27:45.000Z</time>
      </trkpt>
      <trkpt lat="47.2829" lon="-2.36245">
        <ele>1.2000000476837</ele>
        <time>2019-08-04T07:27:47.000Z</time>
      </trkpt>
      <trkpt lat="47.28298" lon="-2.36249">
        <ele>1.2000000476837</ele>
        <time>2019-08-04T07:27:50.000Z</time>
      </trkpt>
      <trkpt lat="47.2831" lon="-2.36248">
        <ele>1.2000000476837</ele>
        <time>2019-08-04T07:27:56.000Z</time>
      </trkpt>
      <trkpt lat="47.28327" lon="-2.36254">
        <ele>1.2000000476837</ele>
        <time>2019-08-04T07:28:02.000Z</time>
      </trkpt>
      <trkpt lat="47.28346" lon="-2.36261">
        <ele>1.6000000238419</ele>
        <time>2019-08-04T07:28:08.000Z</time>
      </trkpt>
      <trkpt lat="47.28349" lon="-2.36262">
        <ele>2</ele>
        <time>2019-08-04T07:28:09.000Z</time>
      </trkpt>
      <trkpt lat="47.28351" lon="-2.36263">
        <ele>2.4000000953674</ele>
        <time>2019-08-04T07:28:10.000Z</time>
      </trkpt>
      <trkpt lat="47.28353" lon="-2.36264">
        <ele>2.7999999523163</ele>
        <time>2019-08-04T07:28:11.000Z</time>
      </trkpt>
      <trkpt lat="47.28355" lon="-2.36265">
        <ele>3.4000000953674</ele>
        <time>2019-08-04T07:28:12.000Z</time>
      </trkpt>
      <trkpt lat="47.28358" lon="-2.36267">
        <ele>3.4000000953674</ele>
        <time>2019-08-04T07:28:14.000Z</time>
      </trkpt>
      <trkpt lat="47.28359" lon="-2.36268">
        <ele>3.4000000953674</ele>
        <time>2019-08-04T07:28:16.000Z</time>
      </trkpt>
      <trkpt lat="47.28358" lon="-2.36268">
        <ele>3.4000000953674</ele>
        <time>2019-08-04T07:28:22.000Z</time>
      </trkpt>
      <trkpt lat="47.28356" lon="-2.36269">
        <ele>3.4000000953674</ele>
        <time>2019-08-04T07:28:23.000Z</time>
      </trkpt>
      <trkpt lat="47.28351" lon="-2.36279">
        <ele>3.4000000953674</ele>
        <time>2019-08-04T07:28:27.000Z</time>
      </trkpt>
      <trkpt lat="47.2835" lon="-2.36287">
        <ele>3.4000000953674</ele>
        <time>2019-08-04T07:28:30.000Z</time>
      </trkpt>
      <trkpt lat="47.28349" lon="-2.36293">
        <ele>3.4000000953674</ele>
        <time>2019-08-04T07:28:32.000Z</time>
      </trkpt>
      <trkpt lat="47.28352" lon="-2.36298">
        <ele>3.4000000953674</ele>
        <time>2019-08-04T07:28:33.000Z</time>
      </trkpt>
      <trkpt lat="47.28357" lon="-2.36303">
        <ele>3.4000000953674</ele>
        <time>2019-08-04T07:28:35.000Z</time>
      </trkpt>
      <trkpt lat="47.28367" lon="-2.36311">
        <ele>3.4000000953674</ele>
        <time>2019-08-04T07:28:40.000Z</time>
      </trkpt>
      <trkpt lat="47.2837" lon="-2.36314">
        <ele>3.7999999523163</ele>
        <time>2019-08-04T07:28:41.000Z</time>
      </trkpt>
      <trkpt lat="47.28373" lon="-2.36318">
        <ele>4.1999998092651</ele>
        <time>2019-08-04T07:28:42.000Z</time>
      </trkpt>
      <trkpt lat="47.28377" lon="-2.36322">
        <ele>4.5999999046326</ele>
        <time>2019-08-04T07:28:43.000Z</time>
      </trkpt>
      <trkpt lat="47.2838" lon="-2.36325">
        <ele>5</ele>
        <time>2019-08-04T07:28:44.000Z</time>
      </trkpt>
      <trkpt lat="47.28383" lon="-2.36326">
        <ele>5.4000000953674</ele>
        <time>2019-08-04T07:28:45.000Z</time>
      </trkpt>
      <trkpt lat="47.28393" lon="-2.36332">
        <ele>5.4000000953674</ele>
        <time>2019-08-04T07:28:50.000Z</time>
      </trkpt>
      <trkpt lat="47.28394" lon="-2.36334">
        <ele>5.4000000953674</ele>
        <time>2019-08-04T07:28:51.000Z</time>
      </trkpt>
      <trkpt lat="47.28407" lon="-2.36353">
        <ele>5.4000000953674</ele>
        <time>2019-08-04T07:28:56.000Z</time>
      </trkpt>
      <trkpt lat="47.28428" lon="-2.36371">
        <ele>5.8000001907349</ele>
        <time>2019-08-04T07:29:03.000Z</time>
      </trkpt>
      <trkpt lat="47.28432" lon="-2.36375">
        <ele>6.1999998092651</ele>
        <time>2019-08-04T07:29:04.000Z</time>
      </trkpt>
      <trkpt lat="47.28436" lon="-2.36378">
        <ele>6.5999999046326</ele>
        <time>2019-08-04T07:29:05.000Z</time>
      </trkpt>
      <trkpt lat="47.2844" lon="-2.36381">
        <ele>7</ele>
        <time>2019-08-04T07:29:06.000Z</time>
      </trkpt>
      <trkpt lat="47.28443" lon="-2.36384">
        <ele>7.4000000953674</ele>
        <time>2019-08-04T07:29:07.000Z</time>
      </trkpt>
      <trkpt lat="47.28448" lon="-2.36389">
        <ele>7.4000000953674</ele>
        <time>2019-08-04T07:29:09.000Z</time>
      </trkpt>
      <trkpt lat="47.28462" lon="-2.36405">
        <ele>8</ele>
        <time>2019-08-04T07:29:15.000Z</time>
      </trkpt>
      <trkpt lat="47.28463" lon="-2.36406">
        <ele>8.3999996185303</ele>
        <time>2019-08-04T07:29:16.000Z</time>
      </trkpt>
      <trkpt lat="47.28464" lon="-2.36409">
        <ele>8.8000001907349</ele>
        <time>2019-08-04T07:29:17.000Z</time>
      </trkpt>
      <trkpt lat="47.28465" lon="-2.36411">
        <ele>9.1999998092651</ele>
        <time>2019-08-04T07:29:18.000Z</time>
      </trkpt>
      <trkpt lat="47.28468" lon="-2.36415">
        <ele>9.6000003814697</ele>
        <time>2019-08-04T07:29:19.000Z</time>
      </trkpt>
      <trkpt lat="47.28471" lon="-2.36419">
        <ele>9.6000003814697</ele>
        <time>2019-08-04T07:29:20.000Z</time>
      </trkpt>
      <trkpt lat="47.28491" lon="-2.36437">
        <ele>9.6000003814697</ele>
        <time>2019-08-04T07:29:25.000Z</time>
      </trkpt>
      <trkpt lat="47.2851" lon="-2.36457">
        <ele>9.6000003814697</ele>
        <time>2019-08-04T07:29:30.000Z</time>
      </trkpt>
      <trkpt lat="47.28518" lon="-2.36478">
        <ele>9.6000003814697</ele>
        <time>2019-08-04T07:29:35.000Z</time>
      </trkpt>
      <trkpt lat="47.28519" lon="-2.36501">
        <ele>9.6000003814697</ele>
        <time>2019-08-04T07:29:40.000Z</time>
      </trkpt>
      <trkpt lat="47.28518" lon="-2.36504">
        <ele>9.1999998092651</ele>
        <time>2019-08-04T07:29:41.000Z</time>
      </trkpt>
      <trkpt lat="47.28517" lon="-2.36507">
        <ele>8.8000001907349</ele>
        <time>2019-08-04T07:29:42.000Z</time>
      </trkpt>
      <trkpt lat="47.28515" lon="-2.36509">
        <ele>8.3999996185303</ele>
        <time>2019-08-04T07:29:43.000Z</time>
      </trkpt>
      <trkpt lat="47.28513" lon="-2.36511">
        <ele>8</ele>
        <time>2019-08-04T07:29:44.000Z</time>
      </trkpt>
      <trkpt lat="47.28511" lon="-2.36513">
        <ele>7.5999999046326</ele>
        <time>2019-08-04T07:29:45.000Z</time>
      </trkpt>
      <trkpt lat="47.28498" lon="-2.36527">
        <ele>7.5999999046326</ele>
        <time>2019-08-04T07:29:49.000Z</time>
      </trkpt>
      <trkpt lat="47.28493" lon="-2.36533">
        <ele>7.5999999046326</ele>
        <time>2019-08-04T07:29:50.000Z</time>
      </trkpt>
      <trkpt lat="47.2848" lon="-2.36548">
        <ele>7.5999999046326</ele>
        <time>2019-08-04T07:29:53.000Z</time>
      </trkpt>
      <trkpt lat="47.28476" lon="-2.36552">
        <ele>7.1999998092651</ele>
        <time>2019-08-04T07:29:54.000Z</time>
      </trkpt>
      <trkpt lat="47.28473" lon="-2.36558">
        <ele>6.8000001907349</ele>
        <time>2019-08-04T07:29:55.000Z</time>
      </trkpt>
      <trkpt lat="47.28472" lon="-2.36566">
        <ele>6.1999998092651</ele>
        <time>2019-08-04T07:29:56.000Z</time>
      </trkpt>
      <trkpt lat="47.28472" lon="-2.36574">
        <ele>5.8000001907349</ele>
        <time>2019-08-04T07:29:57.000Z</time>
      </trkpt>
      <trkpt lat="47.28474" lon="-2.36581">
        <ele>5.4000000953674</ele>
        <time>2019-08-04T07:29:58.000Z</time>
      </trkpt>
      <trkpt lat="47.28475" lon="-2.36589">
        <ele>5.4000000953674</ele>
        <time>2019-08-04T07:29:59.000Z</time>
      </trkpt>
      <trkpt lat="47.28477" lon="-2.36596">
        <ele>5.4000000953674</ele>
        <time>2019-08-04T07:30:00.000Z</time>
      </trkpt>
      <trkpt lat="47.2848" lon="-2.3661">
        <ele>5.4000000953674</ele>
        <time>2019-08-04T07:30:02.000Z</time>
      </trkpt>
      <trkpt lat="47.28485" lon="-2.36628">
        <ele>5.4000000953674</ele>
        <time>2019-08-04T07:30:05.000Z</time>
      </trkpt>
      <trkpt lat="47.28493" lon="-2.36656">
        <ele>5.4000000953674</ele>
        <time>2019-08-04T07:30:11.000Z</time>
      </trkpt>
      <trkpt lat="47.28497" lon="-2.36664">
        <ele>5.4000000953674</ele>
        <time>2019-08-04T07:30:16.000Z</time>
      </trkpt>
      <trkpt lat="47.28506" lon="-2.36681">
        <ele>5.4000000953674</ele>
        <time>2019-08-04T07:30:21.000Z</time>
      </trkpt>
      <trkpt lat="47.28513" lon="-2.36696">
        <ele>5.4000000953674</ele>
        <time>2019-08-04T07:30:24.000Z</time>
      </trkpt>
      <trkpt lat="47.28517" lon="-2.36701">
        <ele>5.4000000953674</ele>
        <time>2019-08-04T07:30:25.000Z</time>
      </trkpt>
      <trkpt lat="47.28529" lon="-2.36719">
        <ele>5</ele>
        <time>2019-08-04T07:30:28.000Z</time>
      </trkpt>
      <trkpt lat="47.28533" lon="-2.36727">
        <ele>4.1999998092651</ele>
        <time>2019-08-04T07:30:29.000Z</time>
      </trkpt>
      <trkpt lat="47.28537" lon="-2.36735">
        <ele>3.7999999523163</ele>
        <time>2019-08-04T07:30:30.000Z</time>
      </trkpt>
      <trkpt lat="47.28541" lon="-2.36743">
        <ele>3.4000000953674</ele>
        <time>2019-08-04T07:30:31.000Z</time>
      </trkpt>
      <trkpt lat="47.28554" lon="-2.36769">
        <ele>2.7999999523163</ele>
        <time>2019-08-04T07:30:34.000Z</time>
      </trkpt>
      <trkpt lat="47.28557" lon="-2.36776">
        <ele>2.4000000953674</ele>
        <time>2019-08-04T07:30:35.000Z</time>
      </trkpt>
      <trkpt lat="47.28562" lon="-2.36785">
        <ele>2</ele>
        <time>2019-08-04T07:30:36.000Z</time>
      </trkpt>
      <trkpt lat="47.28566" lon="-2.36793">
        <ele>1.6000000238419</ele>
        <time>2019-08-04T07:30:37.000Z</time>
      </trkpt>
      <trkpt lat="47.28571" lon="-2.36801">
        <ele>1.2000000476837</ele>
        <time>2019-08-04T07:30:38.000Z</time>
      </trkpt>
      <trkpt lat="47.28583" lon="-2.36823">
        <ele>0.80000001192093</ele>
        <time>2019-08-04T07:30:41.000Z</time>
      </trkpt>
      <trkpt lat="47.28587" lon="-2.36831">
        <ele>0.40000000596046</ele>
        <time>2019-08-04T07:30:42.000Z</time>
      </trkpt>
      <trkpt lat="47.28591" lon="-2.36838">
        <ele>-0.20000000298023</ele>
        <time>2019-08-04T07:30:43.000Z</time>
      </trkpt>
      <trkpt lat="47.28595" lon="-2.36843">
        <ele>-0.60000002384186</ele>
        <time>2019-08-04T07:30:44.000Z</time>
      </trkpt>
      <trkpt lat="47.28598" lon="-2.36847">
        <ele>-1</ele>
        <time>2019-08-04T07:30:45.000Z</time>
      </trkpt>
      <trkpt lat="47.28603" lon="-2.36849">
        <ele>-1</ele>
        <time>2019-08-04T07:30:46.000Z</time>
      </trkpt>
      <trkpt lat="47.28617" lon="-2.36842">
        <ele>-1</ele>
        <time>2019-08-04T07:30:49.000Z</time>
      </trkpt>
      <trkpt lat="47.28628" lon="-2.36828">
        <ele>-1</ele>
        <time>2019-08-04T07:30:52.000Z</time>
      </trkpt>
      <trkpt lat="47.28631" lon="-2.36824">
        <ele>-1</ele>
        <time>2019-08-04T07:30:53.000Z</time>
      </trkpt>
      <trkpt lat="47.28637" lon="-2.36816">
        <ele>-1</ele>
        <time>2019-08-04T07:30:55.000Z</time>
      </trkpt>
      <trkpt lat="47.28651" lon="-2.36798">
        <ele>-1</ele>
        <time>2019-08-04T07:31:00.000Z</time>
      </trkpt>
      <trkpt lat="47.28658" lon="-2.36792">
        <ele>-1</ele>
        <time>2019-08-04T07:31:03.000Z</time>
      </trkpt>
      <trkpt lat="47.2866" lon="-2.36793">
        <ele>-1</ele>
        <time>2019-08-04T07:31:04.000Z</time>
      </trkpt>
      <trkpt lat="47.28664" lon="-2.36796">
        <ele>-1</ele>
        <time>2019-08-04T07:31:07.000Z</time>
      </trkpt>
      <trkpt lat="47.28665" lon="-2.36797">
        <ele>-1</ele>
        <time>2019-08-04T07:31:08.000Z</time>
      </trkpt>
      <trkpt lat="47.28666" lon="-2.368">
        <ele>-1</ele>
        <time>2019-08-04T07:31:09.000Z</time>
      </trkpt>
      <trkpt lat="47.28673" lon="-2.36815">
        <ele>-1</ele>
        <time>2019-08-04T07:31:14.000Z</time>
      </trkpt>
      <trkpt lat="47.28685" lon="-2.36837">
        <ele>-1</ele>
        <time>2019-08-04T07:31:18.000Z</time>
      </trkpt>
      <trkpt lat="47.28688" lon="-2.36842">
        <ele>-1</ele>
        <time>2019-08-04T07:31:19.000Z</time>
      </trkpt>
      <trkpt lat="47.2869" lon="-2.36848">
        <ele>-1</ele>
        <time>2019-08-04T07:31:20.000Z</time>
      </trkpt>
      <trkpt lat="47.28695" lon="-2.36859">
        <ele>-1</ele>
        <time>2019-08-04T07:31:22.000Z</time>
      </trkpt>
      <trkpt lat="47.28699" lon="-2.36869">
        <ele>-1</ele>
        <time>2019-08-04T07:31:24.000Z</time>
      </trkpt>
      <trkpt lat="47.28708" lon="-2.36889">
        <ele>-1.3999999761581</ele>
        <time>2019-08-04T07:31:29.000Z</time>
      </trkpt>
      <trkpt lat="47.28711" lon="-2.36893">
        <ele>-1.7999999523163</ele>
        <time>2019-08-04T07:31:30.000Z</time>
      </trkpt>
      <trkpt lat="47.28714" lon="-2.36897">
        <ele>-2.2000000476837</ele>
        <time>2019-08-04T07:31:31.000Z</time>
      </trkpt>
      <trkpt lat="47.28718" lon="-2.369">
        <ele>-2.5999999046326</ele>
        <time>2019-08-04T07:31:32.000Z</time>
      </trkpt>
      <trkpt lat="47.28723" lon="-2.36903">
        <ele>-3</ele>
        <time>2019-08-04T07:31:33.000Z</time>
      </trkpt>
      <trkpt lat="47.28727" lon="-2.36907">
        <ele>-3.4000000953674</ele>
        <time>2019-08-04T07:31:34.000Z</time>
      </trkpt>
      <trkpt lat="47.2873" lon="-2.3691">
        <ele>-3.7999999523163</ele>
        <time>2019-08-04T07:31:35.000Z</time>
      </trkpt>
      <trkpt lat="47.28733" lon="-2.36912">
        <ele>-4.4000000953674</ele>
        <time>2019-08-04T07:31:36.000Z</time>
      </trkpt>
      <trkpt lat="47.28735" lon="-2.36916">
        <ele>-4.8000001907349</ele>
        <time>2019-08-04T07:31:37.000Z</time>
      </trkpt>
      <trkpt lat="47.28737" lon="-2.3692">
        <ele>-5.1999998092651</ele>
        <time>2019-08-04T07:31:38.000Z</time>
      </trkpt>
      <trkpt lat="47.28739" lon="-2.36924">
        <ele>-5.1999998092651</ele>
        <time>2019-08-04T07:31:39.000Z</time>
      </trkpt>
      <trkpt lat="47.28743" lon="-2.36932">
        <ele>-5.1999998092651</ele>
        <time>2019-08-04T07:31:42.000Z</time>
      </trkpt>
      <trkpt lat="47.28743" lon="-2.36942">
        <ele>-4.8000001907349</ele>
        <time>2019-08-04T07:31:45.000Z</time>
      </trkpt>
      <trkpt lat="47.28743" lon="-2.36945">
        <ele>-4.4000000953674</ele>
        <time>2019-08-04T07:31:46.000Z</time>
      </trkpt>
      <trkpt lat="47.28743" lon="-2.36946">
        <ele>-4</ele>
        <time>2019-08-04T07:31:47.000Z</time>
      </trkpt>
      <trkpt lat="47.28744" lon="-2.36948">
        <ele>-3.4000000953674</ele>
        <time>2019-08-04T07:31:48.000Z</time>
      </trkpt>
      <trkpt lat="47.28748" lon="-2.36959">
        <ele>-1</ele>
        <time>2019-08-04T07:31:57.000Z</time>
      </trkpt>
      <trkpt lat="47.28752" lon="-2.36967">
        <ele>-1</ele>
        <time>2019-08-04T07:31:59.000Z</time>
      </trkpt>
      <trkpt lat="47.28763" lon="-2.36982">
        <ele>-1</ele>
        <time>2019-08-04T07:32:04.000Z</time>
      </trkpt>
      <trkpt lat="47.28775" lon="-2.37006">
        <ele>-1</ele>
        <time>2019-08-04T07:32:09.000Z</time>
      </trkpt>
      <trkpt lat="47.28785" lon="-2.37032">
        <ele>-1</ele>
        <time>2019-08-04T07:32:13.000Z</time>
      </trkpt>
      <trkpt lat="47.2879" lon="-2.37045">
        <ele>-1</ele>
        <time>2019-08-04T07:32:15.000Z</time>
      </trkpt>
      <trkpt lat="47.28794" lon="-2.37059">
        <ele>-1.3999999761581</ele>
        <time>2019-08-04T07:32:17.000Z</time>
      </trkpt>
      <trkpt lat="47.28796" lon="-2.37067">
        <ele>-2</ele>
        <time>2019-08-04T07:32:18.000Z</time>
      </trkpt>
      <trkpt lat="47.28798" lon="-2.37075">
        <ele>-2.4000000953674</ele>
        <time>2019-08-04T07:32:19.000Z</time>
      </trkpt>
      <trkpt lat="47.28801" lon="-2.37081">
        <ele>-3</ele>
        <time>2019-08-04T07:32:20.000Z</time>
      </trkpt>
      <trkpt lat="47.28805" lon="-2.37087">
        <ele>-3.5999999046326</ele>
        <time>2019-08-04T07:32:21.000Z</time>
      </trkpt>
      <trkpt lat="47.28809" lon="-2.37093">
        <ele>-4.1999998092651</ele>
        <time>2019-08-04T07:32:22.000Z</time>
      </trkpt>
      <trkpt lat="47.28813" lon="-2.37098">
        <ele>-4.8000001907349</ele>
        <time>2019-08-04T07:32:23.000Z</time>
      </trkpt>
      <trkpt lat="47.28816" lon="-2.37102">
        <ele>-5.4000000953674</ele>
        <time>2019-08-04T07:32:24.000Z</time>
      </trkpt>
      <trkpt lat="47.28818" lon="-2.37103">
        <ele>-5.8000001907349</ele>
        <time>2019-08-04T07:32:25.000Z</time>
      </trkpt>
      <trkpt lat="47.28821" lon="-2.37103">
        <ele>-6.1999998092651</ele>
        <time>2019-08-04T07:32:26.000Z</time>
      </trkpt>
      <trkpt lat="47.28823" lon="-2.37103">
        <ele>-6.8000001907349</ele>
        <time>2019-08-04T07:32:27.000Z</time>
      </trkpt>
      <trkpt lat="47.28824" lon="-2.37103">
        <ele>-7.4000000953674</ele>
        <time>2019-08-04T07:32:28.000Z</time>
      </trkpt>
      <trkpt lat="47.28825" lon="-2.37104">
        <ele>-8</ele>
        <time>2019-08-04T07:32:29.000Z</time>
      </trkpt>
      <trkpt lat="47.28827" lon="-2.37104">
        <ele>-8.6000003814697</ele>
        <time>2019-08-04T07:32:30.000Z</time>
      </trkpt>
      <trkpt lat="47.28828" lon="-2.37105">
        <ele>-9.1999998092651</ele>
        <time>2019-08-04T07:32:31.000Z</time>
      </trkpt>
      <trkpt lat="47.2883" lon="-2.37106">
        <ele>-9.8000001907349</ele>
        <time>2019-08-04T07:32:32.000Z</time>
      </trkpt>
      <trkpt lat="47.28831" lon="-2.37108">
        <ele>-9.8000001907349</ele>
        <time>2019-08-04T07:32:33.000Z</time>
      </trkpt>
      <trkpt lat="47.28832" lon="-2.3711">
        <ele>-9.8000001907349</ele>
        <time>2019-08-04T07:32:34.000Z</time>
      </trkpt>
      <trkpt lat="47.28837" lon="-2.37133">
        <ele>-9.8000001907349</ele>
        <time>2019-08-04T07:32:39.000Z</time>
      </trkpt>
      <trkpt lat="47.28838" lon="-2.37141">
        <ele>-9.8000001907349</ele>
        <time>2019-08-04T07:32:40.000Z</time>
      </trkpt>
      <trkpt lat="47.28842" lon="-2.37162">
        <ele>-9.8000001907349</ele>
        <time>2019-08-04T07:32:43.000Z</time>
      </trkpt>
      <trkpt lat="47.28845" lon="-2.37184">
        <ele>-10.199999809265</ele>
        <time>2019-08-04T07:32:46.000Z</time>
      </trkpt>
      <trkpt lat="47.28847" lon="-2.37191">
        <ele>-10.60000038147</ele>
        <time>2019-08-04T07:32:47.000Z</time>
      </trkpt>
      <trkpt lat="47.28848" lon="-2.37198">
        <ele>-11</ele>
        <time>2019-08-04T07:32:48.000Z</time>
      </trkpt>
      <trkpt lat="47.2885" lon="-2.37205">
        <ele>-11.39999961853</ele>
        <time>2019-08-04T07:32:49.000Z</time>
      </trkpt>
      <trkpt lat="47.28851" lon="-2.37213">
        <ele>-11.800000190735</ele>
        <time>2019-08-04T07:32:50.000Z</time>
      </trkpt>
      <trkpt lat="47.28855" lon="-2.37226">
        <ele>-11.800000190735</ele>
        <time>2019-08-04T07:32:52.000Z</time>
      </trkpt>
      <trkpt lat="47.28856" lon="-2.37241">
        <ele>-11.800000190735</ele>
        <time>2019-08-04T07:32:54.000Z</time>
      </trkpt>
      <trkpt lat="47.28857" lon="-2.37249">
        <ele>-11.800000190735</ele>
        <time>2019-08-04T07:32:55.000Z</time>
      </trkpt>
      <trkpt lat="47.28858" lon="-2.37271">
        <ele>-11.800000190735</ele>
        <time>2019-08-04T07:32:58.000Z</time>
      </trkpt>
      <trkpt lat="47.28859" lon="-2.37278">
        <ele>-11.800000190735</ele>
        <time>2019-08-04T07:32:59.000Z</time>
      </trkpt>
      <trkpt lat="47.28863" lon="-2.37304">
        <ele>-11.800000190735</ele>
        <time>2019-08-04T07:33:03.000Z</time>
      </trkpt>
      <trkpt lat="47.28864" lon="-2.37316">
        <ele>-11.800000190735</ele>
        <time>2019-08-04T07:33:05.000Z</time>
      </trkpt>
      <trkpt lat="47.28869" lon="-2.37355">
        <ele>-11.800000190735</ele>
        <time>2019-08-04T07:33:11.000Z</time>
      </trkpt>
      <trkpt lat="47.28876" lon="-2.3741">
        <ele>-11.800000190735</ele>
        <time>2019-08-04T07:33:19.000Z</time>
      </trkpt>
      <trkpt lat="47.28877" lon="-2.37416">
        <ele>-11.800000190735</ele>
        <time>2019-08-04T07:33:20.000Z</time>
      </trkpt>
      <trkpt lat="47.28883" lon="-2.37449">
        <ele>-11.800000190735</ele>
        <time>2019-08-04T07:33:25.000Z</time>
      </trkpt>
      <trkpt lat="47.28889" lon="-2.37486">
        <ele>-11.800000190735</ele>
        <time>2019-08-04T07:33:31.000Z</time>
      </trkpt>
      <trkpt lat="47.28891" lon="-2.37503">
        <ele>-12.199999809265</ele>
        <time>2019-08-04T07:33:34.000Z</time>
      </trkpt>
      <trkpt lat="47.28891" lon="-2.37509">
        <ele>-12.60000038147</ele>
        <time>2019-08-04T07:33:35.000Z</time>
      </trkpt>
      <trkpt lat="47.28892" lon="-2.37515">
        <ele>-13</ele>
        <time>2019-08-04T07:33:36.000Z</time>
      </trkpt>
      <trkpt lat="47.28892" lon="-2.37518">
        <ele>-13.39999961853</ele>
        <time>2019-08-04T07:33:37.000Z</time>
      </trkpt>
      <trkpt lat="47.28892" lon="-2.3752">
        <ele>-13.800000190735</ele>
        <time>2019-08-04T07:33:38.000Z</time>
      </trkpt>
      <trkpt lat="47.28891" lon="-2.37526">
        <ele>-13.800000190735</ele>
        <time>2019-08-04T07:33:41.000Z</time>
      </trkpt>
      <trkpt lat="47.2889" lon="-2.37532">
        <ele>-13.800000190735</ele>
        <time>2019-08-04T07:33:43.000Z</time>
      </trkpt>
      <trkpt lat="47.28888" lon="-2.37546">
        <ele>-13.800000190735</ele>
        <time>2019-08-04T07:33:47.000Z</time>
      </trkpt>
      <trkpt lat="47.28894" lon="-2.37554">
        <ele>-13.800000190735</ele>
        <time>2019-08-04T07:33:51.000Z</time>
      </trkpt>
      <trkpt lat="47.28899" lon="-2.37568">
        <ele>-13.800000190735</ele>
        <time>2019-08-04T07:33:54.000Z</time>
      </trkpt>
      <trkpt lat="47.28902" lon="-2.3758">
        <ele>-13.800000190735</ele>
        <time>2019-08-04T07:33:56.000Z</time>
      </trkpt>
      <trkpt lat="47.28904" lon="-2.37599">
        <ele>-13.800000190735</ele>
        <time>2019-08-04T07:33:59.000Z</time>
      </trkpt>
      <trkpt lat="47.28909" lon="-2.37638">
        <ele>-13.800000190735</ele>
        <time>2019-08-04T07:34:05.000Z</time>
      </trkpt>
      <trkpt lat="47.28918" lon="-2.37647">
        <ele>-13.800000190735</ele>
        <time>2019-08-04T07:34:08.000Z</time>
      </trkpt>
      <trkpt lat="47.28923" lon="-2.37647">
        <ele>-13.800000190735</ele>
        <time>2019-08-04T07:34:09.000Z</time>
      </trkpt>
      <trkpt lat="47.28932" lon="-2.37647">
        <ele>-13.800000190735</ele>
        <time>2019-08-04T07:34:13.000Z</time>
      </trkpt>
      <trkpt lat="47.28933" lon="-2.37647">
        <ele>-13.800000190735</ele>
        <time>2019-08-04T07:34:15.000Z</time>
      </trkpt>
      <trkpt lat="47.28938" lon="-2.37646">
        <ele>-13.800000190735</ele>
        <time>2019-08-04T07:34:21.000Z</time>
      </trkpt>
      <trkpt lat="47.2894" lon="-2.37645">
        <ele>-13.800000190735</ele>
        <time>2019-08-04T07:34:22.000Z</time>
      </trkpt>
      <trkpt lat="47.28948" lon="-2.37645">
        <ele>-13.800000190735</ele>
        <time>2019-08-04T07:34:24.000Z</time>
      </trkpt>
      <trkpt lat="47.28956" lon="-2.37648">
        <ele>-13.800000190735</ele>
        <time>2019-08-04T07:34:26.000Z</time>
      </trkpt>
      <trkpt lat="47.28965" lon="-2.37656">
        <ele>-13.800000190735</ele>
        <time>2019-08-04T07:34:28.000Z</time>
      </trkpt>
      <trkpt lat="47.28977" lon="-2.3767">
        <ele>-13.800000190735</ele>
        <time>2019-08-04T07:34:31.000Z</time>
      </trkpt>
      <trkpt lat="47.29006" lon="-2.37706">
        <ele>-13.800000190735</ele>
        <time>2019-08-04T07:34:39.000Z</time>
      </trkpt>
      <trkpt lat="47.29016" lon="-2.37722">
        <ele>-14.199999809265</ele>
        <time>2019-08-04T07:34:42.000Z</time>
      </trkpt>
      <trkpt lat="47.2902" lon="-2.37726">
        <ele>-14.60000038147</ele>
        <time>2019-08-04T07:34:43.000Z</time>
      </trkpt>
      <trkpt lat="47.29023" lon="-2.37731">
        <ele>-15</ele>
        <time>2019-08-04T07:34:44.000Z</time>
      </trkpt>
      <trkpt lat="47.29027" lon="-2.37736">
        <ele>-15.39999961853</ele>
        <time>2019-08-04T07:34:45.000Z</time>
      </trkpt>
      <trkpt lat="47.2903" lon="-2.37741">
        <ele>-15.800000190735</ele>
        <time>2019-08-04T07:34:46.000Z</time>
      </trkpt>
      <trkpt lat="47.29056" lon="-2.37774">
        <ele>-15.800000190735</ele>
        <time>2019-08-04T07:34:53.000Z</time>
      </trkpt>
      <trkpt lat="47.29061" lon="-2.37779">
        <ele>-15.800000190735</ele>
        <time>2019-08-04T07:34:54.000Z</time>
      </trkpt>
      <trkpt lat="47.29087" lon="-2.37804">
        <ele>-15.800000190735</ele>
        <time>2019-08-04T07:35:00.000Z</time>
      </trkpt>
      <trkpt lat="47.29096" lon="-2.37812">
        <ele>-15.800000190735</ele>
        <time>2019-08-04T07:35:02.000Z</time>
      </trkpt>
      <trkpt lat="47.29113" lon="-2.37828">
        <ele>-15.800000190735</ele>
        <time>2019-08-04T07:35:06.000Z</time>
      </trkpt>
      <trkpt lat="47.29134" lon="-2.37846">
        <ele>-15.800000190735</ele>
        <time>2019-08-04T07:35:11.000Z</time>
      </trkpt>
      <trkpt lat="47.29144" lon="-2.37846">
        <ele>-15.800000190735</ele>
        <time>2019-08-04T07:35:13.000Z</time>
      </trkpt>
      <trkpt lat="47.29162" lon="-2.3783">
        <ele>-15.800000190735</ele>
        <time>2019-08-04T07:35:17.000Z</time>
      </trkpt>
      <trkpt lat="47.29168" lon="-2.37817">
        <ele>-15.800000190735</ele>
        <time>2019-08-04T07:35:19.000Z</time>
      </trkpt>
      <trkpt lat="47.2918" lon="-2.3779">
        <ele>-15.800000190735</ele>
        <time>2019-08-04T07:35:23.000Z</time>
      </trkpt>
      <trkpt lat="47.29196" lon="-2.37757">
        <ele>-15.800000190735</ele>
        <time>2019-08-04T07:35:29.000Z</time>
      </trkpt>
      <trkpt lat="47.29205" lon="-2.37741">
        <ele>-15.800000190735</ele>
        <time>2019-08-04T07:35:32.000Z</time>
      </trkpt>
      <trkpt lat="47.29213" lon="-2.37733">
        <ele>-15.800000190735</ele>
        <time>2019-08-04T07:35:34.000Z</time>
      </trkpt>
      <trkpt lat="47.2922" lon="-2.37727">
        <ele>-15.800000190735</ele>
        <time>2019-08-04T07:35:36.000Z</time>
      </trkpt>
      <trkpt lat="47.29228" lon="-2.37726">
        <ele>-15.39999961853</ele>
        <time>2019-08-04T07:35:38.000Z</time>
      </trkpt>
      <trkpt lat="47.29232" lon="-2.37726">
        <ele>-15</ele>
        <time>2019-08-04T07:35:39.000Z</time>
      </trkpt>
      <trkpt lat="47.29236" lon="-2.37726">
        <ele>-14.60000038147</ele>
        <time>2019-08-04T07:35:40.000Z</time>
      </trkpt>
      <trkpt lat="47.29239" lon="-2.37727">
        <ele>-14.199999809265</ele>
        <time>2019-08-04T07:35:41.000Z</time>
      </trkpt>
      <trkpt lat="47.29242" lon="-2.37727">
        <ele>-13.800000190735</ele>
        <time>2019-08-04T07:35:42.000Z</time>
      </trkpt>
      <trkpt lat="47.29245" lon="-2.37728">
        <ele>-13.800000190735</ele>
        <time>2019-08-04T07:35:43.000Z</time>
      </trkpt>
      <trkpt lat="47.29255" lon="-2.37732">
        <ele>-13.39999961853</ele>
        <time>2019-08-04T07:35:46.000Z</time>
      </trkpt>
      <trkpt lat="47.29258" lon="-2.37734">
        <ele>-13</ele>
        <time>2019-08-04T07:35:47.000Z</time>
      </trkpt>
      <trkpt lat="47.29262" lon="-2.37735">
        <ele>-12.60000038147</ele>
        <time>2019-08-04T07:35:48.000Z</time>
      </trkpt>
      <trkpt lat="47.29266" lon="-2.37737">
        <ele>-12.199999809265</ele>
        <time>2019-08-04T07:35:49.000Z</time>
      </trkpt>
      <trkpt lat="47.29271" lon="-2.37738">
        <ele>-11.800000190735</ele>
        <time>2019-08-04T07:35:50.000Z</time>
      </trkpt>
      <trkpt lat="47.29283" lon="-2.37742">
        <ele>-11.800000190735</ele>
        <time>2019-08-04T07:35:53.000Z</time>
      </trkpt>
      <trkpt lat="47.29287" lon="-2.37742">
        <ele>-11.800000190735</ele>
        <time>2019-08-04T07:35:54.000Z</time>
      </trkpt>
      <trkpt lat="47.29304" lon="-2.37745">
        <ele>-11.800000190735</ele>
        <time>2019-08-04T07:35:59.000Z</time>
      </trkpt>
      <trkpt lat="47.29314" lon="-2.37739">
        <ele>-11.800000190735</ele>
        <time>2019-08-04T07:36:03.000Z</time>
      </trkpt>
      <trkpt lat="47.29317" lon="-2.37738">
        <ele>-11.39999961853</ele>
        <time>2019-08-04T07:36:04.000Z</time>
      </trkpt>
      <trkpt lat="47.2932" lon="-2.37738">
        <ele>-11</ele>
        <time>2019-08-04T07:36:05.000Z</time>
      </trkpt>
      <trkpt lat="47.29323" lon="-2.37739">
        <ele>-10.60000038147</ele>
        <time>2019-08-04T07:36:06.000Z</time>
      </trkpt>
      <trkpt lat="47.29326" lon="-2.37739">
        <ele>-10.199999809265</ele>
        <time>2019-08-04T07:36:07.000Z</time>
      </trkpt>
      <trkpt lat="47.29328" lon="-2.37739">
        <ele>-9.8000001907349</ele>
        <time>2019-08-04T07:36:08.000Z</time>
      </trkpt>
      <trkpt lat="47.29334" lon="-2.37746">
        <ele>-9.8000001907349</ele>
        <time>2019-08-04T07:36:11.000Z</time>
      </trkpt>
      <trkpt lat="47.29337" lon="-2.37771">
        <ele>-9.8000001907349</ele>
        <time>2019-08-04T07:36:15.000Z</time>
      </trkpt>
      <trkpt lat="47.29341" lon="-2.37832">
        <ele>-9.8000001907349</ele>
        <time>2019-08-04T07:36:22.000Z</time>
      </trkpt>
      <trkpt lat="47.29351" lon="-2.37881">
        <ele>-9.8000001907349</ele>
        <time>2019-08-04T07:36:27.000Z</time>
      </trkpt>
      <trkpt lat="47.2936" lon="-2.3791">
        <ele>-10.199999809265</ele>
        <time>2019-08-04T07:36:30.000Z</time>
      </trkpt>
      <trkpt lat="47.29363" lon="-2.3792">
        <ele>-10.60000038147</ele>
        <time>2019-08-04T07:36:31.000Z</time>
      </trkpt>
      <trkpt lat="47.29366" lon="-2.37929">
        <ele>-11</ele>
        <time>2019-08-04T07:36:32.000Z</time>
      </trkpt>
      <trkpt lat="47.29368" lon="-2.37938">
        <ele>-11.39999961853</ele>
        <time>2019-08-04T07:36:33.000Z</time>
      </trkpt>
      <trkpt lat="47.29371" lon="-2.37947">
        <ele>-11.800000190735</ele>
        <time>2019-08-04T07:36:34.000Z</time>
      </trkpt>
      <trkpt lat="47.29383" lon="-2.37983">
        <ele>-11.800000190735</ele>
        <time>2019-08-04T07:36:38.000Z</time>
      </trkpt>
      <trkpt lat="47.29392" lon="-2.38009">
        <ele>-12.199999809265</ele>
        <time>2019-08-04T07:36:41.000Z</time>
      </trkpt>
      <trkpt lat="47.29395" lon="-2.38017">
        <ele>-12.60000038147</ele>
        <time>2019-08-04T07:36:42.000Z</time>
      </trkpt>
      <trkpt lat="47.29399" lon="-2.38026">
        <ele>-13.199999809265</ele>
        <time>2019-08-04T07:36:43.000Z</time>
      </trkpt>
      <trkpt lat="47.29402" lon="-2.38035">
        <ele>-13.60000038147</ele>
        <time>2019-08-04T07:36:44.000Z</time>
      </trkpt>
      <trkpt lat="47.29405" lon="-2.38043">
        <ele>-14</ele>
        <time>2019-08-04T07:36:45.000Z</time>
      </trkpt>
      <trkpt lat="47.29428" lon="-2.38111">
        <ele>-14</ele>
        <time>2019-08-04T07:36:53.000Z</time>
      </trkpt>
      <trkpt lat="47.2943" lon="-2.38119">
        <ele>-14.39999961853</ele>
        <time>2019-08-04T07:36:54.000Z</time>
      </trkpt>
      <trkpt lat="47.29433" lon="-2.38127">
        <ele>-14.800000190735</ele>
        <time>2019-08-04T07:36:55.000Z</time>
      </trkpt>
      <trkpt lat="47.29435" lon="-2.38133">
        <ele>-15.199999809265</ele>
        <time>2019-08-04T07:36:56.000Z</time>
      </trkpt>
      <trkpt lat="47.29437" lon="-2.38139">
        <ele>-15.60000038147</ele>
        <time>2019-08-04T07:36:57.000Z</time>
      </trkpt>
      <trkpt lat="47.29439" lon="-2.38145">
        <ele>-16.200000762939</ele>
        <time>2019-08-04T07:36:58.000Z</time>
      </trkpt>
      <trkpt lat="47.29443" lon="-2.38157">
        <ele>-16.200000762939</ele>
        <time>2019-08-04T07:37:02.000Z</time>
      </trkpt>
      <trkpt lat="47.29448" lon="-2.38158">
        <ele>-16.200000762939</ele>
        <time>2019-08-04T07:37:05.000Z</time>
      </trkpt>
      <trkpt lat="47.29454" lon="-2.38155">
        <ele>-16.200000762939</ele>
        <time>2019-08-04T07:37:08.000Z</time>
      </trkpt>
      <trkpt lat="47.29457" lon="-2.38152">
        <ele>-16.200000762939</ele>
        <time>2019-08-04T07:37:10.000Z</time>
      </trkpt>
      <trkpt lat="47.29469" lon="-2.38144">
        <ele>-16.200000762939</ele>
        <time>2019-08-04T07:37:15.000Z</time>
      </trkpt>
      <trkpt lat="47.29486" lon="-2.38131">
        <ele>-16.200000762939</ele>
        <time>2019-08-04T07:37:21.000Z</time>
      </trkpt>
      <trkpt lat="47.29506" lon="-2.38125">
        <ele>-16.200000762939</ele>
        <time>2019-08-04T07:37:26.000Z</time>
      </trkpt>
      <trkpt lat="47.29532" lon="-2.38126">
        <ele>-15.60000038147</ele>
        <time>2019-08-04T07:37:33.000Z</time>
      </trkpt>
      <trkpt lat="47.29536" lon="-2.38126">
        <ele>-15.199999809265</ele>
        <time>2019-08-04T07:37:34.000Z</time>
      </trkpt>
      <trkpt lat="47.29539" lon="-2.38126">
        <ele>-14.800000190735</ele>
        <time>2019-08-04T07:37:35.000Z</time>
      </trkpt>
      <trkpt lat="47.29543" lon="-2.38125">
        <ele>-14.39999961853</ele>
        <time>2019-08-04T07:37:36.000Z</time>
      </trkpt>
      <trkpt lat="47.29546" lon="-2.38125">
        <ele>-14</ele>
        <time>2019-08-04T07:37:37.000Z</time>
      </trkpt>
      <trkpt lat="47.29555" lon="-2.38124">
        <ele>-14</ele>
        <time>2019-08-04T07:37:40.000Z</time>
      </trkpt>
      <trkpt lat="47.2958" lon="-2.38119">
        <ele>-14</ele>
        <time>2019-08-04T07:37:48.000Z</time>
      </trkpt>
      <trkpt lat="47.29586" lon="-2.38118">
        <ele>-13.60000038147</ele>
        <time>2019-08-04T07:37:50.000Z</time>
      </trkpt>
      <trkpt lat="47.29589" lon="-2.38117">
        <ele>-13.199999809265</ele>
        <time>2019-08-04T07:37:52.000Z</time>
      </trkpt>
      <trkpt lat="47.29592" lon="-2.38117">
        <ele>-12.800000190735</ele>
        <time>2019-08-04T07:37:53.000Z</time>
      </trkpt>
      <trkpt lat="47.29595" lon="-2.38116">
        <ele>-12.39999961853</ele>
        <time>2019-08-04T07:37:54.000Z</time>
      </trkpt>
      <trkpt lat="47.29598" lon="-2.38115">
        <ele>-12</ele>
        <time>2019-08-04T07:37:55.000Z</time>
      </trkpt>
      <trkpt lat="47.29601" lon="-2.38115">
        <ele>-12</ele>
        <time>2019-08-04T07:37:56.000Z</time>
      </trkpt>
      <trkpt lat="47.29629" lon="-2.38105">
        <ele>-12</ele>
        <time>2019-08-04T07:38:05.000Z</time>
      </trkpt>
      <trkpt lat="47.2964" lon="-2.38099">
        <ele>-11.60000038147</ele>
        <time>2019-08-04T07:38:09.000Z</time>
      </trkpt>
      <trkpt lat="47.29643" lon="-2.38098">
        <ele>-11.199999809265</ele>
        <time>2019-08-04T07:38:10.000Z</time>
      </trkpt>
      <trkpt lat="47.29645" lon="-2.38096">
        <ele>-10.800000190735</ele>
        <time>2019-08-04T07:38:11.000Z</time>
      </trkpt>
      <trkpt lat="47.29648" lon="-2.38094">
        <ele>-10.39999961853</ele>
        <time>2019-08-04T07:38:12.000Z</time>
      </trkpt>
      <trkpt lat="47.29651" lon="-2.38093">
        <ele>-9.8000001907349</ele>
        <time>2019-08-04T07:38:13.000Z</time>
      </trkpt>
      <trkpt lat="47.29668" lon="-2.38083">
        <ele>-9.8000001907349</ele>
        <time>2019-08-04T07:38:20.000Z</time>
      </trkpt>
      <trkpt lat="47.2968" lon="-2.38077">
        <ele>-9.3999996185303</ele>
        <time>2019-08-04T07:38:25.000Z</time>
      </trkpt>
      <trkpt lat="47.29682" lon="-2.38075">
        <ele>-9</ele>
        <time>2019-08-04T07:38:26.000Z</time>
      </trkpt>
      <trkpt lat="47.29684" lon="-2.38074">
        <ele>-8.6000003814697</ele>
        <time>2019-08-04T07:38:27.000Z</time>
      </trkpt>
      <trkpt lat="47.29686" lon="-2.38072">
        <ele>-8.1999998092651</ele>
        <time>2019-08-04T07:38:28.000Z</time>
      </trkpt>
      <trkpt lat="47.29689" lon="-2.38071">
        <ele>-7.5999999046326</ele>
        <time>2019-08-04T07:38:29.000Z</time>
      </trkpt>
      <trkpt lat="47.29697" lon="-2.38065">
        <ele>-7.1999998092651</ele>
        <time>2019-08-04T07:38:34.000Z</time>
      </trkpt>
      <trkpt lat="47.29699" lon="-2.38063">
        <ele>-6.8000001907349</ele>
        <time>2019-08-04T07:38:35.000Z</time>
      </trkpt>
      <trkpt lat="47.297" lon="-2.38061">
        <ele>-6.4000000953674</ele>
        <time>2019-08-04T07:38:36.000Z</time>
      </trkpt>
      <trkpt lat="47.29702" lon="-2.38059">
        <ele>-6</ele>
        <time>2019-08-04T07:38:37.000Z</time>
      </trkpt>
      <trkpt lat="47.29704" lon="-2.38057">
        <ele>-5.5999999046326</ele>
        <time>2019-08-04T07:38:38.000Z</time>
      </trkpt>
      <trkpt lat="47.29707" lon="-2.38053">
        <ele>-5.5999999046326</ele>
        <time>2019-08-04T07:38:40.000Z</time>
      </trkpt>
      <trkpt lat="47.29714" lon="-2.38049">
        <ele>-5.1999998092651</ele>
        <time>2019-08-04T07:38:43.000Z</time>
      </trkpt>
      <trkpt lat="47.29716" lon="-2.38047">
        <ele>-4.1999998092651</ele>
        <time>2019-08-04T07:38:44.000Z</time>
      </trkpt>
      <trkpt lat="47.29719" lon="-2.38046">
        <ele>-3.7999999523163</ele>
        <time>2019-08-04T07:38:45.000Z</time>
      </trkpt>
      <trkpt lat="47.29721" lon="-2.38044">
        <ele>-3.4000000953674</ele>
        <time>2019-08-04T07:38:46.000Z</time>
      </trkpt>
      <trkpt lat="47.29725" lon="-2.3804">
        <ele>-2.7999999523163</ele>
        <time>2019-08-04T07:38:48.000Z</time>
      </trkpt>
      <trkpt lat="47.29727" lon="-2.38038">
        <ele>-2.4000000953674</ele>
        <time>2019-08-04T07:38:49.000Z</time>
      </trkpt>
      <trkpt lat="47.29729" lon="-2.38035">
        <ele>-2</ele>
        <time>2019-08-04T07:38:50.000Z</time>
      </trkpt>
      <trkpt lat="47.2973" lon="-2.38033">
        <ele>-1.6000000238419</ele>
        <time>2019-08-04T07:38:51.000Z</time>
      </trkpt>
      <trkpt lat="47.29731" lon="-2.3803">
        <ele>-1</ele>
        <time>2019-08-04T07:38:52.000Z</time>
      </trkpt>
      <trkpt lat="47.29731" lon="-2.38027">
        <ele>-1</ele>
        <time>2019-08-04T07:38:53.000Z</time>
      </trkpt>
      <trkpt lat="47.29731" lon="-2.38024">
        <ele>-1</ele>
        <time>2019-08-04T07:38:54.000Z</time>
      </trkpt>
      <trkpt lat="47.29731" lon="-2.38021">
        <ele>-0.60000002384186</ele>
        <time>2019-08-04T07:38:55.000Z</time>
      </trkpt>
      <trkpt lat="47.29731" lon="-2.38018">
        <ele>-0.20000000298023</ele>
        <time>2019-08-04T07:38:56.000Z</time>
      </trkpt>
      <trkpt lat="47.2973" lon="-2.38015">
        <ele>0.40000000596046</ele>
        <time>2019-08-04T07:38:57.000Z</time>
      </trkpt>
      <trkpt lat="47.2973" lon="-2.38012">
        <ele>0.80000001192093</ele>
        <time>2019-08-04T07:38:58.000Z</time>
      </trkpt>
      <trkpt lat="47.29729" lon="-2.38009">
        <ele>1.2000000476837</ele>
        <time>2019-08-04T07:38:59.000Z</time>
      </trkpt>
      <trkpt lat="47.29729" lon="-2.38003">
        <ele>1.7999999523163</ele>
        <time>2019-08-04T07:39:01.000Z</time>
      </trkpt>
      <trkpt lat="47.29729" lon="-2.38">
        <ele>2.2000000476837</ele>
        <time>2019-08-04T07:39:02.000Z</time>
      </trkpt>
      <trkpt lat="47.29729" lon="-2.37998">
        <ele>2.5999999046326</ele>
        <time>2019-08-04T07:39:03.000Z</time>
      </trkpt>
      <trkpt lat="47.29729" lon="-2.37996">
        <ele>3</ele>
        <time>2019-08-04T07:39:04.000Z</time>
      </trkpt>
      <trkpt lat="47.2973" lon="-2.37993">
        <ele>3.5999999046326</ele>
        <time>2019-08-04T07:39:05.000Z</time>
      </trkpt>
      <trkpt lat="47.29732" lon="-2.37987">
        <ele>4</ele>
        <time>2019-08-04T07:39:07.000Z</time>
      </trkpt>
      <trkpt lat="47.29733" lon="-2.37984">
        <ele>4.4000000953674</ele>
        <time>2019-08-04T07:39:08.000Z</time>
      </trkpt>
      <trkpt lat="47.29734" lon="-2.3798">
        <ele>5.1999998092651</ele>
        <time>2019-08-04T07:39:09.000Z</time>
      </trkpt>
      <trkpt lat="47.29735" lon="-2.37977">
        <ele>5.8000001907349</ele>
        <time>2019-08-04T07:39:10.000Z</time>
      </trkpt>
      <trkpt lat="47.29736" lon="-2.37974">
        <ele>5.8000001907349</ele>
        <time>2019-08-04T07:39:11.000Z</time>
      </trkpt>
      <trkpt lat="47.29737" lon="-2.37968">
        <ele>6.1999998092651</ele>
        <time>2019-08-04T07:39:13.000Z</time>
      </trkpt>
      <trkpt lat="47.29739" lon="-2.37965">
        <ele>6.5999999046326</ele>
        <time>2019-08-04T07:39:14.000Z</time>
      </trkpt>
      <trkpt lat="47.2974" lon="-2.37962">
        <ele>7</ele>
        <time>2019-08-04T07:39:15.000Z</time>
      </trkpt>
      <trkpt lat="47.29741" lon="-2.37959">
        <ele>7.4000000953674</ele>
        <time>2019-08-04T07:39:16.000Z</time>
      </trkpt>
      <trkpt lat="47.29743" lon="-2.37956">
        <ele>7.8000001907349</ele>
        <time>2019-08-04T07:39:17.000Z</time>
      </trkpt>
      <trkpt lat="47.29751" lon="-2.37942">
        <ele>8.1999998092651</ele>
        <time>2019-08-04T07:39:22.000Z</time>
      </trkpt>
      <trkpt lat="47.29753" lon="-2.37939">
        <ele>8.8000001907349</ele>
        <time>2019-08-04T07:39:23.000Z</time>
      </trkpt>
      <trkpt lat="47.29755" lon="-2.37937">
        <ele>9.1999998092651</ele>
        <time>2019-08-04T07:39:24.000Z</time>
      </trkpt>
      <trkpt lat="47.29757" lon="-2.37935">
        <ele>9.6000003814697</ele>
        <time>2019-08-04T07:39:25.000Z</time>
      </trkpt>
      <trkpt lat="47.29759" lon="-2.37933">
        <ele>10</ele>
        <time>2019-08-04T07:39:26.000Z</time>
      </trkpt>
      <trkpt lat="47.29766" lon="-2.37926">
        <ele>10</ele>
        <time>2019-08-04T07:39:29.000Z</time>
      </trkpt>
      <trkpt lat="47.29781" lon="-2.37914">
        <ele>10.39999961853</ele>
        <time>2019-08-04T07:39:35.000Z</time>
      </trkpt>
      <trkpt lat="47.29784" lon="-2.37911">
        <ele>10.800000190735</ele>
        <time>2019-08-04T07:39:36.000Z</time>
      </trkpt>
      <trkpt lat="47.29787" lon="-2.37909">
        <ele>11.199999809265</ele>
        <time>2019-08-04T07:39:37.000Z</time>
      </trkpt>
      <trkpt lat="47.29789" lon="-2.37907">
        <ele>11.60000038147</ele>
        <time>2019-08-04T07:39:38.000Z</time>
      </trkpt>
      <trkpt lat="47.29792" lon="-2.37905">
        <ele>12</ele>
        <time>2019-08-04T07:39:39.000Z</time>
      </trkpt>
      <trkpt lat="47.29796" lon="-2.37903">
        <ele>12</ele>
        <time>2019-08-04T07:39:41.000Z</time>
      </trkpt>
      <trkpt lat="47.29811" lon="-2.3789">
        <ele>12</ele>
        <time>2019-08-04T07:39:47.000Z</time>
      </trkpt>
      <trkpt lat="47.29824" lon="-2.37875">
        <ele>12</ele>
        <time>2019-08-04T07:39:52.000Z</time>
      </trkpt>
      <trkpt lat="47.29835" lon="-2.37862">
        <ele>12</ele>
        <time>2019-08-04T07:39:55.000Z</time>
      </trkpt>
      <trkpt lat="47.29844" lon="-2.3785">
        <ele>12</ele>
        <time>2019-08-04T07:39:57.000Z</time>
      </trkpt>
      <trkpt lat="47.29863" lon="-2.37819">
        <ele>12</ele>
        <time>2019-08-04T07:40:03.000Z</time>
      </trkpt>
      <trkpt lat="47.2987" lon="-2.37815">
        <ele>12</ele>
        <time>2019-08-04T07:40:06.000Z</time>
      </trkpt>
      <trkpt lat="47.29873" lon="-2.37815">
        <ele>12</ele>
        <time>2019-08-04T07:40:07.000Z</time>
      </trkpt>
      <trkpt lat="47.29888" lon="-2.3783">
        <ele>11.60000038147</ele>
        <time>2019-08-04T07:40:11.000Z</time>
      </trkpt>
      <trkpt lat="47.29892" lon="-2.37836">
        <ele>11.199999809265</ele>
        <time>2019-08-04T07:40:12.000Z</time>
      </trkpt>
      <trkpt lat="47.29898" lon="-2.37842">
        <ele>10.800000190735</ele>
        <time>2019-08-04T07:40:13.000Z</time>
      </trkpt>
      <trkpt lat="47.29903" lon="-2.3785">
        <ele>10.39999961853</ele>
        <time>2019-08-04T07:40:14.000Z</time>
      </trkpt>
      <trkpt lat="47.2991" lon="-2.37858">
        <ele>10</ele>
        <time>2019-08-04T07:40:15.000Z</time>
      </trkpt>
      <trkpt lat="47.29929" lon="-2.37881">
        <ele>9.6000003814697</ele>
        <time>2019-08-04T07:40:18.000Z</time>
      </trkpt>
      <trkpt lat="47.29935" lon="-2.37889">
        <ele>9.1999998092651</ele>
        <time>2019-08-04T07:40:19.000Z</time>
      </trkpt>
      <trkpt lat="47.29942" lon="-2.37896">
        <ele>8.8000001907349</ele>
        <time>2019-08-04T07:40:20.000Z</time>
      </trkpt>
      <trkpt lat="47.29948" lon="-2.37904">
        <ele>8.1999998092651</ele>
        <time>2019-08-04T07:40:21.000Z</time>
      </trkpt>
      <trkpt lat="47.29955" lon="-2.37911">
        <ele>7.8000001907349</ele>
        <time>2019-08-04T07:40:22.000Z</time>
      </trkpt>
      <trkpt lat="47.29961" lon="-2.37918">
        <ele>7</ele>
        <time>2019-08-04T07:40:23.000Z</time>
      </trkpt>
      <trkpt lat="47.29967" lon="-2.37925">
        <ele>6.4000000953674</ele>
        <time>2019-08-04T07:40:24.000Z</time>
      </trkpt>
      <trkpt lat="47.29973" lon="-2.37931">
        <ele>6</ele>
        <time>2019-08-04T07:40:25.000Z</time>
      </trkpt>
      <trkpt lat="47.29978" lon="-2.37937">
        <ele>5.5999999046326</ele>
        <time>2019-08-04T07:40:26.000Z</time>
      </trkpt>
      <trkpt lat="47.2999" lon="-2.37946">
        <ele>5.5999999046326</ele>
        <time>2019-08-04T07:40:28.000Z</time>
      </trkpt>
      <trkpt lat="47.30002" lon="-2.37958">
        <ele>5.5999999046326</ele>
        <time>2019-08-04T07:40:31.000Z</time>
      </trkpt>
      <trkpt lat="47.29999" lon="-2.37968">
        <ele>5.5999999046326</ele>
        <time>2019-08-04T07:40:33.000Z</time>
      </trkpt>
      <trkpt lat="47.29993" lon="-2.37979">
        <ele>5.1999998092651</ele>
        <time>2019-08-04T07:40:35.000Z</time>
      </trkpt>
      <trkpt lat="47.29991" lon="-2.37986">
        <ele>4.8000001907349</ele>
        <time>2019-08-04T07:40:36.000Z</time>
      </trkpt>
      <trkpt lat="47.2999" lon="-2.37994">
        <ele>4.1999998092651</ele>
        <time>2019-08-04T07:40:37.000Z</time>
      </trkpt>
      <trkpt lat="47.2999" lon="-2.38002">
        <ele>3.7999999523163</ele>
        <time>2019-08-04T07:40:38.000Z</time>
      </trkpt>
      <trkpt lat="47.29989" lon="-2.38011">
        <ele>3.4000000953674</ele>
        <time>2019-08-04T07:40:39.000Z</time>
      </trkpt>
      <trkpt lat="47.29989" lon="-2.38018">
        <ele>3.4000000953674</ele>
        <time>2019-08-04T07:40:40.000Z</time>
      </trkpt>
      <trkpt lat="47.29989" lon="-2.38033">
        <ele>3.4000000953674</ele>
        <time>2019-08-04T07:40:42.000Z</time>
      </trkpt>
      <trkpt lat="47.29988" lon="-2.38063">
        <ele>3.4000000953674</ele>
        <time>2019-08-04T07:40:47.000Z</time>
      </trkpt>
      <trkpt lat="47.29988" lon="-2.38088">
        <ele>3.4000000953674</ele>
        <time>2019-08-04T07:40:52.000Z</time>
      </trkpt>
      <trkpt lat="47.29988" lon="-2.38125">
        <ele>3.4000000953674</ele>
        <time>2019-08-04T07:41:00.000Z</time>
      </trkpt>
      <trkpt lat="47.2999" lon="-2.38153">
        <ele>3.4000000953674</ele>
        <time>2019-08-04T07:41:07.000Z</time>
      </trkpt>
      <trkpt lat="47.2999" lon="-2.38178">
        <ele>3.7999999523163</ele>
        <time>2019-08-04T07:41:14.000Z</time>
      </trkpt>
      <trkpt lat="47.29991" lon="-2.38181">
        <ele>4.4000000953674</ele>
        <time>2019-08-04T07:41:15.000Z</time>
      </trkpt>
      <trkpt lat="47.29991" lon="-2.38184">
        <ele>4.8000001907349</ele>
        <time>2019-08-04T07:41:16.000Z</time>
      </trkpt>
      <trkpt lat="47.29991" lon="-2.38188">
        <ele>5.1999998092651</ele>
        <time>2019-08-04T07:41:17.000Z</time>
      </trkpt>
      <trkpt lat="47.29991" lon="-2.38191">
        <ele>5.5999999046326</ele>
        <time>2019-08-04T07:41:18.000Z</time>
      </trkpt>
      <trkpt lat="47.29992" lon="-2.38198">
        <ele>5.5999999046326</ele>
        <time>2019-08-04T07:41:20.000Z</time>
      </trkpt>
      <trkpt lat="47.29992" lon="-2.38216">
        <ele>5.5999999046326</ele>
        <time>2019-08-04T07:41:25.000Z</time>
      </trkpt>
      <trkpt lat="47.29993" lon="-2.3824">
        <ele>5.5999999046326</ele>
        <time>2019-08-04T07:41:32.000Z</time>
      </trkpt>
      <trkpt lat="47.29993" lon="-2.38258">
        <ele>5.5999999046326</ele>
        <time>2019-08-04T07:41:38.000Z</time>
      </trkpt>
      <trkpt lat="47.29993" lon="-2.38263">
        <ele>5.5999999046326</ele>
        <time>2019-08-04T07:41:42.000Z</time>
      </trkpt>
      <trkpt lat="47.29993" lon="-2.38257">
        <ele>5.5999999046326</ele>
        <time>2019-08-04T07:42:21.000Z</time>
      </trkpt>
      <trkpt lat="47.29992" lon="-2.38255">
        <ele>5.5999999046326</ele>
        <time>2019-08-04T07:42:22.000Z</time>
      </trkpt>
      <trkpt lat="47.29993" lon="-2.3825">
        <ele>5.5999999046326</ele>
        <time>2019-08-04T07:42:25.000Z</time>
      </trkpt>
      <trkpt lat="47.29995" lon="-2.38249">
        <ele>5.5999999046326</ele>
        <time>2019-08-04T07:42:27.000Z</time>
      </trkpt>
      <trkpt lat="47.29995" lon="-2.38249">
        <ele>5.5999999046326</ele>
        <time>2019-08-04T07:42:29.000Z</time>
      </trkpt>
      <trkpt lat="47.29995" lon="-2.38257">
        <ele>5.5999999046326</ele>
        <time>2019-08-04T07:42:45.000Z</time>
      </trkpt>
      <trkpt lat="47.29995" lon="-2.38259">
        <ele>5.5999999046326</ele>
        <time>2019-08-04T07:42:46.000Z</time>
      </trkpt>
      <trkpt lat="47.29994" lon="-2.38266">
        <ele>5.5999999046326</ele>
        <time>2019-08-04T07:42:49.000Z</time>
      </trkpt>
      <trkpt lat="47.29994" lon="-2.38271">
        <ele>5.5999999046326</ele>
        <time>2019-08-04T07:42:51.000Z</time>
      </trkpt>
      <trkpt lat="47.29994" lon="-2.3828">
        <ele>6</ele>
        <time>2019-08-04T07:42:54.000Z</time>
      </trkpt>
      <trkpt lat="47.29994" lon="-2.38282">
        <ele>6.4000000953674</ele>
        <time>2019-08-04T07:42:55.000Z</time>
      </trkpt>
      <trkpt lat="47.29994" lon="-2.38285">
        <ele>6.8000001907349</ele>
        <time>2019-08-04T07:42:56.000Z</time>
      </trkpt>
      <trkpt lat="47.29994" lon="-2.38287">
        <ele>7.1999998092651</ele>
        <time>2019-08-04T07:42:57.000Z</time>
      </trkpt>
      <trkpt lat="47.29994" lon="-2.38291">
        <ele>7.5999999046326</ele>
        <time>2019-08-04T07:42:58.000Z</time>
      </trkpt>
      <trkpt lat="47.29996" lon="-2.38321">
        <ele>7.5999999046326</ele>
        <time>2019-08-04T07:43:06.000Z</time>
      </trkpt>
      <trkpt lat="47.29998" lon="-2.38352">
        <ele>7.5999999046326</ele>
        <time>2019-08-04T07:43:13.000Z</time>
      </trkpt>
      <trkpt lat="47.3" lon="-2.38393">
        <ele>7.5999999046326</ele>
        <time>2019-08-04T07:43:22.000Z</time>
      </trkpt>
      <trkpt lat="47.30001" lon="-2.38422">
        <ele>7.5999999046326</ele>
        <time>2019-08-04T07:43:29.000Z</time>
      </trkpt>
      <trkpt lat="47.30002" lon="-2.38425">
        <ele>7.5999999046326</ele>
        <time>2019-08-04T07:43:30.000Z</time>
      </trkpt>
      <trkpt lat="47.30004" lon="-2.38434">
        <ele>7.5999999046326</ele>
        <time>2019-08-04T07:43:33.000Z</time>
      </trkpt>
      <trkpt lat="47.30007" lon="-2.38452">
        <ele>7.5999999046326</ele>
        <time>2019-08-04T07:43:39.000Z</time>
      </trkpt>
      <trkpt lat="47.30009" lon="-2.38468">
        <ele>7.5999999046326</ele>
        <time>2019-08-04T07:43:44.000Z</time>
      </trkpt>
      <trkpt lat="47.30012" lon="-2.3849">
        <ele>7.5999999046326</ele>
        <time>2019-08-04T07:43:50.000Z</time>
      </trkpt>
      <trkpt lat="47.30016" lon="-2.38522">
        <ele>7.5999999046326</ele>
        <time>2019-08-04T07:43:56.000Z</time>
      </trkpt>
      <trkpt lat="47.30022" lon="-2.38569">
        <ele>7.5999999046326</ele>
        <time>2019-08-04T07:44:02.000Z</time>
      </trkpt>
      <trkpt lat="47.30023" lon="-2.38577">
        <ele>7.1999998092651</ele>
        <time>2019-08-04T07:44:03.000Z</time>
      </trkpt>
      <trkpt lat="47.30024" lon="-2.38586">
        <ele>6.8000001907349</ele>
        <time>2019-08-04T07:44:04.000Z</time>
      </trkpt>
      <trkpt lat="47.30025" lon="-2.38594">
        <ele>6</ele>
        <time>2019-08-04T07:44:05.000Z</time>
      </trkpt>
      <trkpt lat="47.30025" lon="-2.38602">
        <ele>5.5999999046326</ele>
        <time>2019-08-04T07:44:06.000Z</time>
      </trkpt>
      <trkpt lat="47.30026" lon="-2.38608">
        <ele>5</ele>
        <time>2019-08-04T07:44:07.000Z</time>
      </trkpt>
      <trkpt lat="47.30026" lon="-2.38614">
        <ele>4.5999999046326</ele>
        <time>2019-08-04T07:44:08.000Z</time>
      </trkpt>
      <trkpt lat="47.30026" lon="-2.3862">
        <ele>4.1999998092651</ele>
        <time>2019-08-04T07:44:09.000Z</time>
      </trkpt>
      <trkpt lat="47.30024" lon="-2.38625">
        <ele>3.5999999046326</ele>
        <time>2019-08-04T07:44:10.000Z</time>
      </trkpt>
      <trkpt lat="47.30023" lon="-2.3863">
        <ele>3.2000000476837</ele>
        <time>2019-08-04T07:44:11.000Z</time>
      </trkpt>
      <trkpt lat="47.30023" lon="-2.38637">
        <ele>3.2000000476837</ele>
        <time>2019-08-04T07:44:12.000Z</time>
      </trkpt>
      <trkpt lat="47.30026" lon="-2.38662">
        <ele>3.2000000476837</ele>
        <time>2019-08-04T07:44:16.000Z</time>
      </trkpt>
      <trkpt lat="47.30026" lon="-2.38669">
        <ele>2.7999999523163</ele>
        <time>2019-08-04T07:44:17.000Z</time>
      </trkpt>
      <trkpt lat="47.30026" lon="-2.38677">
        <ele>2.4000000953674</ele>
        <time>2019-08-04T07:44:18.000Z</time>
      </trkpt>
      <trkpt lat="47.30027" lon="-2.38685">
        <ele>2</ele>
        <time>2019-08-04T07:44:19.000Z</time>
      </trkpt>
      <trkpt lat="47.30027" lon="-2.38694">
        <ele>1.6000000238419</ele>
        <time>2019-08-04T07:44:20.000Z</time>
      </trkpt>
      <trkpt lat="47.30026" lon="-2.38702">
        <ele>1.2000000476837</ele>
        <time>2019-08-04T07:44:21.000Z</time>
      </trkpt>
      <trkpt lat="47.30019" lon="-2.38749">
        <ele>0.80000001192093</ele>
        <time>2019-08-04T07:44:26.000Z</time>
      </trkpt>
      <trkpt lat="47.30018" lon="-2.38759">
        <ele>0.40000000596046</ele>
        <time>2019-08-04T07:44:27.000Z</time>
      </trkpt>
      <trkpt lat="47.30017" lon="-2.38769">
        <ele>-0.20000000298023</ele>
        <time>2019-08-04T07:44:28.000Z</time>
      </trkpt>
      <trkpt lat="47.30015" lon="-2.3878">
        <ele>-0.60000002384186</ele>
        <time>2019-08-04T07:44:29.000Z</time>
      </trkpt>
      <trkpt lat="47.30014" lon="-2.38791">
        <ele>-1</ele>
        <time>2019-08-04T07:44:30.000Z</time>
      </trkpt>
      <trkpt lat="47.30013" lon="-2.38802">
        <ele>-1.3999999761581</ele>
        <time>2019-08-04T07:44:31.000Z</time>
      </trkpt>
      <trkpt lat="47.30012" lon="-2.38814">
        <ele>-1.7999999523163</ele>
        <time>2019-08-04T07:44:32.000Z</time>
      </trkpt>
      <trkpt lat="47.30011" lon="-2.38826">
        <ele>-2.2000000476837</ele>
        <time>2019-08-04T07:44:33.000Z</time>
      </trkpt>
      <trkpt lat="47.3001" lon="-2.38839">
        <ele>-2.5999999046326</ele>
        <time>2019-08-04T07:44:34.000Z</time>
      </trkpt>
      <trkpt lat="47.30009" lon="-2.38851">
        <ele>-3</ele>
        <time>2019-08-04T07:44:35.000Z</time>
      </trkpt>
      <trkpt lat="47.30008" lon="-2.38876">
        <ele>-3.4000000953674</ele>
        <time>2019-08-04T07:44:37.000Z</time>
      </trkpt>
      <trkpt lat="47.30008" lon="-2.38889">
        <ele>-3.7999999523163</ele>
        <time>2019-08-04T07:44:38.000Z</time>
      </trkpt>
      <trkpt lat="47.30008" lon="-2.38902">
        <ele>-4.4000000953674</ele>
        <time>2019-08-04T07:44:39.000Z</time>
      </trkpt>
      <trkpt lat="47.30008" lon="-2.38914">
        <ele>-4.8000001907349</ele>
        <time>2019-08-04T07:44:40.000Z</time>
      </trkpt>
      <trkpt lat="47.30008" lon="-2.38926">
        <ele>-5.1999998092651</ele>
        <time>2019-08-04T07:44:41.000Z</time>
      </trkpt>
      <trkpt lat="47.30008" lon="-2.38951">
        <ele>-5.8000001907349</ele>
        <time>2019-08-04T07:44:43.000Z</time>
      </trkpt>
      <trkpt lat="47.30007" lon="-2.3896">
        <ele>-6.1999998092651</ele>
        <time>2019-08-04T07:44:44.000Z</time>
      </trkpt>
      <trkpt lat="47.30007" lon="-2.38968">
        <ele>-6.8000001907349</ele>
        <time>2019-08-04T07:44:45.000Z</time>
      </trkpt>
      <trkpt lat="47.30009" lon="-2.38976">
        <ele>-7.4000000953674</ele>
        <time>2019-08-04T07:44:46.000Z</time>
      </trkpt>
      <trkpt lat="47.30012" lon="-2.38981">
        <ele>-8</ele>
        <time>2019-08-04T07:44:47.000Z</time>
      </trkpt>
      <trkpt lat="47.30015" lon="-2.38985">
        <ele>-8.6000003814697</ele>
        <time>2019-08-04T07:44:48.000Z</time>
      </trkpt>
      <trkpt lat="47.30019" lon="-2.38988">
        <ele>-9.1999998092651</ele>
        <time>2019-08-04T07:44:49.000Z</time>
      </trkpt>
      <trkpt lat="47.30023" lon="-2.38988">
        <ele>-9.8000001907349</ele>
        <time>2019-08-04T07:44:50.000Z</time>
      </trkpt>
      <trkpt lat="47.30039" lon="-2.38975">
        <ele>-9.8000001907349</ele>
        <time>2019-08-04T07:44:53.000Z</time>
      </trkpt>
      <trkpt lat="47.30051" lon="-2.3896">
        <ele>-9.8000001907349</ele>
        <time>2019-08-04T07:44:56.000Z</time>
      </trkpt>
      <trkpt lat="47.30058" lon="-2.38952">
        <ele>-9.8000001907349</ele>
        <time>2019-08-04T07:44:58.000Z</time>
      </trkpt>
      <trkpt lat="47.30085" lon="-2.38928">
        <ele>-9.8000001907349</ele>
        <time>2019-08-04T07:45:05.000Z</time>
      </trkpt>
      <trkpt lat="47.30103" lon="-2.38911">
        <ele>-9.8000001907349</ele>
        <time>2019-08-04T07:45:10.000Z</time>
      </trkpt>
      <trkpt lat="47.3011" lon="-2.38904">
        <ele>-9.8000001907349</ele>
        <time>2019-08-04T07:45:12.000Z</time>
      </trkpt>
      <trkpt lat="47.30113" lon="-2.389">
        <ele>-9.3999996185303</ele>
        <time>2019-08-04T07:45:13.000Z</time>
      </trkpt>
      <trkpt lat="47.30116" lon="-2.38895">
        <ele>-9</ele>
        <time>2019-08-04T07:45:14.000Z</time>
      </trkpt>
      <trkpt lat="47.30119" lon="-2.38888">
        <ele>-8.6000003814697</ele>
        <time>2019-08-04T07:45:15.000Z</time>
      </trkpt>
      <trkpt lat="47.30122" lon="-2.38883">
        <ele>-8.1999998092651</ele>
        <time>2019-08-04T07:45:16.000Z</time>
      </trkpt>
      <trkpt lat="47.30125" lon="-2.38878">
        <ele>-7.8000001907349</ele>
        <time>2019-08-04T07:45:17.000Z</time>
      </trkpt>
      <trkpt lat="47.30141" lon="-2.38851">
        <ele>-7.4000000953674</ele>
        <time>2019-08-04T07:45:22.000Z</time>
      </trkpt>
      <trkpt lat="47.30144" lon="-2.38847">
        <ele>-6.8000001907349</ele>
        <time>2019-08-04T07:45:23.000Z</time>
      </trkpt>
      <trkpt lat="47.30147" lon="-2.38842">
        <ele>-6.4000000953674</ele>
        <time>2019-08-04T07:45:24.000Z</time>
      </trkpt>
      <trkpt lat="47.30151" lon="-2.38837">
        <ele>-6</ele>
        <time>2019-08-04T07:45:25.000Z</time>
      </trkpt>
      <trkpt lat="47.30154" lon="-2.38833">
        <ele>-5.5999999046326</ele>
        <time>2019-08-04T07:45:26.000Z</time>
      </trkpt>
      <trkpt lat="47.30166" lon="-2.38815">
        <ele>-5.5999999046326</ele>
        <time>2019-08-04T07:45:30.000Z</time>
      </trkpt>
      <trkpt lat="47.30169" lon="-2.3881">
        <ele>-5.1999998092651</ele>
        <time>2019-08-04T07:45:31.000Z</time>
      </trkpt>
      <trkpt lat="47.30172" lon="-2.38806">
        <ele>-4.8000001907349</ele>
        <time>2019-08-04T07:45:32.000Z</time>
      </trkpt>
      <trkpt lat="47.30175" lon="-2.38802">
        <ele>-4.4000000953674</ele>
        <time>2019-08-04T07:45:33.000Z</time>
      </trkpt>
      <trkpt lat="47.30178" lon="-2.38797">
        <ele>-4</ele>
        <time>2019-08-04T07:45:34.000Z</time>
      </trkpt>
      <trkpt lat="47.30181" lon="-2.38793">
        <ele>-3.5999999046326</ele>
        <time>2019-08-04T07:45:35.000Z</time>
      </trkpt>
      <trkpt lat="47.30198" lon="-2.38775">
        <ele>-3.2000000476837</ele>
        <time>2019-08-04T07:45:40.000Z</time>
      </trkpt>
      <trkpt lat="47.30201" lon="-2.38772">
        <ele>-2.5999999046326</ele>
        <time>2019-08-04T07:45:41.000Z</time>
      </trkpt>
      <trkpt lat="47.30204" lon="-2.38769">
        <ele>-2.2000000476837</ele>
        <time>2019-08-04T07:45:42.000Z</time>
      </trkpt>
      <trkpt lat="47.30207" lon="-2.38766">
        <ele>-1.7999999523163</ele>
        <time>2019-08-04T07:45:43.000Z</time>
      </trkpt>
      <trkpt lat="47.30211" lon="-2.38765">
        <ele>-1.2000000476837</ele>
        <time>2019-08-04T07:45:44.000Z</time>
      </trkpt>
      <trkpt lat="47.30215" lon="-2.38767">
        <ele>-1.2000000476837</ele>
        <time>2019-08-04T07:45:45.000Z</time>
      </trkpt>
      <trkpt lat="47.30218" lon="-2.3877">
        <ele>-0.80000001192093</ele>
        <time>2019-08-04T07:45:46.000Z</time>
      </trkpt>
      <trkpt lat="47.3022" lon="-2.38772">
        <ele>-0.40000000596046</ele>
        <time>2019-08-04T07:45:47.000Z</time>
      </trkpt>
      <trkpt lat="47.30223" lon="-2.38774">
        <ele>0.20000000298023</ele>
        <time>2019-08-04T07:45:48.000Z</time>
      </trkpt>
      <trkpt lat="47.30226" lon="-2.38776">
        <ele>0.60000002384186</ele>
        <time>2019-08-04T07:45:49.000Z</time>
      </trkpt>
      <trkpt lat="47.30229" lon="-2.38779">
        <ele>1.2000000476837</ele>
        <time>2019-08-04T07:45:50.000Z</time>
      </trkpt>
      <trkpt lat="47.30232" lon="-2.38782">
        <ele>1.6000000238419</ele>
        <time>2019-08-04T07:45:51.000Z</time>
      </trkpt>
      <trkpt lat="47.30234" lon="-2.38785">
        <ele>2</ele>
        <time>2019-08-04T07:45:52.000Z</time>
      </trkpt>
      <trkpt lat="47.30237" lon="-2.38789">
        <ele>2.4000000953674</ele>
        <time>2019-08-04T07:45:53.000Z</time>
      </trkpt>
      <trkpt lat="47.3024" lon="-2.38793">
        <ele>2.7999999523163</ele>
        <time>2019-08-04T07:45:54.000Z</time>
      </trkpt>
      <trkpt lat="47.30241" lon="-2.38796">
        <ele>3.2000000476837</ele>
        <time>2019-08-04T07:45:55.000Z</time>
      </trkpt>
      <trkpt lat="47.30246" lon="-2.38803">
        <ele>3.5999999046326</ele>
        <time>2019-08-04T07:45:57.000Z</time>
      </trkpt>
      <trkpt lat="47.30248" lon="-2.38808">
        <ele>4</ele>
        <time>2019-08-04T07:45:58.000Z</time>
      </trkpt>
      <trkpt lat="47.30251" lon="-2.38813">
        <ele>4.4000000953674</ele>
        <time>2019-08-04T07:45:59.000Z</time>
      </trkpt>
      <trkpt lat="47.30254" lon="-2.38818">
        <ele>5</ele>
        <time>2019-08-04T07:46:00.000Z</time>
      </trkpt>
      <trkpt lat="47.30256" lon="-2.38822">
        <ele>5.4000000953674</ele>
        <time>2019-08-04T07:46:01.000Z</time>
      </trkpt>
      <trkpt lat="47.3026" lon="-2.38832">
        <ele>5.8000001907349</ele>
        <time>2019-08-04T07:46:03.000Z</time>
      </trkpt>
      <trkpt lat="47.30262" lon="-2.38837">
        <ele>6.1999998092651</ele>
        <time>2019-08-04T07:46:04.000Z</time>
      </trkpt>
      <trkpt lat="47.30265" lon="-2.38841">
        <ele>6.5999999046326</ele>
        <time>2019-08-04T07:46:05.000Z</time>
      </trkpt>
      <trkpt lat="47.30267" lon="-2.38846">
        <ele>7</ele>
        <time>2019-08-04T07:46:06.000Z</time>
      </trkpt>
      <trkpt lat="47.30269" lon="-2.38852">
        <ele>7.4000000953674</ele>
        <time>2019-08-04T07:46:07.000Z</time>
      </trkpt>
      <trkpt lat="47.30274" lon="-2.38864">
        <ele>7.4000000953674</ele>
        <time>2019-08-04T07:46:09.000Z</time>
      </trkpt>
      <trkpt lat="47.30288" lon="-2.38905">
        <ele>7.4000000953674</ele>
        <time>2019-08-04T07:46:16.000Z</time>
      </trkpt>
      <trkpt lat="47.30293" lon="-2.38916">
        <ele>7.8000001907349</ele>
        <time>2019-08-04T07:46:18.000Z</time>
      </trkpt>
      <trkpt lat="47.30295" lon="-2.38921">
        <ele>8.1999998092651</ele>
        <time>2019-08-04T07:46:19.000Z</time>
      </trkpt>
      <trkpt lat="47.30297" lon="-2.38927">
        <ele>8.6000003814697</ele>
        <time>2019-08-04T07:46:20.000Z</time>
      </trkpt>
      <trkpt lat="47.30299" lon="-2.38932">
        <ele>9</ele>
        <time>2019-08-04T07:46:21.000Z</time>
      </trkpt>
      <trkpt lat="47.30301" lon="-2.38938">
        <ele>9.3999996185303</ele>
        <time>2019-08-04T07:46:22.000Z</time>
      </trkpt>
      <trkpt lat="47.30308" lon="-2.38953">
        <ele>9.3999996185303</ele>
        <time>2019-08-04T07:46:25.000Z</time>
      </trkpt>
      <trkpt lat="47.30313" lon="-2.38962">
        <ele>9.3999996185303</ele>
        <time>2019-08-04T07:46:27.000Z</time>
      </trkpt>
      <trkpt lat="47.30326" lon="-2.38978">
        <ele>9.3999996185303</ele>
        <time>2019-08-04T07:46:31.000Z</time>
      </trkpt>
      <trkpt lat="47.30331" lon="-2.38988">
        <ele>9.3999996185303</ele>
        <time>2019-08-04T07:46:33.000Z</time>
      </trkpt>
      <trkpt lat="47.30337" lon="-2.39002">
        <ele>9.3999996185303</ele>
        <time>2019-08-04T07:46:36.000Z</time>
      </trkpt>
      <trkpt lat="47.30339" lon="-2.39008">
        <ele>9.3999996185303</ele>
        <time>2019-08-04T07:46:37.000Z</time>
      </trkpt>
      <trkpt lat="47.30346" lon="-2.3903">
        <ele>10</ele>
        <time>2019-08-04T07:46:41.000Z</time>
      </trkpt>
      <trkpt lat="47.30348" lon="-2.39035">
        <ele>10.39999961853</ele>
        <time>2019-08-04T07:46:42.000Z</time>
      </trkpt>
      <trkpt lat="47.30349" lon="-2.3904">
        <ele>10.800000190735</ele>
        <time>2019-08-04T07:46:43.000Z</time>
      </trkpt>
      <trkpt lat="47.30351" lon="-2.39046">
        <ele>11.39999961853</ele>
        <time>2019-08-04T07:46:44.000Z</time>
      </trkpt>
      <trkpt lat="47.30352" lon="-2.39052">
        <ele>11.800000190735</ele>
        <time>2019-08-04T07:46:45.000Z</time>
      </trkpt>
      <trkpt lat="47.30359" lon="-2.39086">
        <ele>11.800000190735</ele>
        <time>2019-08-04T07:46:50.000Z</time>
      </trkpt>
      <trkpt lat="47.30372" lon="-2.39134">
        <ele>11.800000190735</ele>
        <time>2019-08-04T07:46:56.000Z</time>
      </trkpt>
      <trkpt lat="47.30379" lon="-2.39149">
        <ele>11.800000190735</ele>
        <time>2019-08-04T07:46:58.000Z</time>
      </trkpt>
      <trkpt lat="47.30384" lon="-2.39155">
        <ele>11.39999961853</ele>
        <time>2019-08-04T07:46:59.000Z</time>
      </trkpt>
      <trkpt lat="47.30388" lon="-2.39161">
        <ele>11</ele>
        <time>2019-08-04T07:47:00.000Z</time>
      </trkpt>
      <trkpt lat="47.30393" lon="-2.39165">
        <ele>10.60000038147</ele>
        <time>2019-08-04T07:47:01.000Z</time>
      </trkpt>
      <trkpt lat="47.30398" lon="-2.39168">
        <ele>10.199999809265</ele>
        <time>2019-08-04T07:47:02.000Z</time>
      </trkpt>
      <trkpt lat="47.30403" lon="-2.3917">
        <ele>9.8000001907349</ele>
        <time>2019-08-04T07:47:03.000Z</time>
      </trkpt>
      <trkpt lat="47.30414" lon="-2.39171">
        <ele>9.8000001907349</ele>
        <time>2019-08-04T07:47:05.000Z</time>
      </trkpt>
      <trkpt lat="47.30433" lon="-2.39165">
        <ele>9.8000001907349</ele>
        <time>2019-08-04T07:47:09.000Z</time>
      </trkpt>
      <trkpt lat="47.3045" lon="-2.3915">
        <ele>9.8000001907349</ele>
        <time>2019-08-04T07:47:13.000Z</time>
      </trkpt>
      <trkpt lat="47.30454" lon="-2.39145">
        <ele>9.8000001907349</ele>
        <time>2019-08-04T07:47:14.000Z</time>
      </trkpt>
      <trkpt lat="47.30461" lon="-2.39137">
        <ele>10.199999809265</ele>
        <time>2019-08-04T07:47:16.000Z</time>
      </trkpt>
      <trkpt lat="47.30465" lon="-2.39132">
        <ele>10.60000038147</ele>
        <time>2019-08-04T07:47:17.000Z</time>
      </trkpt>
      <trkpt lat="47.30468" lon="-2.39128">
        <ele>11</ele>
        <time>2019-08-04T07:47:18.000Z</time>
      </trkpt>
      <trkpt lat="47.30471" lon="-2.39124">
        <ele>11.39999961853</ele>
        <time>2019-08-04T07:47:19.000Z</time>
      </trkpt>
      <trkpt lat="47.30474" lon="-2.39119">
        <ele>11.800000190735</ele>
        <time>2019-08-04T07:47:20.000Z</time>
      </trkpt>
      <trkpt lat="47.30504" lon="-2.39089">
        <ele>11.800000190735</ele>
        <time>2019-08-04T07:47:28.000Z</time>
      </trkpt>
      <trkpt lat="47.30531" lon="-2.39064">
        <ele>12.199999809265</ele>
        <time>2019-08-04T07:47:35.000Z</time>
      </trkpt>
      <trkpt lat="47.30535" lon="-2.39061">
        <ele>12.60000038147</ele>
        <time>2019-08-04T07:47:36.000Z</time>
      </trkpt>
      <trkpt lat="47.30538" lon="-2.39058">
        <ele>13</ele>
        <time>2019-08-04T07:47:37.000Z</time>
      </trkpt>
      <trkpt lat="47.30541" lon="-2.39055">
        <ele>13.39999961853</ele>
        <time>2019-08-04T07:47:38.000Z</time>
      </trkpt>
      <trkpt lat="47.30544" lon="-2.39051">
        <ele>13.800000190735</ele>
        <time>2019-08-04T07:47:39.000Z</time>
      </trkpt>
      <trkpt lat="47.30551" lon="-2.39044">
        <ele>13.800000190735</ele>
        <time>2019-08-04T07:47:41.000Z</time>
      </trkpt>
      <trkpt lat="47.30569" lon="-2.39022">
        <ele>13.800000190735</ele>
        <time>2019-08-04T07:47:46.000Z</time>
      </trkpt>
      <trkpt lat="47.30576" lon="-2.39012">
        <ele>13.800000190735</ele>
        <time>2019-08-04T07:47:48.000Z</time>
      </trkpt>
      <trkpt lat="47.30584" lon="-2.39002">
        <ele>14.199999809265</ele>
        <time>2019-08-04T07:47:50.000Z</time>
      </trkpt>
      <trkpt lat="47.30588" lon="-2.38997">
        <ele>14.800000190735</ele>
        <time>2019-08-04T07:47:51.000Z</time>
      </trkpt>
      <trkpt lat="47.30592" lon="-2.38993">
        <ele>15.199999809265</ele>
        <time>2019-08-04T07:47:52.000Z</time>
      </trkpt>
      <trkpt lat="47.30596" lon="-2.38989">
        <ele>15.60000038147</ele>
        <time>2019-08-04T07:47:53.000Z</time>
      </trkpt>
      <trkpt lat="47.30599" lon="-2.38985">
        <ele>16</ele>
        <time>2019-08-04T07:47:54.000Z</time>
      </trkpt>
      <trkpt lat="47.30607" lon="-2.38977">
        <ele>16</ele>
        <time>2019-08-04T07:47:56.000Z</time>
      </trkpt>
      <trkpt lat="47.30635" lon="-2.38952">
        <ele>16</ele>
        <time>2019-08-04T07:48:03.000Z</time>
      </trkpt>
      <trkpt lat="47.30651" lon="-2.38937">
        <ele>16.39999961853</ele>
        <time>2019-08-04T07:48:07.000Z</time>
      </trkpt>
      <trkpt lat="47.30655" lon="-2.38934">
        <ele>16.799999237061</ele>
        <time>2019-08-04T07:48:08.000Z</time>
      </trkpt>
      <trkpt lat="47.30659" lon="-2.38931">
        <ele>17.200000762939</ele>
        <time>2019-08-04T07:48:09.000Z</time>
      </trkpt>
      <trkpt lat="47.30662" lon="-2.38928">
        <ele>17.60000038147</ele>
        <time>2019-08-04T07:48:10.000Z</time>
      </trkpt>
      <trkpt lat="47.30665" lon="-2.38925">
        <ele>18</ele>
        <time>2019-08-04T07:48:11.000Z</time>
      </trkpt>
      <trkpt lat="47.30679" lon="-2.38914">
        <ele>18</ele>
        <time>2019-08-04T07:48:15.000Z</time>
      </trkpt>
      <trkpt lat="47.30696" lon="-2.38908">
        <ele>18</ele>
        <time>2019-08-04T07:48:20.000Z</time>
      </trkpt>
      <trkpt lat="47.30702" lon="-2.38923">
        <ele>18</ele>
        <time>2019-08-04T07:48:23.000Z</time>
      </trkpt>
      <trkpt lat="47.30699" lon="-2.38943">
        <ele>18</ele>
        <time>2019-08-04T07:48:26.000Z</time>
      </trkpt>
      <trkpt lat="47.30707" lon="-2.38963">
        <ele>18</ele>
        <time>2019-08-04T07:48:29.000Z</time>
      </trkpt>
      <trkpt lat="47.30722" lon="-2.38962">
        <ele>18</ele>
        <time>2019-08-04T07:48:32.000Z</time>
      </trkpt>
      <trkpt lat="47.3074" lon="-2.38955">
        <ele>18</ele>
        <time>2019-08-04T07:48:36.000Z</time>
      </trkpt>
      <trkpt lat="47.3075" lon="-2.38956">
        <ele>17.60000038147</ele>
        <time>2019-08-04T07:48:38.000Z</time>
      </trkpt>
      <trkpt lat="47.30755" lon="-2.38955">
        <ele>17.200000762939</ele>
        <time>2019-08-04T07:48:39.000Z</time>
      </trkpt>
      <trkpt lat="47.30761" lon="-2.38953">
        <ele>16.799999237061</ele>
        <time>2019-08-04T07:48:40.000Z</time>
      </trkpt>
      <trkpt lat="47.30767" lon="-2.3895">
        <ele>16.39999961853</ele>
        <time>2019-08-04T07:48:41.000Z</time>
      </trkpt>
      <trkpt lat="47.30773" lon="-2.38946">
        <ele>16</ele>
        <time>2019-08-04T07:48:42.000Z</time>
      </trkpt>
      <trkpt lat="47.30798" lon="-2.38927">
        <ele>16</ele>
        <time>2019-08-04T07:48:46.000Z</time>
      </trkpt>
      <trkpt lat="47.30811" lon="-2.38918">
        <ele>15.60000038147</ele>
        <time>2019-08-04T07:48:48.000Z</time>
      </trkpt>
      <trkpt lat="47.30816" lon="-2.38913">
        <ele>15.199999809265</ele>
        <time>2019-08-04T07:48:49.000Z</time>
      </trkpt>
      <trkpt lat="47.30821" lon="-2.38908">
        <ele>14.60000038147</ele>
        <time>2019-08-04T07:48:50.000Z</time>
      </trkpt>
      <trkpt lat="47.30826" lon="-2.38904">
        <ele>14.199999809265</ele>
        <time>2019-08-04T07:48:51.000Z</time>
      </trkpt>
      <trkpt lat="47.30831" lon="-2.38901">
        <ele>13.800000190735</ele>
        <time>2019-08-04T07:48:52.000Z</time>
      </trkpt>
      <trkpt lat="47.30862" lon="-2.38873">
        <ele>13.800000190735</ele>
        <time>2019-08-04T07:48:59.000Z</time>
      </trkpt>
      <trkpt lat="47.30866" lon="-2.38868">
        <ele>14.199999809265</ele>
        <time>2019-08-04T07:49:00.000Z</time>
      </trkpt>
      <trkpt lat="47.30868" lon="-2.38861">
        <ele>14.60000038147</ele>
        <time>2019-08-04T07:49:01.000Z</time>
      </trkpt>
      <trkpt lat="47.30871" lon="-2.38854">
        <ele>15</ele>
        <time>2019-08-04T07:49:02.000Z</time>
      </trkpt>
      <trkpt lat="47.30874" lon="-2.38848">
        <ele>15.800000190735</ele>
        <time>2019-08-04T07:49:03.000Z</time>
      </trkpt>
      <trkpt lat="47.30878" lon="-2.38844">
        <ele>15.800000190735</ele>
        <time>2019-08-04T07:49:04.000Z</time>
      </trkpt>
      <trkpt lat="47.30887" lon="-2.38841">
        <ele>15.800000190735</ele>
        <time>2019-08-04T07:49:06.000Z</time>
      </trkpt>
      <trkpt lat="47.30901" lon="-2.3885">
        <ele>15.800000190735</ele>
        <time>2019-08-04T07:49:09.000Z</time>
      </trkpt>
      <trkpt lat="47.30904" lon="-2.38856">
        <ele>16.200000762939</ele>
        <time>2019-08-04T07:49:10.000Z</time>
      </trkpt>
      <trkpt lat="47.30906" lon="-2.38863">
        <ele>16.60000038147</ele>
        <time>2019-08-04T07:49:11.000Z</time>
      </trkpt>
      <trkpt lat="47.30908" lon="-2.3887">
        <ele>17.200000762939</ele>
        <time>2019-08-04T07:49:12.000Z</time>
      </trkpt>
      <trkpt lat="47.3091" lon="-2.38878">
        <ele>17.60000038147</ele>
        <time>2019-08-04T07:49:13.000Z</time>
      </trkpt>
      <trkpt lat="47.30914" lon="-2.38884">
        <ele>18</ele>
        <time>2019-08-04T07:49:14.000Z</time>
      </trkpt>
      <trkpt lat="47.30926" lon="-2.38902">
        <ele>18</ele>
        <time>2019-08-04T07:49:17.000Z</time>
      </trkpt>
      <trkpt lat="47.30929" lon="-2.38909">
        <ele>18</ele>
        <time>2019-08-04T07:49:18.000Z</time>
      </trkpt>
      <trkpt lat="47.3093" lon="-2.3893">
        <ele>18</ele>
        <time>2019-08-04T07:49:21.000Z</time>
      </trkpt>
      <trkpt lat="47.30922" lon="-2.38948">
        <ele>18</ele>
        <time>2019-08-04T07:49:24.000Z</time>
      </trkpt>
      <trkpt lat="47.30915" lon="-2.38958">
        <ele>18</ele>
        <time>2019-08-04T07:49:26.000Z</time>
      </trkpt>
      <trkpt lat="47.30909" lon="-2.38968">
        <ele>18</ele>
        <time>2019-08-04T07:49:28.000Z</time>
      </trkpt>
      <trkpt lat="47.30907" lon="-2.38973">
        <ele>18</ele>
        <time>2019-08-04T07:49:29.000Z</time>
      </trkpt>
      <trkpt lat="47.30905" lon="-2.39001">
        <ele>18</ele>
        <time>2019-08-04T07:49:33.000Z</time>
      </trkpt>
      <trkpt lat="47.30905" lon="-2.39008">
        <ele>18</ele>
        <time>2019-08-04T07:49:34.000Z</time>
      </trkpt>
      <trkpt lat="47.309" lon="-2.39061">
        <ele>18</ele>
        <time>2019-08-04T07:49:41.000Z</time>
      </trkpt>
      <trkpt lat="47.309" lon="-2.39075">
        <ele>18</ele>
        <time>2019-08-04T07:49:43.000Z</time>
      </trkpt>
      <trkpt lat="47.30904" lon="-2.39095">
        <ele>18</ele>
        <time>2019-08-04T07:49:46.000Z</time>
      </trkpt>
      <trkpt lat="47.30909" lon="-2.39109">
        <ele>18</ele>
        <time>2019-08-04T07:49:48.000Z</time>
      </trkpt>
      <trkpt lat="47.30918" lon="-2.39134">
        <ele>18</ele>
        <time>2019-08-04T07:49:52.000Z</time>
      </trkpt>
      <trkpt lat="47.30934" lon="-2.39176">
        <ele>18</ele>
        <time>2019-08-04T07:49:58.000Z</time>
      </trkpt>
      <trkpt lat="47.30948" lon="-2.39207">
        <ele>18</ele>
        <time>2019-08-04T07:50:03.000Z</time>
      </trkpt>
      <trkpt lat="47.30953" lon="-2.39217">
        <ele>18</ele>
        <time>2019-08-04T07:50:05.000Z</time>
      </trkpt>
      <trkpt lat="47.30958" lon="-2.39227">
        <ele>18</ele>
        <time>2019-08-04T07:50:07.000Z</time>
      </trkpt>
      <trkpt lat="47.3096" lon="-2.39232">
        <ele>18</ele>
        <time>2019-08-04T07:50:08.000Z</time>
      </trkpt>
      <trkpt lat="47.30964" lon="-2.39244">
        <ele>18</ele>
        <time>2019-08-04T07:50:10.000Z</time>
      </trkpt>
      <trkpt lat="47.30988" lon="-2.39303">
        <ele>18</ele>
        <time>2019-08-04T07:50:20.000Z</time>
      </trkpt>
      <trkpt lat="47.30994" lon="-2.3932">
        <ele>18</ele>
        <time>2019-08-04T07:50:23.000Z</time>
      </trkpt>
      <trkpt lat="47.31002" lon="-2.39343">
        <ele>18</ele>
        <time>2019-08-04T07:50:27.000Z</time>
      </trkpt>
      <trkpt lat="47.31016" lon="-2.39385">
        <ele>18</ele>
        <time>2019-08-04T07:50:34.000Z</time>
      </trkpt>
      <trkpt lat="47.3103" lon="-2.39433">
        <ele>18</ele>
        <time>2019-08-04T07:50:42.000Z</time>
      </trkpt>
      <trkpt lat="47.31033" lon="-2.39439">
        <ele>18</ele>
        <time>2019-08-04T07:50:43.000Z</time>
      </trkpt>
      <trkpt lat="47.31035" lon="-2.39446">
        <ele>17.60000038147</ele>
        <time>2019-08-04T07:50:44.000Z</time>
      </trkpt>
      <trkpt lat="47.31037" lon="-2.39452">
        <ele>17.200000762939</ele>
        <time>2019-08-04T07:50:45.000Z</time>
      </trkpt>
      <trkpt lat="47.31039" lon="-2.39459">
        <ele>16.799999237061</ele>
        <time>2019-08-04T07:50:46.000Z</time>
      </trkpt>
      <trkpt lat="47.31042" lon="-2.39466">
        <ele>16.200000762939</ele>
        <time>2019-08-04T07:50:47.000Z</time>
      </trkpt>
      <trkpt lat="47.31044" lon="-2.39474">
        <ele>15.800000190735</ele>
        <time>2019-08-04T07:50:48.000Z</time>
      </trkpt>
      <trkpt lat="47.31049" lon="-2.39488">
        <ele>15.800000190735</ele>
        <time>2019-08-04T07:50:50.000Z</time>
      </trkpt>
      <trkpt lat="47.31064" lon="-2.39535">
        <ele>15.800000190735</ele>
        <time>2019-08-04T07:50:57.000Z</time>
      </trkpt>
      <trkpt lat="47.31079" lon="-2.3958">
        <ele>15.800000190735</ele>
        <time>2019-08-04T07:51:05.000Z</time>
      </trkpt>
      <trkpt lat="47.31092" lon="-2.39619">
        <ele>15.800000190735</ele>
        <time>2019-08-04T07:51:12.000Z</time>
      </trkpt>
      <trkpt lat="47.31107" lon="-2.3966">
        <ele>15.800000190735</ele>
        <time>2019-08-04T07:51:19.000Z</time>
      </trkpt>
      <trkpt lat="47.31123" lon="-2.39707">
        <ele>15.800000190735</ele>
        <time>2019-08-04T07:51:26.000Z</time>
      </trkpt>
      <trkpt lat="47.31142" lon="-2.39757">
        <ele>15.800000190735</ele>
        <time>2019-08-04T07:51:33.000Z</time>
      </trkpt>
      <trkpt lat="47.31165" lon="-2.39825">
        <ele>15.800000190735</ele>
        <time>2019-08-04T07:51:42.000Z</time>
      </trkpt>
      <trkpt lat="47.31173" lon="-2.39846">
        <ele>15.800000190735</ele>
        <time>2019-08-04T07:51:45.000Z</time>
      </trkpt>
      <trkpt lat="47.31178" lon="-2.39859">
        <ele>15.39999961853</ele>
        <time>2019-08-04T07:51:47.000Z</time>
      </trkpt>
      <trkpt lat="47.3118" lon="-2.39865">
        <ele>15</ele>
        <time>2019-08-04T07:51:48.000Z</time>
      </trkpt>
      <trkpt lat="47.31182" lon="-2.39872">
        <ele>14.60000038147</ele>
        <time>2019-08-04T07:51:49.000Z</time>
      </trkpt>
      <trkpt lat="47.31184" lon="-2.39878">
        <ele>14.199999809265</ele>
        <time>2019-08-04T07:51:50.000Z</time>
      </trkpt>
      <trkpt lat="47.31186" lon="-2.39883">
        <ele>13.800000190735</ele>
        <time>2019-08-04T07:51:51.000Z</time>
      </trkpt>
      <trkpt lat="47.31188" lon="-2.39889">
        <ele>13.800000190735</ele>
        <time>2019-08-04T07:51:53.000Z</time>
      </trkpt>
      <trkpt lat="47.31193" lon="-2.39901">
        <ele>13.800000190735</ele>
        <time>2019-08-04T07:51:57.000Z</time>
      </trkpt>
      <trkpt lat="47.31198" lon="-2.39917">
        <ele>13.39999961853</ele>
        <time>2019-08-04T07:52:01.000Z</time>
      </trkpt>
      <trkpt lat="47.31199" lon="-2.3992">
        <ele>13</ele>
        <time>2019-08-04T07:52:02.000Z</time>
      </trkpt>
      <trkpt lat="47.312" lon="-2.39924">
        <ele>12.60000038147</ele>
        <time>2019-08-04T07:52:03.000Z</time>
      </trkpt>
      <trkpt lat="47.31201" lon="-2.39928">
        <ele>12.199999809265</ele>
        <time>2019-08-04T07:52:04.000Z</time>
      </trkpt>
      <trkpt lat="47.31203" lon="-2.39932">
        <ele>11.800000190735</ele>
        <time>2019-08-04T07:52:05.000Z</time>
      </trkpt>
      <trkpt lat="47.31209" lon="-2.3995">
        <ele>11.800000190735</ele>
        <time>2019-08-04T07:52:09.000Z</time>
      </trkpt>
      <trkpt lat="47.31213" lon="-2.39959">
        <ele>11.800000190735</ele>
        <time>2019-08-04T07:52:13.000Z</time>
      </trkpt>
      <trkpt lat="47.3122" lon="-2.39982">
        <ele>11.800000190735</ele>
        <time>2019-08-04T07:52:19.000Z</time>
      </trkpt>
      <trkpt lat="47.31221" lon="-2.39988">
        <ele>11.39999961853</ele>
        <time>2019-08-04T07:52:20.000Z</time>
      </trkpt>
      <trkpt lat="47.31223" lon="-2.39992">
        <ele>11</ele>
        <time>2019-08-04T07:52:21.000Z</time>
      </trkpt>
      <trkpt lat="47.31225" lon="-2.39996">
        <ele>10.60000038147</ele>
        <time>2019-08-04T07:52:22.000Z</time>
      </trkpt>
      <trkpt lat="47.31226" lon="-2.4">
        <ele>10</ele>
        <time>2019-08-04T07:52:23.000Z</time>
      </trkpt>
      <trkpt lat="47.31228" lon="-2.40004">
        <ele>9.6000003814697</ele>
        <time>2019-08-04T07:52:24.000Z</time>
      </trkpt>
      <trkpt lat="47.31229" lon="-2.40009">
        <ele>9.6000003814697</ele>
        <time>2019-08-04T07:52:25.000Z</time>
      </trkpt>
      <trkpt lat="47.31235" lon="-2.40033">
        <ele>9.6000003814697</ele>
        <time>2019-08-04T07:52:30.000Z</time>
      </trkpt>
      <trkpt lat="47.31236" lon="-2.40037">
        <ele>9.1999998092651</ele>
        <time>2019-08-04T07:52:31.000Z</time>
      </trkpt>
      <trkpt lat="47.31236" lon="-2.4004">
        <ele>8.8000001907349</ele>
        <time>2019-08-04T07:52:32.000Z</time>
      </trkpt>
      <trkpt lat="47.31237" lon="-2.40043">
        <ele>8.3999996185303</ele>
        <time>2019-08-04T07:52:33.000Z</time>
      </trkpt>
      <trkpt lat="47.31239" lon="-2.40045">
        <ele>8</ele>
        <time>2019-08-04T07:52:34.000Z</time>
      </trkpt>
      <trkpt lat="47.31239" lon="-2.40046">
        <ele>7.5999999046326</ele>
        <time>2019-08-04T07:52:35.000Z</time>
      </trkpt>
      <trkpt lat="47.31241" lon="-2.40045">
        <ele>7.5999999046326</ele>
        <time>2019-08-04T07:52:36.000Z</time>
      </trkpt>
      <trkpt lat="47.31243" lon="-2.40049">
        <ele>7.5999999046326</ele>
        <time>2019-08-04T07:52:38.000Z</time>
      </trkpt>
      <trkpt lat="47.31244" lon="-2.40051">
        <ele>7.5999999046326</ele>
        <time>2019-08-04T07:52:39.000Z</time>
      </trkpt>
      <trkpt lat="47.31251" lon="-2.40056">
        <ele>7.5999999046326</ele>
        <time>2019-08-04T07:52:41.000Z</time>
      </trkpt>
      <trkpt lat="47.31259" lon="-2.40059">
        <ele>7.5999999046326</ele>
        <time>2019-08-04T07:52:42.000Z</time>
      </trkpt>
      <trkpt lat="47.31275" lon="-2.40064">
        <ele>7.5999999046326</ele>
        <time>2019-08-04T07:52:45.000Z</time>
      </trkpt>
      <trkpt lat="47.3128" lon="-2.40065">
        <ele>7.5999999046326</ele>
        <time>2019-08-04T07:52:46.000Z</time>
      </trkpt>
      <trkpt lat="47.31298" lon="-2.4007">
        <ele>7.5999999046326</ele>
        <time>2019-08-04T07:52:51.000Z</time>
      </trkpt>
      <trkpt lat="47.31315" lon="-2.40078">
        <ele>7.5999999046326</ele>
        <time>2019-08-04T07:52:57.000Z</time>
      </trkpt>
      <trkpt lat="47.31328" lon="-2.40087">
        <ele>7.5999999046326</ele>
        <time>2019-08-04T07:53:02.000Z</time>
      </trkpt>
      <trkpt lat="47.31347" lon="-2.40094">
        <ele>7.5999999046326</ele>
        <time>2019-08-04T07:53:07.000Z</time>
      </trkpt>
      <trkpt lat="47.31356" lon="-2.401">
        <ele>7.5999999046326</ele>
        <time>2019-08-04T07:53:09.000Z</time>
      </trkpt>
      <trkpt lat="47.31367" lon="-2.40107">
        <ele>7.5999999046326</ele>
        <time>2019-08-04T07:53:12.000Z</time>
      </trkpt>
      <trkpt lat="47.31382" lon="-2.40116">
        <ele>8</ele>
        <time>2019-08-04T07:53:17.000Z</time>
      </trkpt>
      <trkpt lat="47.31385" lon="-2.40118">
        <ele>8.3999996185303</ele>
        <time>2019-08-04T07:53:18.000Z</time>
      </trkpt>
      <trkpt lat="47.31387" lon="-2.4012">
        <ele>8.8000001907349</ele>
        <time>2019-08-04T07:53:19.000Z</time>
      </trkpt>
      <trkpt lat="47.31391" lon="-2.40122">
        <ele>9.1999998092651</ele>
        <time>2019-08-04T07:53:20.000Z</time>
      </trkpt>
      <trkpt lat="47.31395" lon="-2.40124">
        <ele>9.6000003814697</ele>
        <time>2019-08-04T07:53:21.000Z</time>
      </trkpt>
      <trkpt lat="47.31403" lon="-2.40128">
        <ele>9.6000003814697</ele>
        <time>2019-08-04T07:53:23.000Z</time>
      </trkpt>
      <trkpt lat="47.31423" lon="-2.40138">
        <ele>9.6000003814697</ele>
        <time>2019-08-04T07:53:27.000Z</time>
      </trkpt>
      <trkpt lat="47.31436" lon="-2.4015">
        <ele>9.6000003814697</ele>
        <time>2019-08-04T07:53:30.000Z</time>
      </trkpt>
      <trkpt lat="47.31465" lon="-2.4017">
        <ele>9.6000003814697</ele>
        <time>2019-08-04T07:53:37.000Z</time>
      </trkpt>
      <trkpt lat="47.31485" lon="-2.40181">
        <ele>9.6000003814697</ele>
        <time>2019-08-04T07:53:42.000Z</time>
      </trkpt>
      <trkpt lat="47.31489" lon="-2.40183">
        <ele>10</ele>
        <time>2019-08-04T07:53:43.000Z</time>
      </trkpt>
      <trkpt lat="47.31493" lon="-2.40186">
        <ele>10.39999961853</ele>
        <time>2019-08-04T07:53:44.000Z</time>
      </trkpt>
      <trkpt lat="47.31496" lon="-2.40188">
        <ele>11</ele>
        <time>2019-08-04T07:53:45.000Z</time>
      </trkpt>
      <trkpt lat="47.31501" lon="-2.40191">
        <ele>11.39999961853</ele>
        <time>2019-08-04T07:53:46.000Z</time>
      </trkpt>
      <trkpt lat="47.31505" lon="-2.40195">
        <ele>11.800000190735</ele>
        <time>2019-08-04T07:53:47.000Z</time>
      </trkpt>
      <trkpt lat="47.3151" lon="-2.40198">
        <ele>11.800000190735</ele>
        <time>2019-08-04T07:53:48.000Z</time>
      </trkpt>
      <trkpt lat="47.31524" lon="-2.40209">
        <ele>11.800000190735</ele>
        <time>2019-08-04T07:53:52.000Z</time>
      </trkpt>
      <trkpt lat="47.31549" lon="-2.40228">
        <ele>11.800000190735</ele>
        <time>2019-08-04T07:53:58.000Z</time>
      </trkpt>
      <trkpt lat="47.31581" lon="-2.40254">
        <ele>11.800000190735</ele>
        <time>2019-08-04T07:54:05.000Z</time>
      </trkpt>
      <trkpt lat="47.31599" lon="-2.40268">
        <ele>12.199999809265</ele>
        <time>2019-08-04T07:54:09.000Z</time>
      </trkpt>
      <trkpt lat="47.31603" lon="-2.4027">
        <ele>12.60000038147</ele>
        <time>2019-08-04T07:54:10.000Z</time>
      </trkpt>
      <trkpt lat="47.31607" lon="-2.40273">
        <ele>13</ele>
        <time>2019-08-04T07:54:11.000Z</time>
      </trkpt>
      <trkpt lat="47.3161" lon="-2.40276">
        <ele>13.39999961853</ele>
        <time>2019-08-04T07:54:12.000Z</time>
      </trkpt>
      <trkpt lat="47.31614" lon="-2.40279">
        <ele>13.800000190735</ele>
        <time>2019-08-04T07:54:13.000Z</time>
      </trkpt>
      <trkpt lat="47.3163" lon="-2.4029">
        <ele>13.800000190735</ele>
        <time>2019-08-04T07:54:17.000Z</time>
      </trkpt>
      <trkpt lat="47.31633" lon="-2.40294">
        <ele>13.800000190735</ele>
        <time>2019-08-04T07:54:18.000Z</time>
      </trkpt>
      <trkpt lat="47.31652" lon="-2.40308">
        <ele>13.800000190735</ele>
        <time>2019-08-04T07:54:23.000Z</time>
      </trkpt>
      <trkpt lat="47.31667" lon="-2.40322">
        <ele>14.199999809265</ele>
        <time>2019-08-04T07:54:28.000Z</time>
      </trkpt>
      <trkpt lat="47.31669" lon="-2.40323">
        <ele>14.60000038147</ele>
        <time>2019-08-04T07:54:29.000Z</time>
      </trkpt>
      <trkpt lat="47.31671" lon="-2.40326">
        <ele>15</ele>
        <time>2019-08-04T07:54:30.000Z</time>
      </trkpt>
      <trkpt lat="47.31672" lon="-2.40327">
        <ele>15.39999961853</ele>
        <time>2019-08-04T07:54:31.000Z</time>
      </trkpt>
      <trkpt lat="47.31674" lon="-2.40329">
        <ele>15.800000190735</ele>
        <time>2019-08-04T07:54:32.000Z</time>
      </trkpt>
      <trkpt lat="47.31675" lon="-2.4033">
        <ele>15.800000190735</ele>
        <time>2019-08-04T07:54:33.000Z</time>
      </trkpt>
      <trkpt lat="47.31683" lon="-2.4033">
        <ele>15.800000190735</ele>
        <time>2019-08-04T07:54:38.000Z</time>
      </trkpt>
      <trkpt lat="47.31685" lon="-2.4033">
        <ele>15.800000190735</ele>
        <time>2019-08-04T07:54:39.000Z</time>
      </trkpt>
      <trkpt lat="47.31686" lon="-2.4033">
        <ele>15.800000190735</ele>
        <time>2019-08-04T07:54:42.000Z</time>
      </trkpt>
      <trkpt lat="47.31685" lon="-2.40336">
        <ele>15.800000190735</ele>
        <time>2019-08-04T07:56:14.000Z</time>
      </trkpt>
      <trkpt lat="47.31687" lon="-2.40339">
        <ele>15.800000190735</ele>
        <time>2019-08-04T07:56:15.000Z</time>
      </trkpt>
      <trkpt lat="47.31698" lon="-2.40345">
        <ele>15.800000190735</ele>
        <time>2019-08-04T07:56:18.000Z</time>
      </trkpt>
      <trkpt lat="47.3172" lon="-2.4036">
        <ele>15.800000190735</ele>
        <time>2019-08-04T07:56:24.000Z</time>
      </trkpt>
      <trkpt lat="47.31724" lon="-2.40363">
        <ele>15.800000190735</ele>
        <time>2019-08-04T07:56:25.000Z</time>
      </trkpt>
      <trkpt lat="47.31744" lon="-2.40377">
        <ele>15.800000190735</ele>
        <time>2019-08-04T07:56:30.000Z</time>
      </trkpt>
      <trkpt lat="47.3177" lon="-2.40397">
        <ele>15.800000190735</ele>
        <time>2019-08-04T07:56:37.000Z</time>
      </trkpt>
      <trkpt lat="47.31779" lon="-2.40405">
        <ele>15.800000190735</ele>
        <time>2019-08-04T07:56:39.000Z</time>
      </trkpt>
      <trkpt lat="47.31797" lon="-2.40418">
        <ele>16.200000762939</ele>
        <time>2019-08-04T07:56:43.000Z</time>
      </trkpt>
      <trkpt lat="47.31801" lon="-2.40421">
        <ele>16.60000038147</ele>
        <time>2019-08-04T07:56:44.000Z</time>
      </trkpt>
      <trkpt lat="47.31806" lon="-2.40425">
        <ele>17</ele>
        <time>2019-08-04T07:56:45.000Z</time>
      </trkpt>
      <trkpt lat="47.3181" lon="-2.40428">
        <ele>17.39999961853</ele>
        <time>2019-08-04T07:56:46.000Z</time>
      </trkpt>
      <trkpt lat="47.31815" lon="-2.40431">
        <ele>17.799999237061</ele>
        <time>2019-08-04T07:56:47.000Z</time>
      </trkpt>
      <trkpt lat="47.31823" lon="-2.40438">
        <ele>17.799999237061</ele>
        <time>2019-08-04T07:56:49.000Z</time>
      </trkpt>
      <trkpt lat="47.31848" lon="-2.40456">
        <ele>17.799999237061</ele>
        <time>2019-08-04T07:56:55.000Z</time>
      </trkpt>
      <trkpt lat="47.3186" lon="-2.40464">
        <ele>17.799999237061</ele>
        <time>2019-08-04T07:56:58.000Z</time>
      </trkpt>
      <trkpt lat="47.31876" lon="-2.40476">
        <ele>17.799999237061</ele>
        <time>2019-08-04T07:57:02.000Z</time>
      </trkpt>
      <trkpt lat="47.319" lon="-2.40496">
        <ele>17.799999237061</ele>
        <time>2019-08-04T07:57:08.000Z</time>
      </trkpt>
      <trkpt lat="47.31909" lon="-2.40503">
        <ele>17.799999237061</ele>
        <time>2019-08-04T07:57:10.000Z</time>
      </trkpt>
      <trkpt lat="47.31913" lon="-2.40508">
        <ele>18.200000762939</ele>
        <time>2019-08-04T07:57:11.000Z</time>
      </trkpt>
      <trkpt lat="47.31917" lon="-2.40511">
        <ele>18.60000038147</ele>
        <time>2019-08-04T07:57:12.000Z</time>
      </trkpt>
      <trkpt lat="47.31922" lon="-2.40514">
        <ele>19</ele>
        <time>2019-08-04T07:57:13.000Z</time>
      </trkpt>
      <trkpt lat="47.31926" lon="-2.40517">
        <ele>19.39999961853</ele>
        <time>2019-08-04T07:57:14.000Z</time>
      </trkpt>
      <trkpt lat="47.3193" lon="-2.4052">
        <ele>19.799999237061</ele>
        <time>2019-08-04T07:57:15.000Z</time>
      </trkpt>
      <trkpt lat="47.31946" lon="-2.40529">
        <ele>19.799999237061</ele>
        <time>2019-08-04T07:57:19.000Z</time>
      </trkpt>
      <trkpt lat="47.31968" lon="-2.40546">
        <ele>19.799999237061</ele>
        <time>2019-08-04T07:57:25.000Z</time>
      </trkpt>
      <trkpt lat="47.31977" lon="-2.40552">
        <ele>19.799999237061</ele>
        <time>2019-08-04T07:57:27.000Z</time>
      </trkpt>
      <trkpt lat="47.31995" lon="-2.40567">
        <ele>19.799999237061</ele>
        <time>2019-08-04T07:57:31.000Z</time>
      </trkpt>
      <trkpt lat="47.32" lon="-2.4057">
        <ele>20.39999961853</ele>
        <time>2019-08-04T07:57:32.000Z</time>
      </trkpt>
      <trkpt lat="47.32004" lon="-2.40574">
        <ele>20.799999237061</ele>
        <time>2019-08-04T07:57:33.000Z</time>
      </trkpt>
      <trkpt lat="47.32009" lon="-2.40578">
        <ele>21.200000762939</ele>
        <time>2019-08-04T07:57:34.000Z</time>
      </trkpt>
      <trkpt lat="47.32014" lon="-2.40581">
        <ele>21.60000038147</ele>
        <time>2019-08-04T07:57:35.000Z</time>
      </trkpt>
      <trkpt lat="47.32018" lon="-2.40585">
        <ele>22</ele>
        <time>2019-08-04T07:57:36.000Z</time>
      </trkpt>
      <trkpt lat="47.32027" lon="-2.40592">
        <ele>22</ele>
        <time>2019-08-04T07:57:38.000Z</time>
      </trkpt>
      <trkpt lat="47.32039" lon="-2.40603">
        <ele>22</ele>
        <time>2019-08-04T07:57:41.000Z</time>
      </trkpt>
      <trkpt lat="47.32058" lon="-2.40622">
        <ele>22</ele>
        <time>2019-08-04T07:57:46.000Z</time>
      </trkpt>
      <trkpt lat="47.32062" lon="-2.40626">
        <ele>22</ele>
        <time>2019-08-04T07:57:47.000Z</time>
      </trkpt>
      <trkpt lat="47.32089" lon="-2.40652">
        <ele>22</ele>
        <time>2019-08-04T07:57:53.000Z</time>
      </trkpt>
      <trkpt lat="47.32114" lon="-2.40678">
        <ele>22</ele>
        <time>2019-08-04T07:57:59.000Z</time>
      </trkpt>
      <trkpt lat="47.32138" lon="-2.40705">
        <ele>22</ele>
        <time>2019-08-04T07:58:05.000Z</time>
      </trkpt>
      <trkpt lat="47.32142" lon="-2.4071">
        <ele>22.39999961853</ele>
        <time>2019-08-04T07:58:06.000Z</time>
      </trkpt>
      <trkpt lat="47.32146" lon="-2.40715">
        <ele>22.799999237061</ele>
        <time>2019-08-04T07:58:07.000Z</time>
      </trkpt>
      <trkpt lat="47.3215" lon="-2.4072">
        <ele>23.200000762939</ele>
        <time>2019-08-04T07:58:08.000Z</time>
      </trkpt>
      <trkpt lat="47.32154" lon="-2.40724">
        <ele>23.60000038147</ele>
        <time>2019-08-04T07:58:09.000Z</time>
      </trkpt>
      <trkpt lat="47.32158" lon="-2.40729">
        <ele>24</ele>
        <time>2019-08-04T07:58:10.000Z</time>
      </trkpt>
      <trkpt lat="47.32173" lon="-2.40748">
        <ele>24</ele>
        <time>2019-08-04T07:58:14.000Z</time>
      </trkpt>
      <trkpt lat="47.32184" lon="-2.40764">
        <ele>24</ele>
        <time>2019-08-04T07:58:17.000Z</time>
      </trkpt>
      <trkpt lat="47.32193" lon="-2.40777">
        <ele>24</ele>
        <time>2019-08-04T07:58:20.000Z</time>
      </trkpt>
      <trkpt lat="47.32196" lon="-2.4078">
        <ele>24</ele>
        <time>2019-08-04T07:58:21.000Z</time>
      </trkpt>
      <trkpt lat="47.32204" lon="-2.40789">
        <ele>24</ele>
        <time>2019-08-04T07:58:24.000Z</time>
      </trkpt>
      <trkpt lat="47.32216" lon="-2.40809">
        <ele>24</ele>
        <time>2019-08-04T07:58:29.000Z</time>
      </trkpt>
      <trkpt lat="47.32225" lon="-2.40821">
        <ele>24</ele>
        <time>2019-08-04T07:58:32.000Z</time>
      </trkpt>
      <trkpt lat="47.32228" lon="-2.40825">
        <ele>24</ele>
        <time>2019-08-04T07:58:33.000Z</time>
      </trkpt>
      <trkpt lat="47.32253" lon="-2.40869">
        <ele>24</ele>
        <time>2019-08-04T07:58:41.000Z</time>
      </trkpt>
      <trkpt lat="47.32272" lon="-2.40904">
        <ele>24</ele>
        <time>2019-08-04T07:58:47.000Z</time>
      </trkpt>
      <trkpt lat="47.32295" lon="-2.40947">
        <ele>24</ele>
        <time>2019-08-04T07:58:54.000Z</time>
      </trkpt>
      <trkpt lat="47.32315" lon="-2.40986">
        <ele>24</ele>
        <time>2019-08-04T07:59:01.000Z</time>
      </trkpt>
      <trkpt lat="47.3233" lon="-2.41015">
        <ele>24.39999961853</ele>
        <time>2019-08-04T07:59:06.000Z</time>
      </trkpt>
      <trkpt lat="47.32333" lon="-2.4102">
        <ele>24.799999237061</ele>
        <time>2019-08-04T07:59:07.000Z</time>
      </trkpt>
      <trkpt lat="47.32336" lon="-2.41026">
        <ele>25.200000762939</ele>
        <time>2019-08-04T07:59:08.000Z</time>
      </trkpt>
      <trkpt lat="47.3234" lon="-2.41031">
        <ele>25.60000038147</ele>
        <time>2019-08-04T07:59:09.000Z</time>
      </trkpt>
      <trkpt lat="47.32343" lon="-2.41037">
        <ele>26</ele>
        <time>2019-08-04T07:59:10.000Z</time>
      </trkpt>
      <trkpt lat="47.32362" lon="-2.41072">
        <ele>26</ele>
        <time>2019-08-04T07:59:17.000Z</time>
      </trkpt>
      <trkpt lat="47.32371" lon="-2.41088">
        <ele>26</ele>
        <time>2019-08-04T07:59:21.000Z</time>
      </trkpt>
      <trkpt lat="47.32378" lon="-2.41105">
        <ele>26</ele>
        <time>2019-08-04T07:59:24.000Z</time>
      </trkpt>
      <trkpt lat="47.32384" lon="-2.41116">
        <ele>26</ele>
        <time>2019-08-04T07:59:26.000Z</time>
      </trkpt>
      <trkpt lat="47.32402" lon="-2.41151">
        <ele>26</ele>
        <time>2019-08-04T07:59:33.000Z</time>
      </trkpt>
      <trkpt lat="47.32412" lon="-2.41171">
        <ele>26</ele>
        <time>2019-08-04T07:59:39.000Z</time>
      </trkpt>
      <trkpt lat="47.32421" lon="-2.4119">
        <ele>26</ele>
        <time>2019-08-04T07:59:45.000Z</time>
      </trkpt>
      <trkpt lat="47.32429" lon="-2.41204">
        <ele>26</ele>
        <time>2019-08-04T07:59:50.000Z</time>
      </trkpt>
      <trkpt lat="47.32432" lon="-2.4121">
        <ele>26</ele>
        <time>2019-08-04T07:59:51.000Z</time>
      </trkpt>
      <trkpt lat="47.32441" lon="-2.41229">
        <ele>26</ele>
        <time>2019-08-04T07:59:54.000Z</time>
      </trkpt>
      <trkpt lat="47.3246" lon="-2.41261">
        <ele>26</ele>
        <time>2019-08-04T07:59:59.000Z</time>
      </trkpt>
      <trkpt lat="47.32464" lon="-2.41268">
        <ele>26</ele>
        <time>2019-08-04T08:00:00.000Z</time>
      </trkpt>
      <trkpt lat="47.32497" lon="-2.41333">
        <ele>26</ele>
        <time>2019-08-04T08:00:09.000Z</time>
      </trkpt>
      <trkpt lat="47.32523" lon="-2.4138">
        <ele>26</ele>
        <time>2019-08-04T08:00:16.000Z</time>
      </trkpt>
      <trkpt lat="47.32547" lon="-2.41426">
        <ele>26</ele>
        <time>2019-08-04T08:00:23.000Z</time>
      </trkpt>
      <trkpt lat="47.32556" lon="-2.41444">
        <ele>26</ele>
        <time>2019-08-04T08:00:26.000Z</time>
      </trkpt>
      <trkpt lat="47.3256" lon="-2.41455">
        <ele>26</ele>
        <time>2019-08-04T08:00:28.000Z</time>
      </trkpt>
      <trkpt lat="47.32566" lon="-2.41467">
        <ele>26</ele>
        <time>2019-08-04T08:00:31.000Z</time>
      </trkpt>
      <trkpt lat="47.32567" lon="-2.41477">
        <ele>26</ele>
        <time>2019-08-04T08:00:33.000Z</time>
      </trkpt>
      <trkpt lat="47.3257" lon="-2.41492">
        <ele>26</ele>
        <time>2019-08-04T08:00:36.000Z</time>
      </trkpt>
      <trkpt lat="47.32572" lon="-2.41503">
        <ele>25.60000038147</ele>
        <time>2019-08-04T08:00:38.000Z</time>
      </trkpt>
      <trkpt lat="47.32573" lon="-2.41509">
        <ele>25.200000762939</ele>
        <time>2019-08-04T08:00:39.000Z</time>
      </trkpt>
      <trkpt lat="47.32575" lon="-2.41515">
        <ele>24.799999237061</ele>
        <time>2019-08-04T08:00:40.000Z</time>
      </trkpt>
      <trkpt lat="47.32579" lon="-2.41518">
        <ele>24.39999961853</ele>
        <time>2019-08-04T08:00:41.000Z</time>
      </trkpt>
      <trkpt lat="47.32584" lon="-2.4152">
        <ele>24</ele>
        <time>2019-08-04T08:00:42.000Z</time>
      </trkpt>
      <trkpt lat="47.32589" lon="-2.41521">
        <ele>24</ele>
        <time>2019-08-04T08:00:43.000Z</time>
      </trkpt>
      <trkpt lat="47.32599" lon="-2.41524">
        <ele>24</ele>
        <time>2019-08-04T08:00:45.000Z</time>
      </trkpt>
      <trkpt lat="47.32628" lon="-2.41529">
        <ele>24</ele>
        <time>2019-08-04T08:00:51.000Z</time>
      </trkpt>
      <trkpt lat="47.32651" lon="-2.41532">
        <ele>24</ele>
        <time>2019-08-04T08:00:56.000Z</time>
      </trkpt>
      <trkpt lat="47.32655" lon="-2.41534">
        <ele>24</ele>
        <time>2019-08-04T08:00:57.000Z</time>
      </trkpt>
      <trkpt lat="47.32668" lon="-2.41537">
        <ele>24</ele>
        <time>2019-08-04T08:01:00.000Z</time>
      </trkpt>
      <trkpt lat="47.32679" lon="-2.41539">
        <ele>24</ele>
        <time>2019-08-04T08:01:02.000Z</time>
      </trkpt>
      <trkpt lat="47.32684" lon="-2.41541">
        <ele>23.39999961853</ele>
        <time>2019-08-04T08:01:03.000Z</time>
      </trkpt>
      <trkpt lat="47.3269" lon="-2.41542">
        <ele>23</ele>
        <time>2019-08-04T08:01:04.000Z</time>
      </trkpt>
      <trkpt lat="47.32695" lon="-2.41543">
        <ele>22.60000038147</ele>
        <time>2019-08-04T08:01:05.000Z</time>
      </trkpt>
      <trkpt lat="47.32699" lon="-2.41545">
        <ele>22</ele>
        <time>2019-08-04T08:01:06.000Z</time>
      </trkpt>
      <trkpt lat="47.32701" lon="-2.41549">
        <ele>21.60000038147</ele>
        <time>2019-08-04T08:01:07.000Z</time>
      </trkpt>
      <trkpt lat="47.32701" lon="-2.41554">
        <ele>21.60000038147</ele>
        <time>2019-08-04T08:01:08.000Z</time>
      </trkpt>
      <trkpt lat="47.32699" lon="-2.41567">
        <ele>21.200000762939</ele>
        <time>2019-08-04T08:01:11.000Z</time>
      </trkpt>
      <trkpt lat="47.32699" lon="-2.41569">
        <ele>20.799999237061</ele>
        <time>2019-08-04T08:01:12.000Z</time>
      </trkpt>
      <trkpt lat="47.32699" lon="-2.41571">
        <ele>20.39999961853</ele>
        <time>2019-08-04T08:01:13.000Z</time>
      </trkpt>
      <trkpt lat="47.32699" lon="-2.41573">
        <ele>20</ele>
        <time>2019-08-04T08:01:14.000Z</time>
      </trkpt>
      <trkpt lat="47.32699" lon="-2.41575">
        <ele>19.60000038147</ele>
        <time>2019-08-04T08:01:15.000Z</time>
      </trkpt>
      <trkpt lat="47.32699" lon="-2.41577">
        <ele>19.60000038147</ele>
        <time>2019-08-04T08:01:16.000Z</time>
      </trkpt>
      <trkpt lat="47.32702" lon="-2.41581">
        <ele>19.60000038147</ele>
        <time>2019-08-04T08:01:18.000Z</time>
      </trkpt>
      <trkpt lat="47.32703" lon="-2.41592">
        <ele>19.60000038147</ele>
        <time>2019-08-04T08:01:20.000Z</time>
      </trkpt>
      <trkpt lat="47.32703" lon="-2.41599">
        <ele>19.60000038147</ele>
        <time>2019-08-04T08:01:21.000Z</time>
      </trkpt>
      <trkpt lat="47.32711" lon="-2.41623">
        <ele>19.60000038147</ele>
        <time>2019-08-04T08:01:25.000Z</time>
      </trkpt>
      <trkpt lat="47.32714" lon="-2.41647">
        <ele>19.60000038147</ele>
        <time>2019-08-04T08:01:28.000Z</time>
      </trkpt>
      <trkpt lat="47.32713" lon="-2.41655">
        <ele>19.60000038147</ele>
        <time>2019-08-04T08:01:29.000Z</time>
      </trkpt>
      <trkpt lat="47.32708" lon="-2.41715">
        <ele>19.60000038147</ele>
        <time>2019-08-04T08:01:36.000Z</time>
      </trkpt>
      <trkpt lat="47.32704" lon="-2.4176">
        <ele>19.60000038147</ele>
        <time>2019-08-04T08:01:42.000Z</time>
      </trkpt>
      <trkpt lat="47.32712" lon="-2.41777">
        <ele>19.60000038147</ele>
        <time>2019-08-04T08:01:45.000Z</time>
      </trkpt>
      <trkpt lat="47.32728" lon="-2.41798">
        <ele>19.60000038147</ele>
        <time>2019-08-04T08:01:49.000Z</time>
      </trkpt>
      <trkpt lat="47.32754" lon="-2.41849">
        <ele>19.60000038147</ele>
        <time>2019-08-04T08:01:57.000Z</time>
      </trkpt>
      <trkpt lat="47.32765" lon="-2.41878">
        <ele>19.60000038147</ele>
        <time>2019-08-04T08:02:01.000Z</time>
      </trkpt>
      <trkpt lat="47.32768" lon="-2.41885">
        <ele>19.200000762939</ele>
        <time>2019-08-04T08:02:02.000Z</time>
      </trkpt>
      <trkpt lat="47.32771" lon="-2.41891">
        <ele>18.799999237061</ele>
        <time>2019-08-04T08:02:03.000Z</time>
      </trkpt>
      <trkpt lat="47.32774" lon="-2.41899">
        <ele>18.39999961853</ele>
        <time>2019-08-04T08:02:04.000Z</time>
      </trkpt>
      <trkpt lat="47.32777" lon="-2.41906">
        <ele>18</ele>
        <time>2019-08-04T08:02:05.000Z</time>
      </trkpt>
      <trkpt lat="47.3278" lon="-2.41913">
        <ele>17.60000038147</ele>
        <time>2019-08-04T08:02:06.000Z</time>
      </trkpt>
      <trkpt lat="47.328" lon="-2.41955">
        <ele>17.60000038147</ele>
        <time>2019-08-04T08:02:12.000Z</time>
      </trkpt>
      <trkpt lat="47.328" lon="-2.41961">
        <ele>17.60000038147</ele>
        <time>2019-08-04T08:02:13.000Z</time>
      </trkpt>
      <trkpt lat="47.328" lon="-2.41974">
        <ele>17.200000762939</ele>
        <time>2019-08-04T08:02:15.000Z</time>
      </trkpt>
      <trkpt lat="47.32801" lon="-2.41981">
        <ele>16.60000038147</ele>
        <time>2019-08-04T08:02:16.000Z</time>
      </trkpt>
      <trkpt lat="47.32802" lon="-2.41988">
        <ele>16.200000762939</ele>
        <time>2019-08-04T08:02:17.000Z</time>
      </trkpt>
      <trkpt lat="47.32804" lon="-2.41994">
        <ele>15.800000190735</ele>
        <time>2019-08-04T08:02:18.000Z</time>
      </trkpt>
      <trkpt lat="47.32807" lon="-2.41999">
        <ele>15.39999961853</ele>
        <time>2019-08-04T08:02:19.000Z</time>
      </trkpt>
      <trkpt lat="47.32811" lon="-2.42002">
        <ele>15.39999961853</ele>
        <time>2019-08-04T08:02:20.000Z</time>
      </trkpt>
      <trkpt lat="47.32814" lon="-2.42004">
        <ele>15.39999961853</ele>
        <time>2019-08-04T08:02:21.000Z</time>
      </trkpt>
      <trkpt lat="47.32823" lon="-2.42016">
        <ele>15.39999961853</ele>
        <time>2019-08-04T08:02:25.000Z</time>
      </trkpt>
      <trkpt lat="47.3283" lon="-2.42035">
        <ele>15.39999961853</ele>
        <time>2019-08-04T08:02:29.000Z</time>
      </trkpt>
      <trkpt lat="47.32841" lon="-2.42058">
        <ele>15.39999961853</ele>
        <time>2019-08-04T08:02:33.000Z</time>
      </trkpt>
      <trkpt lat="47.32843" lon="-2.42065">
        <ele>15.39999961853</ele>
        <time>2019-08-04T08:02:34.000Z</time>
      </trkpt>
      <trkpt lat="47.32845" lon="-2.42071">
        <ele>15.39999961853</ele>
        <time>2019-08-04T08:02:35.000Z</time>
      </trkpt>
      <trkpt lat="47.32857" lon="-2.42093">
        <ele>15.39999961853</ele>
        <time>2019-08-04T08:02:39.000Z</time>
      </trkpt>
      <trkpt lat="47.32863" lon="-2.42111">
        <ele>15.39999961853</ele>
        <time>2019-08-04T08:02:42.000Z</time>
      </trkpt>
      <trkpt lat="47.32865" lon="-2.42119">
        <ele>15.39999961853</ele>
        <time>2019-08-04T08:02:43.000Z</time>
      </trkpt>
      <trkpt lat="47.32875" lon="-2.42145">
        <ele>15.39999961853</ele>
        <time>2019-08-04T08:02:47.000Z</time>
      </trkpt>
      <trkpt lat="47.32877" lon="-2.42151">
        <ele>15.39999961853</ele>
        <time>2019-08-04T08:02:48.000Z</time>
      </trkpt>
      <trkpt lat="47.32888" lon="-2.42177">
        <ele>15.39999961853</ele>
        <time>2019-08-04T08:02:53.000Z</time>
      </trkpt>
      <trkpt lat="47.32889" lon="-2.42182">
        <ele>15.39999961853</ele>
        <time>2019-08-04T08:02:54.000Z</time>
      </trkpt>
      <trkpt lat="47.3289" lon="-2.42204">
        <ele>15.39999961853</ele>
        <time>2019-08-04T08:02:57.000Z</time>
      </trkpt>
      <trkpt lat="47.32889" lon="-2.42221">
        <ele>15.39999961853</ele>
        <time>2019-08-04T08:02:59.000Z</time>
      </trkpt>
      <trkpt lat="47.32886" lon="-2.42248">
        <ele>15.39999961853</ele>
        <time>2019-08-04T08:03:02.000Z</time>
      </trkpt>
      <trkpt lat="47.32881" lon="-2.42307">
        <ele>15.39999961853</ele>
        <time>2019-08-04T08:03:09.000Z</time>
      </trkpt>
      <trkpt lat="47.32881" lon="-2.42316">
        <ele>15.800000190735</ele>
        <time>2019-08-04T08:03:10.000Z</time>
      </trkpt>
      <trkpt lat="47.3288" lon="-2.42324">
        <ele>16.200000762939</ele>
        <time>2019-08-04T08:03:11.000Z</time>
      </trkpt>
      <trkpt lat="47.32879" lon="-2.42332">
        <ele>16.60000038147</ele>
        <time>2019-08-04T08:03:12.000Z</time>
      </trkpt>
      <trkpt lat="47.32879" lon="-2.4234">
        <ele>17</ele>
        <time>2019-08-04T08:03:13.000Z</time>
      </trkpt>
      <trkpt lat="47.32878" lon="-2.42348">
        <ele>17.39999961853</ele>
        <time>2019-08-04T08:03:14.000Z</time>
      </trkpt>
      <trkpt lat="47.32878" lon="-2.42361">
        <ele>17.39999961853</ele>
        <time>2019-08-04T08:03:16.000Z</time>
      </trkpt>
      <trkpt lat="47.3288" lon="-2.42382">
        <ele>17.39999961853</ele>
        <time>2019-08-04T08:03:20.000Z</time>
      </trkpt>
      <trkpt lat="47.3288" lon="-2.42395">
        <ele>17.39999961853</ele>
        <time>2019-08-04T08:03:22.000Z</time>
      </trkpt>
      <trkpt lat="47.32879" lon="-2.42417">
        <ele>17.39999961853</ele>
        <time>2019-08-04T08:03:25.000Z</time>
      </trkpt>
      <trkpt lat="47.3288" lon="-2.42424">
        <ele>17.39999961853</ele>
        <time>2019-08-04T08:03:26.000Z</time>
      </trkpt>
      <trkpt lat="47.32883" lon="-2.42452">
        <ele>17.39999961853</ele>
        <time>2019-08-04T08:03:30.000Z</time>
      </trkpt>
      <trkpt lat="47.32884" lon="-2.42465">
        <ele>17.39999961853</ele>
        <time>2019-08-04T08:03:32.000Z</time>
      </trkpt>
      <trkpt lat="47.32889" lon="-2.42497">
        <ele>17.39999961853</ele>
        <time>2019-08-04T08:03:37.000Z</time>
      </trkpt>
      <trkpt lat="47.32892" lon="-2.42526">
        <ele>18</ele>
        <time>2019-08-04T08:03:42.000Z</time>
      </trkpt>
      <trkpt lat="47.32894" lon="-2.42532">
        <ele>18.39999961853</ele>
        <time>2019-08-04T08:03:43.000Z</time>
      </trkpt>
      <trkpt lat="47.32895" lon="-2.42538">
        <ele>18.799999237061</ele>
        <time>2019-08-04T08:03:44.000Z</time>
      </trkpt>
      <trkpt lat="47.32896" lon="-2.42543">
        <ele>19.39999961853</ele>
        <time>2019-08-04T08:03:45.000Z</time>
      </trkpt>
      <trkpt lat="47.32897" lon="-2.42549">
        <ele>19.799999237061</ele>
        <time>2019-08-04T08:03:46.000Z</time>
      </trkpt>
      <trkpt lat="47.32899" lon="-2.42559">
        <ele>19.799999237061</ele>
        <time>2019-08-04T08:03:48.000Z</time>
      </trkpt>
      <trkpt lat="47.32896" lon="-2.42579">
        <ele>19.799999237061</ele>
        <time>2019-08-04T08:03:52.000Z</time>
      </trkpt>
      <trkpt lat="47.32889" lon="-2.42616">
        <ele>19.799999237061</ele>
        <time>2019-08-04T08:03:58.000Z</time>
      </trkpt>
      <trkpt lat="47.32884" lon="-2.42637">
        <ele>19.799999237061</ele>
        <time>2019-08-04T08:04:01.000Z</time>
      </trkpt>
      <trkpt lat="47.32881" lon="-2.42658">
        <ele>19.799999237061</ele>
        <time>2019-08-04T08:04:04.000Z</time>
      </trkpt>
      <trkpt lat="47.32875" lon="-2.42696">
        <ele>19.799999237061</ele>
        <time>2019-08-04T08:04:10.000Z</time>
      </trkpt>
      <trkpt lat="47.32875" lon="-2.42711">
        <ele>19.799999237061</ele>
        <time>2019-08-04T08:04:13.000Z</time>
      </trkpt>
      <trkpt lat="47.32877" lon="-2.42715">
        <ele>19.799999237061</ele>
        <time>2019-08-04T08:04:14.000Z</time>
      </trkpt>
      <trkpt lat="47.32888" lon="-2.42722">
        <ele>19.799999237061</ele>
        <time>2019-08-04T08:04:17.000Z</time>
      </trkpt>
      <trkpt lat="47.32892" lon="-2.42725">
        <ele>19.799999237061</ele>
        <time>2019-08-04T08:04:18.000Z</time>
      </trkpt>
      <trkpt lat="47.32918" lon="-2.4274">
        <ele>19.799999237061</ele>
        <time>2019-08-04T08:04:23.000Z</time>
      </trkpt>
      <trkpt lat="47.32933" lon="-2.42751">
        <ele>19.799999237061</ele>
        <time>2019-08-04T08:04:26.000Z</time>
      </trkpt>
      <trkpt lat="47.32943" lon="-2.42759">
        <ele>19.799999237061</ele>
        <time>2019-08-04T08:04:28.000Z</time>
      </trkpt>
      <trkpt lat="47.32948" lon="-2.42764">
        <ele>19.799999237061</ele>
        <time>2019-08-04T08:04:29.000Z</time>
      </trkpt>
      <trkpt lat="47.32958" lon="-2.42782">
        <ele>19.799999237061</ele>
        <time>2019-08-04T08:04:32.000Z</time>
      </trkpt>
      <trkpt lat="47.32961" lon="-2.42789">
        <ele>19.799999237061</ele>
        <time>2019-08-04T08:04:33.000Z</time>
      </trkpt>
      <trkpt lat="47.32966" lon="-2.42803">
        <ele>19.799999237061</ele>
        <time>2019-08-04T08:04:35.000Z</time>
      </trkpt>
      <trkpt lat="47.3297" lon="-2.42818">
        <ele>19.799999237061</ele>
        <time>2019-08-04T08:04:37.000Z</time>
      </trkpt>
      <trkpt lat="47.32977" lon="-2.42866">
        <ele>19.799999237061</ele>
        <time>2019-08-04T08:04:43.000Z</time>
      </trkpt>
      <trkpt lat="47.32979" lon="-2.42919">
        <ele>19.799999237061</ele>
        <time>2019-08-04T08:04:50.000Z</time>
      </trkpt>
      <trkpt lat="47.32978" lon="-2.42942">
        <ele>19.799999237061</ele>
        <time>2019-08-04T08:04:54.000Z</time>
      </trkpt>
      <trkpt lat="47.32979" lon="-2.42954">
        <ele>19.799999237061</ele>
        <time>2019-08-04T08:04:56.000Z</time>
      </trkpt>
      <trkpt lat="47.32979" lon="-2.42975">
        <ele>19.799999237061</ele>
        <time>2019-08-04T08:04:59.000Z</time>
      </trkpt>
      <trkpt lat="47.32979" lon="-2.43031">
        <ele>19.799999237061</ele>
        <time>2019-08-04T08:05:06.000Z</time>
      </trkpt>
      <trkpt lat="47.32979" lon="-2.43083">
        <ele>19.799999237061</ele>
        <time>2019-08-04T08:05:12.000Z</time>
      </trkpt>
      <trkpt lat="47.32978" lon="-2.4309">
        <ele>19.799999237061</ele>
        <time>2019-08-04T08:05:13.000Z</time>
      </trkpt>
      <trkpt lat="47.32977" lon="-2.43098">
        <ele>19.39999961853</ele>
        <time>2019-08-04T08:05:14.000Z</time>
      </trkpt>
      <trkpt lat="47.32975" lon="-2.43105">
        <ele>19</ele>
        <time>2019-08-04T08:05:15.000Z</time>
      </trkpt>
      <trkpt lat="47.32973" lon="-2.43112">
        <ele>18.60000038147</ele>
        <time>2019-08-04T08:05:16.000Z</time>
      </trkpt>
      <trkpt lat="47.3297" lon="-2.43118">
        <ele>18.200000762939</ele>
        <time>2019-08-04T08:05:17.000Z</time>
      </trkpt>
      <trkpt lat="47.32967" lon="-2.43125">
        <ele>17.799999237061</ele>
        <time>2019-08-04T08:05:18.000Z</time>
      </trkpt>
      <trkpt lat="47.32936" lon="-2.43168">
        <ele>17.799999237061</ele>
        <time>2019-08-04T08:05:25.000Z</time>
      </trkpt>
      <trkpt lat="47.3291" lon="-2.43192">
        <ele>17.799999237061</ele>
        <time>2019-08-04T08:05:30.000Z</time>
      </trkpt>
      <trkpt lat="47.32901" lon="-2.432">
        <ele>17.799999237061</ele>
        <time>2019-08-04T08:05:32.000Z</time>
      </trkpt>
      <trkpt lat="47.3288" lon="-2.43215">
        <ele>17.799999237061</ele>
        <time>2019-08-04T08:05:36.000Z</time>
      </trkpt>
      <trkpt lat="47.32853" lon="-2.43235">
        <ele>17.39999961853</ele>
        <time>2019-08-04T08:05:41.000Z</time>
      </trkpt>
      <trkpt lat="47.32848" lon="-2.43238">
        <ele>17</ele>
        <time>2019-08-04T08:05:42.000Z</time>
      </trkpt>
      <trkpt lat="47.32842" lon="-2.43242">
        <ele>16.60000038147</ele>
        <time>2019-08-04T08:05:43.000Z</time>
      </trkpt>
      <trkpt lat="47.32837" lon="-2.43246">
        <ele>16.200000762939</ele>
        <time>2019-08-04T08:05:44.000Z</time>
      </trkpt>
      <trkpt lat="47.32831" lon="-2.43249">
        <ele>15.800000190735</ele>
        <time>2019-08-04T08:05:45.000Z</time>
      </trkpt>
      <trkpt lat="47.32797" lon="-2.43267">
        <ele>15.800000190735</ele>
        <time>2019-08-04T08:05:51.000Z</time>
      </trkpt>
      <trkpt lat="47.3276" lon="-2.4328">
        <ele>15.800000190735</ele>
        <time>2019-08-04T08:05:58.000Z</time>
      </trkpt>
      <trkpt lat="47.32726" lon="-2.43291">
        <ele>15.800000190735</ele>
        <time>2019-08-04T08:06:05.000Z</time>
      </trkpt>
      <trkpt lat="47.32715" lon="-2.43293">
        <ele>15.800000190735</ele>
        <time>2019-08-04T08:06:07.000Z</time>
      </trkpt>
      <trkpt lat="47.32704" lon="-2.43291">
        <ele>15.800000190735</ele>
        <time>2019-08-04T08:06:09.000Z</time>
      </trkpt>
      <trkpt lat="47.32699" lon="-2.43289">
        <ele>15.800000190735</ele>
        <time>2019-08-04T08:06:10.000Z</time>
      </trkpt>
      <trkpt lat="47.32682" lon="-2.43278">
        <ele>15.800000190735</ele>
        <time>2019-08-04T08:06:13.000Z</time>
      </trkpt>
      <trkpt lat="47.32662" lon="-2.43253">
        <ele>15.800000190735</ele>
        <time>2019-08-04T08:06:17.000Z</time>
      </trkpt>
      <trkpt lat="47.32659" lon="-2.43247">
        <ele>15.800000190735</ele>
        <time>2019-08-04T08:06:18.000Z</time>
      </trkpt>
      <trkpt lat="47.32647" lon="-2.4322">
        <ele>15.800000190735</ele>
        <time>2019-08-04T08:06:22.000Z</time>
      </trkpt>
      <trkpt lat="47.32644" lon="-2.43213">
        <ele>15.800000190735</ele>
        <time>2019-08-04T08:06:23.000Z</time>
      </trkpt>
      <trkpt lat="47.32637" lon="-2.43182">
        <ele>15.800000190735</ele>
        <time>2019-08-04T08:06:27.000Z</time>
      </trkpt>
      <trkpt lat="47.32626" lon="-2.43133">
        <ele>15.800000190735</ele>
        <time>2019-08-04T08:06:33.000Z</time>
      </trkpt>
      <trkpt lat="47.32615" lon="-2.43092">
        <ele>15.800000190735</ele>
        <time>2019-08-04T08:06:39.000Z</time>
      </trkpt>
      <trkpt lat="47.3261" lon="-2.43082">
        <ele>15.800000190735</ele>
        <time>2019-08-04T08:06:41.000Z</time>
      </trkpt>
      <trkpt lat="47.32603" lon="-2.43077">
        <ele>15.800000190735</ele>
        <time>2019-08-04T08:06:43.000Z</time>
      </trkpt>
      <trkpt lat="47.32579" lon="-2.43082">
        <ele>15.800000190735</ele>
        <time>2019-08-04T08:06:48.000Z</time>
      </trkpt>
      <trkpt lat="47.32573" lon="-2.43083">
        <ele>15.800000190735</ele>
        <time>2019-08-04T08:06:49.000Z</time>
      </trkpt>
      <trkpt lat="47.32547" lon="-2.43086">
        <ele>15.800000190735</ele>
        <time>2019-08-04T08:06:54.000Z</time>
      </trkpt>
      <trkpt lat="47.32518" lon="-2.43083">
        <ele>15.800000190735</ele>
        <time>2019-08-04T08:06:59.000Z</time>
      </trkpt>
      <trkpt lat="47.32475" lon="-2.43081">
        <ele>15.800000190735</ele>
        <time>2019-08-04T08:07:05.000Z</time>
      </trkpt>
      <trkpt lat="47.3246" lon="-2.43079">
        <ele>15.199999809265</ele>
        <time>2019-08-04T08:07:07.000Z</time>
      </trkpt>
      <trkpt lat="47.32451" lon="-2.43078">
        <ele>14.800000190735</ele>
        <time>2019-08-04T08:07:08.000Z</time>
      </trkpt>
      <trkpt lat="47.32443" lon="-2.43077">
        <ele>14.39999961853</ele>
        <time>2019-08-04T08:07:09.000Z</time>
      </trkpt>
      <trkpt lat="47.32435" lon="-2.43076">
        <ele>13.39999961853</ele>
        <time>2019-08-04T08:07:10.000Z</time>
      </trkpt>
      <trkpt lat="47.32426" lon="-2.43075">
        <ele>13</ele>
        <time>2019-08-04T08:07:11.000Z</time>
      </trkpt>
      <trkpt lat="47.32417" lon="-2.43073">
        <ele>12.60000038147</ele>
        <time>2019-08-04T08:07:12.000Z</time>
      </trkpt>
      <trkpt lat="47.32409" lon="-2.43071">
        <ele>12.199999809265</ele>
        <time>2019-08-04T08:07:13.000Z</time>
      </trkpt>
      <trkpt lat="47.324" lon="-2.4307">
        <ele>11.60000038147</ele>
        <time>2019-08-04T08:07:14.000Z</time>
      </trkpt>
      <trkpt lat="47.32391" lon="-2.4307">
        <ele>11.199999809265</ele>
        <time>2019-08-04T08:07:15.000Z</time>
      </trkpt>
      <trkpt lat="47.32381" lon="-2.43072">
        <ele>10.60000038147</ele>
        <time>2019-08-04T08:07:16.000Z</time>
      </trkpt>
      <trkpt lat="47.32372" lon="-2.43074">
        <ele>10</ele>
        <time>2019-08-04T08:07:17.000Z</time>
      </trkpt>
      <trkpt lat="47.32362" lon="-2.43076">
        <ele>9.6000003814697</ele>
        <time>2019-08-04T08:07:18.000Z</time>
      </trkpt>
      <trkpt lat="47.32353" lon="-2.43079">
        <ele>9</ele>
        <time>2019-08-04T08:07:19.000Z</time>
      </trkpt>
      <trkpt lat="47.32343" lon="-2.43083">
        <ele>8.6000003814697</ele>
        <time>2019-08-04T08:07:20.000Z</time>
      </trkpt>
      <trkpt lat="47.32334" lon="-2.43087">
        <ele>8</ele>
        <time>2019-08-04T08:07:21.000Z</time>
      </trkpt>
      <trkpt lat="47.32325" lon="-2.43092">
        <ele>7.5999999046326</ele>
        <time>2019-08-04T08:07:22.000Z</time>
      </trkpt>
      <trkpt lat="47.32316" lon="-2.43097">
        <ele>7.1999998092651</ele>
        <time>2019-08-04T08:07:23.000Z</time>
      </trkpt>
      <trkpt lat="47.32307" lon="-2.43103">
        <ele>6.5999999046326</ele>
        <time>2019-08-04T08:07:24.000Z</time>
      </trkpt>
      <trkpt lat="47.32291" lon="-2.43114">
        <ele>6.5999999046326</ele>
        <time>2019-08-04T08:07:26.000Z</time>
      </trkpt>
      <trkpt lat="47.32261" lon="-2.43129">
        <ele>6.1999998092651</ele>
        <time>2019-08-04T08:07:30.000Z</time>
      </trkpt>
      <trkpt lat="47.32254" lon="-2.43133">
        <ele>5.8000001907349</ele>
        <time>2019-08-04T08:07:31.000Z</time>
      </trkpt>
      <trkpt lat="47.32247" lon="-2.43136">
        <ele>5.4000000953674</ele>
        <time>2019-08-04T08:07:32.000Z</time>
      </trkpt>
      <trkpt lat="47.3224" lon="-2.43139">
        <ele>5</ele>
        <time>2019-08-04T08:07:33.000Z</time>
      </trkpt>
      <trkpt lat="47.32232" lon="-2.43142">
        <ele>4.5999999046326</ele>
        <time>2019-08-04T08:07:34.000Z</time>
      </trkpt>
      <trkpt lat="47.32202" lon="-2.43156">
        <ele>4.5999999046326</ele>
        <time>2019-08-04T08:07:38.000Z</time>
      </trkpt>
      <trkpt lat="47.32162" lon="-2.43174">
        <ele>4.1999998092651</ele>
        <time>2019-08-04T08:07:43.000Z</time>
      </trkpt>
      <trkpt lat="47.32154" lon="-2.43178">
        <ele>3.7999999523163</ele>
        <time>2019-08-04T08:07:44.000Z</time>
      </trkpt>
      <trkpt lat="47.32145" lon="-2.43181">
        <ele>3.4000000953674</ele>
        <time>2019-08-04T08:07:45.000Z</time>
      </trkpt>
      <trkpt lat="47.32137" lon="-2.43185">
        <ele>3</ele>
        <time>2019-08-04T08:07:46.000Z</time>
      </trkpt>
      <trkpt lat="47.32128" lon="-2.43189">
        <ele>2.5999999046326</ele>
        <time>2019-08-04T08:07:47.000Z</time>
      </trkpt>
      <trkpt lat="47.32086" lon="-2.43208">
        <ele>2.5999999046326</ele>
        <time>2019-08-04T08:07:52.000Z</time>
      </trkpt>
      <trkpt lat="47.32061" lon="-2.4322">
        <ele>2</ele>
        <time>2019-08-04T08:07:55.000Z</time>
      </trkpt>
      <trkpt lat="47.32053" lon="-2.43225">
        <ele>1.6000000238419</ele>
        <time>2019-08-04T08:07:56.000Z</time>
      </trkpt>
      <trkpt lat="47.32046" lon="-2.4323">
        <ele>1.2000000476837</ele>
        <time>2019-08-04T08:07:57.000Z</time>
      </trkpt>
      <trkpt lat="47.32038" lon="-2.43236">
        <ele>0.80000001192093</ele>
        <time>2019-08-04T08:07:58.000Z</time>
      </trkpt>
      <trkpt lat="47.32031" lon="-2.43242">
        <ele>0.40000000596046</ele>
        <time>2019-08-04T08:07:59.000Z</time>
      </trkpt>
      <trkpt lat="47.32015" lon="-2.43253">
        <ele>27.2</ele>
        <time>2019-08-04T08:08:01.000Z</time>
      </trkpt>
      <trkpt lat="47.32007" lon="-2.43259">
        <ele>-0.40000000596046</ele>
        <time>2019-08-04T08:08:02.000Z</time>
      </trkpt>
      <trkpt lat="47.32" lon="-2.43264">
        <ele>-0.80000001192093</ele>
        <time>2019-08-04T08:08:03.000Z</time>
      </trkpt>
      <trkpt lat="47.31992" lon="-2.4327">
        <ele>-1.2000000476837</ele>
        <time>2019-08-04T08:08:04.000Z</time>
      </trkpt>
      <trkpt lat="47.31984" lon="-2.43275">
        <ele>-1.6000000238419</ele>
        <time>2019-08-04T08:08:05.000Z</time>
      </trkpt>
      <trkpt lat="47.31976" lon="-2.4328">
        <ele>-2.2000000476837</ele>
        <time>2019-08-04T08:08:06.000Z</time>
      </trkpt>
      <trkpt lat="47.31968" lon="-2.43284">
        <ele>-2.5999999046326</ele>
        <time>2019-08-04T08:08:07.000Z</time>
      </trkpt>
      <trkpt lat="47.31959" lon="-2.43287">
        <ele>-3.2000000476837</ele>
        <time>2019-08-04T08:08:08.000Z</time>
      </trkpt>
      <trkpt lat="47.31951" lon="-2.43291">
        <ele>-3.7999999523163</ele>
        <time>2019-08-04T08:08:09.000Z</time>
      </trkpt>
      <trkpt lat="47.31942" lon="-2.43294">
        <ele>-4.1999998092651</ele>
        <time>2019-08-04T08:08:10.000Z</time>
      </trkpt>
      <trkpt lat="47.31933" lon="-2.43298">
        <ele>-4.8000001907349</ele>
        <time>2019-08-04T08:08:11.000Z</time>
      </trkpt>
      <trkpt lat="47.31923" lon="-2.43303">
        <ele>-5.4000000953674</ele>
        <time>2019-08-04T08:08:12.000Z</time>
      </trkpt>
      <trkpt lat="47.31913" lon="-2.43308">
        <ele>-6</ele>
        <time>2019-08-04T08:08:13.000Z</time>
      </trkpt>
      <trkpt lat="47.31903" lon="-2.43315">
        <ele>-6.4000000953674</ele>
        <time>2019-08-04T08:08:14.000Z</time>
      </trkpt>
      <trkpt lat="47.31893" lon="-2.43322">
        <ele>-7</ele>
        <time>2019-08-04T08:08:15.000Z</time>
      </trkpt>
      <trkpt lat="47.31884" lon="-2.43329">
        <ele>-7.5999999046326</ele>
        <time>2019-08-04T08:08:16.000Z</time>
      </trkpt>
      <trkpt lat="47.31874" lon="-2.43336">
        <ele>-8</ele>
        <time>2019-08-04T08:08:17.000Z</time>
      </trkpt>
      <trkpt lat="47.31865" lon="-2.43342">
        <ele>-8.3999996185303</ele>
        <time>2019-08-04T08:08:18.000Z</time>
      </trkpt>
      <trkpt lat="47.31856" lon="-2.4335">
        <ele>-9</ele>
        <time>2019-08-04T08:08:19.000Z</time>
      </trkpt>
      <trkpt lat="47.31847" lon="-2.43357">
        <ele>-9.3999996185303</ele>
        <time>2019-08-04T08:08:20.000Z</time>
      </trkpt>
      <trkpt lat="47.31839" lon="-2.43365">
        <ele>-9.8000001907349</ele>
        <time>2019-08-04T08:08:21.000Z</time>
      </trkpt>
      <trkpt lat="47.31831" lon="-2.43372">
        <ele>-10.39999961853</ele>
        <time>2019-08-04T08:08:22.000Z</time>
      </trkpt>
      <trkpt lat="47.31822" lon="-2.43379">
        <ele>-10.800000190735</ele>
        <time>2019-08-04T08:08:23.000Z</time>
      </trkpt>
      <trkpt lat="47.31814" lon="-2.43385">
        <ele>-11.39999961853</ele>
        <time>2019-08-04T08:08:24.000Z</time>
      </trkpt>
      <trkpt lat="47.31805" lon="-2.43391">
        <ele>-12.39999961853</ele>
        <time>2019-08-04T08:08:25.000Z</time>
      </trkpt>
      <trkpt lat="47.31789" lon="-2.434">
        <ele>-12.39999961853</ele>
        <time>2019-08-04T08:08:27.000Z</time>
      </trkpt>
      <trkpt lat="47.31772" lon="-2.43409">
        <ele>-12.800000190735</ele>
        <time>2019-08-04T08:08:29.000Z</time>
      </trkpt>
      <trkpt lat="47.31764" lon="-2.43413">
        <ele>-13.199999809265</ele>
        <time>2019-08-04T08:08:30.000Z</time>
      </trkpt>
      <trkpt lat="47.31757" lon="-2.43417">
        <ele>-13.60000038147</ele>
        <time>2019-08-04T08:08:31.000Z</time>
      </trkpt>
      <trkpt lat="47.31749" lon="-2.43422">
        <ele>-14.199999809265</ele>
        <time>2019-08-04T08:08:32.000Z</time>
      </trkpt>
      <trkpt lat="47.31742" lon="-2.43426">
        <ele>-14.60000038147</ele>
        <time>2019-08-04T08:08:33.000Z</time>
      </trkpt>
      <trkpt lat="47.31727" lon="-2.43436">
        <ele>-14.60000038147</ele>
        <time>2019-08-04T08:08:35.000Z</time>
      </trkpt>
      <trkpt lat="47.31719" lon="-2.43443">
        <ele>-15</ele>
        <time>2019-08-04T08:08:36.000Z</time>
      </trkpt>
      <trkpt lat="47.31713" lon="-2.43451">
        <ele>-15.39999961853</ele>
        <time>2019-08-04T08:08:37.000Z</time>
      </trkpt>
      <trkpt lat="47.31707" lon="-2.43461">
        <ele>-15.800000190735</ele>
        <time>2019-08-04T08:08:38.000Z</time>
      </trkpt>
      <trkpt lat="47.31702" lon="-2.43472">
        <ele>-16.200000762939</ele>
        <time>2019-08-04T08:08:39.000Z</time>
      </trkpt>
      <trkpt lat="47.31698" lon="-2.43483">
        <ele>-16.799999237061</ele>
        <time>2019-08-04T08:08:40.000Z</time>
      </trkpt>
      <trkpt lat="47.31688" lon="-2.43504">
        <ele>-16.799999237061</ele>
        <time>2019-08-04T08:08:42.000Z</time>
      </trkpt>
      <trkpt lat="47.31656" lon="-2.43553">
        <ele>-16.799999237061</ele>
        <time>2019-08-04T08:08:47.000Z</time>
      </trkpt>
      <trkpt lat="47.31621" lon="-2.43591">
        <ele>-17.200000762939</ele>
        <time>2019-08-04T08:08:52.000Z</time>
      </trkpt>
      <trkpt lat="47.31613" lon="-2.43598">
        <ele>-17.60000038147</ele>
        <time>2019-08-04T08:08:53.000Z</time>
      </trkpt>
      <trkpt lat="47.31605" lon="-2.43603">
        <ele>-18</ele>
        <time>2019-08-04T08:08:54.000Z</time>
      </trkpt>
      <trkpt lat="47.31597" lon="-2.4361">
        <ele>-18.39999961853</ele>
        <time>2019-08-04T08:08:55.000Z</time>
      </trkpt>
      <trkpt lat="47.31589" lon="-2.43616">
        <ele>-18.799999237061</ele>
        <time>2019-08-04T08:08:56.000Z</time>
      </trkpt>
      <trkpt lat="47.31557" lon="-2.4364">
        <ele>-18.799999237061</ele>
        <time>2019-08-04T08:09:00.000Z</time>
      </trkpt>
      <trkpt lat="47.31502" lon="-2.43684">
        <ele>-18.799999237061</ele>
        <time>2019-08-04T08:09:07.000Z</time>
      </trkpt>
      <trkpt lat="47.31485" lon="-2.43695">
        <ele>-18.799999237061</ele>
        <time>2019-08-04T08:09:09.000Z</time>
      </trkpt>
      <trkpt lat="47.31477" lon="-2.43701">
        <ele>-19.200000762939</ele>
        <time>2019-08-04T08:09:10.000Z</time>
      </trkpt>
      <trkpt lat="47.31469" lon="-2.43707">
        <ele>-19.60000038147</ele>
        <time>2019-08-04T08:09:11.000Z</time>
      </trkpt>
      <trkpt lat="47.31461" lon="-2.43713">
        <ele>-20</ele>
        <time>2019-08-04T08:09:12.000Z</time>
      </trkpt>
      <trkpt lat="47.31452" lon="-2.43719">
        <ele>-20.60000038147</ele>
        <time>2019-08-04T08:09:13.000Z</time>
      </trkpt>
      <trkpt lat="47.31443" lon="-2.43726">
        <ele>-21.799999237061</ele>
        <time>2019-08-04T08:09:14.000Z</time>
      </trkpt>
      <trkpt lat="47.31435" lon="-2.43731">
        <ele>-22.60000038147</ele>
        <time>2019-08-04T08:09:15.000Z</time>
      </trkpt>
      <trkpt lat="47.31427" lon="-2.43737">
        <ele>-23.200000762939</ele>
        <time>2019-08-04T08:09:16.000Z</time>
      </trkpt>
      <trkpt lat="47.31377" lon="-2.43773">
        <ele>-23.200000762939</ele>
        <time>2019-08-04T08:09:22.000Z</time>
      </trkpt>
      <trkpt lat="47.31369" lon="-2.43779">
        <ele>-23.200000762939</ele>
        <time>2019-08-04T08:09:23.000Z</time>
      </trkpt>
      <trkpt lat="47.31344" lon="-2.43802">
        <ele>-23.200000762939</ele>
        <time>2019-08-04T08:09:27.000Z</time>
      </trkpt>
      <trkpt lat="47.31335" lon="-2.43811">
        <ele>-23.60000038147</ele>
        <time>2019-08-04T08:09:29.000Z</time>
      </trkpt>
      <trkpt lat="47.31331" lon="-2.43815">
        <ele>-24</ele>
        <time>2019-08-04T08:09:30.000Z</time>
      </trkpt>
      <trkpt lat="47.31328" lon="-2.43818">
        <ele>-24.39999961853</ele>
        <time>2019-08-04T08:09:31.000Z</time>
      </trkpt>
      <trkpt lat="47.31325" lon="-2.43822">
        <ele>-24.799999237061</ele>
        <time>2019-08-04T08:09:32.000Z</time>
      </trkpt>
      <trkpt lat="47.31324" lon="-2.43826">
        <ele>-25.39999961853</ele>
        <time>2019-08-04T08:09:33.000Z</time>
      </trkpt>
      <trkpt lat="47.31322" lon="-2.43829">
        <ele>-25.39999961853</ele>
        <time>2019-08-04T08:09:34.000Z</time>
      </trkpt>
      <trkpt lat="47.3132" lon="-2.4383">
        <ele>-25.39999961853</ele>
        <time>2019-08-04T08:09:35.000Z</time>
      </trkpt>
      <trkpt lat="47.31313" lon="-2.43827">
        <ele>-25.39999961853</ele>
        <time>2019-08-04T08:09:38.000Z</time>
      </trkpt>
      <trkpt lat="47.3131" lon="-2.43826">
        <ele>-25.39999961853</ele>
        <time>2019-08-04T08:09:39.000Z</time>
      </trkpt>
      <trkpt lat="47.31296" lon="-2.43808">
        <ele>-25.39999961853</ele>
        <time>2019-08-04T08:09:45.000Z</time>
      </trkpt>
      <trkpt lat="47.31283" lon="-2.43781">
        <ele>-25.39999961853</ele>
        <time>2019-08-04T08:09:51.000Z</time>
      </trkpt>
      <trkpt lat="47.31271" lon="-2.43751">
        <ele>-25.39999961853</ele>
        <time>2019-08-04T08:09:57.000Z</time>
      </trkpt>
      <trkpt lat="47.31264" lon="-2.43736">
        <ele>-25.39999961853</ele>
        <time>2019-08-04T08:10:02.000Z</time>
      </trkpt>
      <trkpt lat="47.31255" lon="-2.43712">
        <ele>-25.39999961853</ele>
        <time>2019-08-04T08:10:09.000Z</time>
      </trkpt>
      <trkpt lat="47.31246" lon="-2.43685">
        <ele>-25.39999961853</ele>
        <time>2019-08-04T08:10:18.000Z</time>
      </trkpt>
      <trkpt lat="47.3124" lon="-2.43657">
        <ele>-25.39999961853</ele>
        <time>2019-08-04T08:10:25.000Z</time>
      </trkpt>
      <trkpt lat="47.31234" lon="-2.43618">
        <ele>-25.39999961853</ele>
        <time>2019-08-04T08:10:33.000Z</time>
      </trkpt>
      <trkpt lat="47.31229" lon="-2.43576">
        <ele>-25.39999961853</ele>
        <time>2019-08-04T08:10:39.000Z</time>
      </trkpt>
      <trkpt lat="47.31222" lon="-2.43534">
        <ele>-25.39999961853</ele>
        <time>2019-08-04T08:10:45.000Z</time>
      </trkpt>
      <trkpt lat="47.31216" lon="-2.43494">
        <ele>-25.39999961853</ele>
        <time>2019-08-04T08:10:52.000Z</time>
      </trkpt>
      <trkpt lat="47.31212" lon="-2.43464">
        <ele>-25.39999961853</ele>
        <time>2019-08-04T08:10:59.000Z</time>
      </trkpt>
      <trkpt lat="47.31208" lon="-2.43439">
        <ele>-25.39999961853</ele>
        <time>2019-08-04T08:11:06.000Z</time>
      </trkpt>
      <trkpt lat="47.31204" lon="-2.43414">
        <ele>-25.39999961853</ele>
        <time>2019-08-04T08:11:13.000Z</time>
      </trkpt>
      <trkpt lat="47.31201" lon="-2.4339">
        <ele>-25.39999961853</ele>
        <time>2019-08-04T08:11:17.000Z</time>
      </trkpt>
      <trkpt lat="47.31194" lon="-2.43344">
        <ele>-25.39999961853</ele>
        <time>2019-08-04T08:11:23.000Z</time>
      </trkpt>
      <trkpt lat="47.3119" lon="-2.43332">
        <ele>-25.39999961853</ele>
        <time>2019-08-04T08:11:26.000Z</time>
      </trkpt>
      <trkpt lat="47.31182" lon="-2.43308">
        <ele>-25.39999961853</ele>
        <time>2019-08-04T08:11:32.000Z</time>
      </trkpt>
      <trkpt lat="47.31177" lon="-2.43297">
        <ele>-25.39999961853</ele>
        <time>2019-08-04T08:11:34.000Z</time>
      </trkpt>
      <trkpt lat="47.31171" lon="-2.43285">
        <ele>-25.39999961853</ele>
        <time>2019-08-04T08:11:36.000Z</time>
      </trkpt>
      <trkpt lat="47.31149" lon="-2.43253">
        <ele>-25.39999961853</ele>
        <time>2019-08-04T08:11:41.000Z</time>
      </trkpt>
      <trkpt lat="47.31119" lon="-2.43206">
        <ele>-25.39999961853</ele>
        <time>2019-08-04T08:11:48.000Z</time>
      </trkpt>
      <trkpt lat="47.3111" lon="-2.43196">
        <ele>-25.39999961853</ele>
        <time>2019-08-04T08:11:50.000Z</time>
      </trkpt>
      <trkpt lat="47.31104" lon="-2.43195">
        <ele>-25.39999961853</ele>
        <time>2019-08-04T08:11:51.000Z</time>
      </trkpt>
      <trkpt lat="47.3109" lon="-2.43202">
        <ele>-25.39999961853</ele>
        <time>2019-08-04T08:11:54.000Z</time>
      </trkpt>
      <trkpt lat="47.31081" lon="-2.4321">
        <ele>-25.39999961853</ele>
        <time>2019-08-04T08:11:56.000Z</time>
      </trkpt>
      <trkpt lat="47.31067" lon="-2.43223">
        <ele>-25.39999961853</ele>
        <time>2019-08-04T08:11:59.000Z</time>
      </trkpt>
      <trkpt lat="47.31057" lon="-2.43231">
        <ele>-25.799999237061</ele>
        <time>2019-08-04T08:12:01.000Z</time>
      </trkpt>
      <trkpt lat="47.31052" lon="-2.43235">
        <ele>-26.200000762939</ele>
        <time>2019-08-04T08:12:02.000Z</time>
      </trkpt>
      <trkpt lat="47.31048" lon="-2.4324">
        <ele>-26.60000038147</ele>
        <time>2019-08-04T08:12:03.000Z</time>
      </trkpt>
      <trkpt lat="47.31043" lon="-2.43245">
        <ele>-27</ele>
        <time>2019-08-04T08:12:04.000Z</time>
      </trkpt>
      <trkpt lat="47.31039" lon="-2.4325">
        <ele>-27.39999961853</ele>
        <time>2019-08-04T08:12:05.000Z</time>
      </trkpt>
      <trkpt lat="47.31035" lon="-2.43256">
        <ele>-27.39999961853</ele>
        <time>2019-08-04T08:12:06.000Z</time>
      </trkpt>
      <trkpt lat="47.31001" lon="-2.43303">
        <ele>-27.39999961853</ele>
        <time>2019-08-04T08:12:14.000Z</time>
      </trkpt>
      <trkpt lat="47.30994" lon="-2.43311">
        <ele>-27.39999961853</ele>
        <time>2019-08-04T08:12:16.000Z</time>
      </trkpt>
      <trkpt lat="47.30986" lon="-2.43316">
        <ele>-27.39999961853</ele>
        <time>2019-08-04T08:12:18.000Z</time>
      </trkpt>
      <trkpt lat="47.30974" lon="-2.43317">
        <ele>-27.39999961853</ele>
        <time>2019-08-04T08:12:21.000Z</time>
      </trkpt>
      <trkpt lat="47.30967" lon="-2.4332">
        <ele>-27.39999961853</ele>
        <time>2019-08-04T08:12:23.000Z</time>
      </trkpt>
      <trkpt lat="47.30952" lon="-2.43325">
        <ele>-27.39999961853</ele>
        <time>2019-08-04T08:12:28.000Z</time>
      </trkpt>
      <trkpt lat="47.30952" lon="-2.43325">
        <ele>-27.39999961853</ele>
        <time>2019-08-04T08:12:29.000Z</time>
      </trkpt>
      <trkpt lat="47.3095" lon="-2.43326">
        <ele>-29.39999961853</ele>
        <time>2019-08-04T08:13:43.000Z</time>
      </trkpt>
      <trkpt lat="47.30949" lon="-2.43327">
        <ele>-29.39999961853</ele>
        <time>2019-08-04T08:13:44.000Z</time>
      </trkpt>
      <trkpt lat="47.30934" lon="-2.43333">
        <ele>-29.39999961853</ele>
        <time>2019-08-04T08:13:49.000Z</time>
      </trkpt>
      <trkpt lat="47.30912" lon="-2.43343">
        <ele>-29.39999961853</ele>
        <time>2019-08-04T08:13:54.000Z</time>
      </trkpt>
      <trkpt lat="47.30882" lon="-2.43355">
        <ele>-29.39999961853</ele>
        <time>2019-08-04T08:14:01.000Z</time>
      </trkpt>
      <trkpt lat="47.30857" lon="-2.43366">
        <ele>-29.39999961853</ele>
        <time>2019-08-04T08:14:06.000Z</time>
      </trkpt>
      <trkpt lat="47.30813" lon="-2.43384">
        <ele>-29.39999961853</ele>
        <time>2019-08-04T08:14:14.000Z</time>
      </trkpt>
      <trkpt lat="47.30797" lon="-2.43389">
        <ele>-29.39999961853</ele>
        <time>2019-08-04T08:14:17.000Z</time>
      </trkpt>
      <trkpt lat="47.30779" lon="-2.43389">
        <ele>-29.39999961853</ele>
        <time>2019-08-04T08:14:20.000Z</time>
      </trkpt>
      <trkpt lat="47.30733" lon="-2.4339">
        <ele>-29.39999961853</ele>
        <time>2019-08-04T08:14:28.000Z</time>
      </trkpt>
      <trkpt lat="47.30677" lon="-2.43394">
        <ele>-29.39999961853</ele>
        <time>2019-08-04T08:14:38.000Z</time>
      </trkpt>
      <trkpt lat="47.30637" lon="-2.43402">
        <ele>-29.39999961853</ele>
        <time>2019-08-04T08:14:45.000Z</time>
      </trkpt>
      <trkpt lat="47.30597" lon="-2.43412">
        <ele>-29.39999961853</ele>
        <time>2019-08-04T08:14:52.000Z</time>
      </trkpt>
      <trkpt lat="47.30546" lon="-2.43419">
        <ele>-29.39999961853</ele>
        <time>2019-08-04T08:15:01.000Z</time>
      </trkpt>
      <trkpt lat="47.30506" lon="-2.43415">
        <ele>-29.39999961853</ele>
        <time>2019-08-04T08:15:08.000Z</time>
      </trkpt>
      <trkpt lat="47.30482" lon="-2.43413">
        <ele>-29.39999961853</ele>
        <time>2019-08-04T08:15:13.000Z</time>
      </trkpt>
      <trkpt lat="47.3047" lon="-2.43411">
        <ele>-29.39999961853</ele>
        <time>2019-08-04T08:15:15.000Z</time>
      </trkpt>
      <trkpt lat="47.30464" lon="-2.43412">
        <ele>-29.39999961853</ele>
        <time>2019-08-04T08:15:16.000Z</time>
      </trkpt>
      <trkpt lat="47.30449" lon="-2.43418">
        <ele>-29.39999961853</ele>
        <time>2019-08-04T08:15:19.000Z</time>
      </trkpt>
      <trkpt lat="47.30444" lon="-2.4342">
        <ele>-29.39999961853</ele>
        <time>2019-08-04T08:15:20.000Z</time>
      </trkpt>
      <trkpt lat="47.3043" lon="-2.43414">
        <ele>-29.39999961853</ele>
        <time>2019-08-04T08:15:23.000Z</time>
      </trkpt>
      <trkpt lat="47.30422" lon="-2.43391">
        <ele>-29.39999961853</ele>
        <time>2019-08-04T08:15:26.000Z</time>
      </trkpt>
      <trkpt lat="47.30421" lon="-2.43382">
        <ele>-29.39999961853</ele>
        <time>2019-08-04T08:15:27.000Z</time>
      </trkpt>
      <trkpt lat="47.30411" lon="-2.43332">
        <ele>-29.39999961853</ele>
        <time>2019-08-04T08:15:33.000Z</time>
      </trkpt>
      <trkpt lat="47.30395" lon="-2.43266">
        <ele>-29.39999961853</ele>
        <time>2019-08-04T08:15:41.000Z</time>
      </trkpt>
      <trkpt lat="47.30393" lon="-2.43258">
        <ele>-29.39999961853</ele>
        <time>2019-08-04T08:15:42.000Z</time>
      </trkpt>
      <trkpt lat="47.3038" lon="-2.43239">
        <ele>-29.39999961853</ele>
        <time>2019-08-04T08:15:45.000Z</time>
      </trkpt>
      <trkpt lat="47.30363" lon="-2.43236">
        <ele>-29.39999961853</ele>
        <time>2019-08-04T08:15:48.000Z</time>
      </trkpt>
      <trkpt lat="47.30351" lon="-2.43239">
        <ele>-29.39999961853</ele>
        <time>2019-08-04T08:15:50.000Z</time>
      </trkpt>
      <trkpt lat="47.30326" lon="-2.43246">
        <ele>-29.39999961853</ele>
        <time>2019-08-04T08:15:54.000Z</time>
      </trkpt>
      <trkpt lat="47.30288" lon="-2.43255">
        <ele>-29.39999961853</ele>
        <time>2019-08-04T08:16:00.000Z</time>
      </trkpt>
      <trkpt lat="47.30248" lon="-2.43268">
        <ele>-29.39999961853</ele>
        <time>2019-08-04T08:16:06.000Z</time>
      </trkpt>
      <trkpt lat="47.302" lon="-2.43288">
        <ele>-29.39999961853</ele>
        <time>2019-08-04T08:16:14.000Z</time>
      </trkpt>
      <trkpt lat="47.30152" lon="-2.4331">
        <ele>-29.39999961853</ele>
        <time>2019-08-04T08:16:22.000Z</time>
      </trkpt>
      <trkpt lat="47.30104" lon="-2.43323">
        <ele>-29.39999961853</ele>
        <time>2019-08-04T08:16:30.000Z</time>
      </trkpt>
      <trkpt lat="47.30056" lon="-2.43334">
        <ele>-29.39999961853</ele>
        <time>2019-08-04T08:16:38.000Z</time>
      </trkpt>
      <trkpt lat="47.3002" lon="-2.43333">
        <ele>-29.39999961853</ele>
        <time>2019-08-04T08:16:44.000Z</time>
      </trkpt>
      <trkpt lat="47.29993" lon="-2.43315">
        <ele>-29.39999961853</ele>
        <time>2019-08-04T08:16:49.000Z</time>
      </trkpt>
      <trkpt lat="47.29973" lon="-2.43298">
        <ele>-29.39999961853</ele>
        <time>2019-08-04T08:16:53.000Z</time>
      </trkpt>
      <trkpt lat="47.29961" lon="-2.43295">
        <ele>-29.39999961853</ele>
        <time>2019-08-04T08:16:55.000Z</time>
      </trkpt>
      <trkpt lat="47.2994" lon="-2.43302">
        <ele>-29.39999961853</ele>
        <time>2019-08-04T08:16:59.000Z</time>
      </trkpt>
      <trkpt lat="47.29904" lon="-2.43314">
        <ele>-29.39999961853</ele>
        <time>2019-08-04T08:17:06.000Z</time>
      </trkpt>
      <trkpt lat="47.29895" lon="-2.43318">
        <ele>-29.39999961853</ele>
        <time>2019-08-04T08:17:08.000Z</time>
      </trkpt>
      <trkpt lat="47.2988" lon="-2.43326">
        <ele>-29.39999961853</ele>
        <time>2019-08-04T08:17:12.000Z</time>
      </trkpt>
      <trkpt lat="47.29863" lon="-2.43341">
        <ele>-29.39999961853</ele>
        <time>2019-08-04T08:17:17.000Z</time>
      </trkpt>
      <trkpt lat="47.2986" lon="-2.43344">
        <ele>-29.39999961853</ele>
        <time>2019-08-04T08:17:18.000Z</time>
      </trkpt>
      <trkpt lat="47.29837" lon="-2.43369">
        <ele>-29.39999961853</ele>
        <time>2019-08-04T08:17:24.000Z</time>
      </trkpt>
      <trkpt lat="47.29805" lon="-2.43404">
        <ele>-29.39999961853</ele>
        <time>2019-08-04T08:17:31.000Z</time>
      </trkpt>
      <trkpt lat="47.29771" lon="-2.43443">
        <ele>-29.39999961853</ele>
        <time>2019-08-04T08:17:38.000Z</time>
      </trkpt>
      <trkpt lat="47.29735" lon="-2.43478">
        <ele>-29.39999961853</ele>
        <time>2019-08-04T08:17:45.000Z</time>
      </trkpt>
      <trkpt lat="47.29695" lon="-2.43507">
        <ele>-29.39999961853</ele>
        <time>2019-08-04T08:17:52.000Z</time>
      </trkpt>
      <trkpt lat="47.29665" lon="-2.43528">
        <ele>-29.39999961853</ele>
        <time>2019-08-04T08:17:58.000Z</time>
      </trkpt>
      <trkpt lat="47.29648" lon="-2.43537">
        <ele>-29.39999961853</ele>
        <time>2019-08-04T08:18:04.000Z</time>
      </trkpt>
      <trkpt lat="47.29638" lon="-2.43548">
        <ele>-29.39999961853</ele>
        <time>2019-08-04T08:18:09.000Z</time>
      </trkpt>
      <trkpt lat="47.29632" lon="-2.43555">
        <ele>-29.39999961853</ele>
        <time>2019-08-04T08:18:11.000Z</time>
      </trkpt>
      <trkpt lat="47.29625" lon="-2.43554">
        <ele>-29.39999961853</ele>
        <time>2019-08-04T08:18:13.000Z</time>
      </trkpt>
      <trkpt lat="47.29621" lon="-2.43536">
        <ele>-29.39999961853</ele>
        <time>2019-08-04T08:18:16.000Z</time>
      </trkpt>
      <trkpt lat="47.29622" lon="-2.43529">
        <ele>-29.39999961853</ele>
        <time>2019-08-04T08:18:17.000Z</time>
      </trkpt>
      <trkpt lat="47.29622" lon="-2.43503">
        <ele>-29.39999961853</ele>
        <time>2019-08-04T08:18:21.000Z</time>
      </trkpt>
      <trkpt lat="47.29612" lon="-2.43496">
        <ele>-29.39999961853</ele>
        <time>2019-08-04T08:18:24.000Z</time>
      </trkpt>
      <trkpt lat="47.29598" lon="-2.43498">
        <ele>-29.39999961853</ele>
        <time>2019-08-04T08:18:27.000Z</time>
      </trkpt>
      <trkpt lat="47.29592" lon="-2.43499">
        <ele>-29.39999961853</ele>
        <time>2019-08-04T08:18:28.000Z</time>
      </trkpt>
      <trkpt lat="47.29551" lon="-2.43496">
        <ele>-29.39999961853</ele>
        <time>2019-08-04T08:18:35.000Z</time>
      </trkpt>
      <trkpt lat="47.29514" lon="-2.43488">
        <ele>-29.39999961853</ele>
        <time>2019-08-04T08:18:41.000Z</time>
      </trkpt>
      <trkpt lat="47.29481" lon="-2.43473">
        <ele>-29.39999961853</ele>
        <time>2019-08-04T08:18:47.000Z</time>
      </trkpt>
      <trkpt lat="47.29461" lon="-2.43462">
        <ele>-29.39999961853</ele>
        <time>2019-08-04T08:18:51.000Z</time>
      </trkpt>
      <trkpt lat="47.29457" lon="-2.43463">
        <ele>-29.39999961853</ele>
        <time>2019-08-04T08:18:52.000Z</time>
      </trkpt>
      <trkpt lat="47.29443" lon="-2.4346">
        <ele>-29.39999961853</ele>
        <time>2019-08-04T08:18:56.000Z</time>
      </trkpt>
      <trkpt lat="47.29438" lon="-2.43445">
        <ele>-29.39999961853</ele>
        <time>2019-08-04T08:19:00.000Z</time>
      </trkpt>
      <trkpt lat="47.29437" lon="-2.43442">
        <ele>-29.39999961853</ele>
        <time>2019-08-04T08:19:01.000Z</time>
      </trkpt>
      <trkpt lat="47.29433" lon="-2.43415">
        <ele>-29.39999961853</ele>
        <time>2019-08-04T08:19:07.000Z</time>
      </trkpt>
      <trkpt lat="47.29426" lon="-2.43394">
        <ele>-29.39999961853</ele>
        <time>2019-08-04T08:19:12.000Z</time>
      </trkpt>
      <trkpt lat="47.29415" lon="-2.43388">
        <ele>-29.39999961853</ele>
        <time>2019-08-04T08:19:16.000Z</time>
      </trkpt>
      <trkpt lat="47.29409" lon="-2.4338">
        <ele>-29.39999961853</ele>
        <time>2019-08-04T08:19:19.000Z</time>
      </trkpt>
      <trkpt lat="47.29408" lon="-2.43376">
        <ele>-29.39999961853</ele>
        <time>2019-08-04T08:19:20.000Z</time>
      </trkpt>
      <trkpt lat="47.29403" lon="-2.4335">
        <ele>-29.39999961853</ele>
        <time>2019-08-04T08:19:25.000Z</time>
      </trkpt>
      <trkpt lat="47.29394" lon="-2.43338">
        <ele>-29.39999961853</ele>
        <time>2019-08-04T08:19:28.000Z</time>
      </trkpt>
      <trkpt lat="47.29391" lon="-2.43334">
        <ele>-29.39999961853</ele>
        <time>2019-08-04T08:19:29.000Z</time>
      </trkpt>
      <trkpt lat="47.29373" lon="-2.43312">
        <ele>-29.39999961853</ele>
        <time>2019-08-04T08:19:34.000Z</time>
      </trkpt>
      <trkpt lat="47.29366" lon="-2.43304">
        <ele>-29.39999961853</ele>
        <time>2019-08-04T08:19:36.000Z</time>
      </trkpt>
      <trkpt lat="47.29359" lon="-2.43279">
        <ele>-29.39999961853</ele>
        <time>2019-08-04T08:19:40.000Z</time>
      </trkpt>
      <trkpt lat="47.29359" lon="-2.43272">
        <ele>-29.39999961853</ele>
        <time>2019-08-04T08:19:41.000Z</time>
      </trkpt>
      <trkpt lat="47.29359" lon="-2.43266">
        <ele>-29.39999961853</ele>
        <time>2019-08-04T08:19:42.000Z</time>
      </trkpt>
      <trkpt lat="47.29361" lon="-2.43246">
        <ele>-29.39999961853</ele>
        <time>2019-08-04T08:19:45.000Z</time>
      </trkpt>
      <trkpt lat="47.29363" lon="-2.43236">
        <ele>-29.39999961853</ele>
        <time>2019-08-04T08:19:47.000Z</time>
      </trkpt>
      <trkpt lat="47.29367" lon="-2.43228">
        <ele>-29.39999961853</ele>
        <time>2019-08-04T08:19:49.000Z</time>
      </trkpt>
      <trkpt lat="47.29372" lon="-2.43217">
        <ele>-29.39999961853</ele>
        <time>2019-08-04T08:19:51.000Z</time>
      </trkpt>
      <trkpt lat="47.29373" lon="-2.43204">
        <ele>-29.39999961853</ele>
        <time>2019-08-04T08:19:53.000Z</time>
      </trkpt>
      <trkpt lat="47.29372" lon="-2.4319">
        <ele>-29.39999961853</ele>
        <time>2019-08-04T08:19:55.000Z</time>
      </trkpt>
      <trkpt lat="47.2937" lon="-2.43175">
        <ele>-29.39999961853</ele>
        <time>2019-08-04T08:19:57.000Z</time>
      </trkpt>
      <trkpt lat="47.29367" lon="-2.43162">
        <ele>-29.39999961853</ele>
        <time>2019-08-04T08:19:59.000Z</time>
      </trkpt>
      <trkpt lat="47.29354" lon="-2.43124">
        <ele>-29.39999961853</ele>
        <time>2019-08-04T08:20:05.000Z</time>
      </trkpt>
      <trkpt lat="47.2934" lon="-2.43094">
        <ele>-29.39999961853</ele>
        <time>2019-08-04T08:20:10.000Z</time>
      </trkpt>
      <trkpt lat="47.29335" lon="-2.4309">
        <ele>-29.39999961853</ele>
        <time>2019-08-04T08:20:11.000Z</time>
      </trkpt>
      <trkpt lat="47.2932" lon="-2.43081">
        <ele>-29.39999961853</ele>
        <time>2019-08-04T08:20:14.000Z</time>
      </trkpt>
      <trkpt lat="47.29315" lon="-2.43078">
        <ele>-29.39999961853</ele>
        <time>2019-08-04T08:20:15.000Z</time>
      </trkpt>
      <trkpt lat="47.29311" lon="-2.43075">
        <ele>-29.799999237061</ele>
        <time>2019-08-04T08:20:16.000Z</time>
      </trkpt>
      <trkpt lat="47.29307" lon="-2.43071">
        <ele>-30.200000762939</ele>
        <time>2019-08-04T08:20:17.000Z</time>
      </trkpt>
      <trkpt lat="47.29304" lon="-2.43066">
        <ele>-30.60000038147</ele>
        <time>2019-08-04T08:20:18.000Z</time>
      </trkpt>
      <trkpt lat="47.29302" lon="-2.4306">
        <ele>-31</ele>
        <time>2019-08-04T08:20:19.000Z</time>
      </trkpt>
      <trkpt lat="47.29301" lon="-2.43053">
        <ele>-31.39999961853</ele>
        <time>2019-08-04T08:20:20.000Z</time>
      </trkpt>
      <trkpt lat="47.29302" lon="-2.43038">
        <ele>-31.39999961853</ele>
        <time>2019-08-04T08:20:22.000Z</time>
      </trkpt>
      <trkpt lat="47.29306" lon="-2.43008">
        <ele>-31.39999961853</ele>
        <time>2019-08-04T08:20:26.000Z</time>
      </trkpt>
      <trkpt lat="47.29307" lon="-2.43">
        <ele>-31.39999961853</ele>
        <time>2019-08-04T08:20:27.000Z</time>
      </trkpt>
      <trkpt lat="47.29312" lon="-2.42961">
        <ele>-31.39999961853</ele>
        <time>2019-08-04T08:20:32.000Z</time>
      </trkpt>
      <trkpt lat="47.29311" lon="-2.42953">
        <ele>-31.39999961853</ele>
        <time>2019-08-04T08:20:33.000Z</time>
      </trkpt>
      <trkpt lat="47.2931" lon="-2.42937">
        <ele>-31.39999961853</ele>
        <time>2019-08-04T08:20:35.000Z</time>
      </trkpt>
      <trkpt lat="47.29314" lon="-2.42915">
        <ele>-31.39999961853</ele>
        <time>2019-08-04T08:20:38.000Z</time>
      </trkpt>
      <trkpt lat="47.29328" lon="-2.42866">
        <ele>-31.39999961853</ele>
        <time>2019-08-04T08:20:45.000Z</time>
      </trkpt>
      <trkpt lat="47.2933" lon="-2.42859">
        <ele>-31.39999961853</ele>
        <time>2019-08-04T08:20:46.000Z</time>
      </trkpt>
      <trkpt lat="47.29344" lon="-2.42833">
        <ele>-31.39999961853</ele>
        <time>2019-08-04T08:20:50.000Z</time>
      </trkpt>
      <trkpt lat="47.29356" lon="-2.42817">
        <ele>-31.39999961853</ele>
        <time>2019-08-04T08:20:53.000Z</time>
      </trkpt>
      <trkpt lat="47.29368" lon="-2.42805">
        <ele>-31.39999961853</ele>
        <time>2019-08-04T08:20:56.000Z</time>
      </trkpt>
      <trkpt lat="47.29378" lon="-2.42784">
        <ele>-31.39999961853</ele>
        <time>2019-08-04T08:20:59.000Z</time>
      </trkpt>
      <trkpt lat="47.29381" lon="-2.42768">
        <ele>-31.39999961853</ele>
        <time>2019-08-04T08:21:01.000Z</time>
      </trkpt>
      <trkpt lat="47.29387" lon="-2.42746">
        <ele>-31.39999961853</ele>
        <time>2019-08-04T08:21:04.000Z</time>
      </trkpt>
      <trkpt lat="47.29389" lon="-2.42739">
        <ele>-31.39999961853</ele>
        <time>2019-08-04T08:21:05.000Z</time>
      </trkpt>
      <trkpt lat="47.29397" lon="-2.42718">
        <ele>-31.39999961853</ele>
        <time>2019-08-04T08:21:08.000Z</time>
      </trkpt>
      <trkpt lat="47.29403" lon="-2.42705">
        <ele>-31.39999961853</ele>
        <time>2019-08-04T08:21:10.000Z</time>
      </trkpt>
      <trkpt lat="47.29415" lon="-2.42676">
        <ele>-31.39999961853</ele>
        <time>2019-08-04T08:21:14.000Z</time>
      </trkpt>
      <trkpt lat="47.29417" lon="-2.42659">
        <ele>-31.39999961853</ele>
        <time>2019-08-04T08:21:16.000Z</time>
      </trkpt>
      <trkpt lat="47.29421" lon="-2.42591">
        <ele>-31.39999961853</ele>
        <time>2019-08-04T08:21:24.000Z</time>
      </trkpt>
      <trkpt lat="47.29432" lon="-2.42572">
        <ele>-31.39999961853</ele>
        <time>2019-08-04T08:21:27.000Z</time>
      </trkpt>
      <trkpt lat="47.29453" lon="-2.42548">
        <ele>-31.39999961853</ele>
        <time>2019-08-04T08:21:32.000Z</time>
      </trkpt>
      <trkpt lat="47.29475" lon="-2.42525">
        <ele>-31.39999961853</ele>
        <time>2019-08-04T08:21:37.000Z</time>
      </trkpt>
      <trkpt lat="47.29501" lon="-2.42496">
        <ele>-31.39999961853</ele>
        <time>2019-08-04T08:21:43.000Z</time>
      </trkpt>
      <trkpt lat="47.29514" lon="-2.42483">
        <ele>-31.39999961853</ele>
        <time>2019-08-04T08:21:46.000Z</time>
      </trkpt>
      <trkpt lat="47.29523" lon="-2.42476">
        <ele>-31.39999961853</ele>
        <time>2019-08-04T08:21:48.000Z</time>
      </trkpt>
      <trkpt lat="47.29534" lon="-2.42465">
        <ele>-31.39999961853</ele>
        <time>2019-08-04T08:21:50.000Z</time>
      </trkpt>
      <trkpt lat="47.29542" lon="-2.42452">
        <ele>-31.39999961853</ele>
        <time>2019-08-04T08:21:52.000Z</time>
      </trkpt>
      <trkpt lat="47.29557" lon="-2.4243">
        <ele>-31.39999961853</ele>
        <time>2019-08-04T08:21:56.000Z</time>
      </trkpt>
      <trkpt lat="47.29561" lon="-2.42426">
        <ele>-31.39999961853</ele>
        <time>2019-08-04T08:21:57.000Z</time>
      </trkpt>
      <trkpt lat="47.29571" lon="-2.42422">
        <ele>-31.39999961853</ele>
        <time>2019-08-04T08:21:59.000Z</time>
      </trkpt>
      <trkpt lat="47.29581" lon="-2.42422">
        <ele>-31.39999961853</ele>
        <time>2019-08-04T08:22:01.000Z</time>
      </trkpt>
      <trkpt lat="47.296" lon="-2.42428">
        <ele>-31.39999961853</ele>
        <time>2019-08-04T08:22:06.000Z</time>
      </trkpt>
      <trkpt lat="47.29622" lon="-2.42435">
        <ele>-31.39999961853</ele>
        <time>2019-08-04T08:22:13.000Z</time>
      </trkpt>
      <trkpt lat="47.29626" lon="-2.4242">
        <ele>-31.39999961853</ele>
        <time>2019-08-04T08:22:16.000Z</time>
      </trkpt>
      <trkpt lat="47.29629" lon="-2.42406">
        <ele>-31.39999961853</ele>
        <time>2019-08-04T08:22:18.000Z</time>
      </trkpt>
      <trkpt lat="47.29635" lon="-2.42378">
        <ele>-31.39999961853</ele>
        <time>2019-08-04T08:22:22.000Z</time>
      </trkpt>
      <trkpt lat="47.29647" lon="-2.42327">
        <ele>-31.39999961853</ele>
        <time>2019-08-04T08:22:30.000Z</time>
      </trkpt>
      <trkpt lat="47.2966" lon="-2.42271">
        <ele>-31.39999961853</ele>
        <time>2019-08-04T08:22:37.000Z</time>
      </trkpt>
      <trkpt lat="47.29673" lon="-2.42226">
        <ele>-31.39999961853</ele>
        <time>2019-08-04T08:22:43.000Z</time>
      </trkpt>
      <trkpt lat="47.29695" lon="-2.42185">
        <ele>-31.39999961853</ele>
        <time>2019-08-04T08:22:49.000Z</time>
      </trkpt>
      <trkpt lat="47.29726" lon="-2.42129">
        <ele>-31.39999961853</ele>
        <time>2019-08-04T08:22:57.000Z</time>
      </trkpt>
      <trkpt lat="47.29761" lon="-2.42066">
        <ele>-31.39999961853</ele>
        <time>2019-08-04T08:23:06.000Z</time>
      </trkpt>
      <trkpt lat="47.29783" lon="-2.42025">
        <ele>-31.39999961853</ele>
        <time>2019-08-04T08:23:12.000Z</time>
      </trkpt>
      <trkpt lat="47.29785" lon="-2.42016">
        <ele>-31.39999961853</ele>
        <time>2019-08-04T08:23:13.000Z</time>
      </trkpt>
      <trkpt lat="47.29785" lon="-2.41989">
        <ele>-31.39999961853</ele>
        <time>2019-08-04T08:23:16.000Z</time>
      </trkpt>
      <trkpt lat="47.29781" lon="-2.41963">
        <ele>-31.39999961853</ele>
        <time>2019-08-04T08:23:19.000Z</time>
      </trkpt>
      <trkpt lat="47.29777" lon="-2.41946">
        <ele>-31.39999961853</ele>
        <time>2019-08-04T08:23:21.000Z</time>
      </trkpt>
      <trkpt lat="47.29767" lon="-2.41883">
        <ele>-31.39999961853</ele>
        <time>2019-08-04T08:23:28.000Z</time>
      </trkpt>
      <trkpt lat="47.29766" lon="-2.41865">
        <ele>-31.39999961853</ele>
        <time>2019-08-04T08:23:30.000Z</time>
      </trkpt>
      <trkpt lat="47.29768" lon="-2.4183">
        <ele>-31.39999961853</ele>
        <time>2019-08-04T08:23:34.000Z</time>
      </trkpt>
      <trkpt lat="47.29769" lon="-2.41774">
        <ele>-31.39999961853</ele>
        <time>2019-08-04T08:23:41.000Z</time>
      </trkpt>
      <trkpt lat="47.29768" lon="-2.4176">
        <ele>-31.39999961853</ele>
        <time>2019-08-04T08:23:43.000Z</time>
      </trkpt>
      <trkpt lat="47.29763" lon="-2.41751">
        <ele>-31.39999961853</ele>
        <time>2019-08-04T08:23:45.000Z</time>
      </trkpt>
      <trkpt lat="47.29751" lon="-2.4175">
        <ele>-31.39999961853</ele>
        <time>2019-08-04T08:23:48.000Z</time>
      </trkpt>
      <trkpt lat="47.29738" lon="-2.41758">
        <ele>-31.39999961853</ele>
        <time>2019-08-04T08:23:51.000Z</time>
      </trkpt>
      <trkpt lat="47.29733" lon="-2.41762">
        <ele>-31.39999961853</ele>
        <time>2019-08-04T08:23:52.000Z</time>
      </trkpt>
      <trkpt lat="47.2973" lon="-2.41766">
        <ele>-31.39999961853</ele>
        <time>2019-08-04T08:23:53.000Z</time>
      </trkpt>
      <trkpt lat="47.29717" lon="-2.41784">
        <ele>-31.39999961853</ele>
        <time>2019-08-04T08:23:57.000Z</time>
      </trkpt>
      <trkpt lat="47.29711" lon="-2.41797">
        <ele>-31.39999961853</ele>
        <time>2019-08-04T08:23:59.000Z</time>
      </trkpt>
      <trkpt lat="47.29707" lon="-2.41803">
        <ele>-31.39999961853</ele>
        <time>2019-08-04T08:24:00.000Z</time>
      </trkpt>
      <trkpt lat="47.29694" lon="-2.41819">
        <ele>-31.39999961853</ele>
        <time>2019-08-04T08:24:03.000Z</time>
      </trkpt>
      <trkpt lat="47.29689" lon="-2.41822">
        <ele>-31.39999961853</ele>
        <time>2019-08-04T08:24:04.000Z</time>
      </trkpt>
      <trkpt lat="47.29673" lon="-2.41824">
        <ele>-31.39999961853</ele>
        <time>2019-08-04T08:24:07.000Z</time>
      </trkpt>
      <trkpt lat="47.29667" lon="-2.41825">
        <ele>-31.39999961853</ele>
        <time>2019-08-04T08:24:08.000Z</time>
      </trkpt>
      <trkpt lat="47.29652" lon="-2.41829">
        <ele>-31.39999961853</ele>
        <time>2019-08-04T08:24:11.000Z</time>
      </trkpt>
      <trkpt lat="47.29647" lon="-2.41828">
        <ele>-31.39999961853</ele>
        <time>2019-08-04T08:24:12.000Z</time>
      </trkpt>
      <trkpt lat="47.29637" lon="-2.41813">
        <ele>-31.39999961853</ele>
        <time>2019-08-04T08:24:15.000Z</time>
      </trkpt>
      <trkpt lat="47.29633" lon="-2.41786">
        <ele>-31.39999961853</ele>
        <time>2019-08-04T08:24:19.000Z</time>
      </trkpt>
      <trkpt lat="47.29632" lon="-2.41779">
        <ele>-31.39999961853</ele>
        <time>2019-08-04T08:24:20.000Z</time>
      </trkpt>
      <trkpt lat="47.29622" lon="-2.41759">
        <ele>-31.39999961853</ele>
        <time>2019-08-04T08:24:23.000Z</time>
      </trkpt>
      <trkpt lat="47.29612" lon="-2.41748">
        <ele>-31.39999961853</ele>
        <time>2019-08-04T08:24:25.000Z</time>
      </trkpt>
      <trkpt lat="47.29598" lon="-2.41733">
        <ele>-31.39999961853</ele>
        <time>2019-08-04T08:24:28.000Z</time>
      </trkpt>
      <trkpt lat="47.29572" lon="-2.41713">
        <ele>-31.39999961853</ele>
        <time>2019-08-04T08:24:33.000Z</time>
      </trkpt>
      <trkpt lat="47.29566" lon="-2.41712">
        <ele>-31.39999961853</ele>
        <time>2019-08-04T08:24:34.000Z</time>
      </trkpt>
      <trkpt lat="47.29555" lon="-2.41706">
        <ele>-31.39999961853</ele>
        <time>2019-08-04T08:24:36.000Z</time>
      </trkpt>
      <trkpt lat="47.29546" lon="-2.41693">
        <ele>-31.39999961853</ele>
        <time>2019-08-04T08:24:38.000Z</time>
      </trkpt>
      <trkpt lat="47.2954" lon="-2.41678">
        <ele>-31.39999961853</ele>
        <time>2019-08-04T08:24:40.000Z</time>
      </trkpt>
      <trkpt lat="47.29529" lon="-2.41646">
        <ele>-31.39999961853</ele>
        <time>2019-08-04T08:24:44.000Z</time>
      </trkpt>
      <trkpt lat="47.29527" lon="-2.41636">
        <ele>-31.39999961853</ele>
        <time>2019-08-04T08:24:45.000Z</time>
      </trkpt>
      <trkpt lat="47.29524" lon="-2.41598">
        <ele>-31.39999961853</ele>
        <time>2019-08-04T08:24:49.000Z</time>
      </trkpt>
      <trkpt lat="47.29533" lon="-2.41562">
        <ele>-31.39999961853</ele>
        <time>2019-08-04T08:24:53.000Z</time>
      </trkpt>
      <trkpt lat="47.29535" lon="-2.41554">
        <ele>-31.39999961853</ele>
        <time>2019-08-04T08:24:54.000Z</time>
      </trkpt>
      <trkpt lat="47.2954" lon="-2.41537">
        <ele>-31.39999961853</ele>
        <time>2019-08-04T08:24:56.000Z</time>
      </trkpt>
      <trkpt lat="47.29538" lon="-2.4152">
        <ele>-31.39999961853</ele>
        <time>2019-08-04T08:24:58.000Z</time>
      </trkpt>
      <trkpt lat="47.29528" lon="-2.41498">
        <ele>-31.39999961853</ele>
        <time>2019-08-04T08:25:01.000Z</time>
      </trkpt>
      <trkpt lat="47.29524" lon="-2.41491">
        <ele>-31.39999961853</ele>
        <time>2019-08-04T08:25:02.000Z</time>
      </trkpt>
      <trkpt lat="47.29516" lon="-2.41479">
        <ele>-31.39999961853</ele>
        <time>2019-08-04T08:25:04.000Z</time>
      </trkpt>
      <trkpt lat="47.29505" lon="-2.41475">
        <ele>-31.39999961853</ele>
        <time>2019-08-04T08:25:06.000Z</time>
      </trkpt>
      <trkpt lat="47.29489" lon="-2.41485">
        <ele>-31.39999961853</ele>
        <time>2019-08-04T08:25:09.000Z</time>
      </trkpt>
      <trkpt lat="47.29479" lon="-2.41488">
        <ele>-31.39999961853</ele>
        <time>2019-08-04T08:25:11.000Z</time>
      </trkpt>
      <trkpt lat="47.29468" lon="-2.41485">
        <ele>-31.39999961853</ele>
        <time>2019-08-04T08:25:13.000Z</time>
      </trkpt>
      <trkpt lat="47.29446" lon="-2.41489">
        <ele>-31.39999961853</ele>
        <time>2019-08-04T08:25:17.000Z</time>
      </trkpt>
      <trkpt lat="47.29427" lon="-2.41484">
        <ele>-31.39999961853</ele>
        <time>2019-08-04T08:25:21.000Z</time>
      </trkpt>
      <trkpt lat="47.29414" lon="-2.4147">
        <ele>-31.39999961853</ele>
        <time>2019-08-04T08:25:24.000Z</time>
      </trkpt>
      <trkpt lat="47.29407" lon="-2.4146">
        <ele>-31.39999961853</ele>
        <time>2019-08-04T08:25:26.000Z</time>
      </trkpt>
      <trkpt lat="47.29393" lon="-2.41437">
        <ele>-31.39999961853</ele>
        <time>2019-08-04T08:25:30.000Z</time>
      </trkpt>
      <trkpt lat="47.29389" lon="-2.41428">
        <ele>-31.39999961853</ele>
        <time>2019-08-04T08:25:32.000Z</time>
      </trkpt>
      <trkpt lat="47.29387" lon="-2.4142">
        <ele>-31.39999961853</ele>
        <time>2019-08-04T08:25:36.000Z</time>
      </trkpt>
      <trkpt lat="47.29387" lon="-2.4142">
        <ele>-31.39999961853</ele>
        <time>2019-08-04T08:25:37.000Z</time>
      </trkpt>
      <trkpt lat="47.29386" lon="-2.41417">
        <ele>-33.400001525879</ele>
        <time>2019-08-04T08:30:46.000Z</time>
      </trkpt>
      <trkpt lat="47.29384" lon="-2.41411">
        <ele>-33.400001525879</ele>
        <time>2019-08-04T08:30:48.000Z</time>
      </trkpt>
      <trkpt lat="47.29375" lon="-2.41393">
        <ele>-33.400001525879</ele>
        <time>2019-08-04T08:30:52.000Z</time>
      </trkpt>
      <trkpt lat="47.29354" lon="-2.41364">
        <ele>-33.400001525879</ele>
        <time>2019-08-04T08:30:58.000Z</time>
      </trkpt>
      <trkpt lat="47.29351" lon="-2.41359">
        <ele>-33.400001525879</ele>
        <time>2019-08-04T08:30:59.000Z</time>
      </trkpt>
      <trkpt lat="47.29346" lon="-2.41339">
        <ele>-33.400001525879</ele>
        <time>2019-08-04T08:31:02.000Z</time>
      </trkpt>
      <trkpt lat="47.29351" lon="-2.4132">
        <ele>-33.400001525879</ele>
        <time>2019-08-04T08:31:05.000Z</time>
      </trkpt>
      <trkpt lat="47.29357" lon="-2.41306">
        <ele>-33.400001525879</ele>
        <time>2019-08-04T08:31:07.000Z</time>
      </trkpt>
      <trkpt lat="47.29358" lon="-2.41298">
        <ele>-33.400001525879</ele>
        <time>2019-08-04T08:31:08.000Z</time>
      </trkpt>
      <trkpt lat="47.29358" lon="-2.41289">
        <ele>-33.400001525879</ele>
        <time>2019-08-04T08:31:09.000Z</time>
      </trkpt>
      <trkpt lat="47.29351" lon="-2.41248">
        <ele>-33.400001525879</ele>
        <time>2019-08-04T08:31:14.000Z</time>
      </trkpt>
      <trkpt lat="47.29335" lon="-2.41224">
        <ele>-33.400001525879</ele>
        <time>2019-08-04T08:31:18.000Z</time>
      </trkpt>
      <trkpt lat="47.2933" lon="-2.41219">
        <ele>-33.400001525879</ele>
        <time>2019-08-04T08:31:19.000Z</time>
      </trkpt>
      <trkpt lat="47.29302" lon="-2.41187">
        <ele>-33.400001525879</ele>
        <time>2019-08-04T08:31:25.000Z</time>
      </trkpt>
      <trkpt lat="47.29298" lon="-2.41181">
        <ele>-33.400001525879</ele>
        <time>2019-08-04T08:31:26.000Z</time>
      </trkpt>
      <trkpt lat="47.29294" lon="-2.41168">
        <ele>-33.400001525879</ele>
        <time>2019-08-04T08:31:28.000Z</time>
      </trkpt>
      <trkpt lat="47.29285" lon="-2.41147">
        <ele>-33.400001525879</ele>
        <time>2019-08-04T08:31:31.000Z</time>
      </trkpt>
      <trkpt lat="47.29282" lon="-2.41141">
        <ele>-33.400001525879</ele>
        <time>2019-08-04T08:31:32.000Z</time>
      </trkpt>
      <trkpt lat="47.29273" lon="-2.41129">
        <ele>-33.400001525879</ele>
        <time>2019-08-04T08:31:34.000Z</time>
      </trkpt>
      <trkpt lat="47.2926" lon="-2.41114">
        <ele>-33.400001525879</ele>
        <time>2019-08-04T08:31:37.000Z</time>
      </trkpt>
      <trkpt lat="47.29248" lon="-2.41097">
        <ele>-33.400001525879</ele>
        <time>2019-08-04T08:31:40.000Z</time>
      </trkpt>
      <trkpt lat="47.29245" lon="-2.41091">
        <ele>-33.400001525879</ele>
        <time>2019-08-04T08:31:41.000Z</time>
      </trkpt>
      <trkpt lat="47.29245" lon="-2.4107">
        <ele>-33.400001525879</ele>
        <time>2019-08-04T08:31:44.000Z</time>
      </trkpt>
      <trkpt lat="47.29254" lon="-2.41053">
        <ele>-33.400001525879</ele>
        <time>2019-08-04T08:31:47.000Z</time>
      </trkpt>
      <trkpt lat="47.29247" lon="-2.41033">
        <ele>-33.400001525879</ele>
        <time>2019-08-04T08:31:50.000Z</time>
      </trkpt>
      <trkpt lat="47.29232" lon="-2.41012">
        <ele>-33.400001525879</ele>
        <time>2019-08-04T08:31:54.000Z</time>
      </trkpt>
      <trkpt lat="47.29229" lon="-2.41007">
        <ele>-33.400001525879</ele>
        <time>2019-08-04T08:31:55.000Z</time>
      </trkpt>
      <trkpt lat="47.29224" lon="-2.40995">
        <ele>-33.400001525879</ele>
        <time>2019-08-04T08:31:57.000Z</time>
      </trkpt>
      <trkpt lat="47.29218" lon="-2.40977">
        <ele>-33.400001525879</ele>
        <time>2019-08-04T08:32:00.000Z</time>
      </trkpt>
      <trkpt lat="47.29204" lon="-2.40952">
        <ele>-33.400001525879</ele>
        <time>2019-08-04T08:32:05.000Z</time>
      </trkpt>
      <trkpt lat="47.29186" lon="-2.40945">
        <ele>-33.400001525879</ele>
        <time>2019-08-04T08:32:09.000Z</time>
      </trkpt>
      <trkpt lat="47.29181" lon="-2.40944">
        <ele>-33.400001525879</ele>
        <time>2019-08-04T08:32:10.000Z</time>
      </trkpt>
      <trkpt lat="47.29166" lon="-2.40938">
        <ele>-33.400001525879</ele>
        <time>2019-08-04T08:32:13.000Z</time>
      </trkpt>
      <trkpt lat="47.29161" lon="-2.40925">
        <ele>-33.400001525879</ele>
        <time>2019-08-04T08:32:15.000Z</time>
      </trkpt>
      <trkpt lat="47.29162" lon="-2.40902">
        <ele>-33.400001525879</ele>
        <time>2019-08-04T08:32:18.000Z</time>
      </trkpt>
      <trkpt lat="47.29166" lon="-2.40886">
        <ele>-33.400001525879</ele>
        <time>2019-08-04T08:32:20.000Z</time>
      </trkpt>
      <trkpt lat="47.29171" lon="-2.4087">
        <ele>-33.400001525879</ele>
        <time>2019-08-04T08:32:22.000Z</time>
      </trkpt>
      <trkpt lat="47.29173" lon="-2.40862">
        <ele>-33.400001525879</ele>
        <time>2019-08-04T08:32:23.000Z</time>
      </trkpt>
      <trkpt lat="47.2917" lon="-2.40836">
        <ele>-33.400001525879</ele>
        <time>2019-08-04T08:32:26.000Z</time>
      </trkpt>
      <trkpt lat="47.29174" lon="-2.40802">
        <ele>-33.400001525879</ele>
        <time>2019-08-04T08:32:30.000Z</time>
      </trkpt>
      <trkpt lat="47.29183" lon="-2.40779">
        <ele>-33</ele>
        <time>2019-08-04T08:32:33.000Z</time>
      </trkpt>
      <trkpt lat="47.29186" lon="-2.40771">
        <ele>-32.599998474121</ele>
        <time>2019-08-04T08:32:34.000Z</time>
      </trkpt>
      <trkpt lat="47.29189" lon="-2.40763">
        <ele>-32.200000762939</ele>
        <time>2019-08-04T08:32:35.000Z</time>
      </trkpt>
      <trkpt lat="47.29192" lon="-2.40756">
        <ele>-31.799999237061</ele>
        <time>2019-08-04T08:32:36.000Z</time>
      </trkpt>
      <trkpt lat="47.29195" lon="-2.40748">
        <ele>-31.39999961853</ele>
        <time>2019-08-04T08:32:37.000Z</time>
      </trkpt>
      <trkpt lat="47.29205" lon="-2.40737">
        <ele>-31.39999961853</ele>
        <time>2019-08-04T08:32:39.000Z</time>
      </trkpt>
      <trkpt lat="47.29209" lon="-2.40731">
        <ele>-31.39999961853</ele>
        <time>2019-08-04T08:32:40.000Z</time>
      </trkpt>
      <trkpt lat="47.29212" lon="-2.40725">
        <ele>-31.39999961853</ele>
        <time>2019-08-04T08:32:41.000Z</time>
      </trkpt>
      <trkpt lat="47.29224" lon="-2.40705">
        <ele>-31.39999961853</ele>
        <time>2019-08-04T08:32:44.000Z</time>
      </trkpt>
      <trkpt lat="47.29233" lon="-2.40682">
        <ele>-31.39999961853</ele>
        <time>2019-08-04T08:32:47.000Z</time>
      </trkpt>
      <trkpt lat="47.29233" lon="-2.40663">
        <ele>-31.39999961853</ele>
        <time>2019-08-04T08:32:49.000Z</time>
      </trkpt>
      <trkpt lat="47.29224" lon="-2.40636">
        <ele>-31.39999961853</ele>
        <time>2019-08-04T08:32:52.000Z</time>
      </trkpt>
      <trkpt lat="47.29215" lon="-2.40621">
        <ele>-31.799999237061</ele>
        <time>2019-08-04T08:32:54.000Z</time>
      </trkpt>
      <trkpt lat="47.2921" lon="-2.40614">
        <ele>-32.200000762939</ele>
        <time>2019-08-04T08:32:55.000Z</time>
      </trkpt>
      <trkpt lat="47.29205" lon="-2.40609">
        <ele>-32.599998474121</ele>
        <time>2019-08-04T08:32:56.000Z</time>
      </trkpt>
      <trkpt lat="47.29199" lon="-2.40606">
        <ele>-33.200000762939</ele>
        <time>2019-08-04T08:32:57.000Z</time>
      </trkpt>
      <trkpt lat="47.29193" lon="-2.40609">
        <ele>-33.599998474121</ele>
        <time>2019-08-04T08:32:58.000Z</time>
      </trkpt>
      <trkpt lat="47.29187" lon="-2.40615">
        <ele>-33.599998474121</ele>
        <time>2019-08-04T08:32:59.000Z</time>
      </trkpt>
      <trkpt lat="47.29177" lon="-2.40625">
        <ele>-33.599998474121</ele>
        <time>2019-08-04T08:33:01.000Z</time>
      </trkpt>
      <trkpt lat="47.29171" lon="-2.40627">
        <ele>-33.599998474121</ele>
        <time>2019-08-04T08:33:02.000Z</time>
      </trkpt>
      <trkpt lat="47.29165" lon="-2.40631">
        <ele>-33.599998474121</ele>
        <time>2019-08-04T08:33:03.000Z</time>
      </trkpt>
      <trkpt lat="47.29146" lon="-2.40642">
        <ele>-33.599998474121</ele>
        <time>2019-08-04T08:33:07.000Z</time>
      </trkpt>
      <trkpt lat="47.29142" lon="-2.40637">
        <ele>-33.599998474121</ele>
        <time>2019-08-04T08:33:08.000Z</time>
      </trkpt>
      <trkpt lat="47.29142" lon="-2.40623">
        <ele>-33.599998474121</ele>
        <time>2019-08-04T08:33:10.000Z</time>
      </trkpt>
      <trkpt lat="47.29141" lon="-2.40615">
        <ele>-33.599998474121</ele>
        <time>2019-08-04T08:33:11.000Z</time>
      </trkpt>
      <trkpt lat="47.29139" lon="-2.406">
        <ele>-33.599998474121</ele>
        <time>2019-08-04T08:33:13.000Z</time>
      </trkpt>
      <trkpt lat="47.29133" lon="-2.40587">
        <ele>-33.599998474121</ele>
        <time>2019-08-04T08:33:15.000Z</time>
      </trkpt>
      <trkpt lat="47.29123" lon="-2.4057">
        <ele>-33.599998474121</ele>
        <time>2019-08-04T08:33:18.000Z</time>
      </trkpt>
      <trkpt lat="47.29115" lon="-2.4056">
        <ele>-33.599998474121</ele>
        <time>2019-08-04T08:33:20.000Z</time>
      </trkpt>
      <trkpt lat="47.29111" lon="-2.40556">
        <ele>-33.599998474121</ele>
        <time>2019-08-04T08:33:21.000Z</time>
      </trkpt>
      <trkpt lat="47.29098" lon="-2.40541">
        <ele>-33.599998474121</ele>
        <time>2019-08-04T08:33:25.000Z</time>
      </trkpt>
      <trkpt lat="47.29097" lon="-2.40534">
        <ele>-33.599998474121</ele>
        <time>2019-08-04T08:33:26.000Z</time>
      </trkpt>
      <trkpt lat="47.29103" lon="-2.40514">
        <ele>-33.599998474121</ele>
        <time>2019-08-04T08:33:29.000Z</time>
      </trkpt>
      <trkpt lat="47.29118" lon="-2.405">
        <ele>-33.599998474121</ele>
        <time>2019-08-04T08:33:33.000Z</time>
      </trkpt>
      <trkpt lat="47.29122" lon="-2.40498">
        <ele>-33.599998474121</ele>
        <time>2019-08-04T08:33:34.000Z</time>
      </trkpt>
      <trkpt lat="47.29151" lon="-2.40486">
        <ele>-33.599998474121</ele>
        <time>2019-08-04T08:33:40.000Z</time>
      </trkpt>
      <trkpt lat="47.29163" lon="-2.40497">
        <ele>-33.599998474121</ele>
        <time>2019-08-04T08:33:43.000Z</time>
      </trkpt>
      <trkpt lat="47.29181" lon="-2.40522">
        <ele>-33.599998474121</ele>
        <time>2019-08-04T08:33:48.000Z</time>
      </trkpt>
      <trkpt lat="47.29195" lon="-2.40515">
        <ele>-33.599998474121</ele>
        <time>2019-08-04T08:33:51.000Z</time>
      </trkpt>
      <trkpt lat="47.29224" lon="-2.40497">
        <ele>-33.599998474121</ele>
        <time>2019-08-04T08:33:57.000Z</time>
      </trkpt>
      <trkpt lat="47.29252" lon="-2.40482">
        <ele>-33.599998474121</ele>
        <time>2019-08-04T08:34:03.000Z</time>
      </trkpt>
      <trkpt lat="47.29271" lon="-2.40473">
        <ele>-33.599998474121</ele>
        <time>2019-08-04T08:34:07.000Z</time>
      </trkpt>
      <trkpt lat="47.29286" lon="-2.40466">
        <ele>-33.599998474121</ele>
        <time>2019-08-04T08:34:10.000Z</time>
      </trkpt>
      <trkpt lat="47.29296" lon="-2.40448">
        <ele>-33.599998474121</ele>
        <time>2019-08-04T08:34:13.000Z</time>
      </trkpt>
      <trkpt lat="47.29301" lon="-2.40433">
        <ele>-33.599998474121</ele>
        <time>2019-08-04T08:34:15.000Z</time>
      </trkpt>
      <trkpt lat="47.29309" lon="-2.40412">
        <ele>-33.599998474121</ele>
        <time>2019-08-04T08:34:18.000Z</time>
      </trkpt>
      <trkpt lat="47.29309" lon="-2.40404">
        <ele>-33.599998474121</ele>
        <time>2019-08-04T08:34:19.000Z</time>
      </trkpt>
      <trkpt lat="47.29302" lon="-2.40389">
        <ele>-33.599998474121</ele>
        <time>2019-08-04T08:34:21.000Z</time>
      </trkpt>
      <trkpt lat="47.29294" lon="-2.40376">
        <ele>-33.599998474121</ele>
        <time>2019-08-04T08:34:23.000Z</time>
      </trkpt>
      <trkpt lat="47.29286" lon="-2.40356">
        <ele>-33.599998474121</ele>
        <time>2019-08-04T08:34:26.000Z</time>
      </trkpt>
      <trkpt lat="47.29285" lon="-2.4035">
        <ele>-33.599998474121</ele>
        <time>2019-08-04T08:34:27.000Z</time>
      </trkpt>
      <trkpt lat="47.29289" lon="-2.40336">
        <ele>-33.599998474121</ele>
        <time>2019-08-04T08:34:29.000Z</time>
      </trkpt>
      <trkpt lat="47.29294" lon="-2.40331">
        <ele>-33.599998474121</ele>
        <time>2019-08-04T08:34:30.000Z</time>
      </trkpt>
      <trkpt lat="47.29302" lon="-2.40324">
        <ele>-33.599998474121</ele>
        <time>2019-08-04T08:34:32.000Z</time>
      </trkpt>
      <trkpt lat="47.29329" lon="-2.40293">
        <ele>-33.599998474121</ele>
        <time>2019-08-04T08:34:38.000Z</time>
      </trkpt>
      <trkpt lat="47.29342" lon="-2.40279">
        <ele>-33.599998474121</ele>
        <time>2019-08-04T08:34:41.000Z</time>
      </trkpt>
      <trkpt lat="47.29357" lon="-2.40267">
        <ele>-33.599998474121</ele>
        <time>2019-08-04T08:34:44.000Z</time>
      </trkpt>
      <trkpt lat="47.29378" lon="-2.40246">
        <ele>-33.599998474121</ele>
        <time>2019-08-04T08:34:49.000Z</time>
      </trkpt>
      <trkpt lat="47.29383" lon="-2.40243">
        <ele>-33.599998474121</ele>
        <time>2019-08-04T08:34:50.000Z</time>
      </trkpt>
      <trkpt lat="47.29422" lon="-2.40218">
        <ele>-33.599998474121</ele>
        <time>2019-08-04T08:34:59.000Z</time>
      </trkpt>
      <trkpt lat="47.29432" lon="-2.40217">
        <ele>-33.599998474121</ele>
        <time>2019-08-04T08:35:01.000Z</time>
      </trkpt>
      <trkpt lat="47.29441" lon="-2.40219">
        <ele>-33.599998474121</ele>
        <time>2019-08-04T08:35:03.000Z</time>
      </trkpt>
      <trkpt lat="47.29446" lon="-2.40207">
        <ele>-33.599998474121</ele>
        <time>2019-08-04T08:35:05.000Z</time>
      </trkpt>
      <trkpt lat="47.29448" lon="-2.402">
        <ele>-33.599998474121</ele>
        <time>2019-08-04T08:35:06.000Z</time>
      </trkpt>
      <trkpt lat="47.29455" lon="-2.4016">
        <ele>-33.599998474121</ele>
        <time>2019-08-04T08:35:11.000Z</time>
      </trkpt>
      <trkpt lat="47.29456" lon="-2.40153">
        <ele>-33.599998474121</ele>
        <time>2019-08-04T08:35:12.000Z</time>
      </trkpt>
      <trkpt lat="47.29457" lon="-2.40122">
        <ele>-33.599998474121</ele>
        <time>2019-08-04T08:35:16.000Z</time>
      </trkpt>
      <trkpt lat="47.29464" lon="-2.40066">
        <ele>-33.599998474121</ele>
        <time>2019-08-04T08:35:23.000Z</time>
      </trkpt>
      <trkpt lat="47.29461" lon="-2.40017">
        <ele>-33.599998474121</ele>
        <time>2019-08-04T08:35:29.000Z</time>
      </trkpt>
      <trkpt lat="47.29462" lon="-2.39994">
        <ele>-33.599998474121</ele>
        <time>2019-08-04T08:35:32.000Z</time>
      </trkpt>
      <trkpt lat="47.29465" lon="-2.39978">
        <ele>-33.599998474121</ele>
        <time>2019-08-04T08:35:34.000Z</time>
      </trkpt>
      <trkpt lat="47.29478" lon="-2.39941">
        <ele>-33.599998474121</ele>
        <time>2019-08-04T08:35:40.000Z</time>
      </trkpt>
      <trkpt lat="47.29482" lon="-2.39931">
        <ele>-33.599998474121</ele>
        <time>2019-08-04T08:35:42.000Z</time>
      </trkpt>
      <trkpt lat="47.29484" lon="-2.39914">
        <ele>-33.599998474121</ele>
        <time>2019-08-04T08:35:45.000Z</time>
      </trkpt>
      <trkpt lat="47.29471" lon="-2.39889">
        <ele>-33.599998474121</ele>
        <time>2019-08-04T08:35:49.000Z</time>
      </trkpt>
      <trkpt lat="47.29467" lon="-2.39883">
        <ele>-33.599998474121</ele>
        <time>2019-08-04T08:35:50.000Z</time>
      </trkpt>
      <trkpt lat="47.29442" lon="-2.39848">
        <ele>-33.599998474121</ele>
        <time>2019-08-04T08:35:56.000Z</time>
      </trkpt>
      <trkpt lat="47.29419" lon="-2.39844">
        <ele>-33.599998474121</ele>
        <time>2019-08-04T08:36:00.000Z</time>
      </trkpt>
      <trkpt lat="47.29407" lon="-2.39845">
        <ele>-33.599998474121</ele>
        <time>2019-08-04T08:36:02.000Z</time>
      </trkpt>
      <trkpt lat="47.29394" lon="-2.3985">
        <ele>-33.599998474121</ele>
        <time>2019-08-04T08:36:04.000Z</time>
      </trkpt>
      <trkpt lat="47.29383" lon="-2.39859">
        <ele>-33.599998474121</ele>
        <time>2019-08-04T08:36:06.000Z</time>
      </trkpt>
      <trkpt lat="47.29354" lon="-2.39883">
        <ele>-33.599998474121</ele>
        <time>2019-08-04T08:36:11.000Z</time>
      </trkpt>
      <trkpt lat="47.29319" lon="-2.39923">
        <ele>-33.599998474121</ele>
        <time>2019-08-04T08:36:18.000Z</time>
      </trkpt>
      <trkpt lat="47.29293" lon="-2.39967">
        <ele>-33.599998474121</ele>
        <time>2019-08-04T08:36:24.000Z</time>
      </trkpt>
      <trkpt lat="47.29265" lon="-2.40024">
        <ele>-33.599998474121</ele>
        <time>2019-08-04T08:36:31.000Z</time>
      </trkpt>
      <trkpt lat="47.29233" lon="-2.4009">
        <ele>-33.599998474121</ele>
        <time>2019-08-04T08:36:39.000Z</time>
      </trkpt>
      <trkpt lat="47.29202" lon="-2.40155">
        <ele>-33.599998474121</ele>
        <time>2019-08-04T08:36:47.000Z</time>
      </trkpt>
      <trkpt lat="47.29198" lon="-2.40163">
        <ele>-33.599998474121</ele>
        <time>2019-08-04T08:36:48.000Z</time>
      </trkpt>
      <trkpt lat="47.2919" lon="-2.4018">
        <ele>-33.200000762939</ele>
        <time>2019-08-04T08:36:50.000Z</time>
      </trkpt>
      <trkpt lat="47.29186" lon="-2.40188">
        <ele>-32.799999237061</ele>
        <time>2019-08-04T08:36:51.000Z</time>
      </trkpt>
      <trkpt lat="47.29183" lon="-2.40196">
        <ele>-32.400001525879</ele>
        <time>2019-08-04T08:36:52.000Z</time>
      </trkpt>
      <trkpt lat="47.29179" lon="-2.40204">
        <ele>-32</ele>
        <time>2019-08-04T08:36:53.000Z</time>
      </trkpt>
      <trkpt lat="47.29176" lon="-2.40212">
        <ele>-31.60000038147</ele>
        <time>2019-08-04T08:36:54.000Z</time>
      </trkpt>
      <trkpt lat="47.29165" lon="-2.40235">
        <ele>-31.60000038147</ele>
        <time>2019-08-04T08:36:57.000Z</time>
      </trkpt>
      <trkpt lat="47.29131" lon="-2.40307">
        <ele>-31.60000038147</ele>
        <time>2019-08-04T08:37:06.000Z</time>
      </trkpt>
      <trkpt lat="47.291" lon="-2.40373">
        <ele>-31.60000038147</ele>
        <time>2019-08-04T08:37:14.000Z</time>
      </trkpt>
      <trkpt lat="47.29069" lon="-2.40439">
        <ele>-31.60000038147</ele>
        <time>2019-08-04T08:37:22.000Z</time>
      </trkpt>
      <trkpt lat="47.29039" lon="-2.40494">
        <ele>-31.60000038147</ele>
        <time>2019-08-04T08:37:29.000Z</time>
      </trkpt>
      <trkpt lat="47.29007" lon="-2.40535">
        <ele>-31.60000038147</ele>
        <time>2019-08-04T08:37:35.000Z</time>
      </trkpt>
      <trkpt lat="47.28964" lon="-2.40576">
        <ele>-31.60000038147</ele>
        <time>2019-08-04T08:37:42.000Z</time>
      </trkpt>
      <trkpt lat="47.28919" lon="-2.40606">
        <ele>-31.60000038147</ele>
        <time>2019-08-04T08:37:49.000Z</time>
      </trkpt>
      <trkpt lat="47.28865" lon="-2.40639">
        <ele>-31.60000038147</ele>
        <time>2019-08-04T08:37:57.000Z</time>
      </trkpt>
      <trkpt lat="47.2882" lon="-2.40671">
        <ele>-31.60000038147</ele>
        <time>2019-08-04T08:38:04.000Z</time>
      </trkpt>
      <trkpt lat="47.28775" lon="-2.40713">
        <ele>-31.60000038147</ele>
        <time>2019-08-04T08:38:11.000Z</time>
      </trkpt>
      <trkpt lat="47.28769" lon="-2.4072">
        <ele>-31.60000038147</ele>
        <time>2019-08-04T08:38:12.000Z</time>
      </trkpt>
      <trkpt lat="47.28746" lon="-2.40751">
        <ele>-31.60000038147</ele>
        <time>2019-08-04T08:38:16.000Z</time>
      </trkpt>
      <trkpt lat="47.28718" lon="-2.40807">
        <ele>-31.60000038147</ele>
        <time>2019-08-04T08:38:22.000Z</time>
      </trkpt>
      <trkpt lat="47.28708" lon="-2.40849">
        <ele>-31.60000038147</ele>
        <time>2019-08-04T08:38:26.000Z</time>
      </trkpt>
      <trkpt lat="47.28706" lon="-2.4086">
        <ele>-31.60000038147</ele>
        <time>2019-08-04T08:38:27.000Z</time>
      </trkpt>
      <trkpt lat="47.28703" lon="-2.40916">
        <ele>-31.60000038147</ele>
        <time>2019-08-04T08:38:32.000Z</time>
      </trkpt>
      <trkpt lat="47.28706" lon="-2.40949">
        <ele>-31.60000038147</ele>
        <time>2019-08-04T08:38:35.000Z</time>
      </trkpt>
      <trkpt lat="47.2871" lon="-2.40971">
        <ele>-31.60000038147</ele>
        <time>2019-08-04T08:38:37.000Z</time>
      </trkpt>
      <trkpt lat="47.28724" lon="-2.41029">
        <ele>-31.60000038147</ele>
        <time>2019-08-04T08:38:43.000Z</time>
      </trkpt>
      <trkpt lat="47.28748" lon="-2.41106">
        <ele>-31.60000038147</ele>
        <time>2019-08-04T08:38:52.000Z</time>
      </trkpt>
      <trkpt lat="47.28763" lon="-2.41164">
        <ele>-31.60000038147</ele>
        <time>2019-08-04T08:38:59.000Z</time>
      </trkpt>
      <trkpt lat="47.2877" lon="-2.41196">
        <ele>-31.60000038147</ele>
        <time>2019-08-04T08:39:03.000Z</time>
      </trkpt>
      <trkpt lat="47.28773" lon="-2.4122">
        <ele>-31.60000038147</ele>
        <time>2019-08-04T08:39:06.000Z</time>
      </trkpt>
      <trkpt lat="47.28775" lon="-2.41227">
        <ele>-31.60000038147</ele>
        <time>2019-08-04T08:39:07.000Z</time>
      </trkpt>
      <trkpt lat="47.28779" lon="-2.41242">
        <ele>-31.60000038147</ele>
        <time>2019-08-04T08:39:09.000Z</time>
      </trkpt>
      <trkpt lat="47.28775" lon="-2.41264">
        <ele>-31.60000038147</ele>
        <time>2019-08-04T08:39:12.000Z</time>
      </trkpt>
      <trkpt lat="47.28763" lon="-2.41276">
        <ele>-31.60000038147</ele>
        <time>2019-08-04T08:39:15.000Z</time>
      </trkpt>
      <trkpt lat="47.28749" lon="-2.41272">
        <ele>-31.60000038147</ele>
        <time>2019-08-04T08:39:18.000Z</time>
      </trkpt>
      <trkpt lat="47.28743" lon="-2.41262">
        <ele>-31.60000038147</ele>
        <time>2019-08-04T08:39:20.000Z</time>
      </trkpt>
      <trkpt lat="47.28739" lon="-2.41256">
        <ele>-31.60000038147</ele>
        <time>2019-08-04T08:39:21.000Z</time>
      </trkpt>
      <trkpt lat="47.28735" lon="-2.41252">
        <ele>-31.60000038147</ele>
        <time>2019-08-04T08:39:22.000Z</time>
      </trkpt>
      <trkpt lat="47.28706" lon="-2.41239">
        <ele>-31.60000038147</ele>
        <time>2019-08-04T08:39:27.000Z</time>
      </trkpt>
      <trkpt lat="47.28657" lon="-2.41227">
        <ele>-31.60000038147</ele>
        <time>2019-08-04T08:39:34.000Z</time>
      </trkpt>
      <trkpt lat="47.28625" lon="-2.41221">
        <ele>-32</ele>
        <time>2019-08-04T08:39:38.000Z</time>
      </trkpt>
      <trkpt lat="47.28617" lon="-2.41219">
        <ele>-32.400001525879</ele>
        <time>2019-08-04T08:39:39.000Z</time>
      </trkpt>
      <trkpt lat="47.28608" lon="-2.41218">
        <ele>-33.200000762939</ele>
        <time>2019-08-04T08:39:40.000Z</time>
      </trkpt>
      <trkpt lat="47.286" lon="-2.41216">
        <ele>-33.599998474121</ele>
        <time>2019-08-04T08:39:41.000Z</time>
      </trkpt>
      <trkpt lat="47.28553" lon="-2.41208">
        <ele>-33.599998474121</ele>
        <time>2019-08-04T08:39:47.000Z</time>
      </trkpt>
      <trkpt lat="47.28527" lon="-2.41203">
        <ele>-33.599998474121</ele>
        <time>2019-08-04T08:39:52.000Z</time>
      </trkpt>
      <trkpt lat="47.28522" lon="-2.41203">
        <ele>-33.599998474121</ele>
        <time>2019-08-04T08:39:53.000Z</time>
      </trkpt>
      <trkpt lat="47.28508" lon="-2.41205">
        <ele>-33.599998474121</ele>
        <time>2019-08-04T08:39:56.000Z</time>
      </trkpt>
      <trkpt lat="47.28504" lon="-2.41206">
        <ele>-33.599998474121</ele>
        <time>2019-08-04T08:39:57.000Z</time>
      </trkpt>
      <trkpt lat="47.28491" lon="-2.4122">
        <ele>-33.599998474121</ele>
        <time>2019-08-04T08:40:01.000Z</time>
      </trkpt>
      <trkpt lat="47.28488" lon="-2.41225">
        <ele>-33.599998474121</ele>
        <time>2019-08-04T08:40:02.000Z</time>
      </trkpt>
      <trkpt lat="47.28487" lon="-2.41238">
        <ele>-33.599998474121</ele>
        <time>2019-08-04T08:40:04.000Z</time>
      </trkpt>
      <trkpt lat="47.28485" lon="-2.4125">
        <ele>-33.599998474121</ele>
        <time>2019-08-04T08:40:06.000Z</time>
      </trkpt>
      <trkpt lat="47.28483" lon="-2.41253">
        <ele>-33.599998474121</ele>
        <time>2019-08-04T08:40:07.000Z</time>
      </trkpt>
      <trkpt lat="47.28474" lon="-2.41257">
        <ele>-33.599998474121</ele>
        <time>2019-08-04T08:40:11.000Z</time>
      </trkpt>
      <trkpt lat="47.28471" lon="-2.41258">
        <ele>-33.599998474121</ele>
        <time>2019-08-04T08:40:12.000Z</time>
      </trkpt>
      <trkpt lat="47.28456" lon="-2.4126">
        <ele>-33.599998474121</ele>
        <time>2019-08-04T08:40:17.000Z</time>
      </trkpt>
      <trkpt lat="47.28454" lon="-2.41263">
        <ele>-33.599998474121</ele>
        <time>2019-08-04T08:40:18.000Z</time>
      </trkpt>
      <trkpt lat="47.28452" lon="-2.41273">
        <ele>-33.599998474121</ele>
        <time>2019-08-04T08:40:20.000Z</time>
      </trkpt>
      <trkpt lat="47.28453" lon="-2.41283">
        <ele>-33.599998474121</ele>
        <time>2019-08-04T08:40:22.000Z</time>
      </trkpt>
      <trkpt lat="47.28452" lon="-2.41306">
        <ele>-33.599998474121</ele>
        <time>2019-08-04T08:40:26.000Z</time>
      </trkpt>
      <trkpt lat="47.28446" lon="-2.41334">
        <ele>-33.599998474121</ele>
        <time>2019-08-04T08:40:31.000Z</time>
      </trkpt>
      <trkpt lat="47.28439" lon="-2.41361">
        <ele>-33.599998474121</ele>
        <time>2019-08-04T08:40:36.000Z</time>
      </trkpt>
      <trkpt lat="47.28428" lon="-2.41401">
        <ele>-33.599998474121</ele>
        <time>2019-08-04T08:40:43.000Z</time>
      </trkpt>
      <trkpt lat="47.28417" lon="-2.41462">
        <ele>-33.599998474121</ele>
        <time>2019-08-04T08:40:52.000Z</time>
      </trkpt>
      <trkpt lat="47.28415" lon="-2.41477">
        <ele>-33.599998474121</ele>
        <time>2019-08-04T08:40:54.000Z</time>
      </trkpt>
      <trkpt lat="47.28413" lon="-2.415">
        <ele>-33.599998474121</ele>
        <time>2019-08-04T08:40:57.000Z</time>
      </trkpt>
      <trkpt lat="47.28408" lon="-2.41559">
        <ele>-33.599998474121</ele>
        <time>2019-08-04T08:41:05.000Z</time>
      </trkpt>
      <trkpt lat="47.28403" lon="-2.41615">
        <ele>-33.599998474121</ele>
        <time>2019-08-04T08:41:12.000Z</time>
      </trkpt>
      <trkpt lat="47.28393" lon="-2.41683">
        <ele>-33.200000762939</ele>
        <time>2019-08-04T08:41:20.000Z</time>
      </trkpt>
      <trkpt lat="47.28392" lon="-2.41691">
        <ele>-32.799999237061</ele>
        <time>2019-08-04T08:41:21.000Z</time>
      </trkpt>
      <trkpt lat="47.2839" lon="-2.41699">
        <ele>-32.400001525879</ele>
        <time>2019-08-04T08:41:22.000Z</time>
      </trkpt>
      <trkpt lat="47.28388" lon="-2.41708">
        <ele>-32</ele>
        <time>2019-08-04T08:41:23.000Z</time>
      </trkpt>
      <trkpt lat="47.28386" lon="-2.41716">
        <ele>-31.60000038147</ele>
        <time>2019-08-04T08:41:24.000Z</time>
      </trkpt>
      <trkpt lat="47.28379" lon="-2.41741">
        <ele>-31.60000038147</ele>
        <time>2019-08-04T08:41:27.000Z</time>
      </trkpt>
      <trkpt lat="47.28362" lon="-2.41811">
        <ele>-31.60000038147</ele>
        <time>2019-08-04T08:41:35.000Z</time>
      </trkpt>
      <trkpt lat="47.28344" lon="-2.41879">
        <ele>-31.60000038147</ele>
        <time>2019-08-04T08:41:43.000Z</time>
      </trkpt>
      <trkpt lat="47.28328" lon="-2.41946">
        <ele>-31.60000038147</ele>
        <time>2019-08-04T08:41:51.000Z</time>
      </trkpt>
      <trkpt lat="47.2832" lon="-2.41979">
        <ele>-32</ele>
        <time>2019-08-04T08:41:55.000Z</time>
      </trkpt>
      <trkpt lat="47.28318" lon="-2.41987">
        <ele>-32.400001525879</ele>
        <time>2019-08-04T08:41:56.000Z</time>
      </trkpt>
      <trkpt lat="47.28316" lon="-2.41995">
        <ele>-32.799999237061</ele>
        <time>2019-08-04T08:41:57.000Z</time>
      </trkpt>
      <trkpt lat="47.28314" lon="-2.42003">
        <ele>-33.200000762939</ele>
        <time>2019-08-04T08:41:58.000Z</time>
      </trkpt>
      <trkpt lat="47.28312" lon="-2.42011">
        <ele>-33.599998474121</ele>
        <time>2019-08-04T08:41:59.000Z</time>
      </trkpt>
      <trkpt lat="47.28305" lon="-2.42049">
        <ele>-33.599998474121</ele>
        <time>2019-08-04T08:42:04.000Z</time>
      </trkpt>
      <trkpt lat="47.28298" lon="-2.421">
        <ele>-33.599998474121</ele>
        <time>2019-08-04T08:42:10.000Z</time>
      </trkpt>
      <trkpt lat="47.28289" lon="-2.42166">
        <ele>-33.599998474121</ele>
        <time>2019-08-04T08:42:17.000Z</time>
      </trkpt>
      <trkpt lat="47.28279" lon="-2.42238">
        <ele>-33.599998474121</ele>
        <time>2019-08-04T08:42:25.000Z</time>
      </trkpt>
      <trkpt lat="47.28275" lon="-2.42263">
        <ele>-33.599998474121</ele>
        <time>2019-08-04T08:42:28.000Z</time>
      </trkpt>
      <trkpt lat="47.28271" lon="-2.42296">
        <ele>-33.599998474121</ele>
        <time>2019-08-04T08:42:32.000Z</time>
      </trkpt>
      <trkpt lat="47.28268" lon="-2.42313">
        <ele>-33.599998474121</ele>
        <time>2019-08-04T08:42:34.000Z</time>
      </trkpt>
      <trkpt lat="47.28267" lon="-2.4234">
        <ele>-33.599998474121</ele>
        <time>2019-08-04T08:42:37.000Z</time>
      </trkpt>
      <trkpt lat="47.28264" lon="-2.42357">
        <ele>-33.599998474121</ele>
        <time>2019-08-04T08:42:39.000Z</time>
      </trkpt>
      <trkpt lat="47.2826" lon="-2.42385">
        <ele>-33.599998474121</ele>
        <time>2019-08-04T08:42:42.000Z</time>
      </trkpt>
      <trkpt lat="47.28248" lon="-2.42435">
        <ele>-33.599998474121</ele>
        <time>2019-08-04T08:42:48.000Z</time>
      </trkpt>
      <trkpt lat="47.28226" lon="-2.42482">
        <ele>-33.599998474121</ele>
        <time>2019-08-04T08:42:54.000Z</time>
      </trkpt>
      <trkpt lat="47.28201" lon="-2.42519">
        <ele>-33.599998474121</ele>
        <time>2019-08-04T08:43:00.000Z</time>
      </trkpt>
      <trkpt lat="47.28187" lon="-2.42532">
        <ele>-33.599998474121</ele>
        <time>2019-08-04T08:43:04.000Z</time>
      </trkpt>
      <trkpt lat="47.28179" lon="-2.42542">
        <ele>-33.599998474121</ele>
        <time>2019-08-04T08:43:08.000Z</time>
      </trkpt>
      <trkpt lat="47.28177" lon="-2.42543">
        <ele>-33.599998474121</ele>
        <time>2019-08-04T08:43:09.000Z</time>
      </trkpt>
      <trkpt lat="47.28173" lon="-2.42538">
        <ele>-33.599998474121</ele>
        <time>2019-08-04T08:43:11.000Z</time>
      </trkpt>
      <trkpt lat="47.28158" lon="-2.42533">
        <ele>-33.599998474121</ele>
        <time>2019-08-04T08:43:16.000Z</time>
      </trkpt>
      <trkpt lat="47.28129" lon="-2.42541">
        <ele>-33.599998474121</ele>
        <time>2019-08-04T08:43:24.000Z</time>
      </trkpt>
      <trkpt lat="47.28103" lon="-2.42546">
        <ele>-33.599998474121</ele>
        <time>2019-08-04T08:43:31.000Z</time>
      </trkpt>
      <trkpt lat="47.28099" lon="-2.42558">
        <ele>-33.599998474121</ele>
        <time>2019-08-04T08:43:34.000Z</time>
      </trkpt>
      <trkpt lat="47.28108" lon="-2.42577">
        <ele>-33.599998474121</ele>
        <time>2019-08-04T08:43:38.000Z</time>
      </trkpt>
      <trkpt lat="47.28126" lon="-2.42611">
        <ele>-33.200000762939</ele>
        <time>2019-08-04T08:43:44.000Z</time>
      </trkpt>
      <trkpt lat="47.28129" lon="-2.42617">
        <ele>-32.799999237061</ele>
        <time>2019-08-04T08:43:45.000Z</time>
      </trkpt>
      <trkpt lat="47.28132" lon="-2.42622">
        <ele>-32.400001525879</ele>
        <time>2019-08-04T08:43:46.000Z</time>
      </trkpt>
      <trkpt lat="47.28135" lon="-2.42627">
        <ele>-31.60000038147</ele>
        <time>2019-08-04T08:43:47.000Z</time>
      </trkpt>
      <trkpt lat="47.28154" lon="-2.42658">
        <ele>-31.60000038147</ele>
        <time>2019-08-04T08:43:53.000Z</time>
      </trkpt>
      <trkpt lat="47.28178" lon="-2.427">
        <ele>-31.60000038147</ele>
        <time>2019-08-04T08:44:00.000Z</time>
      </trkpt>
      <trkpt lat="47.28185" lon="-2.4271">
        <ele>-31.60000038147</ele>
        <time>2019-08-04T08:44:02.000Z</time>
      </trkpt>
      <trkpt lat="47.28192" lon="-2.42709">
        <ele>-31.60000038147</ele>
        <time>2019-08-04T08:44:04.000Z</time>
      </trkpt>
      <trkpt lat="47.28196" lon="-2.42697">
        <ele>-31.60000038147</ele>
        <time>2019-08-04T08:44:06.000Z</time>
      </trkpt>
      <trkpt lat="47.28198" lon="-2.4269">
        <ele>-31.60000038147</ele>
        <time>2019-08-04T08:44:07.000Z</time>
      </trkpt>
      <trkpt lat="47.28211" lon="-2.42656">
        <ele>-31.60000038147</ele>
        <time>2019-08-04T08:44:12.000Z</time>
      </trkpt>
      <trkpt lat="47.28229" lon="-2.42636">
        <ele>-31.60000038147</ele>
        <time>2019-08-04T08:44:16.000Z</time>
      </trkpt>
      <trkpt lat="47.28234" lon="-2.42632">
        <ele>-31.60000038147</ele>
        <time>2019-08-04T08:44:17.000Z</time>
      </trkpt>
      <trkpt lat="47.28269" lon="-2.42596">
        <ele>-31.60000038147</ele>
        <time>2019-08-04T08:44:25.000Z</time>
      </trkpt>
      <trkpt lat="47.28303" lon="-2.42558">
        <ele>-31.60000038147</ele>
        <time>2019-08-04T08:44:33.000Z</time>
      </trkpt>
      <trkpt lat="47.28316" lon="-2.42544">
        <ele>-31.60000038147</ele>
        <time>2019-08-04T08:44:36.000Z</time>
      </trkpt>
      <trkpt lat="47.28323" lon="-2.42531">
        <ele>-31.60000038147</ele>
        <time>2019-08-04T08:44:38.000Z</time>
      </trkpt>
      <trkpt lat="47.28327" lon="-2.42516">
        <ele>-31.60000038147</ele>
        <time>2019-08-04T08:44:40.000Z</time>
      </trkpt>
      <trkpt lat="47.28338" lon="-2.42486">
        <ele>-31.60000038147</ele>
        <time>2019-08-04T08:44:44.000Z</time>
      </trkpt>
      <trkpt lat="47.28363" lon="-2.42427">
        <ele>-31.60000038147</ele>
        <time>2019-08-04T08:44:52.000Z</time>
      </trkpt>
      <trkpt lat="47.28383" lon="-2.42374">
        <ele>-31.60000038147</ele>
        <time>2019-08-04T08:44:59.000Z</time>
      </trkpt>
      <trkpt lat="47.28381" lon="-2.42353">
        <ele>-31.60000038147</ele>
        <time>2019-08-04T08:45:02.000Z</time>
      </trkpt>
      <trkpt lat="47.28378" lon="-2.42332">
        <ele>-31.60000038147</ele>
        <time>2019-08-04T08:45:05.000Z</time>
      </trkpt>
      <trkpt lat="47.28377" lon="-2.42317">
        <ele>-31.60000038147</ele>
        <time>2019-08-04T08:45:07.000Z</time>
      </trkpt>
      <trkpt lat="47.28378" lon="-2.4231">
        <ele>-31.60000038147</ele>
        <time>2019-08-04T08:45:08.000Z</time>
      </trkpt>
      <trkpt lat="47.28379" lon="-2.42294">
        <ele>-31.60000038147</ele>
        <time>2019-08-04T08:45:10.000Z</time>
      </trkpt>
      <trkpt lat="47.2838" lon="-2.42285">
        <ele>-31.60000038147</ele>
        <time>2019-08-04T08:45:11.000Z</time>
      </trkpt>
      <trkpt lat="47.28385" lon="-2.42252">
        <ele>-31.60000038147</ele>
        <time>2019-08-04T08:45:15.000Z</time>
      </trkpt>
      <trkpt lat="47.28393" lon="-2.42212">
        <ele>-31.60000038147</ele>
        <time>2019-08-04T08:45:20.000Z</time>
      </trkpt>
      <trkpt lat="47.28395" lon="-2.42204">
        <ele>-31.60000038147</ele>
        <time>2019-08-04T08:45:21.000Z</time>
      </trkpt>
      <trkpt lat="47.28405" lon="-2.42164">
        <ele>-31.60000038147</ele>
        <time>2019-08-04T08:45:26.000Z</time>
      </trkpt>
      <trkpt lat="47.28407" lon="-2.42157">
        <ele>-31.60000038147</ele>
        <time>2019-08-04T08:45:27.000Z</time>
      </trkpt>
      <trkpt lat="47.28417" lon="-2.42109">
        <ele>-31.60000038147</ele>
        <time>2019-08-04T08:45:33.000Z</time>
      </trkpt>
      <trkpt lat="47.28427" lon="-2.42055">
        <ele>-31.60000038147</ele>
        <time>2019-08-04T08:45:40.000Z</time>
      </trkpt>
      <trkpt lat="47.28436" lon="-2.4201">
        <ele>-31.60000038147</ele>
        <time>2019-08-04T08:45:46.000Z</time>
      </trkpt>
      <trkpt lat="47.28443" lon="-2.41977">
        <ele>-31.60000038147</ele>
        <time>2019-08-04T08:45:51.000Z</time>
      </trkpt>
      <trkpt lat="47.28448" lon="-2.41943">
        <ele>-31.60000038147</ele>
        <time>2019-08-04T08:45:57.000Z</time>
      </trkpt>
      <trkpt lat="47.28452" lon="-2.41921">
        <ele>-31.60000038147</ele>
        <time>2019-08-04T08:46:02.000Z</time>
      </trkpt>
      <trkpt lat="47.28454" lon="-2.41919">
        <ele>-31.60000038147</ele>
        <time>2019-08-04T08:46:03.000Z</time>
      </trkpt>
      <trkpt lat="47.28459" lon="-2.41927">
        <ele>-31.60000038147</ele>
        <time>2019-08-04T08:46:07.000Z</time>
      </trkpt>
      <trkpt lat="47.28457" lon="-2.41933">
        <ele>-31.60000038147</ele>
        <time>2019-08-04T08:46:09.000Z</time>
      </trkpt>
      <trkpt lat="47.28457" lon="-2.41941">
        <ele>-31.60000038147</ele>
        <time>2019-08-04T08:46:11.000Z</time>
      </trkpt>
      <trkpt lat="47.28458" lon="-2.41944">
        <ele>-31.60000038147</ele>
        <time>2019-08-04T08:46:12.000Z</time>
      </trkpt>
      <trkpt lat="47.28472" lon="-2.41944">
        <ele>-32.200000762939</ele>
        <time>2019-08-04T08:46:15.000Z</time>
      </trkpt>
      <trkpt lat="47.28477" lon="-2.41942">
        <ele>-32.599998474121</ele>
        <time>2019-08-04T08:46:16.000Z</time>
      </trkpt>
      <trkpt lat="47.28483" lon="-2.41941">
        <ele>-33</ele>
        <time>2019-08-04T08:46:17.000Z</time>
      </trkpt>
      <trkpt lat="47.28487" lon="-2.4194">
        <ele>-33.599998474121</ele>
        <time>2019-08-04T08:46:18.000Z</time>
      </trkpt>
      <trkpt lat="47.28491" lon="-2.4194">
        <ele>-34</ele>
        <time>2019-08-04T08:46:19.000Z</time>
      </trkpt>
      <trkpt lat="47.285" lon="-2.41939">
        <ele>-34</ele>
        <time>2019-08-04T08:46:23.000Z</time>
      </trkpt>
      <trkpt lat="47.28505" lon="-2.41937">
        <ele>-34</ele>
        <time>2019-08-04T08:46:27.000Z</time>
      </trkpt>
      <trkpt lat="47.28506" lon="-2.41934">
        <ele>-34</ele>
        <time>2019-08-04T08:46:29.000Z</time>
      </trkpt>
      <trkpt lat="47.28502" lon="-2.4193">
        <ele>-34</ele>
        <time>2019-08-04T08:46:32.000Z</time>
      </trkpt>
      <trkpt lat="47.285" lon="-2.41929">
        <ele>-34</ele>
        <time>2019-08-04T08:46:33.000Z</time>
      </trkpt>
      <trkpt lat="47.28498" lon="-2.41927">
        <ele>-34</ele>
        <time>2019-08-04T08:46:34.000Z</time>
      </trkpt>
      <trkpt lat="47.28497" lon="-2.41916">
        <ele>-34</ele>
        <time>2019-08-04T08:46:36.000Z</time>
      </trkpt>
      <trkpt lat="47.28499" lon="-2.41897">
        <ele>-34</ele>
        <time>2019-08-04T08:46:39.000Z</time>
      </trkpt>
      <trkpt lat="47.28502" lon="-2.41877">
        <ele>-34</ele>
        <time>2019-08-04T08:46:42.000Z</time>
      </trkpt>
      <trkpt lat="47.2851" lon="-2.41833">
        <ele>-34</ele>
        <time>2019-08-04T08:46:49.000Z</time>
      </trkpt>
      <trkpt lat="47.28519" lon="-2.4178">
        <ele>-34</ele>
        <time>2019-08-04T08:46:57.000Z</time>
      </trkpt>
      <trkpt lat="47.28523" lon="-2.4176">
        <ele>-34</ele>
        <time>2019-08-04T08:47:00.000Z</time>
      </trkpt>
      <trkpt lat="47.28527" lon="-2.41748">
        <ele>-34</ele>
        <time>2019-08-04T08:47:02.000Z</time>
      </trkpt>
      <trkpt lat="47.28541" lon="-2.41732">
        <ele>-34</ele>
        <time>2019-08-04T08:47:06.000Z</time>
      </trkpt>
      <trkpt lat="47.28566" lon="-2.41729">
        <ele>-34</ele>
        <time>2019-08-04T08:47:11.000Z</time>
      </trkpt>
      <trkpt lat="47.28591" lon="-2.41743">
        <ele>-34</ele>
        <time>2019-08-04T08:47:16.000Z</time>
      </trkpt>
      <trkpt lat="47.28619" lon="-2.41769">
        <ele>-34</ele>
        <time>2019-08-04T08:47:22.000Z</time>
      </trkpt>
      <trkpt lat="47.28644" lon="-2.41796">
        <ele>-34</ele>
        <time>2019-08-04T08:47:27.000Z</time>
      </trkpt>
      <trkpt lat="47.28654" lon="-2.41805">
        <ele>-33.200000762939</ele>
        <time>2019-08-04T08:47:29.000Z</time>
      </trkpt>
      <trkpt lat="47.28659" lon="-2.4181">
        <ele>-32.799999237061</ele>
        <time>2019-08-04T08:47:30.000Z</time>
      </trkpt>
      <trkpt lat="47.28664" lon="-2.41814">
        <ele>-32.400001525879</ele>
        <time>2019-08-04T08:47:31.000Z</time>
      </trkpt>
      <trkpt lat="47.2867" lon="-2.41818">
        <ele>-32</ele>
        <time>2019-08-04T08:47:32.000Z</time>
      </trkpt>
      <trkpt lat="47.28684" lon="-2.4183">
        <ele>-32</ele>
        <time>2019-08-04T08:47:35.000Z</time>
      </trkpt>
      <trkpt lat="47.28702" lon="-2.41844">
        <ele>-32</ele>
        <time>2019-08-04T08:47:39.000Z</time>
      </trkpt>
      <trkpt lat="47.28716" lon="-2.41855">
        <ele>-32</ele>
        <time>2019-08-04T08:47:42.000Z</time>
      </trkpt>
      <trkpt lat="47.28733" lon="-2.41867">
        <ele>-32</ele>
        <time>2019-08-04T08:47:46.000Z</time>
      </trkpt>
      <trkpt lat="47.28748" lon="-2.41875">
        <ele>-32</ele>
        <time>2019-08-04T08:47:49.000Z</time>
      </trkpt>
      <trkpt lat="47.28772" lon="-2.41889">
        <ele>-32</ele>
        <time>2019-08-04T08:47:54.000Z</time>
      </trkpt>
      <trkpt lat="47.2878" lon="-2.41899">
        <ele>-32</ele>
        <time>2019-08-04T08:47:56.000Z</time>
      </trkpt>
      <trkpt lat="47.2879" lon="-2.41928">
        <ele>-32</ele>
        <time>2019-08-04T08:48:00.000Z</time>
      </trkpt>
      <trkpt lat="47.28791" lon="-2.41953">
        <ele>-32</ele>
        <time>2019-08-04T08:48:03.000Z</time>
      </trkpt>
      <trkpt lat="47.28791" lon="-2.41961">
        <ele>-32</ele>
        <time>2019-08-04T08:48:04.000Z</time>
      </trkpt>
      <trkpt lat="47.28793" lon="-2.41988">
        <ele>-32</ele>
        <time>2019-08-04T08:48:07.000Z</time>
      </trkpt>
      <trkpt lat="47.28798" lon="-2.42013">
        <ele>-32</ele>
        <time>2019-08-04T08:48:10.000Z</time>
      </trkpt>
      <trkpt lat="47.28808" lon="-2.42067">
        <ele>-32</ele>
        <time>2019-08-04T08:48:17.000Z</time>
      </trkpt>
      <trkpt lat="47.28803" lon="-2.42105">
        <ele>-32</ele>
        <time>2019-08-04T08:48:22.000Z</time>
      </trkpt>
      <trkpt lat="47.28801" lon="-2.42112">
        <ele>-32</ele>
        <time>2019-08-04T08:48:23.000Z</time>
      </trkpt>
      <trkpt lat="47.28794" lon="-2.42126">
        <ele>-32</ele>
        <time>2019-08-04T08:48:25.000Z</time>
      </trkpt>
      <trkpt lat="47.2879" lon="-2.42131">
        <ele>-32</ele>
        <time>2019-08-04T08:48:26.000Z</time>
      </trkpt>
      <trkpt lat="47.28773" lon="-2.42142">
        <ele>-32</ele>
        <time>2019-08-04T08:48:29.000Z</time>
      </trkpt>
      <trkpt lat="47.28768" lon="-2.42146">
        <ele>-32</ele>
        <time>2019-08-04T08:48:30.000Z</time>
      </trkpt>
      <trkpt lat="47.28746" lon="-2.4216">
        <ele>-32</ele>
        <time>2019-08-04T08:48:34.000Z</time>
      </trkpt>
      <trkpt lat="47.28736" lon="-2.42168">
        <ele>-32</ele>
        <time>2019-08-04T08:48:36.000Z</time>
      </trkpt>
      <trkpt lat="47.28707" lon="-2.42198">
        <ele>-32</ele>
        <time>2019-08-04T08:48:42.000Z</time>
      </trkpt>
      <trkpt lat="47.28704" lon="-2.42203">
        <ele>-32</ele>
        <time>2019-08-04T08:48:43.000Z</time>
      </trkpt>
      <trkpt lat="47.287" lon="-2.42209">
        <ele>-32</ele>
        <time>2019-08-04T08:48:44.000Z</time>
      </trkpt>
      <trkpt lat="47.28692" lon="-2.4223">
        <ele>-32</ele>
        <time>2019-08-04T08:48:47.000Z</time>
      </trkpt>
      <trkpt lat="47.2868" lon="-2.42278">
        <ele>-32</ele>
        <time>2019-08-04T08:48:53.000Z</time>
      </trkpt>
      <trkpt lat="47.28671" lon="-2.4233">
        <ele>-32</ele>
        <time>2019-08-04T08:48:59.000Z</time>
      </trkpt>
      <trkpt lat="47.28668" lon="-2.42362">
        <ele>-32</ele>
        <time>2019-08-04T08:49:03.000Z</time>
      </trkpt>
      <trkpt lat="47.28667" lon="-2.42377">
        <ele>-32</ele>
        <time>2019-08-04T08:49:05.000Z</time>
      </trkpt>
      <trkpt lat="47.28657" lon="-2.42398">
        <ele>-32</ele>
        <time>2019-08-04T08:49:09.000Z</time>
      </trkpt>
      <trkpt lat="47.28634" lon="-2.42426">
        <ele>-32</ele>
        <time>2019-08-04T08:49:15.000Z</time>
      </trkpt>
      <trkpt lat="47.28606" lon="-2.4245">
        <ele>-32</ele>
        <time>2019-08-04T08:49:21.000Z</time>
      </trkpt>
      <trkpt lat="47.28578" lon="-2.42487">
        <ele>-32</ele>
        <time>2019-08-04T08:49:28.000Z</time>
      </trkpt>
      <trkpt lat="47.28575" lon="-2.42493">
        <ele>-32</ele>
        <time>2019-08-04T08:49:29.000Z</time>
      </trkpt>
      <trkpt lat="47.28568" lon="-2.42512">
        <ele>-32</ele>
        <time>2019-08-04T08:49:32.000Z</time>
      </trkpt>
      <trkpt lat="47.28566" lon="-2.42519">
        <ele>-32</ele>
        <time>2019-08-04T08:49:33.000Z</time>
      </trkpt>
      <trkpt lat="47.28566" lon="-2.42557">
        <ele>-32</ele>
        <time>2019-08-04T08:49:38.000Z</time>
      </trkpt>
      <trkpt lat="47.28579" lon="-2.42593">
        <ele>-32</ele>
        <time>2019-08-04T08:49:43.000Z</time>
      </trkpt>
      <trkpt lat="47.28592" lon="-2.42609">
        <ele>-32</ele>
        <time>2019-08-04T08:49:46.000Z</time>
      </trkpt>
      <trkpt lat="47.28601" lon="-2.42618">
        <ele>-32</ele>
        <time>2019-08-04T08:49:48.000Z</time>
      </trkpt>
      <trkpt lat="47.28631" lon="-2.42642">
        <ele>-32</ele>
        <time>2019-08-04T08:49:54.000Z</time>
      </trkpt>
      <trkpt lat="47.28645" lon="-2.4265">
        <ele>-32</ele>
        <time>2019-08-04T08:49:57.000Z</time>
      </trkpt>
      <trkpt lat="47.28654" lon="-2.42651">
        <ele>-32</ele>
        <time>2019-08-04T08:49:59.000Z</time>
      </trkpt>
      <trkpt lat="47.28686" lon="-2.42659">
        <ele>-32</ele>
        <time>2019-08-04T08:50:06.000Z</time>
      </trkpt>
      <trkpt lat="47.28714" lon="-2.42671">
        <ele>-32</ele>
        <time>2019-08-04T08:50:12.000Z</time>
      </trkpt>
      <trkpt lat="47.28717" lon="-2.42676">
        <ele>-32</ele>
        <time>2019-08-04T08:50:13.000Z</time>
      </trkpt>
      <trkpt lat="47.2872" lon="-2.42697">
        <ele>-32</ele>
        <time>2019-08-04T08:50:16.000Z</time>
      </trkpt>
      <trkpt lat="47.2872" lon="-2.42705">
        <ele>-32</ele>
        <time>2019-08-04T08:50:17.000Z</time>
      </trkpt>
      <trkpt lat="47.28718" lon="-2.42728">
        <ele>-32</ele>
        <time>2019-08-04T08:50:20.000Z</time>
      </trkpt>
      <trkpt lat="47.28717" lon="-2.42743">
        <ele>-32</ele>
        <time>2019-08-04T08:50:22.000Z</time>
      </trkpt>
      <trkpt lat="47.28714" lon="-2.42758">
        <ele>-32</ele>
        <time>2019-08-04T08:50:24.000Z</time>
      </trkpt>
      <trkpt lat="47.2871" lon="-2.42771">
        <ele>-32</ele>
        <time>2019-08-04T08:50:26.000Z</time>
      </trkpt>
      <trkpt lat="47.28707" lon="-2.42778">
        <ele>-32</ele>
        <time>2019-08-04T08:50:27.000Z</time>
      </trkpt>
      <trkpt lat="47.28686" lon="-2.42818">
        <ele>-32</ele>
        <time>2019-08-04T08:50:33.000Z</time>
      </trkpt>
      <trkpt lat="47.28677" lon="-2.42837">
        <ele>-32</ele>
        <time>2019-08-04T08:50:36.000Z</time>
      </trkpt>
      <trkpt lat="47.28673" lon="-2.42851">
        <ele>-32</ele>
        <time>2019-08-04T08:50:38.000Z</time>
      </trkpt>
      <trkpt lat="47.28666" lon="-2.42909">
        <ele>-32</ele>
        <time>2019-08-04T08:50:45.000Z</time>
      </trkpt>
      <trkpt lat="47.28659" lon="-2.42965">
        <ele>-32</ele>
        <time>2019-08-04T08:50:52.000Z</time>
      </trkpt>
      <trkpt lat="47.28649" lon="-2.43021">
        <ele>-32</ele>
        <time>2019-08-04T08:50:59.000Z</time>
      </trkpt>
      <trkpt lat="47.28641" lon="-2.43067">
        <ele>-32</ele>
        <time>2019-08-04T08:51:05.000Z</time>
      </trkpt>
      <trkpt lat="47.28639" lon="-2.43074">
        <ele>-32</ele>
        <time>2019-08-04T08:51:06.000Z</time>
      </trkpt>
      <trkpt lat="47.2863" lon="-2.43106">
        <ele>-32</ele>
        <time>2019-08-04T08:51:10.000Z</time>
      </trkpt>
      <trkpt lat="47.28628" lon="-2.43115">
        <ele>-32</ele>
        <time>2019-08-04T08:51:11.000Z</time>
      </trkpt>
      <trkpt lat="47.28625" lon="-2.43139">
        <ele>-32</ele>
        <time>2019-08-04T08:51:14.000Z</time>
      </trkpt>
      <trkpt lat="47.28625" lon="-2.43147">
        <ele>-32</ele>
        <time>2019-08-04T08:51:15.000Z</time>
      </trkpt>
      <trkpt lat="47.28626" lon="-2.43163">
        <ele>-32</ele>
        <time>2019-08-04T08:51:17.000Z</time>
      </trkpt>
      <trkpt lat="47.28629" lon="-2.43178">
        <ele>-32</ele>
        <time>2019-08-04T08:51:19.000Z</time>
      </trkpt>
      <trkpt lat="47.28631" lon="-2.43186">
        <ele>-32</ele>
        <time>2019-08-04T08:51:20.000Z</time>
      </trkpt>
      <trkpt lat="47.28638" lon="-2.43208">
        <ele>-32</ele>
        <time>2019-08-04T08:51:23.000Z</time>
      </trkpt>
      <trkpt lat="47.28642" lon="-2.43214">
        <ele>-32</ele>
        <time>2019-08-04T08:51:24.000Z</time>
      </trkpt>
      <trkpt lat="47.28652" lon="-2.43231">
        <ele>-32</ele>
        <time>2019-08-04T08:51:27.000Z</time>
      </trkpt>
      <trkpt lat="47.28652" lon="-2.43241">
        <ele>-32</ele>
        <time>2019-08-04T08:51:29.000Z</time>
      </trkpt>
      <trkpt lat="47.28645" lon="-2.43248">
        <ele>-32.400001525879</ele>
        <time>2019-08-04T08:51:31.000Z</time>
      </trkpt>
      <trkpt lat="47.28641" lon="-2.4325">
        <ele>-32.799999237061</ele>
        <time>2019-08-04T08:51:32.000Z</time>
      </trkpt>
      <trkpt lat="47.28637" lon="-2.43252">
        <ele>-33.200000762939</ele>
        <time>2019-08-04T08:51:33.000Z</time>
      </trkpt>
      <trkpt lat="47.28632" lon="-2.43254">
        <ele>-33.599998474121</ele>
        <time>2019-08-04T08:51:34.000Z</time>
      </trkpt>
      <trkpt lat="47.28627" lon="-2.43256">
        <ele>-34</ele>
        <time>2019-08-04T08:51:35.000Z</time>
      </trkpt>
      <trkpt lat="47.28611" lon="-2.43261">
        <ele>-34</ele>
        <time>2019-08-04T08:51:38.000Z</time>
      </trkpt>
      <trkpt lat="47.28606" lon="-2.43261">
        <ele>-34</ele>
        <time>2019-08-04T08:51:39.000Z</time>
      </trkpt>
      <trkpt lat="47.286" lon="-2.43253">
        <ele>-34</ele>
        <time>2019-08-04T08:51:41.000Z</time>
      </trkpt>
      <trkpt lat="47.28596" lon="-2.43225">
        <ele>-34</ele>
        <time>2019-08-04T08:51:45.000Z</time>
      </trkpt>
      <trkpt lat="47.28596" lon="-2.43219">
        <ele>-34</ele>
        <time>2019-08-04T08:51:46.000Z</time>
      </trkpt>
      <trkpt lat="47.28597" lon="-2.43189">
        <ele>-34</ele>
        <time>2019-08-04T08:51:50.000Z</time>
      </trkpt>
      <trkpt lat="47.28597" lon="-2.43182">
        <ele>-34</ele>
        <time>2019-08-04T08:51:51.000Z</time>
      </trkpt>
      <trkpt lat="47.28597" lon="-2.43165">
        <ele>-34</ele>
        <time>2019-08-04T08:51:53.000Z</time>
      </trkpt>
      <trkpt lat="47.28592" lon="-2.43142">
        <ele>-34</ele>
        <time>2019-08-04T08:51:56.000Z</time>
      </trkpt>
      <trkpt lat="47.28587" lon="-2.43121">
        <ele>-34</ele>
        <time>2019-08-04T08:51:59.000Z</time>
      </trkpt>
      <trkpt lat="47.28581" lon="-2.43107">
        <ele>-34</ele>
        <time>2019-08-04T08:52:01.000Z</time>
      </trkpt>
      <trkpt lat="47.28578" lon="-2.43101">
        <ele>-34</ele>
        <time>2019-08-04T08:52:02.000Z</time>
      </trkpt>
      <trkpt lat="47.28556" lon="-2.43068">
        <ele>-34</ele>
        <time>2019-08-04T08:52:08.000Z</time>
      </trkpt>
      <trkpt lat="47.28541" lon="-2.43048">
        <ele>-34</ele>
        <time>2019-08-04T08:52:12.000Z</time>
      </trkpt>
      <trkpt lat="47.28532" lon="-2.43041">
        <ele>-34</ele>
        <time>2019-08-04T08:52:14.000Z</time>
      </trkpt>
      <trkpt lat="47.28521" lon="-2.43034">
        <ele>-34</ele>
        <time>2019-08-04T08:52:16.000Z</time>
      </trkpt>
      <trkpt lat="47.28504" lon="-2.43028">
        <ele>-34</ele>
        <time>2019-08-04T08:52:19.000Z</time>
      </trkpt>
      <trkpt lat="47.28492" lon="-2.43027">
        <ele>-34</ele>
        <time>2019-08-04T08:52:21.000Z</time>
      </trkpt>
      <trkpt lat="47.2848" lon="-2.43031">
        <ele>-34</ele>
        <time>2019-08-04T08:52:23.000Z</time>
      </trkpt>
      <trkpt lat="47.28467" lon="-2.43048">
        <ele>-34</ele>
        <time>2019-08-04T08:52:26.000Z</time>
      </trkpt>
      <trkpt lat="47.2846" lon="-2.43062">
        <ele>-34</ele>
        <time>2019-08-04T08:52:28.000Z</time>
      </trkpt>
      <trkpt lat="47.28452" lon="-2.43075">
        <ele>-34</ele>
        <time>2019-08-04T08:52:30.000Z</time>
      </trkpt>
      <trkpt lat="47.28447" lon="-2.4308">
        <ele>-34</ele>
        <time>2019-08-04T08:52:31.000Z</time>
      </trkpt>
      <trkpt lat="47.28426" lon="-2.43109">
        <ele>-34</ele>
        <time>2019-08-04T08:52:36.000Z</time>
      </trkpt>
      <trkpt lat="47.28422" lon="-2.43115">
        <ele>-34</ele>
        <time>2019-08-04T08:52:37.000Z</time>
      </trkpt>
      <trkpt lat="47.28407" lon="-2.4314">
        <ele>-34</ele>
        <time>2019-08-04T08:52:41.000Z</time>
      </trkpt>
      <trkpt lat="47.28403" lon="-2.43146">
        <ele>-34</ele>
        <time>2019-08-04T08:52:42.000Z</time>
      </trkpt>
      <trkpt lat="47.28376" lon="-2.43176">
        <ele>-34</ele>
        <time>2019-08-04T08:52:48.000Z</time>
      </trkpt>
      <trkpt lat="47.28343" lon="-2.43214">
        <ele>-34</ele>
        <time>2019-08-04T08:52:56.000Z</time>
      </trkpt>
      <trkpt lat="47.28321" lon="-2.43246">
        <ele>-34</ele>
        <time>2019-08-04T08:53:02.000Z</time>
      </trkpt>
      <trkpt lat="47.28318" lon="-2.43251">
        <ele>-34</ele>
        <time>2019-08-04T08:53:03.000Z</time>
      </trkpt>
      <trkpt lat="47.28304" lon="-2.43266">
        <ele>-34</ele>
        <time>2019-08-04T08:53:07.000Z</time>
      </trkpt>
      <trkpt lat="47.28291" lon="-2.4328">
        <ele>-34</ele>
        <time>2019-08-04T08:53:12.000Z</time>
      </trkpt>
      <trkpt lat="47.28287" lon="-2.43283">
        <ele>-34</ele>
        <time>2019-08-04T08:53:16.000Z</time>
      </trkpt>
      <trkpt lat="47.28285" lon="-2.43287">
        <ele>-34</ele>
        <time>2019-08-04T08:53:41.000Z</time>
      </trkpt>
      <trkpt lat="47.28282" lon="-2.43299">
        <ele>-34</ele>
        <time>2019-08-04T08:53:46.000Z</time>
      </trkpt>
      <trkpt lat="47.28281" lon="-2.43302">
        <ele>-34</ele>
        <time>2019-08-04T08:53:47.000Z</time>
      </trkpt>
      <trkpt lat="47.28276" lon="-2.43322">
        <ele>-34</ele>
        <time>2019-08-04T08:53:54.000Z</time>
      </trkpt>
      <trkpt lat="47.28274" lon="-2.43336">
        <ele>-34</ele>
        <time>2019-08-04T08:53:59.000Z</time>
      </trkpt>
      <trkpt lat="47.28272" lon="-2.43357">
        <ele>-34</ele>
        <time>2019-08-04T08:54:07.000Z</time>
      </trkpt>
      <trkpt lat="47.28271" lon="-2.4336">
        <ele>-34</ele>
        <time>2019-08-04T08:54:10.000Z</time>
      </trkpt>
      <trkpt lat="47.2827" lon="-2.43363">
        <ele>-34</ele>
        <time>2019-08-04T08:54:25.000Z</time>
      </trkpt>
      <trkpt lat="47.28269" lon="-2.43366">
        <ele>-34</ele>
        <time>2019-08-04T08:54:26.000Z</time>
      </trkpt>
      <trkpt lat="47.28261" lon="-2.43382">
        <ele>-34</ele>
        <time>2019-08-04T08:54:30.000Z</time>
      </trkpt>
      <trkpt lat="47.28254" lon="-2.43385">
        <ele>-34</ele>
        <time>2019-08-04T08:54:32.000Z</time>
      </trkpt>
      <trkpt lat="47.2825" lon="-2.43383">
        <ele>-34</ele>
        <time>2019-08-04T08:54:33.000Z</time>
      </trkpt>
      <trkpt lat="47.28234" lon="-2.43372">
        <ele>-34</ele>
        <time>2019-08-04T08:54:37.000Z</time>
      </trkpt>
      <trkpt lat="47.2823" lon="-2.43368">
        <ele>-34</ele>
        <time>2019-08-04T08:54:38.000Z</time>
      </trkpt>
      <trkpt lat="47.28216" lon="-2.43357">
        <ele>-34</ele>
        <time>2019-08-04T08:54:41.000Z</time>
      </trkpt>
      <trkpt lat="47.28213" lon="-2.43353">
        <ele>-34</ele>
        <time>2019-08-04T08:54:42.000Z</time>
      </trkpt>
      <trkpt lat="47.28203" lon="-2.43335">
        <ele>-34</ele>
        <time>2019-08-04T08:54:45.000Z</time>
      </trkpt>
      <trkpt lat="47.2819" lon="-2.43335">
        <ele>-34</ele>
        <time>2019-08-04T08:54:48.000Z</time>
      </trkpt>
      <trkpt lat="47.2818" lon="-2.4334">
        <ele>-34</ele>
        <time>2019-08-04T08:54:51.000Z</time>
      </trkpt>
      <trkpt lat="47.28173" lon="-2.43335">
        <ele>-34</ele>
        <time>2019-08-04T08:54:54.000Z</time>
      </trkpt>
      <trkpt lat="47.28164" lon="-2.43347">
        <ele>-34</ele>
        <time>2019-08-04T08:54:57.000Z</time>
      </trkpt>
      <trkpt lat="47.28161" lon="-2.43352">
        <ele>-34</ele>
        <time>2019-08-04T08:54:58.000Z</time>
      </trkpt>
      <trkpt lat="47.28139" lon="-2.43386">
        <ele>-34</ele>
        <time>2019-08-04T08:55:04.000Z</time>
      </trkpt>
      <trkpt lat="47.28108" lon="-2.43433">
        <ele>-34</ele>
        <time>2019-08-04T08:55:11.000Z</time>
      </trkpt>
      <trkpt lat="47.28071" lon="-2.43486">
        <ele>-34</ele>
        <time>2019-08-04T08:55:19.000Z</time>
      </trkpt>
      <trkpt lat="47.28061" lon="-2.43501">
        <ele>-34</ele>
        <time>2019-08-04T08:55:21.000Z</time>
      </trkpt>
      <trkpt lat="47.28043" lon="-2.43528">
        <ele>-34</ele>
        <time>2019-08-04T08:55:25.000Z</time>
      </trkpt>
      <trkpt lat="47.28002" lon="-2.43589">
        <ele>-34</ele>
        <time>2019-08-04T08:55:34.000Z</time>
      </trkpt>
      <trkpt lat="47.27962" lon="-2.43647">
        <ele>-34</ele>
        <time>2019-08-04T08:55:43.000Z</time>
      </trkpt>
      <trkpt lat="47.27932" lon="-2.43689">
        <ele>-34</ele>
        <time>2019-08-04T08:55:49.000Z</time>
      </trkpt>
      <trkpt lat="47.27895" lon="-2.43734">
        <ele>-34</ele>
        <time>2019-08-04T08:55:56.000Z</time>
      </trkpt>
      <trkpt lat="47.27861" lon="-2.43767">
        <ele>-34</ele>
        <time>2019-08-04T08:56:02.000Z</time>
      </trkpt>
      <trkpt lat="47.27834" lon="-2.43787">
        <ele>-34</ele>
        <time>2019-08-04T08:56:07.000Z</time>
      </trkpt>
      <trkpt lat="47.27809" lon="-2.438">
        <ele>-34</ele>
        <time>2019-08-04T08:56:12.000Z</time>
      </trkpt>
      <trkpt lat="47.27805" lon="-2.438">
        <ele>-34</ele>
        <time>2019-08-04T08:56:13.000Z</time>
      </trkpt>
      <trkpt lat="47.27798" lon="-2.43797">
        <ele>-34</ele>
        <time>2019-08-04T08:56:15.000Z</time>
      </trkpt>
      <trkpt lat="47.27787" lon="-2.43791">
        <ele>-34</ele>
        <time>2019-08-04T08:56:20.000Z</time>
      </trkpt>
      <trkpt lat="47.27772" lon="-2.43789">
        <ele>-34</ele>
        <time>2019-08-04T08:56:24.000Z</time>
      </trkpt>
      <trkpt lat="47.27756" lon="-2.43807">
        <ele>-34</ele>
        <time>2019-08-04T08:56:28.000Z</time>
      </trkpt>
      <trkpt lat="47.27743" lon="-2.43819">
        <ele>-34</ele>
        <time>2019-08-04T08:56:31.000Z</time>
      </trkpt>
      <trkpt lat="47.27733" lon="-2.43822">
        <ele>-34</ele>
        <time>2019-08-04T08:56:33.000Z</time>
      </trkpt>
      <trkpt lat="47.27698" lon="-2.43825">
        <ele>-34</ele>
        <time>2019-08-04T08:56:39.000Z</time>
      </trkpt>
      <trkpt lat="47.27662" lon="-2.43837">
        <ele>-34</ele>
        <time>2019-08-04T08:56:45.000Z</time>
      </trkpt>
      <trkpt lat="47.27623" lon="-2.43854">
        <ele>-34</ele>
        <time>2019-08-04T08:56:51.000Z</time>
      </trkpt>
      <trkpt lat="47.27582" lon="-2.43871">
        <ele>-34</ele>
        <time>2019-08-04T08:56:57.000Z</time>
      </trkpt>
      <trkpt lat="47.27552" lon="-2.43885">
        <ele>-34</ele>
        <time>2019-08-04T08:57:02.000Z</time>
      </trkpt>
      <trkpt lat="47.27546" lon="-2.43887">
        <ele>-34</ele>
        <time>2019-08-04T08:57:03.000Z</time>
      </trkpt>
      <trkpt lat="47.27531" lon="-2.43894">
        <ele>-34</ele>
        <time>2019-08-04T08:57:07.000Z</time>
      </trkpt>
      <trkpt lat="47.27525" lon="-2.43896">
        <ele>-34</ele>
        <time>2019-08-04T08:57:12.000Z</time>
      </trkpt>
      <trkpt lat="47.27517" lon="-2.43901">
        <ele>-34</ele>
        <time>2019-08-04T08:57:16.000Z</time>
      </trkpt>
      <trkpt lat="47.27498" lon="-2.43908">
        <ele>-34</ele>
        <time>2019-08-04T08:57:21.000Z</time>
      </trkpt>
      <trkpt lat="47.27473" lon="-2.43919">
        <ele>-34</ele>
        <time>2019-08-04T08:57:27.000Z</time>
      </trkpt>
      <trkpt lat="47.27449" lon="-2.43929">
        <ele>-34</ele>
        <time>2019-08-04T08:57:33.000Z</time>
      </trkpt>
      <trkpt lat="47.2743" lon="-2.43937">
        <ele>-34</ele>
        <time>2019-08-04T08:57:38.000Z</time>
      </trkpt>
      <trkpt lat="47.27426" lon="-2.43938">
        <ele>-34</ele>
        <time>2019-08-04T08:57:39.000Z</time>
      </trkpt>
      <trkpt lat="47.27412" lon="-2.43944">
        <ele>-34</ele>
        <time>2019-08-04T08:57:43.000Z</time>
      </trkpt>
      <trkpt lat="47.27394" lon="-2.43953">
        <ele>-34</ele>
        <time>2019-08-04T08:57:48.000Z</time>
      </trkpt>
      <trkpt lat="47.27385" lon="-2.43961">
        <ele>-34</ele>
        <time>2019-08-04T08:57:53.000Z</time>
      </trkpt>
      <trkpt lat="47.27384" lon="-2.43966">
        <ele>-34</ele>
        <time>2019-08-04T08:57:55.000Z</time>
      </trkpt>
      <trkpt lat="47.2738" lon="-2.43973">
        <ele>-34</ele>
        <time>2019-08-04T08:57:57.000Z</time>
      </trkpt>
      <trkpt lat="47.27367" lon="-2.4398">
        <ele>-34</ele>
        <time>2019-08-04T08:58:00.000Z</time>
      </trkpt>
      <trkpt lat="47.27362" lon="-2.43982">
        <ele>-34</ele>
        <time>2019-08-04T08:58:01.000Z</time>
      </trkpt>
      <trkpt lat="47.27338" lon="-2.43994">
        <ele>-34</ele>
        <time>2019-08-04T08:58:06.000Z</time>
      </trkpt>
      <trkpt lat="47.27313" lon="-2.44003">
        <ele>-34</ele>
        <time>2019-08-04T08:58:11.000Z</time>
      </trkpt>
      <trkpt lat="47.27309" lon="-2.44009">
        <ele>-34</ele>
        <time>2019-08-04T08:58:12.000Z</time>
      </trkpt>
      <trkpt lat="47.27305" lon="-2.44031">
        <ele>-34</ele>
        <time>2019-08-04T08:58:15.000Z</time>
      </trkpt>
      <trkpt lat="47.27309" lon="-2.44061">
        <ele>-34</ele>
        <time>2019-08-04T08:58:19.000Z</time>
      </trkpt>
      <trkpt lat="47.2731" lon="-2.44068">
        <ele>-34</ele>
        <time>2019-08-04T08:58:20.000Z</time>
      </trkpt>
      <trkpt lat="47.27311" lon="-2.44074">
        <ele>-34</ele>
        <time>2019-08-04T08:58:21.000Z</time>
      </trkpt>
      <trkpt lat="47.27317" lon="-2.44107">
        <ele>-34</ele>
        <time>2019-08-04T08:58:26.000Z</time>
      </trkpt>
      <trkpt lat="47.2732" lon="-2.44127">
        <ele>-33.599998474121</ele>
        <time>2019-08-04T08:58:29.000Z</time>
      </trkpt>
      <trkpt lat="47.27321" lon="-2.44134">
        <ele>-33.200000762939</ele>
        <time>2019-08-04T08:58:30.000Z</time>
      </trkpt>
      <trkpt lat="47.27322" lon="-2.4414">
        <ele>-32.799999237061</ele>
        <time>2019-08-04T08:58:31.000Z</time>
      </trkpt>
      <trkpt lat="47.27323" lon="-2.44147">
        <ele>-32.400001525879</ele>
        <time>2019-08-04T08:58:32.000Z</time>
      </trkpt>
      <trkpt lat="47.27324" lon="-2.44154">
        <ele>-32</ele>
        <time>2019-08-04T08:58:33.000Z</time>
      </trkpt>
      <trkpt lat="47.27331" lon="-2.44182">
        <ele>-32</ele>
        <time>2019-08-04T08:58:38.000Z</time>
      </trkpt>
      <trkpt lat="47.27342" lon="-2.44188">
        <ele>-32</ele>
        <time>2019-08-04T08:58:41.000Z</time>
      </trkpt>
      <trkpt lat="47.27346" lon="-2.44188">
        <ele>-32</ele>
        <time>2019-08-04T08:58:42.000Z</time>
      </trkpt>
      <trkpt lat="47.2736" lon="-2.44182">
        <ele>-32</ele>
        <time>2019-08-04T08:58:45.000Z</time>
      </trkpt>
      <trkpt lat="47.27365" lon="-2.44178">
        <ele>-32</ele>
        <time>2019-08-04T08:58:46.000Z</time>
      </trkpt>
      <trkpt lat="47.27388" lon="-2.44164">
        <ele>-32</ele>
        <time>2019-08-04T08:58:51.000Z</time>
      </trkpt>
      <trkpt lat="47.27397" lon="-2.44159">
        <ele>-32</ele>
        <time>2019-08-04T08:58:53.000Z</time>
      </trkpt>
      <trkpt lat="47.27408" lon="-2.44167">
        <ele>-32</ele>
        <time>2019-08-04T08:58:56.000Z</time>
      </trkpt>
      <trkpt lat="47.27415" lon="-2.4419">
        <ele>-32</ele>
        <time>2019-08-04T08:59:00.000Z</time>
      </trkpt>
      <trkpt lat="47.27417" lon="-2.44197">
        <ele>-32</ele>
        <time>2019-08-04T08:59:01.000Z</time>
      </trkpt>
      <trkpt lat="47.27422" lon="-2.44233">
        <ele>-32</ele>
        <time>2019-08-04T08:59:06.000Z</time>
      </trkpt>
      <trkpt lat="47.27429" lon="-2.44298">
        <ele>-32</ele>
        <time>2019-08-04T08:59:14.000Z</time>
      </trkpt>
      <trkpt lat="47.27433" lon="-2.44338">
        <ele>-32.400001525879</ele>
        <time>2019-08-04T08:59:19.000Z</time>
      </trkpt>
      <trkpt lat="47.27434" lon="-2.44346">
        <ele>-32.799999237061</ele>
        <time>2019-08-04T08:59:20.000Z</time>
      </trkpt>
      <trkpt lat="47.27436" lon="-2.44353">
        <ele>-33.200000762939</ele>
        <time>2019-08-04T08:59:21.000Z</time>
      </trkpt>
      <trkpt lat="47.27436" lon="-2.44361">
        <ele>-33.799999237061</ele>
        <time>2019-08-04T08:59:22.000Z</time>
      </trkpt>
      <trkpt lat="47.27437" lon="-2.44368">
        <ele>-34.200000762939</ele>
        <time>2019-08-04T08:59:23.000Z</time>
      </trkpt>
      <trkpt lat="47.27441" lon="-2.44388">
        <ele>-34.200000762939</ele>
        <time>2019-08-04T08:59:26.000Z</time>
      </trkpt>
      <trkpt lat="47.27441" lon="-2.4441">
        <ele>-34.200000762939</ele>
        <time>2019-08-04T08:59:29.000Z</time>
      </trkpt>
      <trkpt lat="47.2744" lon="-2.44425">
        <ele>-34.200000762939</ele>
        <time>2019-08-04T08:59:31.000Z</time>
      </trkpt>
      <trkpt lat="47.27439" lon="-2.44433">
        <ele>-34.200000762939</ele>
        <time>2019-08-04T08:59:32.000Z</time>
      </trkpt>
      <trkpt lat="47.2744" lon="-2.44477">
        <ele>-34.200000762939</ele>
        <time>2019-08-04T08:59:37.000Z</time>
      </trkpt>
      <trkpt lat="47.2744" lon="-2.445">
        <ele>-34.200000762939</ele>
        <time>2019-08-04T08:59:40.000Z</time>
      </trkpt>
      <trkpt lat="47.27444" lon="-2.44514">
        <ele>-34.200000762939</ele>
        <time>2019-08-04T08:59:42.000Z</time>
      </trkpt>
      <trkpt lat="47.2745" lon="-2.44549">
        <ele>-34.200000762939</ele>
        <time>2019-08-04T08:59:47.000Z</time>
      </trkpt>
      <trkpt lat="47.27452" lon="-2.44573">
        <ele>-34.200000762939</ele>
        <time>2019-08-04T08:59:50.000Z</time>
      </trkpt>
      <trkpt lat="47.27452" lon="-2.44587">
        <ele>-34.200000762939</ele>
        <time>2019-08-04T08:59:52.000Z</time>
      </trkpt>
      <trkpt lat="47.27454" lon="-2.44601">
        <ele>-34.200000762939</ele>
        <time>2019-08-04T08:59:54.000Z</time>
      </trkpt>
      <trkpt lat="47.27463" lon="-2.44619">
        <ele>-34.200000762939</ele>
        <time>2019-08-04T08:59:57.000Z</time>
      </trkpt>
      <trkpt lat="47.27477" lon="-2.44646">
        <ele>-34.200000762939</ele>
        <time>2019-08-04T09:00:01.000Z</time>
      </trkpt>
      <trkpt lat="47.27492" lon="-2.44674">
        <ele>-34.200000762939</ele>
        <time>2019-08-04T09:00:05.000Z</time>
      </trkpt>
      <trkpt lat="47.27496" lon="-2.4468">
        <ele>-34.200000762939</ele>
        <time>2019-08-04T09:00:06.000Z</time>
      </trkpt>
      <trkpt lat="47.27512" lon="-2.44705">
        <ele>-34.200000762939</ele>
        <time>2019-08-04T09:00:10.000Z</time>
      </trkpt>
      <trkpt lat="47.27515" lon="-2.44714">
        <ele>-34.200000762939</ele>
        <time>2019-08-04T09:00:11.000Z</time>
      </trkpt>
      <trkpt lat="47.27527" lon="-2.44762">
        <ele>-34.200000762939</ele>
        <time>2019-08-04T09:00:16.000Z</time>
      </trkpt>
      <trkpt lat="47.27536" lon="-2.44812">
        <ele>-34.200000762939</ele>
        <time>2019-08-04T09:00:22.000Z</time>
      </trkpt>
      <trkpt lat="47.27528" lon="-2.44829">
        <ele>-34.200000762939</ele>
        <time>2019-08-04T09:00:25.000Z</time>
      </trkpt>
      <trkpt lat="47.27523" lon="-2.44834">
        <ele>-34.200000762939</ele>
        <time>2019-08-04T09:00:26.000Z</time>
      </trkpt>
      <trkpt lat="47.27515" lon="-2.44843">
        <ele>-34.200000762939</ele>
        <time>2019-08-04T09:00:28.000Z</time>
      </trkpt>
      <trkpt lat="47.27505" lon="-2.44856">
        <ele>-34.200000762939</ele>
        <time>2019-08-04T09:00:31.000Z</time>
      </trkpt>
      <trkpt lat="47.27504" lon="-2.44875">
        <ele>-34.200000762939</ele>
        <time>2019-08-04T09:00:34.000Z</time>
      </trkpt>
      <trkpt lat="47.27507" lon="-2.44889">
        <ele>-34.200000762939</ele>
        <time>2019-08-04T09:00:36.000Z</time>
      </trkpt>
      <trkpt lat="47.27514" lon="-2.44918">
        <ele>-34.200000762939</ele>
        <time>2019-08-04T09:00:40.000Z</time>
      </trkpt>
      <trkpt lat="47.27523" lon="-2.44952">
        <ele>-34.200000762939</ele>
        <time>2019-08-04T09:00:44.000Z</time>
      </trkpt>
      <trkpt lat="47.27525" lon="-2.4496">
        <ele>-34.200000762939</ele>
        <time>2019-08-04T09:00:45.000Z</time>
      </trkpt>
      <trkpt lat="47.27547" lon="-2.45024">
        <ele>-34.200000762939</ele>
        <time>2019-08-04T09:00:52.000Z</time>
      </trkpt>
      <trkpt lat="47.27571" lon="-2.45072">
        <ele>-34.200000762939</ele>
        <time>2019-08-04T09:00:58.000Z</time>
      </trkpt>
      <trkpt lat="47.27587" lon="-2.45106">
        <ele>-34.200000762939</ele>
        <time>2019-08-04T09:01:02.000Z</time>
      </trkpt>
      <trkpt lat="47.2759" lon="-2.45116">
        <ele>-34.200000762939</ele>
        <time>2019-08-04T09:01:03.000Z</time>
      </trkpt>
      <trkpt lat="47.276" lon="-2.45177">
        <ele>-34.200000762939</ele>
        <time>2019-08-04T09:01:09.000Z</time>
      </trkpt>
      <trkpt lat="47.27606" lon="-2.4522">
        <ele>-34.200000762939</ele>
        <time>2019-08-04T09:01:14.000Z</time>
      </trkpt>
      <trkpt lat="47.2761" lon="-2.45267">
        <ele>-34.200000762939</ele>
        <time>2019-08-04T09:01:20.000Z</time>
      </trkpt>
      <trkpt lat="47.27613" lon="-2.45301">
        <ele>-34.200000762939</ele>
        <time>2019-08-04T09:01:25.000Z</time>
      </trkpt>
      <trkpt lat="47.27614" lon="-2.45317">
        <ele>-34.200000762939</ele>
        <time>2019-08-04T09:01:27.000Z</time>
      </trkpt>
      <trkpt lat="47.27618" lon="-2.45355">
        <ele>-33.799999237061</ele>
        <time>2019-08-04T09:01:32.000Z</time>
      </trkpt>
      <trkpt lat="47.27618" lon="-2.45362">
        <ele>-33.400001525879</ele>
        <time>2019-08-04T09:01:33.000Z</time>
      </trkpt>
      <trkpt lat="47.27618" lon="-2.45369">
        <ele>-33</ele>
        <time>2019-08-04T09:01:34.000Z</time>
      </trkpt>
      <trkpt lat="47.27619" lon="-2.45376">
        <ele>-32.599998474121</ele>
        <time>2019-08-04T09:01:35.000Z</time>
      </trkpt>
      <trkpt lat="47.27619" lon="-2.45383">
        <ele>-32.200000762939</ele>
        <time>2019-08-04T09:01:36.000Z</time>
      </trkpt>
      <trkpt lat="47.2762" lon="-2.45398">
        <ele>-32.200000762939</ele>
        <time>2019-08-04T09:01:38.000Z</time>
      </trkpt>
      <trkpt lat="47.27622" lon="-2.45413">
        <ele>-32.200000762939</ele>
        <time>2019-08-04T09:01:40.000Z</time>
      </trkpt>
      <trkpt lat="47.27626" lon="-2.4546">
        <ele>-31.60000038147</ele>
        <time>2019-08-04T09:01:46.000Z</time>
      </trkpt>
      <trkpt lat="47.27628" lon="-2.45467">
        <ele>-31.200000762939</ele>
        <time>2019-08-04T09:01:47.000Z</time>
      </trkpt>
      <trkpt lat="47.27629" lon="-2.45475">
        <ele>-30.799999237061</ele>
        <time>2019-08-04T09:01:48.000Z</time>
      </trkpt>
      <trkpt lat="47.2763" lon="-2.45483">
        <ele>-30.39999961853</ele>
        <time>2019-08-04T09:01:49.000Z</time>
      </trkpt>
      <trkpt lat="47.27631" lon="-2.45491">
        <ele>-29.799999237061</ele>
        <time>2019-08-04T09:01:50.000Z</time>
      </trkpt>
      <trkpt lat="47.2764" lon="-2.45529">
        <ele>-29.799999237061</ele>
        <time>2019-08-04T09:01:55.000Z</time>
      </trkpt>
      <trkpt lat="47.27648" lon="-2.45558">
        <ele>-29.799999237061</ele>
        <time>2019-08-04T09:01:59.000Z</time>
      </trkpt>
      <trkpt lat="47.27652" lon="-2.45572">
        <ele>-29.799999237061</ele>
        <time>2019-08-04T09:02:01.000Z</time>
      </trkpt>
      <trkpt lat="47.27664" lon="-2.45621">
        <ele>-29.799999237061</ele>
        <time>2019-08-04T09:02:08.000Z</time>
      </trkpt>
      <trkpt lat="47.27673" lon="-2.45653">
        <ele>-29.799999237061</ele>
        <time>2019-08-04T09:02:13.000Z</time>
      </trkpt>
      <trkpt lat="47.27675" lon="-2.45658">
        <ele>-29.799999237061</ele>
        <time>2019-08-04T09:02:14.000Z</time>
      </trkpt>
      <trkpt lat="47.2768" lon="-2.4567">
        <ele>-29.799999237061</ele>
        <time>2019-08-04T09:02:18.000Z</time>
      </trkpt>
      <trkpt lat="47.27673" lon="-2.45676">
        <ele>-29.799999237061</ele>
        <time>2019-08-04T09:02:21.000Z</time>
      </trkpt>
      <trkpt lat="47.27672" lon="-2.45668">
        <ele>-29.799999237061</ele>
        <time>2019-08-04T09:02:24.000Z</time>
      </trkpt>
      <trkpt lat="47.27678" lon="-2.45665">
        <ele>-29.799999237061</ele>
        <time>2019-08-04T09:02:28.000Z</time>
      </trkpt>
      <trkpt lat="47.27678" lon="-2.45666">
        <ele>-29.799999237061</ele>
        <time>2019-08-04T09:02:29.000Z</time>
      </trkpt>
      <trkpt lat="47.27679" lon="-2.45669">
        <ele>-29.799999237061</ele>
        <time>2019-08-04T09:02:34.000Z</time>
      </trkpt>
      <trkpt lat="47.27677" lon="-2.45671">
        <ele>-29.799999237061</ele>
        <time>2019-08-04T09:02:36.000Z</time>
      </trkpt>
      <trkpt lat="47.27665" lon="-2.45679">
        <ele>-29.799999237061</ele>
        <time>2019-08-04T09:02:41.000Z</time>
      </trkpt>
      <trkpt lat="47.27663" lon="-2.45682">
        <ele>-29.799999237061</ele>
        <time>2019-08-04T09:02:42.000Z</time>
      </trkpt>
      <trkpt lat="47.27649" lon="-2.45693">
        <ele>-29.799999237061</ele>
        <time>2019-08-04T09:02:46.000Z</time>
      </trkpt>
      <trkpt lat="47.27633" lon="-2.45703">
        <ele>-29.799999237061</ele>
        <time>2019-08-04T09:02:50.000Z</time>
      </trkpt>
      <trkpt lat="47.2763" lon="-2.45715">
        <ele>-29.799999237061</ele>
        <time>2019-08-04T09:02:52.000Z</time>
      </trkpt>
      <trkpt lat="47.27634" lon="-2.45736">
        <ele>-29.799999237061</ele>
        <time>2019-08-04T09:02:55.000Z</time>
      </trkpt>
      <trkpt lat="47.27636" lon="-2.45745">
        <ele>-29.799999237061</ele>
        <time>2019-08-04T09:02:56.000Z</time>
      </trkpt>
      <trkpt lat="47.2764" lon="-2.45786">
        <ele>-29.799999237061</ele>
        <time>2019-08-04T09:03:00.000Z</time>
      </trkpt>
      <trkpt lat="47.27642" lon="-2.45848">
        <ele>-29.799999237061</ele>
        <time>2019-08-04T09:03:06.000Z</time>
      </trkpt>
      <trkpt lat="47.27639" lon="-2.45913">
        <ele>-29.799999237061</ele>
        <time>2019-08-04T09:03:12.000Z</time>
      </trkpt>
      <trkpt lat="47.27638" lon="-2.45977">
        <ele>-29.799999237061</ele>
        <time>2019-08-04T09:03:18.000Z</time>
      </trkpt>
      <trkpt lat="47.27645" lon="-2.46035">
        <ele>-29.799999237061</ele>
        <time>2019-08-04T09:03:24.000Z</time>
      </trkpt>
      <trkpt lat="47.27658" lon="-2.46102">
        <ele>-29.799999237061</ele>
        <time>2019-08-04T09:03:31.000Z</time>
      </trkpt>
      <trkpt lat="47.27666" lon="-2.46148">
        <ele>-29.799999237061</ele>
        <time>2019-08-04T09:03:36.000Z</time>
      </trkpt>
      <trkpt lat="47.27668" lon="-2.46175">
        <ele>-29.799999237061</ele>
        <time>2019-08-04T09:03:39.000Z</time>
      </trkpt>
      <trkpt lat="47.27667" lon="-2.46185">
        <ele>-29.799999237061</ele>
        <time>2019-08-04T09:03:40.000Z</time>
      </trkpt>
      <trkpt lat="47.27668" lon="-2.46196">
        <ele>-29.799999237061</ele>
        <time>2019-08-04T09:03:41.000Z</time>
      </trkpt>
      <trkpt lat="47.27671" lon="-2.46227">
        <ele>-29.799999237061</ele>
        <time>2019-08-04T09:03:44.000Z</time>
      </trkpt>
      <trkpt lat="47.27673" lon="-2.46254">
        <ele>-29.799999237061</ele>
        <time>2019-08-04T09:03:47.000Z</time>
      </trkpt>
      <trkpt lat="47.27669" lon="-2.4627">
        <ele>-29.799999237061</ele>
        <time>2019-08-04T09:03:49.000Z</time>
      </trkpt>
      <trkpt lat="47.27658" lon="-2.46288">
        <ele>-29.799999237061</ele>
        <time>2019-08-04T09:03:52.000Z</time>
      </trkpt>
      <trkpt lat="47.27663" lon="-2.46299">
        <ele>-29.799999237061</ele>
        <time>2019-08-04T09:03:54.000Z</time>
      </trkpt>
      <trkpt lat="47.27677" lon="-2.46332">
        <ele>-29.799999237061</ele>
        <time>2019-08-04T09:03:59.000Z</time>
      </trkpt>
      <trkpt lat="47.27687" lon="-2.46373">
        <ele>-29.799999237061</ele>
        <time>2019-08-04T09:04:04.000Z</time>
      </trkpt>
      <trkpt lat="47.27705" lon="-2.46426">
        <ele>-29.799999237061</ele>
        <time>2019-08-04T09:04:11.000Z</time>
      </trkpt>
      <trkpt lat="47.27719" lon="-2.46457">
        <ele>-29.799999237061</ele>
        <time>2019-08-04T09:04:17.000Z</time>
      </trkpt>
      <trkpt lat="47.2773" lon="-2.46485">
        <ele>-30.200000762939</ele>
        <time>2019-08-04T09:04:23.000Z</time>
      </trkpt>
      <trkpt lat="47.27731" lon="-2.46491">
        <ele>-30.60000038147</ele>
        <time>2019-08-04T09:04:24.000Z</time>
      </trkpt>
      <trkpt lat="47.27733" lon="-2.46496">
        <ele>-31.200000762939</ele>
        <time>2019-08-04T09:04:25.000Z</time>
      </trkpt>
      <trkpt lat="47.27733" lon="-2.46502">
        <ele>-31.60000038147</ele>
        <time>2019-08-04T09:04:26.000Z</time>
      </trkpt>
      <trkpt lat="47.27734" lon="-2.46508">
        <ele>-32</ele>
        <time>2019-08-04T09:04:27.000Z</time>
      </trkpt>
      <trkpt lat="47.27736" lon="-2.46515">
        <ele>-32</ele>
        <time>2019-08-04T09:04:28.000Z</time>
      </trkpt>
      <trkpt lat="47.2774" lon="-2.46528">
        <ele>-32</ele>
        <time>2019-08-04T09:04:30.000Z</time>
      </trkpt>
      <trkpt lat="47.27742" lon="-2.46534">
        <ele>-32</ele>
        <time>2019-08-04T09:04:31.000Z</time>
      </trkpt>
      <trkpt lat="47.27745" lon="-2.46548">
        <ele>-32</ele>
        <time>2019-08-04T09:04:33.000Z</time>
      </trkpt>
      <trkpt lat="47.27754" lon="-2.46578">
        <ele>-32</ele>
        <time>2019-08-04T09:04:38.000Z</time>
      </trkpt>
      <trkpt lat="47.27756" lon="-2.46583">
        <ele>-32</ele>
        <time>2019-08-04T09:04:39.000Z</time>
      </trkpt>
      <trkpt lat="47.27764" lon="-2.46598">
        <ele>-32</ele>
        <time>2019-08-04T09:04:44.000Z</time>
      </trkpt>
      <trkpt lat="47.27764" lon="-2.46598">
        <ele>-32</ele>
        <time>2019-08-04T09:04:45.000Z</time>
      </trkpt>
      <trkpt lat="47.27765" lon="-2.46601">
        <ele>-32</ele>
        <time>2019-08-04T09:04:48.000Z</time>
      </trkpt>
      <trkpt lat="47.27765" lon="-2.46606">
        <ele>-32</ele>
        <time>2019-08-04T09:04:50.000Z</time>
      </trkpt>
      <trkpt lat="47.27762" lon="-2.46621">
        <ele>-32</ele>
        <time>2019-08-04T09:04:54.000Z</time>
      </trkpt>
      <trkpt lat="47.27762" lon="-2.46635">
        <ele>-32</ele>
        <time>2019-08-04T09:04:57.000Z</time>
      </trkpt>
      <trkpt lat="47.27765" lon="-2.46644">
        <ele>-32</ele>
        <time>2019-08-04T09:04:59.000Z</time>
      </trkpt>
      <trkpt lat="47.27766" lon="-2.4665">
        <ele>-32</ele>
        <time>2019-08-04T09:05:01.000Z</time>
      </trkpt>
      <trkpt lat="47.27763" lon="-2.46671">
        <ele>-32</ele>
        <time>2019-08-04T09:05:05.000Z</time>
      </trkpt>
      <trkpt lat="47.27761" lon="-2.46703">
        <ele>-32</ele>
        <time>2019-08-04T09:05:10.000Z</time>
      </trkpt>
      <trkpt lat="47.2776" lon="-2.46727">
        <ele>-32</ele>
        <time>2019-08-04T09:05:14.000Z</time>
      </trkpt>
      <trkpt lat="47.27765" lon="-2.46753">
        <ele>-32</ele>
        <time>2019-08-04T09:05:19.000Z</time>
      </trkpt>
      <trkpt lat="47.27774" lon="-2.4679">
        <ele>-32</ele>
        <time>2019-08-04T09:05:24.000Z</time>
      </trkpt>
      <trkpt lat="47.27784" lon="-2.46837">
        <ele>-32</ele>
        <time>2019-08-04T09:05:31.000Z</time>
      </trkpt>
      <trkpt lat="47.27783" lon="-2.46878">
        <ele>-32</ele>
        <time>2019-08-04T09:05:37.000Z</time>
      </trkpt>
      <trkpt lat="47.27782" lon="-2.46884">
        <ele>-32</ele>
        <time>2019-08-04T09:05:38.000Z</time>
      </trkpt>
      <trkpt lat="47.27775" lon="-2.46902">
        <ele>-32</ele>
        <time>2019-08-04T09:05:41.000Z</time>
      </trkpt>
      <trkpt lat="47.27773" lon="-2.46907">
        <ele>-32</ele>
        <time>2019-08-04T09:05:42.000Z</time>
      </trkpt>
      <trkpt lat="47.27771" lon="-2.46912">
        <ele>-32</ele>
        <time>2019-08-04T09:05:43.000Z</time>
      </trkpt>
      <trkpt lat="47.27769" lon="-2.46929">
        <ele>-32</ele>
        <time>2019-08-04T09:05:46.000Z</time>
      </trkpt>
      <trkpt lat="47.27765" lon="-2.46937">
        <ele>-32</ele>
        <time>2019-08-04T09:05:49.000Z</time>
      </trkpt>
      <trkpt lat="47.2775" lon="-2.46937">
        <ele>-32</ele>
        <time>2019-08-04T09:05:53.000Z</time>
      </trkpt>
      <trkpt lat="47.2774" lon="-2.46937">
        <ele>-32</ele>
        <time>2019-08-04T09:05:55.000Z</time>
      </trkpt>
      <trkpt lat="47.27727" lon="-2.46939">
        <ele>-32</ele>
        <time>2019-08-04T09:05:58.000Z</time>
      </trkpt>
      <trkpt lat="47.27712" lon="-2.46943">
        <ele>-32</ele>
        <time>2019-08-04T09:06:03.000Z</time>
      </trkpt>
      <trkpt lat="47.27693" lon="-2.46939">
        <ele>-32</ele>
        <time>2019-08-04T09:06:08.000Z</time>
      </trkpt>
      <trkpt lat="47.27684" lon="-2.46937">
        <ele>-32</ele>
        <time>2019-08-04T09:06:10.000Z</time>
      </trkpt>
      <trkpt lat="47.27675" lon="-2.46944">
        <ele>-32</ele>
        <time>2019-08-04T09:06:12.000Z</time>
      </trkpt>
      <trkpt lat="47.2767" lon="-2.46959">
        <ele>-32</ele>
        <time>2019-08-04T09:06:15.000Z</time>
      </trkpt>
      <trkpt lat="47.27669" lon="-2.46976">
        <ele>-32</ele>
        <time>2019-08-04T09:06:18.000Z</time>
      </trkpt>
      <trkpt lat="47.27667" lon="-2.46992">
        <ele>-32</ele>
        <time>2019-08-04T09:06:21.000Z</time>
      </trkpt>
      <trkpt lat="47.27662" lon="-2.46996">
        <ele>-32</ele>
        <time>2019-08-04T09:06:23.000Z</time>
      </trkpt>
      <trkpt lat="47.27659" lon="-2.46996">
        <ele>-32</ele>
        <time>2019-08-04T09:06:24.000Z</time>
      </trkpt>
      <trkpt lat="47.27637" lon="-2.46993">
        <ele>-32</ele>
        <time>2019-08-04T09:06:30.000Z</time>
      </trkpt>
      <trkpt lat="47.27629" lon="-2.46993">
        <ele>-32</ele>
        <time>2019-08-04T09:06:35.000Z</time>
      </trkpt>
      <trkpt lat="47.27626" lon="-2.46993">
        <ele>-32</ele>
        <time>2019-08-04T09:06:38.000Z</time>
      </trkpt>
      <trkpt lat="47.27624" lon="-2.46993">
        <ele>-31.39999961853</ele>
        <time>2019-08-04T09:06:40.000Z</time>
      </trkpt>
      <trkpt lat="47.27622" lon="-2.46994">
        <ele>-31</ele>
        <time>2019-08-04T09:06:41.000Z</time>
      </trkpt>
      <trkpt lat="47.2762" lon="-2.46995">
        <ele>-30.60000038147</ele>
        <time>2019-08-04T09:06:42.000Z</time>
      </trkpt>
      <trkpt lat="47.27619" lon="-2.46995">
        <ele>-30.200000762939</ele>
        <time>2019-08-04T09:06:43.000Z</time>
      </trkpt>
      <trkpt lat="47.27617" lon="-2.46996">
        <ele>-29.799999237061</ele>
        <time>2019-08-04T09:06:44.000Z</time>
      </trkpt>
      <trkpt lat="47.27612" lon="-2.46996">
        <ele>-29.799999237061</ele>
        <time>2019-08-04T09:06:47.000Z</time>
      </trkpt>
      <trkpt lat="47.27609" lon="-2.46996">
        <ele>-29.39999961853</ele>
        <time>2019-08-04T09:06:49.000Z</time>
      </trkpt>
      <trkpt lat="47.27607" lon="-2.46997">
        <ele>-29</ele>
        <time>2019-08-04T09:06:50.000Z</time>
      </trkpt>
      <trkpt lat="47.27604" lon="-2.46997">
        <ele>-28.60000038147</ele>
        <time>2019-08-04T09:06:51.000Z</time>
      </trkpt>
      <trkpt lat="47.27602" lon="-2.46997">
        <ele>-28</ele>
        <time>2019-08-04T09:06:52.000Z</time>
      </trkpt>
      <trkpt lat="47.27599" lon="-2.46997">
        <ele>-27.60000038147</ele>
        <time>2019-08-04T09:06:53.000Z</time>
      </trkpt>
      <trkpt lat="47.27596" lon="-2.46996">
        <ele>-27.60000038147</ele>
        <time>2019-08-04T09:06:54.000Z</time>
      </trkpt>
      <trkpt lat="47.27575" lon="-2.46989">
        <ele>-27.60000038147</ele>
        <time>2019-08-04T09:06:59.000Z</time>
      </trkpt>
      <trkpt lat="47.27559" lon="-2.46983">
        <ele>-27.60000038147</ele>
        <time>2019-08-04T09:07:03.000Z</time>
      </trkpt>
      <trkpt lat="47.27555" lon="-2.46984">
        <ele>-27.60000038147</ele>
        <time>2019-08-04T09:07:04.000Z</time>
      </trkpt>
      <trkpt lat="47.27543" lon="-2.46997">
        <ele>-27.60000038147</ele>
        <time>2019-08-04T09:07:08.000Z</time>
      </trkpt>
      <trkpt lat="47.2754" lon="-2.47">
        <ele>-27.60000038147</ele>
        <time>2019-08-04T09:07:09.000Z</time>
      </trkpt>
      <trkpt lat="47.27531" lon="-2.47019">
        <ele>-27.60000038147</ele>
        <time>2019-08-04T09:07:13.000Z</time>
      </trkpt>
      <trkpt lat="47.27528" lon="-2.47024">
        <ele>-27.60000038147</ele>
        <time>2019-08-04T09:07:14.000Z</time>
      </trkpt>
      <trkpt lat="47.27521" lon="-2.47034">
        <ele>-27.60000038147</ele>
        <time>2019-08-04T09:07:16.000Z</time>
      </trkpt>
      <trkpt lat="47.27508" lon="-2.47049">
        <ele>-27.60000038147</ele>
        <time>2019-08-04T09:07:19.000Z</time>
      </trkpt>
      <trkpt lat="47.27479" lon="-2.47086">
        <ele>-27.60000038147</ele>
        <time>2019-08-04T09:07:27.000Z</time>
      </trkpt>
      <trkpt lat="47.27478" lon="-2.47104">
        <ele>-27.60000038147</ele>
        <time>2019-08-04T09:07:30.000Z</time>
      </trkpt>
      <trkpt lat="47.27484" lon="-2.4712">
        <ele>-27.60000038147</ele>
        <time>2019-08-04T09:07:33.000Z</time>
      </trkpt>
      <trkpt lat="47.27488" lon="-2.47131">
        <ele>-27.60000038147</ele>
        <time>2019-08-04T09:07:35.000Z</time>
      </trkpt>
      <trkpt lat="47.275" lon="-2.47167">
        <ele>-27.60000038147</ele>
        <time>2019-08-04T09:07:42.000Z</time>
      </trkpt>
      <trkpt lat="47.27504" lon="-2.4718">
        <ele>-28</ele>
        <time>2019-08-04T09:07:45.000Z</time>
      </trkpt>
      <trkpt lat="47.27506" lon="-2.47185">
        <ele>-28.60000038147</ele>
        <time>2019-08-04T09:07:46.000Z</time>
      </trkpt>
      <trkpt lat="47.27507" lon="-2.47189">
        <ele>-29</ele>
        <time>2019-08-04T09:07:47.000Z</time>
      </trkpt>
      <trkpt lat="47.27507" lon="-2.47194">
        <ele>-29.39999961853</ele>
        <time>2019-08-04T09:07:48.000Z</time>
      </trkpt>
      <trkpt lat="47.27505" lon="-2.47197">
        <ele>-29.799999237061</ele>
        <time>2019-08-04T09:07:49.000Z</time>
      </trkpt>
      <trkpt lat="47.27499" lon="-2.472">
        <ele>-29.799999237061</ele>
        <time>2019-08-04T09:07:51.000Z</time>
      </trkpt>
      <trkpt lat="47.27496" lon="-2.47201">
        <ele>-29.799999237061</ele>
        <time>2019-08-04T09:07:52.000Z</time>
      </trkpt>
      <trkpt lat="47.27474" lon="-2.47212">
        <ele>-29.799999237061</ele>
        <time>2019-08-04T09:07:59.000Z</time>
      </trkpt>
      <trkpt lat="47.2745" lon="-2.47228">
        <ele>-29.799999237061</ele>
        <time>2019-08-04T09:08:05.000Z</time>
      </trkpt>
      <trkpt lat="47.27428" lon="-2.47242">
        <ele>-29.799999237061</ele>
        <time>2019-08-04T09:08:10.000Z</time>
      </trkpt>
      <trkpt lat="47.27416" lon="-2.47249">
        <ele>-29</ele>
        <time>2019-08-04T09:08:13.000Z</time>
      </trkpt>
      <trkpt lat="47.27412" lon="-2.47251">
        <ele>-28.60000038147</ele>
        <time>2019-08-04T09:08:14.000Z</time>
      </trkpt>
      <trkpt lat="47.27408" lon="-2.47254">
        <ele>-28.200000762939</ele>
        <time>2019-08-04T09:08:15.000Z</time>
      </trkpt>
      <trkpt lat="47.27404" lon="-2.47256">
        <ele>-27.799999237061</ele>
        <time>2019-08-04T09:08:16.000Z</time>
      </trkpt>
      <trkpt lat="47.274" lon="-2.47259">
        <ele>-27.799999237061</ele>
        <time>2019-08-04T09:08:17.000Z</time>
      </trkpt>
      <trkpt lat="47.27375" lon="-2.47282">
        <ele>-27.799999237061</ele>
        <time>2019-08-04T09:08:24.000Z</time>
      </trkpt>
      <trkpt lat="47.27371" lon="-2.47285">
        <ele>-27.799999237061</ele>
        <time>2019-08-04T09:08:25.000Z</time>
      </trkpt>
      <trkpt lat="47.27354" lon="-2.47297">
        <ele>-27.799999237061</ele>
        <time>2019-08-04T09:08:30.000Z</time>
      </trkpt>
      <trkpt lat="47.2734" lon="-2.47303">
        <ele>-27.39999961853</ele>
        <time>2019-08-04T09:08:34.000Z</time>
      </trkpt>
      <trkpt lat="47.27336" lon="-2.47304">
        <ele>-27</ele>
        <time>2019-08-04T09:08:35.000Z</time>
      </trkpt>
      <trkpt lat="47.27333" lon="-2.47304">
        <ele>-26.60000038147</ele>
        <time>2019-08-04T09:08:36.000Z</time>
      </trkpt>
      <trkpt lat="47.2733" lon="-2.47305">
        <ele>-26</ele>
        <time>2019-08-04T09:08:37.000Z</time>
      </trkpt>
      <trkpt lat="47.27327" lon="-2.47306">
        <ele>-25.60000038147</ele>
        <time>2019-08-04T09:08:38.000Z</time>
      </trkpt>
      <trkpt lat="47.27322" lon="-2.47314">
        <ele>-25.60000038147</ele>
        <time>2019-08-04T09:08:41.000Z</time>
      </trkpt>
      <trkpt lat="47.2731" lon="-2.47323">
        <ele>-25.60000038147</ele>
        <time>2019-08-04T09:08:46.000Z</time>
      </trkpt>
      <trkpt lat="47.27299" lon="-2.47336">
        <ele>-25.60000038147</ele>
        <time>2019-08-04T09:08:50.000Z</time>
      </trkpt>
      <trkpt lat="47.27298" lon="-2.47341">
        <ele>-25.200000762939</ele>
        <time>2019-08-04T09:08:51.000Z</time>
      </trkpt>
      <trkpt lat="47.27298" lon="-2.47346">
        <ele>-24.799999237061</ele>
        <time>2019-08-04T09:08:52.000Z</time>
      </trkpt>
      <trkpt lat="47.27298" lon="-2.47352">
        <ele>-24.39999961853</ele>
        <time>2019-08-04T09:08:53.000Z</time>
      </trkpt>
      <trkpt lat="47.27298" lon="-2.47358">
        <ele>-24</ele>
        <time>2019-08-04T09:08:54.000Z</time>
      </trkpt>
      <trkpt lat="47.27297" lon="-2.47363">
        <ele>-23.39999961853</ele>
        <time>2019-08-04T09:08:55.000Z</time>
      </trkpt>
      <trkpt lat="47.27295" lon="-2.47382">
        <ele>-23.39999961853</ele>
        <time>2019-08-04T09:08:59.000Z</time>
      </trkpt>
      <trkpt lat="47.27291" lon="-2.47389">
        <ele>-23.39999961853</ele>
        <time>2019-08-04T09:09:01.000Z</time>
      </trkpt>
      <trkpt lat="47.27285" lon="-2.47394">
        <ele>-23.39999961853</ele>
        <time>2019-08-04T09:09:03.000Z</time>
      </trkpt>
      <trkpt lat="47.27275" lon="-2.47412">
        <ele>-23.39999961853</ele>
        <time>2019-08-04T09:09:07.000Z</time>
      </trkpt>
      <trkpt lat="47.27272" lon="-2.47418">
        <ele>-23.39999961853</ele>
        <time>2019-08-04T09:09:08.000Z</time>
      </trkpt>
      <trkpt lat="47.27272" lon="-2.47445">
        <ele>-23.39999961853</ele>
        <time>2019-08-04T09:09:12.000Z</time>
      </trkpt>
      <trkpt lat="47.27272" lon="-2.47452">
        <ele>-23.39999961853</ele>
        <time>2019-08-04T09:09:13.000Z</time>
      </trkpt>
      <trkpt lat="47.27281" lon="-2.47496">
        <ele>-23.39999961853</ele>
        <time>2019-08-04T09:09:19.000Z</time>
      </trkpt>
      <trkpt lat="47.27287" lon="-2.47518">
        <ele>-23.39999961853</ele>
        <time>2019-08-04T09:09:23.000Z</time>
      </trkpt>
      <trkpt lat="47.27289" lon="-2.47524">
        <ele>-23.39999961853</ele>
        <time>2019-08-04T09:09:24.000Z</time>
      </trkpt>
      <trkpt lat="47.27303" lon="-2.47562">
        <ele>-23.39999961853</ele>
        <time>2019-08-04T09:09:31.000Z</time>
      </trkpt>
      <trkpt lat="47.27308" lon="-2.4757">
        <ele>-23.39999961853</ele>
        <time>2019-08-04T09:09:35.000Z</time>
      </trkpt>
      <trkpt lat="47.2731" lon="-2.4758">
        <ele>-23.39999961853</ele>
        <time>2019-08-04T09:09:38.000Z</time>
      </trkpt>
      <trkpt lat="47.27308" lon="-2.47581">
        <ele>-23.39999961853</ele>
        <time>2019-08-04T09:09:39.000Z</time>
      </trkpt>
      <trkpt lat="47.27304" lon="-2.47589">
        <ele>-23.39999961853</ele>
        <time>2019-08-04T09:09:42.000Z</time>
      </trkpt>
      <trkpt lat="47.27305" lon="-2.47591">
        <ele>-23.39999961853</ele>
        <time>2019-08-04T09:09:43.000Z</time>
      </trkpt>
      <trkpt lat="47.27314" lon="-2.47602">
        <ele>-23.39999961853</ele>
        <time>2019-08-04T09:09:47.000Z</time>
      </trkpt>
      <trkpt lat="47.27324" lon="-2.47618">
        <ele>-23.39999961853</ele>
        <time>2019-08-04T09:09:51.000Z</time>
      </trkpt>
      <trkpt lat="47.27334" lon="-2.47621">
        <ele>-24</ele>
        <time>2019-08-04T09:09:55.000Z</time>
      </trkpt>
      <trkpt lat="47.27335" lon="-2.47621">
        <ele>-24.39999961853</ele>
        <time>2019-08-04T09:09:56.000Z</time>
      </trkpt>
      <trkpt lat="47.27337" lon="-2.47623">
        <ele>-24.799999237061</ele>
        <time>2019-08-04T09:09:57.000Z</time>
      </trkpt>
      <trkpt lat="47.2734" lon="-2.47625">
        <ele>-25.200000762939</ele>
        <time>2019-08-04T09:09:58.000Z</time>
      </trkpt>
      <trkpt lat="47.27343" lon="-2.47627">
        <ele>-25.60000038147</ele>
        <time>2019-08-04T09:09:59.000Z</time>
      </trkpt>
      <trkpt lat="47.27347" lon="-2.4763">
        <ele>-25.60000038147</ele>
        <time>2019-08-04T09:10:00.000Z</time>
      </trkpt>
      <trkpt lat="47.2736" lon="-2.47643">
        <ele>-25.60000038147</ele>
        <time>2019-08-04T09:10:03.000Z</time>
      </trkpt>
      <trkpt lat="47.27385" lon="-2.47665">
        <ele>-26</ele>
        <time>2019-08-04T09:10:08.000Z</time>
      </trkpt>
      <trkpt lat="47.2739" lon="-2.47668">
        <ele>-26.39999961853</ele>
        <time>2019-08-04T09:10:09.000Z</time>
      </trkpt>
      <trkpt lat="47.27396" lon="-2.47672">
        <ele>-26.799999237061</ele>
        <time>2019-08-04T09:10:10.000Z</time>
      </trkpt>
      <trkpt lat="47.27401" lon="-2.47675">
        <ele>-27.200000762939</ele>
        <time>2019-08-04T09:10:11.000Z</time>
      </trkpt>
      <trkpt lat="47.27406" lon="-2.47678">
        <ele>-27.799999237061</ele>
        <time>2019-08-04T09:10:12.000Z</time>
      </trkpt>
      <trkpt lat="47.27411" lon="-2.47679">
        <ele>-27.799999237061</ele>
        <time>2019-08-04T09:10:13.000Z</time>
      </trkpt>
      <trkpt lat="47.27421" lon="-2.47679">
        <ele>-27.799999237061</ele>
        <time>2019-08-04T09:10:15.000Z</time>
      </trkpt>
      <trkpt lat="47.27431" lon="-2.47679">
        <ele>-27.799999237061</ele>
        <time>2019-08-04T09:10:17.000Z</time>
      </trkpt>
      <trkpt lat="47.27438" lon="-2.47687">
        <ele>-27.799999237061</ele>
        <time>2019-08-04T09:10:19.000Z</time>
      </trkpt>
      <trkpt lat="47.27439" lon="-2.47693">
        <ele>-28.200000762939</ele>
        <time>2019-08-04T09:10:20.000Z</time>
      </trkpt>
      <trkpt lat="47.2744" lon="-2.47699">
        <ele>-28.60000038147</ele>
        <time>2019-08-04T09:10:21.000Z</time>
      </trkpt>
      <trkpt lat="47.2744" lon="-2.47705">
        <ele>-29</ele>
        <time>2019-08-04T09:10:22.000Z</time>
      </trkpt>
      <trkpt lat="47.2744" lon="-2.47712">
        <ele>-29.39999961853</ele>
        <time>2019-08-04T09:10:23.000Z</time>
      </trkpt>
      <trkpt lat="47.2744" lon="-2.47719">
        <ele>-30</ele>
        <time>2019-08-04T09:10:24.000Z</time>
      </trkpt>
      <trkpt lat="47.2744" lon="-2.47744">
        <ele>-30</ele>
        <time>2019-08-04T09:10:28.000Z</time>
      </trkpt>
      <trkpt lat="47.27443" lon="-2.47761">
        <ele>-30</ele>
        <time>2019-08-04T09:10:32.000Z</time>
      </trkpt>
      <trkpt lat="47.27446" lon="-2.47766">
        <ele>-30</ele>
        <time>2019-08-04T09:10:33.000Z</time>
      </trkpt>
      <trkpt lat="47.27455" lon="-2.47783">
        <ele>-30</ele>
        <time>2019-08-04T09:10:36.000Z</time>
      </trkpt>
      <trkpt lat="47.27462" lon="-2.47794">
        <ele>-30</ele>
        <time>2019-08-04T09:10:38.000Z</time>
      </trkpt>
      <trkpt lat="47.2748" lon="-2.47826">
        <ele>-30</ele>
        <time>2019-08-04T09:10:43.000Z</time>
      </trkpt>
      <trkpt lat="47.27498" lon="-2.47858">
        <ele>-29.39999961853</ele>
        <time>2019-08-04T09:10:48.000Z</time>
      </trkpt>
      <trkpt lat="47.27502" lon="-2.47866">
        <ele>-29</ele>
        <time>2019-08-04T09:10:49.000Z</time>
      </trkpt>
      <trkpt lat="47.27505" lon="-2.47873">
        <ele>-28.60000038147</ele>
        <time>2019-08-04T09:10:50.000Z</time>
      </trkpt>
      <trkpt lat="47.27508" lon="-2.4788">
        <ele>-28.200000762939</ele>
        <time>2019-08-04T09:10:51.000Z</time>
      </trkpt>
      <trkpt lat="47.27512" lon="-2.47887">
        <ele>-27.799999237061</ele>
        <time>2019-08-04T09:10:52.000Z</time>
      </trkpt>
      <trkpt lat="47.27526" lon="-2.47914">
        <ele>-27.799999237061</ele>
        <time>2019-08-04T09:10:56.000Z</time>
      </trkpt>
      <trkpt lat="47.27534" lon="-2.47925">
        <ele>-27.799999237061</ele>
        <time>2019-08-04T09:10:58.000Z</time>
      </trkpt>
      <trkpt lat="47.27545" lon="-2.47925">
        <ele>-27.799999237061</ele>
        <time>2019-08-04T09:11:00.000Z</time>
      </trkpt>
      <trkpt lat="47.27555" lon="-2.4792">
        <ele>-27.799999237061</ele>
        <time>2019-08-04T09:11:02.000Z</time>
      </trkpt>
      <trkpt lat="47.27569" lon="-2.47912">
        <ele>-27.799999237061</ele>
        <time>2019-08-04T09:11:05.000Z</time>
      </trkpt>
      <trkpt lat="47.27578" lon="-2.47909">
        <ele>-27.799999237061</ele>
        <time>2019-08-04T09:11:07.000Z</time>
      </trkpt>
      <trkpt lat="47.27589" lon="-2.47913">
        <ele>-27.799999237061</ele>
        <time>2019-08-04T09:11:10.000Z</time>
      </trkpt>
      <trkpt lat="47.27596" lon="-2.47927">
        <ele>-27.799999237061</ele>
        <time>2019-08-04T09:11:13.000Z</time>
      </trkpt>
      <trkpt lat="47.27598" lon="-2.47933">
        <ele>-27.799999237061</ele>
        <time>2019-08-04T09:11:14.000Z</time>
      </trkpt>
      <trkpt lat="47.27599" lon="-2.4794">
        <ele>-27.39999961853</ele>
        <time>2019-08-04T09:11:15.000Z</time>
      </trkpt>
      <trkpt lat="47.27601" lon="-2.47946">
        <ele>-26.799999237061</ele>
        <time>2019-08-04T09:11:16.000Z</time>
      </trkpt>
      <trkpt lat="47.27603" lon="-2.47952">
        <ele>-26.39999961853</ele>
        <time>2019-08-04T09:11:17.000Z</time>
      </trkpt>
      <trkpt lat="47.27606" lon="-2.47958">
        <ele>-26</ele>
        <time>2019-08-04T09:11:18.000Z</time>
      </trkpt>
      <trkpt lat="47.27608" lon="-2.47964">
        <ele>-25.39999961853</ele>
        <time>2019-08-04T09:11:19.000Z</time>
      </trkpt>
      <trkpt lat="47.27613" lon="-2.47982">
        <ele>-25</ele>
        <time>2019-08-04T09:11:22.000Z</time>
      </trkpt>
      <trkpt lat="47.27615" lon="-2.47988">
        <ele>-24.60000038147</ele>
        <time>2019-08-04T09:11:23.000Z</time>
      </trkpt>
      <trkpt lat="47.27617" lon="-2.47994">
        <ele>-24</ele>
        <time>2019-08-04T09:11:24.000Z</time>
      </trkpt>
      <trkpt lat="47.27619" lon="-2.47999">
        <ele>-23.60000038147</ele>
        <time>2019-08-04T09:11:25.000Z</time>
      </trkpt>
      <trkpt lat="47.27622" lon="-2.48004">
        <ele>-23</ele>
        <time>2019-08-04T09:11:26.000Z</time>
      </trkpt>
      <trkpt lat="47.27626" lon="-2.48029">
        <ele>-23</ele>
        <time>2019-08-04T09:11:30.000Z</time>
      </trkpt>
      <trkpt lat="47.2762" lon="-2.48057">
        <ele>-23</ele>
        <time>2019-08-04T09:11:35.000Z</time>
      </trkpt>
      <trkpt lat="47.27621" lon="-2.48081">
        <ele>-23</ele>
        <time>2019-08-04T09:11:39.000Z</time>
      </trkpt>
      <trkpt lat="47.27622" lon="-2.48085">
        <ele>-23</ele>
        <time>2019-08-04T09:11:40.000Z</time>
      </trkpt>
      <trkpt lat="47.27624" lon="-2.48093">
        <ele>-23</ele>
        <time>2019-08-04T09:11:42.000Z</time>
      </trkpt>
      <trkpt lat="47.27626" lon="-2.48093">
        <ele>-23</ele>
        <time>2019-08-04T09:11:43.000Z</time>
      </trkpt>
      <trkpt lat="47.27633" lon="-2.48092">
        <ele>-23</ele>
        <time>2019-08-04T09:11:46.000Z</time>
      </trkpt>
      <trkpt lat="47.27635" lon="-2.48092">
        <ele>-23</ele>
        <time>2019-08-04T09:11:48.000Z</time>
      </trkpt>
      <trkpt lat="47.27644" lon="-2.48091">
        <ele>-23</ele>
        <time>2019-08-04T09:11:52.000Z</time>
      </trkpt>
      <trkpt lat="47.27663" lon="-2.48089">
        <ele>-23</ele>
        <time>2019-08-04T09:11:57.000Z</time>
      </trkpt>
      <trkpt lat="47.27683" lon="-2.48084">
        <ele>-23</ele>
        <time>2019-08-04T09:12:03.000Z</time>
      </trkpt>
      <trkpt lat="47.27695" lon="-2.48084">
        <ele>-23</ele>
        <time>2019-08-04T09:12:08.000Z</time>
      </trkpt>
      <trkpt lat="47.27698" lon="-2.48098">
        <ele>-22.60000038147</ele>
        <time>2019-08-04T09:12:12.000Z</time>
      </trkpt>
      <trkpt lat="47.27699" lon="-2.48102">
        <ele>-22.200000762939</ele>
        <time>2019-08-04T09:12:13.000Z</time>
      </trkpt>
      <trkpt lat="47.27699" lon="-2.48108">
        <ele>-21.799999237061</ele>
        <time>2019-08-04T09:12:14.000Z</time>
      </trkpt>
      <trkpt lat="47.277" lon="-2.48112">
        <ele>-21.200000762939</ele>
        <time>2019-08-04T09:12:15.000Z</time>
      </trkpt>
      <trkpt lat="47.277" lon="-2.48117">
        <ele>-20.799999237061</ele>
        <time>2019-08-04T09:12:16.000Z</time>
      </trkpt>
      <trkpt lat="47.27702" lon="-2.48131">
        <ele>-20.799999237061</ele>
        <time>2019-08-04T09:12:19.000Z</time>
      </trkpt>
      <trkpt lat="47.27706" lon="-2.48163">
        <ele>-20.799999237061</ele>
        <time>2019-08-04T09:12:25.000Z</time>
      </trkpt>
      <trkpt lat="47.27708" lon="-2.48171">
        <ele>-20.799999237061</ele>
        <time>2019-08-04T09:12:26.000Z</time>
      </trkpt>
      <trkpt lat="47.27723" lon="-2.48206">
        <ele>-20.799999237061</ele>
        <time>2019-08-04T09:12:30.000Z</time>
      </trkpt>
      <trkpt lat="47.27737" lon="-2.48233">
        <ele>-21.39999961853</ele>
        <time>2019-08-04T09:12:33.000Z</time>
      </trkpt>
      <trkpt lat="47.27741" lon="-2.4824">
        <ele>-21.799999237061</ele>
        <time>2019-08-04T09:12:34.000Z</time>
      </trkpt>
      <trkpt lat="47.27745" lon="-2.48246">
        <ele>-22.39999961853</ele>
        <time>2019-08-04T09:12:35.000Z</time>
      </trkpt>
      <trkpt lat="47.27748" lon="-2.48252">
        <ele>-22.799999237061</ele>
        <time>2019-08-04T09:12:36.000Z</time>
      </trkpt>
      <trkpt lat="47.2775" lon="-2.48257">
        <ele>-23.39999961853</ele>
        <time>2019-08-04T09:12:37.000Z</time>
      </trkpt>
      <trkpt lat="47.27752" lon="-2.48261">
        <ele>-24</ele>
        <time>2019-08-04T09:12:38.000Z</time>
      </trkpt>
      <trkpt lat="47.27752" lon="-2.48266">
        <ele>-24.39999961853</ele>
        <time>2019-08-04T09:12:39.000Z</time>
      </trkpt>
      <trkpt lat="47.27753" lon="-2.4827">
        <ele>-25</ele>
        <time>2019-08-04T09:12:40.000Z</time>
      </trkpt>
      <trkpt lat="47.27752" lon="-2.48274">
        <ele>-25.60000038147</ele>
        <time>2019-08-04T09:12:41.000Z</time>
      </trkpt>
      <trkpt lat="47.27753" lon="-2.48276">
        <ele>-26</ele>
        <time>2019-08-04T09:12:42.000Z</time>
      </trkpt>
      <trkpt lat="47.27753" lon="-2.4828">
        <ele>-26.39999961853</ele>
        <time>2019-08-04T09:12:43.000Z</time>
      </trkpt>
      <trkpt lat="47.27753" lon="-2.48283">
        <ele>-26.799999237061</ele>
        <time>2019-08-04T09:12:44.000Z</time>
      </trkpt>
      <trkpt lat="47.27752" lon="-2.48285">
        <ele>-27.200000762939</ele>
        <time>2019-08-04T09:12:45.000Z</time>
      </trkpt>
      <trkpt lat="47.27751" lon="-2.48286">
        <ele>-27.60000038147</ele>
        <time>2019-08-04T09:12:46.000Z</time>
      </trkpt>
      <trkpt lat="47.27751" lon="-2.48284">
        <ele>-27.60000038147</ele>
        <time>2019-08-04T09:12:47.000Z</time>
      </trkpt>
      <trkpt lat="47.2775" lon="-2.48281">
        <ele>-27.60000038147</ele>
        <time>2019-08-04T09:12:48.000Z</time>
      </trkpt>
      <trkpt lat="47.27751" lon="-2.48271">
        <ele>-27.60000038147</ele>
        <time>2019-08-04T09:12:51.000Z</time>
      </trkpt>
      <trkpt lat="47.2775" lon="-2.48267">
        <ele>-27.60000038147</ele>
        <time>2019-08-04T09:12:53.000Z</time>
      </trkpt>
      <trkpt lat="47.27749" lon="-2.48267">
        <ele>-27.60000038147</ele>
        <time>2019-08-04T09:12:55.000Z</time>
      </trkpt>
      <trkpt lat="47.27747" lon="-2.4827">
        <ele>-27.60000038147</ele>
        <time>2019-08-04T09:12:57.000Z</time>
      </trkpt>
      <trkpt lat="47.27744" lon="-2.48278">
        <ele>-27.60000038147</ele>
        <time>2019-08-04T09:13:00.000Z</time>
      </trkpt>
      <trkpt lat="47.27737" lon="-2.48285">
        <ele>-27.60000038147</ele>
        <time>2019-08-04T09:13:03.000Z</time>
      </trkpt>
      <trkpt lat="47.27734" lon="-2.48286">
        <ele>-27.60000038147</ele>
        <time>2019-08-04T09:13:04.000Z</time>
      </trkpt>
      <trkpt lat="47.27721" lon="-2.48292">
        <ele>-27.60000038147</ele>
        <time>2019-08-04T09:13:08.000Z</time>
      </trkpt>
      <trkpt lat="47.27705" lon="-2.48297">
        <ele>-27.60000038147</ele>
        <time>2019-08-04T09:13:15.000Z</time>
      </trkpt>
      <trkpt lat="47.27704" lon="-2.48296">
        <ele>-27.60000038147</ele>
        <time>2019-08-04T09:13:18.000Z</time>
      </trkpt>
      <trkpt lat="47.2771" lon="-2.48298">
        <ele>-27.60000038147</ele>
        <time>2019-08-04T09:26:15.000Z</time>
      </trkpt>
      <trkpt lat="47.2771" lon="-2.48295">
        <ele>-27.60000038147</ele>
        <time>2019-08-04T09:26:16.000Z</time>
      </trkpt>
      <trkpt lat="47.27708" lon="-2.48288">
        <ele>-27.60000038147</ele>
        <time>2019-08-04T09:26:19.000Z</time>
      </trkpt>
      <trkpt lat="47.27706" lon="-2.48286">
        <ele>-27.60000038147</ele>
        <time>2019-08-04T09:26:20.000Z</time>
      </trkpt>
      <trkpt lat="47.27701" lon="-2.48283">
        <ele>-27.60000038147</ele>
        <time>2019-08-04T09:26:23.000Z</time>
      </trkpt>
      <trkpt lat="47.27698" lon="-2.48285">
        <ele>-27.60000038147</ele>
        <time>2019-08-04T09:26:25.000Z</time>
      </trkpt>
      <trkpt lat="47.27695" lon="-2.48288">
        <ele>-27.60000038147</ele>
        <time>2019-08-04T09:26:27.000Z</time>
      </trkpt>
      <trkpt lat="47.27693" lon="-2.48288">
        <ele>-27.200000762939</ele>
        <time>2019-08-04T09:26:28.000Z</time>
      </trkpt>
      <trkpt lat="47.27692" lon="-2.48288">
        <ele>-26.60000038147</ele>
        <time>2019-08-04T09:26:29.000Z</time>
      </trkpt>
      <trkpt lat="47.27691" lon="-2.48287">
        <ele>-26.200000762939</ele>
        <time>2019-08-04T09:26:30.000Z</time>
      </trkpt>
      <trkpt lat="47.27689" lon="-2.48285">
        <ele>-25.799999237061</ele>
        <time>2019-08-04T09:26:31.000Z</time>
      </trkpt>
      <trkpt lat="47.27688" lon="-2.48282">
        <ele>-25.39999961853</ele>
        <time>2019-08-04T09:26:32.000Z</time>
      </trkpt>
      <trkpt lat="47.27684" lon="-2.48277">
        <ele>-25.39999961853</ele>
        <time>2019-08-04T09:26:34.000Z</time>
      </trkpt>
      <trkpt lat="47.27672" lon="-2.48265">
        <ele>-25.39999961853</ele>
        <time>2019-08-04T09:26:39.000Z</time>
      </trkpt>
      <trkpt lat="47.27657" lon="-2.48258">
        <ele>-25.39999961853</ele>
        <time>2019-08-04T09:26:43.000Z</time>
      </trkpt>
      <trkpt lat="47.27648" lon="-2.48249">
        <ele>-25.39999961853</ele>
        <time>2019-08-04T09:26:47.000Z</time>
      </trkpt>
      <trkpt lat="47.27641" lon="-2.48245">
        <ele>-25.39999961853</ele>
        <time>2019-08-04T09:26:51.000Z</time>
      </trkpt>
      <trkpt lat="47.27641" lon="-2.48244">
        <ele>-25.39999961853</ele>
        <time>2019-08-04T09:26:52.000Z</time>
      </trkpt>
      <trkpt lat="47.27641" lon="-2.48242">
        <ele>-25.39999961853</ele>
        <time>2019-08-04T09:27:09.000Z</time>
      </trkpt>
      <trkpt lat="47.2764" lon="-2.48237">
        <ele>-25.39999961853</ele>
        <time>2019-08-04T09:27:11.000Z</time>
      </trkpt>
      <trkpt lat="47.2764" lon="-2.48229">
        <ele>-25.39999961853</ele>
        <time>2019-08-04T09:27:13.000Z</time>
      </trkpt>
      <trkpt lat="47.27639" lon="-2.48218">
        <ele>-25.39999961853</ele>
        <time>2019-08-04T09:27:15.000Z</time>
      </trkpt>
      <trkpt lat="47.2763" lon="-2.48179">
        <ele>-25.39999961853</ele>
        <time>2019-08-04T09:27:22.000Z</time>
      </trkpt>
      <trkpt lat="47.27625" lon="-2.48148">
        <ele>-25</ele>
        <time>2019-08-04T09:27:27.000Z</time>
      </trkpt>
      <trkpt lat="47.27624" lon="-2.48141">
        <ele>-24.60000038147</ele>
        <time>2019-08-04T09:27:28.000Z</time>
      </trkpt>
      <trkpt lat="47.27623" lon="-2.48135">
        <ele>-24.200000762939</ele>
        <time>2019-08-04T09:27:29.000Z</time>
      </trkpt>
      <trkpt lat="47.27623" lon="-2.4813">
        <ele>-23.799999237061</ele>
        <time>2019-08-04T09:27:30.000Z</time>
      </trkpt>
      <trkpt lat="47.27622" lon="-2.48125">
        <ele>-23.39999961853</ele>
        <time>2019-08-04T09:27:31.000Z</time>
      </trkpt>
      <trkpt lat="47.27619" lon="-2.48113">
        <ele>-23.39999961853</ele>
        <time>2019-08-04T09:27:34.000Z</time>
      </trkpt>
      <trkpt lat="47.27617" lon="-2.48103">
        <ele>-23.39999961853</ele>
        <time>2019-08-04T09:27:39.000Z</time>
      </trkpt>
      <trkpt lat="47.27616" lon="-2.48102">
        <ele>-23.39999961853</ele>
        <time>2019-08-04T09:27:43.000Z</time>
      </trkpt>
      <trkpt lat="47.27611" lon="-2.48102">
        <ele>-23.39999961853</ele>
        <time>2019-08-04T09:27:45.000Z</time>
      </trkpt>
      <trkpt lat="47.27606" lon="-2.48103">
        <ele>-23.39999961853</ele>
        <time>2019-08-04T09:27:47.000Z</time>
      </trkpt>
      <trkpt lat="47.27595" lon="-2.48105">
        <ele>-23.39999961853</ele>
        <time>2019-08-04T09:27:50.000Z</time>
      </trkpt>
      <trkpt lat="47.27591" lon="-2.48106">
        <ele>-23.39999961853</ele>
        <time>2019-08-04T09:27:51.000Z</time>
      </trkpt>
      <trkpt lat="47.27562" lon="-2.4811">
        <ele>-23.39999961853</ele>
        <time>2019-08-04T09:27:57.000Z</time>
      </trkpt>
      <trkpt lat="47.27531" lon="-2.48115">
        <ele>-23.39999961853</ele>
        <time>2019-08-04T09:28:04.000Z</time>
      </trkpt>
      <trkpt lat="47.2752" lon="-2.48116">
        <ele>-23.39999961853</ele>
        <time>2019-08-04T09:28:09.000Z</time>
      </trkpt>
      <trkpt lat="47.27508" lon="-2.48115">
        <ele>-23.39999961853</ele>
        <time>2019-08-04T09:28:13.000Z</time>
      </trkpt>
      <trkpt lat="47.27504" lon="-2.48112">
        <ele>-23.39999961853</ele>
        <time>2019-08-04T09:28:14.000Z</time>
      </trkpt>
      <trkpt lat="47.27491" lon="-2.48085">
        <ele>-23.39999961853</ele>
        <time>2019-08-04T09:28:18.000Z</time>
      </trkpt>
      <trkpt lat="47.27469" lon="-2.48045">
        <ele>-23.39999961853</ele>
        <time>2019-08-04T09:28:23.000Z</time>
      </trkpt>
      <trkpt lat="47.27434" lon="-2.47982">
        <ele>-23.799999237061</ele>
        <time>2019-08-04T09:28:29.000Z</time>
      </trkpt>
      <trkpt lat="47.27428" lon="-2.47972">
        <ele>-24.200000762939</ele>
        <time>2019-08-04T09:28:30.000Z</time>
      </trkpt>
      <trkpt lat="47.27423" lon="-2.47962">
        <ele>-24.60000038147</ele>
        <time>2019-08-04T09:28:31.000Z</time>
      </trkpt>
      <trkpt lat="47.27416" lon="-2.47953">
        <ele>-25</ele>
        <time>2019-08-04T09:28:32.000Z</time>
      </trkpt>
      <trkpt lat="47.27409" lon="-2.47945">
        <ele>-25.39999961853</ele>
        <time>2019-08-04T09:28:33.000Z</time>
      </trkpt>
      <trkpt lat="47.27401" lon="-2.47938">
        <ele>-25.39999961853</ele>
        <time>2019-08-04T09:28:34.000Z</time>
      </trkpt>
      <trkpt lat="47.27394" lon="-2.47931">
        <ele>-26</ele>
        <time>2019-08-04T09:28:35.000Z</time>
      </trkpt>
      <trkpt lat="47.27386" lon="-2.47925">
        <ele>-26.39999961853</ele>
        <time>2019-08-04T09:28:36.000Z</time>
      </trkpt>
      <trkpt lat="47.27378" lon="-2.47919">
        <ele>-26.799999237061</ele>
        <time>2019-08-04T09:28:37.000Z</time>
      </trkpt>
      <trkpt lat="47.2737" lon="-2.47913">
        <ele>-27.200000762939</ele>
        <time>2019-08-04T09:28:38.000Z</time>
      </trkpt>
      <trkpt lat="47.27362" lon="-2.47907">
        <ele>-27.60000038147</ele>
        <time>2019-08-04T09:28:39.000Z</time>
      </trkpt>
      <trkpt lat="47.27309" lon="-2.47865">
        <ele>-27.60000038147</ele>
        <time>2019-08-04T09:28:46.000Z</time>
      </trkpt>
      <trkpt lat="47.27272" lon="-2.47829">
        <ele>-27.60000038147</ele>
        <time>2019-08-04T09:28:52.000Z</time>
      </trkpt>
      <trkpt lat="47.27249" lon="-2.47799">
        <ele>-27.60000038147</ele>
        <time>2019-08-04T09:28:57.000Z</time>
      </trkpt>
      <trkpt lat="47.27234" lon="-2.47774">
        <ele>-27.60000038147</ele>
        <time>2019-08-04T09:29:02.000Z</time>
      </trkpt>
      <trkpt lat="47.27225" lon="-2.47755">
        <ele>-27.60000038147</ele>
        <time>2019-08-04T09:29:05.000Z</time>
      </trkpt>
      <trkpt lat="47.2722" lon="-2.47739">
        <ele>-27.60000038147</ele>
        <time>2019-08-04T09:29:07.000Z</time>
      </trkpt>
      <trkpt lat="47.27208" lon="-2.47697">
        <ele>-27.60000038147</ele>
        <time>2019-08-04T09:29:12.000Z</time>
      </trkpt>
      <trkpt lat="47.27206" lon="-2.47687">
        <ele>-27.60000038147</ele>
        <time>2019-08-04T09:29:13.000Z</time>
      </trkpt>
      <trkpt lat="47.272" lon="-2.47651">
        <ele>-27.60000038147</ele>
        <time>2019-08-04T09:29:17.000Z</time>
      </trkpt>
      <trkpt lat="47.272" lon="-2.47641">
        <ele>-27.60000038147</ele>
        <time>2019-08-04T09:29:18.000Z</time>
      </trkpt>
      <trkpt lat="47.27198" lon="-2.47599">
        <ele>-27.60000038147</ele>
        <time>2019-08-04T09:29:22.000Z</time>
      </trkpt>
      <trkpt lat="47.27197" lon="-2.47589">
        <ele>-27.60000038147</ele>
        <time>2019-08-04T09:29:23.000Z</time>
      </trkpt>
      <trkpt lat="47.27187" lon="-2.47508">
        <ele>-27.60000038147</ele>
        <time>2019-08-04T09:29:31.000Z</time>
      </trkpt>
      <trkpt lat="47.27183" lon="-2.4749">
        <ele>-27.60000038147</ele>
        <time>2019-08-04T09:29:33.000Z</time>
      </trkpt>
      <trkpt lat="47.2718" lon="-2.47481">
        <ele>-27.200000762939</ele>
        <time>2019-08-04T09:29:34.000Z</time>
      </trkpt>
      <trkpt lat="47.27177" lon="-2.47473">
        <ele>-26.60000038147</ele>
        <time>2019-08-04T09:29:35.000Z</time>
      </trkpt>
      <trkpt lat="47.27174" lon="-2.47464">
        <ele>-26.200000762939</ele>
        <time>2019-08-04T09:29:36.000Z</time>
      </trkpt>
      <trkpt lat="47.27171" lon="-2.47456">
        <ele>-25.39999961853</ele>
        <time>2019-08-04T09:29:37.000Z</time>
      </trkpt>
      <trkpt lat="47.27154" lon="-2.47413">
        <ele>-25.39999961853</ele>
        <time>2019-08-04T09:29:43.000Z</time>
      </trkpt>
      <trkpt lat="47.27142" lon="-2.47382">
        <ele>-25.39999961853</ele>
        <time>2019-08-04T09:29:48.000Z</time>
      </trkpt>
      <trkpt lat="47.27138" lon="-2.47368">
        <ele>-25.39999961853</ele>
        <time>2019-08-04T09:29:50.000Z</time>
      </trkpt>
      <trkpt lat="47.27129" lon="-2.4733">
        <ele>-25.39999961853</ele>
        <time>2019-08-04T09:29:55.000Z</time>
      </trkpt>
      <trkpt lat="47.27128" lon="-2.47323">
        <ele>-25.39999961853</ele>
        <time>2019-08-04T09:29:56.000Z</time>
      </trkpt>
      <trkpt lat="47.27127" lon="-2.47308">
        <ele>-24.799999237061</ele>
        <time>2019-08-04T09:29:58.000Z</time>
      </trkpt>
      <trkpt lat="47.27127" lon="-2.47301">
        <ele>-24.39999961853</ele>
        <time>2019-08-04T09:29:59.000Z</time>
      </trkpt>
      <trkpt lat="47.27126" lon="-2.47293">
        <ele>-24</ele>
        <time>2019-08-04T09:30:00.000Z</time>
      </trkpt>
      <trkpt lat="47.27125" lon="-2.47284">
        <ele>-23.200000762939</ele>
        <time>2019-08-04T09:30:01.000Z</time>
      </trkpt>
      <trkpt lat="47.27124" lon="-2.47268">
        <ele>-23.200000762939</ele>
        <time>2019-08-04T09:30:03.000Z</time>
      </trkpt>
      <trkpt lat="47.27118" lon="-2.47199">
        <ele>-23.200000762939</ele>
        <time>2019-08-04T09:30:12.000Z</time>
      </trkpt>
      <trkpt lat="47.27114" lon="-2.47141">
        <ele>-23.200000762939</ele>
        <time>2019-08-04T09:30:19.000Z</time>
      </trkpt>
      <trkpt lat="47.27107" lon="-2.47057">
        <ele>-23.200000762939</ele>
        <time>2019-08-04T09:30:29.000Z</time>
      </trkpt>
      <trkpt lat="47.27104" lon="-2.46991">
        <ele>-23.200000762939</ele>
        <time>2019-08-04T09:30:37.000Z</time>
      </trkpt>
      <trkpt lat="47.27107" lon="-2.46947">
        <ele>-23.200000762939</ele>
        <time>2019-08-04T09:30:43.000Z</time>
      </trkpt>
      <trkpt lat="47.27111" lon="-2.46905">
        <ele>-23.200000762939</ele>
        <time>2019-08-04T09:30:49.000Z</time>
      </trkpt>
      <trkpt lat="47.27113" lon="-2.4689">
        <ele>-23.200000762939</ele>
        <time>2019-08-04T09:30:51.000Z</time>
      </trkpt>
      <trkpt lat="47.27116" lon="-2.46858">
        <ele>-23.200000762939</ele>
        <time>2019-08-04T09:30:55.000Z</time>
      </trkpt>
      <trkpt lat="47.27119" lon="-2.46798">
        <ele>-23.200000762939</ele>
        <time>2019-08-04T09:31:02.000Z</time>
      </trkpt>
      <trkpt lat="47.27119" lon="-2.46734">
        <ele>-23.200000762939</ele>
        <time>2019-08-04T09:31:09.000Z</time>
      </trkpt>
      <trkpt lat="47.27116" lon="-2.46659">
        <ele>-23.60000038147</ele>
        <time>2019-08-04T09:31:17.000Z</time>
      </trkpt>
      <trkpt lat="47.27116" lon="-2.46649">
        <ele>-24</ele>
        <time>2019-08-04T09:31:18.000Z</time>
      </trkpt>
      <trkpt lat="47.27115" lon="-2.4664">
        <ele>-24.39999961853</ele>
        <time>2019-08-04T09:31:19.000Z</time>
      </trkpt>
      <trkpt lat="47.27115" lon="-2.4663">
        <ele>-24.799999237061</ele>
        <time>2019-08-04T09:31:20.000Z</time>
      </trkpt>
      <trkpt lat="47.27115" lon="-2.4662">
        <ele>-25.200000762939</ele>
        <time>2019-08-04T09:31:21.000Z</time>
      </trkpt>
      <trkpt lat="47.27112" lon="-2.46556">
        <ele>-25.200000762939</ele>
        <time>2019-08-04T09:31:27.000Z</time>
      </trkpt>
      <trkpt lat="47.27111" lon="-2.46545">
        <ele>-25.60000038147</ele>
        <time>2019-08-04T09:31:28.000Z</time>
      </trkpt>
      <trkpt lat="47.2711" lon="-2.46535">
        <ele>-26</ele>
        <time>2019-08-04T09:31:29.000Z</time>
      </trkpt>
      <trkpt lat="47.27109" lon="-2.46523">
        <ele>-26.39999961853</ele>
        <time>2019-08-04T09:31:30.000Z</time>
      </trkpt>
      <trkpt lat="47.27109" lon="-2.46512">
        <ele>-26.799999237061</ele>
        <time>2019-08-04T09:31:31.000Z</time>
      </trkpt>
      <trkpt lat="47.27108" lon="-2.46501">
        <ele>-27.200000762939</ele>
        <time>2019-08-04T09:31:32.000Z</time>
      </trkpt>
      <trkpt lat="47.27102" lon="-2.46454">
        <ele>-27.200000762939</ele>
        <time>2019-08-04T09:31:36.000Z</time>
      </trkpt>
      <trkpt lat="47.27094" lon="-2.46407">
        <ele>-27.60000038147</ele>
        <time>2019-08-04T09:31:40.000Z</time>
      </trkpt>
      <trkpt lat="47.27091" lon="-2.46395">
        <ele>-28</ele>
        <time>2019-08-04T09:31:41.000Z</time>
      </trkpt>
      <trkpt lat="47.27088" lon="-2.46384">
        <ele>-28.39999961853</ele>
        <time>2019-08-04T09:31:42.000Z</time>
      </trkpt>
      <trkpt lat="47.27086" lon="-2.46372">
        <ele>-28.799999237061</ele>
        <time>2019-08-04T09:31:43.000Z</time>
      </trkpt>
      <trkpt lat="47.27083" lon="-2.46361">
        <ele>-29.39999961853</ele>
        <time>2019-08-04T09:31:44.000Z</time>
      </trkpt>
      <trkpt lat="47.27062" lon="-2.46284">
        <ele>-29.39999961853</ele>
        <time>2019-08-04T09:31:51.000Z</time>
      </trkpt>
      <trkpt lat="47.27042" lon="-2.46208">
        <ele>-29.39999961853</ele>
        <time>2019-08-04T09:31:58.000Z</time>
      </trkpt>
      <trkpt lat="47.27034" lon="-2.46177">
        <ele>-29.39999961853</ele>
        <time>2019-08-04T09:32:01.000Z</time>
      </trkpt>
      <trkpt lat="47.27018" lon="-2.46114">
        <ele>-29.39999961853</ele>
        <time>2019-08-04T09:32:07.000Z</time>
      </trkpt>
      <trkpt lat="47.27013" lon="-2.46095">
        <ele>-28.799999237061</ele>
        <time>2019-08-04T09:32:09.000Z</time>
      </trkpt>
      <trkpt lat="47.27011" lon="-2.46086">
        <ele>-28.39999961853</ele>
        <time>2019-08-04T09:32:10.000Z</time>
      </trkpt>
      <trkpt lat="47.27009" lon="-2.46077">
        <ele>-28</ele>
        <time>2019-08-04T09:32:11.000Z</time>
      </trkpt>
      <trkpt lat="47.27007" lon="-2.46068">
        <ele>-27.39999961853</ele>
        <time>2019-08-04T09:32:12.000Z</time>
      </trkpt>
      <trkpt lat="47.27005" lon="-2.4606">
        <ele>-27</ele>
        <time>2019-08-04T09:32:13.000Z</time>
      </trkpt>
      <trkpt lat="47.26997" lon="-2.46027">
        <ele>-27</ele>
        <time>2019-08-04T09:32:17.000Z</time>
      </trkpt>
      <trkpt lat="47.26984" lon="-2.45963">
        <ele>-27</ele>
        <time>2019-08-04T09:32:24.000Z</time>
      </trkpt>
      <trkpt lat="47.26972" lon="-2.45898">
        <ele>-26.60000038147</ele>
        <time>2019-08-04T09:32:31.000Z</time>
      </trkpt>
      <trkpt lat="47.26971" lon="-2.45888">
        <ele>-26.200000762939</ele>
        <time>2019-08-04T09:32:32.000Z</time>
      </trkpt>
      <trkpt lat="47.2697" lon="-2.45879">
        <ele>-25.799999237061</ele>
        <time>2019-08-04T09:32:33.000Z</time>
      </trkpt>
      <trkpt lat="47.26969" lon="-2.45869">
        <ele>-25.39999961853</ele>
        <time>2019-08-04T09:32:34.000Z</time>
      </trkpt>
      <trkpt lat="47.26968" lon="-2.45859">
        <ele>-25</ele>
        <time>2019-08-04T09:32:35.000Z</time>
      </trkpt>
      <trkpt lat="47.26964" lon="-2.45811">
        <ele>-25</ele>
        <time>2019-08-04T09:32:40.000Z</time>
      </trkpt>
      <trkpt lat="47.26962" lon="-2.45728">
        <ele>-25</ele>
        <time>2019-08-04T09:32:48.000Z</time>
      </trkpt>
      <trkpt lat="47.26956" lon="-2.45674">
        <ele>-25</ele>
        <time>2019-08-04T09:32:53.000Z</time>
      </trkpt>
      <trkpt lat="47.26954" lon="-2.45663">
        <ele>-25</ele>
        <time>2019-08-04T09:32:54.000Z</time>
      </trkpt>
      <trkpt lat="47.26941" lon="-2.45637">
        <ele>-25</ele>
        <time>2019-08-04T09:32:57.000Z</time>
      </trkpt>
      <trkpt lat="47.26923" lon="-2.45616">
        <ele>-25.39999961853</ele>
        <time>2019-08-04T09:33:00.000Z</time>
      </trkpt>
      <trkpt lat="47.26917" lon="-2.4561">
        <ele>-25.799999237061</ele>
        <time>2019-08-04T09:33:01.000Z</time>
      </trkpt>
      <trkpt lat="47.26911" lon="-2.45603">
        <ele>-26.200000762939</ele>
        <time>2019-08-04T09:33:02.000Z</time>
      </trkpt>
      <trkpt lat="47.26904" lon="-2.45597">
        <ele>-26.60000038147</ele>
        <time>2019-08-04T09:33:03.000Z</time>
      </trkpt>
      <trkpt lat="47.26898" lon="-2.4559">
        <ele>-27</ele>
        <time>2019-08-04T09:33:04.000Z</time>
      </trkpt>
      <trkpt lat="47.26865" lon="-2.45562">
        <ele>-27</ele>
        <time>2019-08-04T09:33:09.000Z</time>
      </trkpt>
      <trkpt lat="47.26818" lon="-2.45521">
        <ele>-27</ele>
        <time>2019-08-04T09:33:16.000Z</time>
      </trkpt>
      <trkpt lat="47.26805" lon="-2.45507">
        <ele>-27</ele>
        <time>2019-08-04T09:33:18.000Z</time>
      </trkpt>
      <trkpt lat="47.2678" lon="-2.45476">
        <ele>-27.60000038147</ele>
        <time>2019-08-04T09:33:22.000Z</time>
      </trkpt>
      <trkpt lat="47.26774" lon="-2.45467">
        <ele>-28</ele>
        <time>2019-08-04T09:33:23.000Z</time>
      </trkpt>
      <trkpt lat="47.26768" lon="-2.45459">
        <ele>-28.39999961853</ele>
        <time>2019-08-04T09:33:24.000Z</time>
      </trkpt>
      <trkpt lat="47.26762" lon="-2.4545">
        <ele>-28.799999237061</ele>
        <time>2019-08-04T09:33:25.000Z</time>
      </trkpt>
      <trkpt lat="47.26756" lon="-2.45442">
        <ele>-29.39999961853</ele>
        <time>2019-08-04T09:33:26.000Z</time>
      </trkpt>
      <trkpt lat="47.26738" lon="-2.4542">
        <ele>-29.39999961853</ele>
        <time>2019-08-04T09:33:29.000Z</time>
      </trkpt>
      <trkpt lat="47.26707" lon="-2.45389">
        <ele>-29.39999961853</ele>
        <time>2019-08-04T09:33:34.000Z</time>
      </trkpt>
      <trkpt lat="47.26663" lon="-2.45345">
        <ele>-29.39999961853</ele>
        <time>2019-08-04T09:33:41.000Z</time>
      </trkpt>
      <trkpt lat="47.26624" lon="-2.45306">
        <ele>-29.39999961853</ele>
        <time>2019-08-04T09:33:47.000Z</time>
      </trkpt>
      <trkpt lat="47.26611" lon="-2.45294">
        <ele>-29.39999961853</ele>
        <time>2019-08-04T09:33:49.000Z</time>
      </trkpt>
      <trkpt lat="47.26564" lon="-2.4525">
        <ele>-29.39999961853</ele>
        <time>2019-08-04T09:33:56.000Z</time>
      </trkpt>
      <trkpt lat="47.26557" lon="-2.45244">
        <ele>-29</ele>
        <time>2019-08-04T09:33:57.000Z</time>
      </trkpt>
      <trkpt lat="47.2655" lon="-2.45239">
        <ele>-28.39999961853</ele>
        <time>2019-08-04T09:33:58.000Z</time>
      </trkpt>
      <trkpt lat="47.26543" lon="-2.45233">
        <ele>-28</ele>
        <time>2019-08-04T09:33:59.000Z</time>
      </trkpt>
      <trkpt lat="47.26536" lon="-2.45226">
        <ele>-27.60000038147</ele>
        <time>2019-08-04T09:34:00.000Z</time>
      </trkpt>
      <trkpt lat="47.2653" lon="-2.4522">
        <ele>-27.200000762939</ele>
        <time>2019-08-04T09:34:01.000Z</time>
      </trkpt>
      <trkpt lat="47.26517" lon="-2.45207">
        <ele>-27.200000762939</ele>
        <time>2019-08-04T09:34:03.000Z</time>
      </trkpt>
      <trkpt lat="47.26473" lon="-2.45159">
        <ele>-27.200000762939</ele>
        <time>2019-08-04T09:34:10.000Z</time>
      </trkpt>
      <trkpt lat="47.26461" lon="-2.45144">
        <ele>-27.200000762939</ele>
        <time>2019-08-04T09:34:12.000Z</time>
      </trkpt>
      <trkpt lat="47.26436" lon="-2.45097">
        <ele>-27.200000762939</ele>
        <time>2019-08-04T09:34:17.000Z</time>
      </trkpt>
      <trkpt lat="47.26415" lon="-2.45033">
        <ele>-27.200000762939</ele>
        <time>2019-08-04T09:34:23.000Z</time>
      </trkpt>
      <trkpt lat="47.26391" lon="-2.4496">
        <ele>-27.200000762939</ele>
        <time>2019-08-04T09:34:30.000Z</time>
      </trkpt>
      <trkpt lat="47.26387" lon="-2.44951">
        <ele>-27.200000762939</ele>
        <time>2019-08-04T09:34:31.000Z</time>
      </trkpt>
      <trkpt lat="47.26373" lon="-2.44916">
        <ele>-27.200000762939</ele>
        <time>2019-08-04T09:34:35.000Z</time>
      </trkpt>
      <trkpt lat="47.26367" lon="-2.44909">
        <ele>-27.200000762939</ele>
        <time>2019-08-04T09:34:36.000Z</time>
      </trkpt>
      <trkpt lat="47.26346" lon="-2.44901">
        <ele>-27.200000762939</ele>
        <time>2019-08-04T09:34:39.000Z</time>
      </trkpt>
      <trkpt lat="47.26294" lon="-2.44882">
        <ele>-27.200000762939</ele>
        <time>2019-08-04T09:34:46.000Z</time>
      </trkpt>
      <trkpt lat="47.26287" lon="-2.44876">
        <ele>-27.200000762939</ele>
        <time>2019-08-04T09:34:47.000Z</time>
      </trkpt>
      <trkpt lat="47.2627" lon="-2.44853">
        <ele>-27.200000762939</ele>
        <time>2019-08-04T09:34:50.000Z</time>
      </trkpt>
      <trkpt lat="47.26262" lon="-2.44834">
        <ele>-27.200000762939</ele>
        <time>2019-08-04T09:34:52.000Z</time>
      </trkpt>
      <trkpt lat="47.26249" lon="-2.44806">
        <ele>-27.200000762939</ele>
        <time>2019-08-04T09:34:55.000Z</time>
      </trkpt>
      <trkpt lat="47.26228" lon="-2.44745">
        <ele>-27.200000762939</ele>
        <time>2019-08-04T09:35:01.000Z</time>
      </trkpt>
      <trkpt lat="47.26215" lon="-2.44693">
        <ele>-27.200000762939</ele>
        <time>2019-08-04T09:35:06.000Z</time>
      </trkpt>
      <trkpt lat="47.26214" lon="-2.44682">
        <ele>-27.200000762939</ele>
        <time>2019-08-04T09:35:07.000Z</time>
      </trkpt>
      <trkpt lat="47.26211" lon="-2.44638">
        <ele>-27.200000762939</ele>
        <time>2019-08-04T09:35:11.000Z</time>
      </trkpt>
      <trkpt lat="47.26211" lon="-2.44566">
        <ele>-27.200000762939</ele>
        <time>2019-08-04T09:35:18.000Z</time>
      </trkpt>
      <trkpt lat="47.2621" lon="-2.44511">
        <ele>-27.200000762939</ele>
        <time>2019-08-04T09:35:24.000Z</time>
      </trkpt>
      <trkpt lat="47.26207" lon="-2.44491">
        <ele>-27.200000762939</ele>
        <time>2019-08-04T09:35:26.000Z</time>
      </trkpt>
      <trkpt lat="47.26202" lon="-2.44471">
        <ele>-26.799999237061</ele>
        <time>2019-08-04T09:35:28.000Z</time>
      </trkpt>
      <trkpt lat="47.262" lon="-2.4446">
        <ele>-26.39999961853</ele>
        <time>2019-08-04T09:35:29.000Z</time>
      </trkpt>
      <trkpt lat="47.26197" lon="-2.44449">
        <ele>-26</ele>
        <time>2019-08-04T09:35:30.000Z</time>
      </trkpt>
      <trkpt lat="47.26194" lon="-2.44439">
        <ele>-25.60000038147</ele>
        <time>2019-08-04T09:35:31.000Z</time>
      </trkpt>
      <trkpt lat="47.2619" lon="-2.44429">
        <ele>-25.200000762939</ele>
        <time>2019-08-04T09:35:32.000Z</time>
      </trkpt>
      <trkpt lat="47.26183" lon="-2.44408">
        <ele>-25.200000762939</ele>
        <time>2019-08-04T09:35:34.000Z</time>
      </trkpt>
      <trkpt lat="47.26161" lon="-2.44346">
        <ele>-25.200000762939</ele>
        <time>2019-08-04T09:35:40.000Z</time>
      </trkpt>
      <trkpt lat="47.2614" lon="-2.44287">
        <ele>-25.200000762939</ele>
        <time>2019-08-04T09:35:46.000Z</time>
      </trkpt>
      <trkpt lat="47.26117" lon="-2.44217">
        <ele>-25.200000762939</ele>
        <time>2019-08-04T09:35:53.000Z</time>
      </trkpt>
      <trkpt lat="47.26098" lon="-2.44132">
        <ele>-25.200000762939</ele>
        <time>2019-08-04T09:36:01.000Z</time>
      </trkpt>
      <trkpt lat="47.26084" lon="-2.44055">
        <ele>-25.200000762939</ele>
        <time>2019-08-04T09:36:08.000Z</time>
      </trkpt>
      <trkpt lat="47.2608" lon="-2.44034">
        <ele>-25.200000762939</ele>
        <time>2019-08-04T09:36:10.000Z</time>
      </trkpt>
      <trkpt lat="47.26071" lon="-2.43959">
        <ele>-25.200000762939</ele>
        <time>2019-08-04T09:36:17.000Z</time>
      </trkpt>
      <trkpt lat="47.26064" lon="-2.43874">
        <ele>-25.200000762939</ele>
        <time>2019-08-04T09:36:24.000Z</time>
      </trkpt>
      <trkpt lat="47.26069" lon="-2.43803">
        <ele>-25.200000762939</ele>
        <time>2019-08-04T09:36:30.000Z</time>
      </trkpt>
      <trkpt lat="47.26081" lon="-2.43743">
        <ele>-25.200000762939</ele>
        <time>2019-08-04T09:36:36.000Z</time>
      </trkpt>
      <trkpt lat="47.26088" lon="-2.43687">
        <ele>-25.200000762939</ele>
        <time>2019-08-04T09:36:42.000Z</time>
      </trkpt>
      <trkpt lat="47.26087" lon="-2.4368">
        <ele>-25.200000762939</ele>
        <time>2019-08-04T09:36:43.000Z</time>
      </trkpt>
      <trkpt lat="47.26083" lon="-2.43652">
        <ele>-25.200000762939</ele>
        <time>2019-08-04T09:36:48.000Z</time>
      </trkpt>
      <trkpt lat="47.26072" lon="-2.43624">
        <ele>-25.200000762939</ele>
        <time>2019-08-04T09:36:53.000Z</time>
      </trkpt>
      <trkpt lat="47.26054" lon="-2.4359">
        <ele>-25.200000762939</ele>
        <time>2019-08-04T09:36:58.000Z</time>
      </trkpt>
      <trkpt lat="47.26024" lon="-2.43532">
        <ele>-25.200000762939</ele>
        <time>2019-08-04T09:37:05.000Z</time>
      </trkpt>
      <trkpt lat="47.25998" lon="-2.43465">
        <ele>-25.200000762939</ele>
        <time>2019-08-04T09:37:12.000Z</time>
      </trkpt>
      <trkpt lat="47.25996" lon="-2.43456">
        <ele>-25.60000038147</ele>
        <time>2019-08-04T09:37:13.000Z</time>
      </trkpt>
      <trkpt lat="47.25994" lon="-2.4345">
        <ele>-26</ele>
        <time>2019-08-04T09:37:14.000Z</time>
      </trkpt>
      <trkpt lat="47.25991" lon="-2.43445">
        <ele>-26.39999961853</ele>
        <time>2019-08-04T09:37:15.000Z</time>
      </trkpt>
      <trkpt lat="47.2599" lon="-2.4344">
        <ele>-26.799999237061</ele>
        <time>2019-08-04T09:37:16.000Z</time>
      </trkpt>
      <trkpt lat="47.25988" lon="-2.43435">
        <ele>-27.39999961853</ele>
        <time>2019-08-04T09:37:17.000Z</time>
      </trkpt>
      <trkpt lat="47.25981" lon="-2.43414">
        <ele>-27.39999961853</ele>
        <time>2019-08-04T09:37:21.000Z</time>
      </trkpt>
      <trkpt lat="47.25969" lon="-2.43378">
        <ele>-27.39999961853</ele>
        <time>2019-08-04T09:37:26.000Z</time>
      </trkpt>
      <trkpt lat="47.25952" lon="-2.43318">
        <ele>-27.39999961853</ele>
        <time>2019-08-04T09:37:34.000Z</time>
      </trkpt>
      <trkpt lat="47.25945" lon="-2.43272">
        <ele>-27.39999961853</ele>
        <time>2019-08-04T09:37:40.000Z</time>
      </trkpt>
      <trkpt lat="47.2594" lon="-2.43208">
        <ele>-27.39999961853</ele>
        <time>2019-08-04T09:37:48.000Z</time>
      </trkpt>
      <trkpt lat="47.2594" lon="-2.43159">
        <ele>-27.39999961853</ele>
        <time>2019-08-04T09:37:54.000Z</time>
      </trkpt>
      <trkpt lat="47.25941" lon="-2.43133">
        <ele>-27.39999961853</ele>
        <time>2019-08-04T09:37:57.000Z</time>
      </trkpt>
      <trkpt lat="47.25941" lon="-2.43116">
        <ele>-27.39999961853</ele>
        <time>2019-08-04T09:37:59.000Z</time>
      </trkpt>
      <trkpt lat="47.2595" lon="-2.43059">
        <ele>-27.39999961853</ele>
        <time>2019-08-04T09:38:06.000Z</time>
      </trkpt>
      <trkpt lat="47.25954" lon="-2.43035">
        <ele>-27.39999961853</ele>
        <time>2019-08-04T09:38:09.000Z</time>
      </trkpt>
      <trkpt lat="47.25956" lon="-2.4301">
        <ele>-27.39999961853</ele>
        <time>2019-08-04T09:38:12.000Z</time>
      </trkpt>
      <trkpt lat="47.25958" lon="-2.42959">
        <ele>-27.39999961853</ele>
        <time>2019-08-04T09:38:18.000Z</time>
      </trkpt>
      <trkpt lat="47.25961" lon="-2.42942">
        <ele>-27.39999961853</ele>
        <time>2019-08-04T09:38:20.000Z</time>
      </trkpt>
      <trkpt lat="47.2597" lon="-2.42919">
        <ele>-27.39999961853</ele>
        <time>2019-08-04T09:38:23.000Z</time>
      </trkpt>
      <trkpt lat="47.2598" lon="-2.42887">
        <ele>-27.39999961853</ele>
        <time>2019-08-04T09:38:27.000Z</time>
      </trkpt>
      <trkpt lat="47.25982" lon="-2.4287">
        <ele>-27</ele>
        <time>2019-08-04T09:38:29.000Z</time>
      </trkpt>
      <trkpt lat="47.25982" lon="-2.42861">
        <ele>-26.39999961853</ele>
        <time>2019-08-04T09:38:30.000Z</time>
      </trkpt>
      <trkpt lat="47.25982" lon="-2.42852">
        <ele>-26</ele>
        <time>2019-08-04T09:38:31.000Z</time>
      </trkpt>
      <trkpt lat="47.25982" lon="-2.42843">
        <ele>-25.60000038147</ele>
        <time>2019-08-04T09:38:32.000Z</time>
      </trkpt>
      <trkpt lat="47.25982" lon="-2.42833">
        <ele>-25.200000762939</ele>
        <time>2019-08-04T09:38:33.000Z</time>
      </trkpt>
      <trkpt lat="47.25982" lon="-2.42815">
        <ele>-25.200000762939</ele>
        <time>2019-08-04T09:38:35.000Z</time>
      </trkpt>
      <trkpt lat="47.25981" lon="-2.42787">
        <ele>-25.200000762939</ele>
        <time>2019-08-04T09:38:38.000Z</time>
      </trkpt>
      <trkpt lat="47.2598" lon="-2.42718">
        <ele>-25.200000762939</ele>
        <time>2019-08-04T09:38:45.000Z</time>
      </trkpt>
      <trkpt lat="47.25973" lon="-2.42648">
        <ele>-25.200000762939</ele>
        <time>2019-08-04T09:38:52.000Z</time>
      </trkpt>
      <trkpt lat="47.25967" lon="-2.42578">
        <ele>-25.200000762939</ele>
        <time>2019-08-04T09:38:59.000Z</time>
      </trkpt>
      <trkpt lat="47.25975" lon="-2.42539">
        <ele>-25.200000762939</ele>
        <time>2019-08-04T09:39:03.000Z</time>
      </trkpt>
      <trkpt lat="47.25977" lon="-2.42529">
        <ele>-25.200000762939</ele>
        <time>2019-08-04T09:39:04.000Z</time>
      </trkpt>
      <trkpt lat="47.25987" lon="-2.4248">
        <ele>-25.200000762939</ele>
        <time>2019-08-04T09:39:09.000Z</time>
      </trkpt>
      <trkpt lat="47.25994" lon="-2.42402">
        <ele>-25.200000762939</ele>
        <time>2019-08-04T09:39:17.000Z</time>
      </trkpt>
      <trkpt lat="47.25993" lon="-2.42393">
        <ele>-25.200000762939</ele>
        <time>2019-08-04T09:39:18.000Z</time>
      </trkpt>
      <trkpt lat="47.25987" lon="-2.42371">
        <ele>-25.200000762939</ele>
        <time>2019-08-04T09:39:21.000Z</time>
      </trkpt>
      <trkpt lat="47.25977" lon="-2.42351">
        <ele>-25.200000762939</ele>
        <time>2019-08-04T09:39:24.000Z</time>
      </trkpt>
      <trkpt lat="47.25967" lon="-2.42339">
        <ele>-25.200000762939</ele>
        <time>2019-08-04T09:39:26.000Z</time>
      </trkpt>
      <trkpt lat="47.25953" lon="-2.4232">
        <ele>-25.200000762939</ele>
        <time>2019-08-04T09:39:29.000Z</time>
      </trkpt>
      <trkpt lat="47.25941" lon="-2.42299">
        <ele>-25.200000762939</ele>
        <time>2019-08-04T09:39:32.000Z</time>
      </trkpt>
      <trkpt lat="47.25925" lon="-2.42256">
        <ele>-25.200000762939</ele>
        <time>2019-08-04T09:39:37.000Z</time>
      </trkpt>
      <trkpt lat="47.25916" lon="-2.42196">
        <ele>-25.200000762939</ele>
        <time>2019-08-04T09:39:43.000Z</time>
      </trkpt>
      <trkpt lat="47.25909" lon="-2.42116">
        <ele>-25.200000762939</ele>
        <time>2019-08-04T09:39:52.000Z</time>
      </trkpt>
      <trkpt lat="47.259" lon="-2.42052">
        <ele>-25.200000762939</ele>
        <time>2019-08-04T09:39:59.000Z</time>
      </trkpt>
      <trkpt lat="47.25894" lon="-2.42036">
        <ele>-25.200000762939</ele>
        <time>2019-08-04T09:40:01.000Z</time>
      </trkpt>
      <trkpt lat="47.25881" lon="-2.42013">
        <ele>-25.200000762939</ele>
        <time>2019-08-04T09:40:04.000Z</time>
      </trkpt>
      <trkpt lat="47.25875" lon="-2.42006">
        <ele>-25.200000762939</ele>
        <time>2019-08-04T09:40:05.000Z</time>
      </trkpt>
      <trkpt lat="47.25866" lon="-2.41992">
        <ele>-25.200000762939</ele>
        <time>2019-08-04T09:40:07.000Z</time>
      </trkpt>
      <trkpt lat="47.25857" lon="-2.41965">
        <ele>-25.200000762939</ele>
        <time>2019-08-04T09:40:10.000Z</time>
      </trkpt>
      <trkpt lat="47.25856" lon="-2.41935">
        <ele>-25.200000762939</ele>
        <time>2019-08-04T09:40:13.000Z</time>
      </trkpt>
      <trkpt lat="47.25859" lon="-2.41916">
        <ele>-25.200000762939</ele>
        <time>2019-08-04T09:40:15.000Z</time>
      </trkpt>
      <trkpt lat="47.25862" lon="-2.41888">
        <ele>-25.200000762939</ele>
        <time>2019-08-04T09:40:18.000Z</time>
      </trkpt>
      <trkpt lat="47.25866" lon="-2.4187">
        <ele>-25.200000762939</ele>
        <time>2019-08-04T09:40:20.000Z</time>
      </trkpt>
      <trkpt lat="47.25874" lon="-2.41844">
        <ele>-25.200000762939</ele>
        <time>2019-08-04T09:40:23.000Z</time>
      </trkpt>
      <trkpt lat="47.25896" lon="-2.41792">
        <ele>-25.200000762939</ele>
        <time>2019-08-04T09:40:29.000Z</time>
      </trkpt>
      <trkpt lat="47.25921" lon="-2.41756">
        <ele>-25.200000762939</ele>
        <time>2019-08-04T09:40:34.000Z</time>
      </trkpt>
      <trkpt lat="47.25939" lon="-2.41748">
        <ele>-25.200000762939</ele>
        <time>2019-08-04T09:40:37.000Z</time>
      </trkpt>
      <trkpt lat="47.25966" lon="-2.41751">
        <ele>-25.200000762939</ele>
        <time>2019-08-04T09:40:41.000Z</time>
      </trkpt>
      <trkpt lat="47.25987" lon="-2.41758">
        <ele>-25.200000762939</ele>
        <time>2019-08-04T09:40:44.000Z</time>
      </trkpt>
      <trkpt lat="47.26001" lon="-2.41762">
        <ele>-25.200000762939</ele>
        <time>2019-08-04T09:40:46.000Z</time>
      </trkpt>
      <trkpt lat="47.26039" lon="-2.41771">
        <ele>-25.200000762939</ele>
        <time>2019-08-04T09:40:52.000Z</time>
      </trkpt>
      <trkpt lat="47.26082" lon="-2.41785">
        <ele>-25.200000762939</ele>
        <time>2019-08-04T09:40:59.000Z</time>
      </trkpt>
      <trkpt lat="47.26121" lon="-2.41799">
        <ele>-25.200000762939</ele>
        <time>2019-08-04T09:41:05.000Z</time>
      </trkpt>
      <trkpt lat="47.26141" lon="-2.41806">
        <ele>-25.200000762939</ele>
        <time>2019-08-04T09:41:08.000Z</time>
      </trkpt>
      <trkpt lat="47.26159" lon="-2.41818">
        <ele>-25.200000762939</ele>
        <time>2019-08-04T09:41:11.000Z</time>
      </trkpt>
      <trkpt lat="47.26171" lon="-2.41829">
        <ele>-25.200000762939</ele>
        <time>2019-08-04T09:41:13.000Z</time>
      </trkpt>
      <trkpt lat="47.26187" lon="-2.41848">
        <ele>-25.200000762939</ele>
        <time>2019-08-04T09:41:16.000Z</time>
      </trkpt>
      <trkpt lat="47.26221" lon="-2.41886">
        <ele>-25.799999237061</ele>
        <time>2019-08-04T09:41:22.000Z</time>
      </trkpt>
      <trkpt lat="47.26227" lon="-2.41891">
        <ele>-26.200000762939</ele>
        <time>2019-08-04T09:41:23.000Z</time>
      </trkpt>
      <trkpt lat="47.26233" lon="-2.41896">
        <ele>-26.60000038147</ele>
        <time>2019-08-04T09:41:24.000Z</time>
      </trkpt>
      <trkpt lat="47.2624" lon="-2.419">
        <ele>-27</ele>
        <time>2019-08-04T09:41:25.000Z</time>
      </trkpt>
      <trkpt lat="47.26246" lon="-2.41905">
        <ele>-27.39999961853</ele>
        <time>2019-08-04T09:41:26.000Z</time>
      </trkpt>
      <trkpt lat="47.26265" lon="-2.41918">
        <ele>-27.39999961853</ele>
        <time>2019-08-04T09:41:29.000Z</time>
      </trkpt>
      <trkpt lat="47.26304" lon="-2.41942">
        <ele>-27.799999237061</ele>
        <time>2019-08-04T09:41:35.000Z</time>
      </trkpt>
      <trkpt lat="47.2631" lon="-2.41946">
        <ele>-28.200000762939</ele>
        <time>2019-08-04T09:41:36.000Z</time>
      </trkpt>
      <trkpt lat="47.26317" lon="-2.4195">
        <ele>-28.60000038147</ele>
        <time>2019-08-04T09:41:37.000Z</time>
      </trkpt>
      <trkpt lat="47.26323" lon="-2.41954">
        <ele>-29</ele>
        <time>2019-08-04T09:41:38.000Z</time>
      </trkpt>
      <trkpt lat="47.2633" lon="-2.41958">
        <ele>-29.39999961853</ele>
        <time>2019-08-04T09:41:39.000Z</time>
      </trkpt>
      <trkpt lat="47.26343" lon="-2.41967">
        <ele>-29.39999961853</ele>
        <time>2019-08-04T09:41:41.000Z</time>
      </trkpt>
      <trkpt lat="47.26382" lon="-2.4199">
        <ele>-29.39999961853</ele>
        <time>2019-08-04T09:41:47.000Z</time>
      </trkpt>
      <trkpt lat="47.26422" lon="-2.42025">
        <ele>-29.39999961853</ele>
        <time>2019-08-04T09:41:54.000Z</time>
      </trkpt>
      <trkpt lat="47.2646" lon="-2.42066">
        <ele>-29.39999961853</ele>
        <time>2019-08-04T09:42:01.000Z</time>
      </trkpt>
      <trkpt lat="47.26495" lon="-2.42101">
        <ele>-29.39999961853</ele>
        <time>2019-08-04T09:42:07.000Z</time>
      </trkpt>
      <trkpt lat="47.26528" lon="-2.42136">
        <ele>-29.39999961853</ele>
        <time>2019-08-04T09:42:13.000Z</time>
      </trkpt>
      <trkpt lat="47.26533" lon="-2.42143">
        <ele>-29.39999961853</ele>
        <time>2019-08-04T09:42:14.000Z</time>
      </trkpt>
      <trkpt lat="47.26553" lon="-2.42159">
        <ele>-29.39999961853</ele>
        <time>2019-08-04T09:42:17.000Z</time>
      </trkpt>
      <trkpt lat="47.26584" lon="-2.4218">
        <ele>-29.39999961853</ele>
        <time>2019-08-04T09:42:22.000Z</time>
      </trkpt>
      <trkpt lat="47.26601" lon="-2.42195">
        <ele>-29.39999961853</ele>
        <time>2019-08-04T09:42:25.000Z</time>
      </trkpt>
      <trkpt lat="47.26606" lon="-2.422">
        <ele>-30</ele>
        <time>2019-08-04T09:42:26.000Z</time>
      </trkpt>
      <trkpt lat="47.26611" lon="-2.42204">
        <ele>-30.39999961853</ele>
        <time>2019-08-04T09:42:27.000Z</time>
      </trkpt>
      <trkpt lat="47.26616" lon="-2.42209">
        <ele>-30.799999237061</ele>
        <time>2019-08-04T09:42:28.000Z</time>
      </trkpt>
      <trkpt lat="47.26621" lon="-2.42213">
        <ele>-31.200000762939</ele>
        <time>2019-08-04T09:42:29.000Z</time>
      </trkpt>
      <trkpt lat="47.26626" lon="-2.42218">
        <ele>-31.60000038147</ele>
        <time>2019-08-04T09:42:30.000Z</time>
      </trkpt>
      <trkpt lat="47.2663" lon="-2.42224">
        <ele>-31.60000038147</ele>
        <time>2019-08-04T09:42:31.000Z</time>
      </trkpt>
      <trkpt lat="47.26635" lon="-2.4223">
        <ele>-31.60000038147</ele>
        <time>2019-08-04T09:42:32.000Z</time>
      </trkpt>
      <trkpt lat="47.26644" lon="-2.4224">
        <ele>-31.60000038147</ele>
        <time>2019-08-04T09:42:34.000Z</time>
      </trkpt>
      <trkpt lat="47.26657" lon="-2.42257">
        <ele>-31.60000038147</ele>
        <time>2019-08-04T09:42:37.000Z</time>
      </trkpt>
      <trkpt lat="47.26665" lon="-2.4227">
        <ele>-31.60000038147</ele>
        <time>2019-08-04T09:42:39.000Z</time>
      </trkpt>
      <trkpt lat="47.26678" lon="-2.42288">
        <ele>-31.60000038147</ele>
        <time>2019-08-04T09:42:42.000Z</time>
      </trkpt>
      <trkpt lat="47.26688" lon="-2.42297">
        <ele>-31.60000038147</ele>
        <time>2019-08-04T09:42:44.000Z</time>
      </trkpt>
      <trkpt lat="47.26705" lon="-2.42309">
        <ele>-31.60000038147</ele>
        <time>2019-08-04T09:42:47.000Z</time>
      </trkpt>
      <trkpt lat="47.26739" lon="-2.4233">
        <ele>-31.60000038147</ele>
        <time>2019-08-04T09:42:53.000Z</time>
      </trkpt>
      <trkpt lat="47.26771" lon="-2.42355">
        <ele>-31.60000038147</ele>
        <time>2019-08-04T09:42:59.000Z</time>
      </trkpt>
      <trkpt lat="47.26779" lon="-2.42367">
        <ele>-31.60000038147</ele>
        <time>2019-08-04T09:43:01.000Z</time>
      </trkpt>
      <trkpt lat="47.2679" lon="-2.42388">
        <ele>-31.60000038147</ele>
        <time>2019-08-04T09:43:04.000Z</time>
      </trkpt>
      <trkpt lat="47.26794" lon="-2.42395">
        <ele>-31.60000038147</ele>
        <time>2019-08-04T09:43:05.000Z</time>
      </trkpt>
      <trkpt lat="47.26803" lon="-2.42409">
        <ele>-31.200000762939</ele>
        <time>2019-08-04T09:43:07.000Z</time>
      </trkpt>
      <trkpt lat="47.26807" lon="-2.42415">
        <ele>-30.799999237061</ele>
        <time>2019-08-04T09:43:08.000Z</time>
      </trkpt>
      <trkpt lat="47.26811" lon="-2.42422">
        <ele>-30.39999961853</ele>
        <time>2019-08-04T09:43:09.000Z</time>
      </trkpt>
      <trkpt lat="47.26814" lon="-2.42429">
        <ele>-30</ele>
        <time>2019-08-04T09:43:10.000Z</time>
      </trkpt>
      <trkpt lat="47.26818" lon="-2.42436">
        <ele>-29.60000038147</ele>
        <time>2019-08-04T09:43:11.000Z</time>
      </trkpt>
      <trkpt lat="47.26835" lon="-2.42459">
        <ele>-29.60000038147</ele>
        <time>2019-08-04T09:43:15.000Z</time>
      </trkpt>
      <trkpt lat="47.26841" lon="-2.42462">
        <ele>-29.60000038147</ele>
        <time>2019-08-04T09:43:16.000Z</time>
      </trkpt>
      <trkpt lat="47.26858" lon="-2.42465">
        <ele>-29.60000038147</ele>
        <time>2019-08-04T09:43:19.000Z</time>
      </trkpt>
      <trkpt lat="47.26865" lon="-2.42465">
        <ele>-29.60000038147</ele>
        <time>2019-08-04T09:43:20.000Z</time>
      </trkpt>
      <trkpt lat="47.2691" lon="-2.42472">
        <ele>-29.60000038147</ele>
        <time>2019-08-04T09:43:27.000Z</time>
      </trkpt>
      <trkpt lat="47.26937" lon="-2.42482">
        <ele>-29.60000038147</ele>
        <time>2019-08-04T09:43:31.000Z</time>
      </trkpt>
      <trkpt lat="47.26944" lon="-2.42488">
        <ele>-29.60000038147</ele>
        <time>2019-08-04T09:43:32.000Z</time>
      </trkpt>
      <trkpt lat="47.2697" lon="-2.4252">
        <ele>-29.60000038147</ele>
        <time>2019-08-04T09:43:37.000Z</time>
      </trkpt>
      <trkpt lat="47.26999" lon="-2.42574">
        <ele>-29.60000038147</ele>
        <time>2019-08-04T09:43:44.000Z</time>
      </trkpt>
      <trkpt lat="47.27019" lon="-2.42633">
        <ele>-29.60000038147</ele>
        <time>2019-08-04T09:43:51.000Z</time>
      </trkpt>
      <trkpt lat="47.27022" lon="-2.42639">
        <ele>-29.60000038147</ele>
        <time>2019-08-04T09:43:52.000Z</time>
      </trkpt>
      <trkpt lat="47.2703" lon="-2.42649">
        <ele>-30</ele>
        <time>2019-08-04T09:43:54.000Z</time>
      </trkpt>
      <trkpt lat="47.27035" lon="-2.42653">
        <ele>-30.39999961853</ele>
        <time>2019-08-04T09:43:55.000Z</time>
      </trkpt>
      <trkpt lat="47.27039" lon="-2.42657">
        <ele>-31</ele>
        <time>2019-08-04T09:43:56.000Z</time>
      </trkpt>
      <trkpt lat="47.27042" lon="-2.4266">
        <ele>-31.39999961853</ele>
        <time>2019-08-04T09:43:57.000Z</time>
      </trkpt>
      <trkpt lat="47.27045" lon="-2.42662">
        <ele>-31.799999237061</ele>
        <time>2019-08-04T09:43:58.000Z</time>
      </trkpt>
      <trkpt lat="47.2705" lon="-2.42664">
        <ele>-31.799999237061</ele>
        <time>2019-08-04T09:43:59.000Z</time>
      </trkpt>
      <trkpt lat="47.27061" lon="-2.42664">
        <ele>-31.799999237061</ele>
        <time>2019-08-04T09:44:01.000Z</time>
      </trkpt>
      <trkpt lat="47.2708" lon="-2.42662">
        <ele>-31.799999237061</ele>
        <time>2019-08-04T09:44:04.000Z</time>
      </trkpt>
      <trkpt lat="47.27087" lon="-2.4266">
        <ele>-31.799999237061</ele>
        <time>2019-08-04T09:44:05.000Z</time>
      </trkpt>
      <trkpt lat="47.27136" lon="-2.42639">
        <ele>-31.799999237061</ele>
        <time>2019-08-04T09:44:13.000Z</time>
      </trkpt>
      <trkpt lat="47.27174" lon="-2.42621">
        <ele>-31.799999237061</ele>
        <time>2019-08-04T09:44:19.000Z</time>
      </trkpt>
      <trkpt lat="47.2721" lon="-2.42609">
        <ele>-31.799999237061</ele>
        <time>2019-08-04T09:44:25.000Z</time>
      </trkpt>
      <trkpt lat="47.27222" lon="-2.42606">
        <ele>-31.799999237061</ele>
        <time>2019-08-04T09:44:27.000Z</time>
      </trkpt>
      <trkpt lat="47.27243" lon="-2.426">
        <ele>-31.799999237061</ele>
        <time>2019-08-04T09:44:31.000Z</time>
      </trkpt>
      <trkpt lat="47.27248" lon="-2.42597">
        <ele>-31.799999237061</ele>
        <time>2019-08-04T09:44:32.000Z</time>
      </trkpt>
      <trkpt lat="47.27271" lon="-2.42585">
        <ele>-31.799999237061</ele>
        <time>2019-08-04T09:44:36.000Z</time>
      </trkpt>
      <trkpt lat="47.27309" lon="-2.42567">
        <ele>-31.799999237061</ele>
        <time>2019-08-04T09:44:42.000Z</time>
      </trkpt>
      <trkpt lat="47.27315" lon="-2.42565">
        <ele>-31.799999237061</ele>
        <time>2019-08-04T09:44:43.000Z</time>
      </trkpt>
      <trkpt lat="47.27335" lon="-2.42566">
        <ele>-31.799999237061</ele>
        <time>2019-08-04T09:44:46.000Z</time>
      </trkpt>
      <trkpt lat="47.27348" lon="-2.42564">
        <ele>-31.799999237061</ele>
        <time>2019-08-04T09:44:48.000Z</time>
      </trkpt>
      <trkpt lat="47.27362" lon="-2.42561">
        <ele>-31.799999237061</ele>
        <time>2019-08-04T09:44:50.000Z</time>
      </trkpt>
      <trkpt lat="47.27368" lon="-2.42561">
        <ele>-31.799999237061</ele>
        <time>2019-08-04T09:44:51.000Z</time>
      </trkpt>
      <trkpt lat="47.2741" lon="-2.42557">
        <ele>-31.799999237061</ele>
        <time>2019-08-04T09:44:58.000Z</time>
      </trkpt>
      <trkpt lat="47.27415" lon="-2.42555">
        <ele>-31.799999237061</ele>
        <time>2019-08-04T09:44:59.000Z</time>
      </trkpt>
      <trkpt lat="47.27424" lon="-2.42546">
        <ele>-32.200000762939</ele>
        <time>2019-08-04T09:45:01.000Z</time>
      </trkpt>
      <trkpt lat="47.27428" lon="-2.42541">
        <ele>-32.599998474121</ele>
        <time>2019-08-04T09:45:02.000Z</time>
      </trkpt>
      <trkpt lat="47.27431" lon="-2.42537">
        <ele>-33</ele>
        <time>2019-08-04T09:45:03.000Z</time>
      </trkpt>
      <trkpt lat="47.27435" lon="-2.42533">
        <ele>-33.400001525879</ele>
        <time>2019-08-04T09:45:04.000Z</time>
      </trkpt>
      <trkpt lat="47.27438" lon="-2.42529">
        <ele>-33.799999237061</ele>
        <time>2019-08-04T09:45:05.000Z</time>
      </trkpt>
      <trkpt lat="47.27441" lon="-2.42527">
        <ele>-33.799999237061</ele>
        <time>2019-08-04T09:45:06.000Z</time>
      </trkpt>
      <trkpt lat="47.27444" lon="-2.42528">
        <ele>-33.799999237061</ele>
        <time>2019-08-04T09:45:07.000Z</time>
      </trkpt>
      <trkpt lat="47.27448" lon="-2.42534">
        <ele>-33.799999237061</ele>
        <time>2019-08-04T09:45:09.000Z</time>
      </trkpt>
      <trkpt lat="47.27455" lon="-2.4254">
        <ele>-33.799999237061</ele>
        <time>2019-08-04T09:45:12.000Z</time>
      </trkpt>
      <trkpt lat="47.27458" lon="-2.42545">
        <ele>-33.799999237061</ele>
        <time>2019-08-04T09:45:14.000Z</time>
      </trkpt>
      <trkpt lat="47.27469" lon="-2.42556">
        <ele>-33.799999237061</ele>
        <time>2019-08-04T09:45:20.000Z</time>
      </trkpt>
      <trkpt lat="47.27483" lon="-2.42572">
        <ele>-33.799999237061</ele>
        <time>2019-08-04T09:45:27.000Z</time>
      </trkpt>
      <trkpt lat="47.27494" lon="-2.42587">
        <ele>-33.799999237061</ele>
        <time>2019-08-04T09:45:32.000Z</time>
      </trkpt>
      <trkpt lat="47.27514" lon="-2.42608">
        <ele>-33.799999237061</ele>
        <time>2019-08-04T09:45:38.000Z</time>
      </trkpt>
      <trkpt lat="47.2752" lon="-2.42616">
        <ele>-33.799999237061</ele>
        <time>2019-08-04T09:45:40.000Z</time>
      </trkpt>
      <trkpt lat="47.2753" lon="-2.42627">
        <ele>-33.799999237061</ele>
        <time>2019-08-04T09:45:43.000Z</time>
      </trkpt>
      <trkpt lat="47.27534" lon="-2.4263">
        <ele>-33.799999237061</ele>
        <time>2019-08-04T09:45:44.000Z</time>
      </trkpt>
      <trkpt lat="47.27546" lon="-2.42643">
        <ele>-33.799999237061</ele>
        <time>2019-08-04T09:45:49.000Z</time>
      </trkpt>
      <trkpt lat="47.27551" lon="-2.4265">
        <ele>-33.799999237061</ele>
        <time>2019-08-04T09:45:54.000Z</time>
      </trkpt>
      <trkpt lat="47.27554" lon="-2.42654">
        <ele>-33.799999237061</ele>
        <time>2019-08-04T09:46:04.000Z</time>
      </trkpt>
      <trkpt lat="47.27557" lon="-2.42657">
        <ele>-33.799999237061</ele>
        <time>2019-08-04T09:46:06.000Z</time>
      </trkpt>
      <trkpt lat="47.27567" lon="-2.42667">
        <ele>-33.799999237061</ele>
        <time>2019-08-04T09:46:12.000Z</time>
      </trkpt>
      <trkpt lat="47.27579" lon="-2.42678">
        <ele>-33.799999237061</ele>
        <time>2019-08-04T09:46:16.000Z</time>
      </trkpt>
      <trkpt lat="47.27601" lon="-2.42706">
        <ele>-33.799999237061</ele>
        <time>2019-08-04T09:46:24.000Z</time>
      </trkpt>
      <trkpt lat="47.27626" lon="-2.42733">
        <ele>-33.799999237061</ele>
        <time>2019-08-04T09:46:32.000Z</time>
      </trkpt>
      <trkpt lat="47.27657" lon="-2.42769">
        <ele>-33.799999237061</ele>
        <time>2019-08-04T09:46:42.000Z</time>
      </trkpt>
      <trkpt lat="47.27663" lon="-2.42777">
        <ele>-33.799999237061</ele>
        <time>2019-08-04T09:46:46.000Z</time>
      </trkpt>
      <trkpt lat="47.27675" lon="-2.42786">
        <ele>-33.799999237061</ele>
        <time>2019-08-04T09:46:51.000Z</time>
      </trkpt>
      <trkpt lat="47.27689" lon="-2.4279">
        <ele>-33.799999237061</ele>
        <time>2019-08-04T09:46:55.000Z</time>
      </trkpt>
      <trkpt lat="47.27714" lon="-2.42801">
        <ele>-33.799999237061</ele>
        <time>2019-08-04T09:47:02.000Z</time>
      </trkpt>
      <trkpt lat="47.27737" lon="-2.42807">
        <ele>-33.799999237061</ele>
        <time>2019-08-04T09:47:09.000Z</time>
      </trkpt>
      <trkpt lat="47.27757" lon="-2.42811">
        <ele>-33.799999237061</ele>
        <time>2019-08-04T09:47:15.000Z</time>
      </trkpt>
      <trkpt lat="47.27783" lon="-2.42816">
        <ele>-33.799999237061</ele>
        <time>2019-08-04T09:47:22.000Z</time>
      </trkpt>
      <trkpt lat="47.27814" lon="-2.4282">
        <ele>-33.799999237061</ele>
        <time>2019-08-04T09:47:31.000Z</time>
      </trkpt>
      <trkpt lat="47.27821" lon="-2.4282">
        <ele>-33.799999237061</ele>
        <time>2019-08-04T09:47:35.000Z</time>
      </trkpt>
      <trkpt lat="47.2783" lon="-2.42817">
        <ele>-33.799999237061</ele>
        <time>2019-08-04T09:47:39.000Z</time>
      </trkpt>
      <trkpt lat="47.27831" lon="-2.42813">
        <ele>-33.799999237061</ele>
        <time>2019-08-04T09:47:40.000Z</time>
      </trkpt>
      <trkpt lat="47.2783" lon="-2.42798">
        <ele>-33.799999237061</ele>
        <time>2019-08-04T09:47:43.000Z</time>
      </trkpt>
      <trkpt lat="47.27829" lon="-2.42792">
        <ele>-33.799999237061</ele>
        <time>2019-08-04T09:47:44.000Z</time>
      </trkpt>
      <trkpt lat="47.27827" lon="-2.42747">
        <ele>-33.799999237061</ele>
        <time>2019-08-04T09:47:52.000Z</time>
      </trkpt>
      <trkpt lat="47.27826" lon="-2.42734">
        <ele>-33.799999237061</ele>
        <time>2019-08-04T09:47:57.000Z</time>
      </trkpt>
      <trkpt lat="47.27824" lon="-2.42716">
        <ele>-33.799999237061</ele>
        <time>2019-08-04T09:48:03.000Z</time>
      </trkpt>
      <trkpt lat="47.27814" lon="-2.4271">
        <ele>-33.799999237061</ele>
        <time>2019-08-04T09:48:06.000Z</time>
      </trkpt>
      <trkpt lat="47.2781" lon="-2.42708">
        <ele>-33.799999237061</ele>
        <time>2019-08-04T09:48:07.000Z</time>
      </trkpt>
      <trkpt lat="47.27787" lon="-2.42702">
        <ele>-33.799999237061</ele>
        <time>2019-08-04T09:48:14.000Z</time>
      </trkpt>
      <trkpt lat="47.2777" lon="-2.42693">
        <ele>-33.799999237061</ele>
        <time>2019-08-04T09:48:19.000Z</time>
      </trkpt>
      <trkpt lat="47.27742" lon="-2.42673">
        <ele>-33.799999237061</ele>
        <time>2019-08-04T09:48:27.000Z</time>
      </trkpt>
      <trkpt lat="47.27718" lon="-2.42655">
        <ele>-33.799999237061</ele>
        <time>2019-08-04T09:48:34.000Z</time>
      </trkpt>
      <trkpt lat="47.27696" lon="-2.42633">
        <ele>-33.799999237061</ele>
        <time>2019-08-04T09:48:41.000Z</time>
      </trkpt>
      <trkpt lat="47.27694" lon="-2.42631">
        <ele>-33.799999237061</ele>
        <time>2019-08-04T09:48:44.000Z</time>
      </trkpt>
      <trkpt lat="47.27684" lon="-2.4262">
        <ele>-33.799999237061</ele>
        <time>2019-08-04T09:48:49.000Z</time>
      </trkpt>
      <trkpt lat="47.27667" lon="-2.42598">
        <ele>-33.799999237061</ele>
        <time>2019-08-04T09:48:54.000Z</time>
      </trkpt>
      <trkpt lat="47.27641" lon="-2.42566">
        <ele>-33.799999237061</ele>
        <time>2019-08-04T09:49:01.000Z</time>
      </trkpt>
      <trkpt lat="47.27634" lon="-2.42556">
        <ele>-33.799999237061</ele>
        <time>2019-08-04T09:49:03.000Z</time>
      </trkpt>
      <trkpt lat="47.27615" lon="-2.42531">
        <ele>-33.799999237061</ele>
        <time>2019-08-04T09:49:08.000Z</time>
      </trkpt>
      <trkpt lat="47.2759" lon="-2.42498">
        <ele>-33.799999237061</ele>
        <time>2019-08-04T09:49:15.000Z</time>
      </trkpt>
      <trkpt lat="47.27594" lon="-2.42484">
        <ele>-33.799999237061</ele>
        <time>2019-08-04T09:49:18.000Z</time>
      </trkpt>
      <trkpt lat="47.276" lon="-2.42472">
        <ele>-33.799999237061</ele>
        <time>2019-08-04T09:49:20.000Z</time>
      </trkpt>
      <trkpt lat="47.27611" lon="-2.42452">
        <ele>-34.599998474121</ele>
        <time>2019-08-04T09:49:23.000Z</time>
      </trkpt>
      <trkpt lat="47.27614" lon="-2.42446">
        <ele>-35</ele>
        <time>2019-08-04T09:49:24.000Z</time>
      </trkpt>
      <trkpt lat="47.27618" lon="-2.4244">
        <ele>-35.400001525879</ele>
        <time>2019-08-04T09:49:25.000Z</time>
      </trkpt>
      <trkpt lat="47.2762" lon="-2.42433">
        <ele>-35.799999237061</ele>
        <time>2019-08-04T09:49:26.000Z</time>
      </trkpt>
      <trkpt lat="47.27631" lon="-2.42409">
        <ele>-35.799999237061</ele>
        <time>2019-08-04T09:49:30.000Z</time>
      </trkpt>
      <trkpt lat="47.27638" lon="-2.42391">
        <ele>-35.799999237061</ele>
        <time>2019-08-04T09:49:33.000Z</time>
      </trkpt>
      <trkpt lat="47.2764" lon="-2.42378">
        <ele>-35.799999237061</ele>
        <time>2019-08-04T09:49:35.000Z</time>
      </trkpt>
      <trkpt lat="47.27647" lon="-2.42335">
        <ele>-35.799999237061</ele>
        <time>2019-08-04T09:49:42.000Z</time>
      </trkpt>
      <trkpt lat="47.27648" lon="-2.42329">
        <ele>-35.799999237061</ele>
        <time>2019-08-04T09:49:43.000Z</time>
      </trkpt>
      <trkpt lat="47.27653" lon="-2.42304">
        <ele>-35.799999237061</ele>
        <time>2019-08-04T09:49:47.000Z</time>
      </trkpt>
      <trkpt lat="47.27663" lon="-2.42265">
        <ele>-35.799999237061</ele>
        <time>2019-08-04T09:49:53.000Z</time>
      </trkpt>
      <trkpt lat="47.27678" lon="-2.42228">
        <ele>-35.799999237061</ele>
        <time>2019-08-04T09:49:59.000Z</time>
      </trkpt>
      <trkpt lat="47.27695" lon="-2.42196">
        <ele>-35.799999237061</ele>
        <time>2019-08-04T09:50:04.000Z</time>
      </trkpt>
      <trkpt lat="47.2771" lon="-2.42163">
        <ele>-35.799999237061</ele>
        <time>2019-08-04T09:50:09.000Z</time>
      </trkpt>
      <trkpt lat="47.27727" lon="-2.42134">
        <ele>-35.799999237061</ele>
        <time>2019-08-04T09:50:14.000Z</time>
      </trkpt>
      <trkpt lat="47.27734" lon="-2.42124">
        <ele>-35.799999237061</ele>
        <time>2019-08-04T09:50:16.000Z</time>
      </trkpt>
      <trkpt lat="47.27737" lon="-2.42101">
        <ele>-35.799999237061</ele>
        <time>2019-08-04T09:50:19.000Z</time>
      </trkpt>
      <trkpt lat="47.27744" lon="-2.42049">
        <ele>-35.799999237061</ele>
        <time>2019-08-04T09:50:26.000Z</time>
      </trkpt>
      <trkpt lat="47.27752" lon="-2.42007">
        <ele>-35.400001525879</ele>
        <time>2019-08-04T09:50:32.000Z</time>
      </trkpt>
      <trkpt lat="47.27754" lon="-2.42">
        <ele>-35</ele>
        <time>2019-08-04T09:50:33.000Z</time>
      </trkpt>
      <trkpt lat="47.27756" lon="-2.41993">
        <ele>-34.599998474121</ele>
        <time>2019-08-04T09:50:34.000Z</time>
      </trkpt>
      <trkpt lat="47.27759" lon="-2.41986">
        <ele>-34.200000762939</ele>
        <time>2019-08-04T09:50:35.000Z</time>
      </trkpt>
      <trkpt lat="47.27761" lon="-2.41979">
        <ele>-33.799999237061</ele>
        <time>2019-08-04T09:50:36.000Z</time>
      </trkpt>
      <trkpt lat="47.27767" lon="-2.41959">
        <ele>-33.799999237061</ele>
        <time>2019-08-04T09:50:39.000Z</time>
      </trkpt>
      <trkpt lat="47.27786" lon="-2.419">
        <ele>-33.799999237061</ele>
        <time>2019-08-04T09:50:47.000Z</time>
      </trkpt>
      <trkpt lat="47.27806" lon="-2.41849">
        <ele>-33.799999237061</ele>
        <time>2019-08-04T09:50:54.000Z</time>
      </trkpt>
      <trkpt lat="47.27825" lon="-2.418">
        <ele>-33.799999237061</ele>
        <time>2019-08-04T09:51:01.000Z</time>
      </trkpt>
      <trkpt lat="47.27833" lon="-2.41775">
        <ele>-33.799999237061</ele>
        <time>2019-08-04T09:51:06.000Z</time>
      </trkpt>
      <trkpt lat="47.27845" lon="-2.41749">
        <ele>-33.799999237061</ele>
        <time>2019-08-04T09:51:12.000Z</time>
      </trkpt>
      <trkpt lat="47.27856" lon="-2.41735">
        <ele>-33.799999237061</ele>
        <time>2019-08-04T09:51:15.000Z</time>
      </trkpt>
      <trkpt lat="47.27857" lon="-2.41732">
        <ele>-33.799999237061</ele>
        <time>2019-08-04T09:51:16.000Z</time>
      </trkpt>
      <trkpt lat="47.27862" lon="-2.41718">
        <ele>-33.799999237061</ele>
        <time>2019-08-04T09:51:19.000Z</time>
      </trkpt>
      <trkpt lat="47.27867" lon="-2.41707">
        <ele>-33.799999237061</ele>
        <time>2019-08-04T09:51:21.000Z</time>
      </trkpt>
      <trkpt lat="47.27878" lon="-2.41685">
        <ele>-33.799999237061</ele>
        <time>2019-08-04T09:51:25.000Z</time>
      </trkpt>
      <trkpt lat="47.27888" lon="-2.41669">
        <ele>-33.799999237061</ele>
        <time>2019-08-04T09:51:28.000Z</time>
      </trkpt>
      <trkpt lat="47.27891" lon="-2.41664">
        <ele>-33.799999237061</ele>
        <time>2019-08-04T09:51:29.000Z</time>
      </trkpt>
      <trkpt lat="47.27899" lon="-2.41651">
        <ele>-33.799999237061</ele>
        <time>2019-08-04T09:51:31.000Z</time>
      </trkpt>
      <trkpt lat="47.27906" lon="-2.41635">
        <ele>-33.799999237061</ele>
        <time>2019-08-04T09:51:33.000Z</time>
      </trkpt>
      <trkpt lat="47.27922" lon="-2.41601">
        <ele>-33.799999237061</ele>
        <time>2019-08-04T09:51:38.000Z</time>
      </trkpt>
      <trkpt lat="47.27925" lon="-2.41592">
        <ele>-33.799999237061</ele>
        <time>2019-08-04T09:51:39.000Z</time>
      </trkpt>
      <trkpt lat="47.27936" lon="-2.4157">
        <ele>-33.799999237061</ele>
        <time>2019-08-04T09:51:42.000Z</time>
      </trkpt>
      <trkpt lat="47.27952" lon="-2.4153">
        <ele>-33.799999237061</ele>
        <time>2019-08-04T09:51:48.000Z</time>
      </trkpt>
      <trkpt lat="47.2796" lon="-2.41509">
        <ele>-33.799999237061</ele>
        <time>2019-08-04T09:51:51.000Z</time>
      </trkpt>
      <trkpt lat="47.27966" lon="-2.41492">
        <ele>-33.799999237061</ele>
        <time>2019-08-04T09:51:53.000Z</time>
      </trkpt>
      <trkpt lat="47.27981" lon="-2.41438">
        <ele>-33.799999237061</ele>
        <time>2019-08-04T09:52:00.000Z</time>
      </trkpt>
      <trkpt lat="47.27985" lon="-2.41421">
        <ele>-33.799999237061</ele>
        <time>2019-08-04T09:52:02.000Z</time>
      </trkpt>
      <trkpt lat="47.27988" lon="-2.41397">
        <ele>-33.799999237061</ele>
        <time>2019-08-04T09:52:05.000Z</time>
      </trkpt>
      <trkpt lat="47.27998" lon="-2.41326">
        <ele>-33.799999237061</ele>
        <time>2019-08-04T09:52:14.000Z</time>
      </trkpt>
      <trkpt lat="47.28006" lon="-2.4128">
        <ele>-33.799999237061</ele>
        <time>2019-08-04T09:52:20.000Z</time>
      </trkpt>
      <trkpt lat="47.28021" lon="-2.41224">
        <ele>-33.799999237061</ele>
        <time>2019-08-04T09:52:27.000Z</time>
      </trkpt>
      <trkpt lat="47.28023" lon="-2.41216">
        <ele>-33.799999237061</ele>
        <time>2019-08-04T09:52:28.000Z</time>
      </trkpt>
      <trkpt lat="47.28031" lon="-2.41187">
        <ele>-33.799999237061</ele>
        <time>2019-08-04T09:52:32.000Z</time>
      </trkpt>
      <trkpt lat="47.28041" lon="-2.41142">
        <ele>-33.799999237061</ele>
        <time>2019-08-04T09:52:38.000Z</time>
      </trkpt>
      <trkpt lat="47.28042" lon="-2.41134">
        <ele>-33.799999237061</ele>
        <time>2019-08-04T09:52:39.000Z</time>
      </trkpt>
      <trkpt lat="47.28048" lon="-2.41097">
        <ele>-33.799999237061</ele>
        <time>2019-08-04T09:52:44.000Z</time>
      </trkpt>
      <trkpt lat="47.2805" lon="-2.4109">
        <ele>-33.799999237061</ele>
        <time>2019-08-04T09:52:45.000Z</time>
      </trkpt>
      <trkpt lat="47.28057" lon="-2.41049">
        <ele>-33.799999237061</ele>
        <time>2019-08-04T09:52:50.000Z</time>
      </trkpt>
      <trkpt lat="47.28059" lon="-2.41041">
        <ele>-33.799999237061</ele>
        <time>2019-08-04T09:52:51.000Z</time>
      </trkpt>
      <trkpt lat="47.28075" lon="-2.40979">
        <ele>-33.799999237061</ele>
        <time>2019-08-04T09:52:59.000Z</time>
      </trkpt>
      <trkpt lat="47.28082" lon="-2.40953">
        <ele>-33.799999237061</ele>
        <time>2019-08-04T09:53:04.000Z</time>
      </trkpt>
      <trkpt lat="47.28086" lon="-2.40935">
        <ele>-33.799999237061</ele>
        <time>2019-08-04T09:53:08.000Z</time>
      </trkpt>
      <trkpt lat="47.28086" lon="-2.4093">
        <ele>-33.799999237061</ele>
        <time>2019-08-04T09:53:09.000Z</time>
      </trkpt>
      <trkpt lat="47.28078" lon="-2.40911">
        <ele>-33.799999237061</ele>
        <time>2019-08-04T09:53:13.000Z</time>
      </trkpt>
      <trkpt lat="47.28063" lon="-2.40877">
        <ele>-33.799999237061</ele>
        <time>2019-08-04T09:53:20.000Z</time>
      </trkpt>
      <trkpt lat="47.28055" lon="-2.40856">
        <ele>-33.799999237061</ele>
        <time>2019-08-04T09:53:26.000Z</time>
      </trkpt>
      <trkpt lat="47.28045" lon="-2.40831">
        <ele>-33.799999237061</ele>
        <time>2019-08-04T09:53:32.000Z</time>
      </trkpt>
      <trkpt lat="47.28037" lon="-2.40818">
        <ele>-33.799999237061</ele>
        <time>2019-08-04T09:53:36.000Z</time>
      </trkpt>
      <trkpt lat="47.28036" lon="-2.40813">
        <ele>-33.799999237061</ele>
        <time>2019-08-04T09:53:37.000Z</time>
      </trkpt>
      <trkpt lat="47.28038" lon="-2.40801">
        <ele>-33.799999237061</ele>
        <time>2019-08-04T09:53:39.000Z</time>
      </trkpt>
      <trkpt lat="47.28044" lon="-2.4077">
        <ele>-33.799999237061</ele>
        <time>2019-08-04T09:53:45.000Z</time>
      </trkpt>
      <trkpt lat="47.28047" lon="-2.40758">
        <ele>-33.799999237061</ele>
        <time>2019-08-04T09:53:47.000Z</time>
      </trkpt>
      <trkpt lat="47.28051" lon="-2.40733">
        <ele>-33.799999237061</ele>
        <time>2019-08-04T09:53:51.000Z</time>
      </trkpt>
      <trkpt lat="47.28056" lon="-2.40703">
        <ele>-33.400001525879</ele>
        <time>2019-08-04T09:53:55.000Z</time>
      </trkpt>
      <trkpt lat="47.28056" lon="-2.40695">
        <ele>-32.799999237061</ele>
        <time>2019-08-04T09:53:56.000Z</time>
      </trkpt>
      <trkpt lat="47.28056" lon="-2.40686">
        <ele>-32.400001525879</ele>
        <time>2019-08-04T09:53:57.000Z</time>
      </trkpt>
      <trkpt lat="47.28056" lon="-2.40678">
        <ele>-32</ele>
        <time>2019-08-04T09:53:58.000Z</time>
      </trkpt>
      <trkpt lat="47.28056" lon="-2.40669">
        <ele>-31.60000038147</ele>
        <time>2019-08-04T09:53:59.000Z</time>
      </trkpt>
      <trkpt lat="47.28051" lon="-2.40633">
        <ele>-31.60000038147</ele>
        <time>2019-08-04T09:54:03.000Z</time>
      </trkpt>
      <trkpt lat="47.28048" lon="-2.40607">
        <ele>-31.60000038147</ele>
        <time>2019-08-04T09:54:06.000Z</time>
      </trkpt>
      <trkpt lat="47.2805" lon="-2.4059">
        <ele>-31.60000038147</ele>
        <time>2019-08-04T09:54:08.000Z</time>
      </trkpt>
      <trkpt lat="47.28055" lon="-2.40573">
        <ele>-31.60000038147</ele>
        <time>2019-08-04T09:54:10.000Z</time>
      </trkpt>
      <trkpt lat="47.28062" lon="-2.40538">
        <ele>-31.60000038147</ele>
        <time>2019-08-04T09:54:14.000Z</time>
      </trkpt>
      <trkpt lat="47.28074" lon="-2.40485">
        <ele>-31.60000038147</ele>
        <time>2019-08-04T09:54:20.000Z</time>
      </trkpt>
      <trkpt lat="47.28077" lon="-2.40477">
        <ele>-31.60000038147</ele>
        <time>2019-08-04T09:54:21.000Z</time>
      </trkpt>
      <trkpt lat="47.2809" lon="-2.40457">
        <ele>-31.60000038147</ele>
        <time>2019-08-04T09:54:24.000Z</time>
      </trkpt>
      <trkpt lat="47.28094" lon="-2.4045">
        <ele>-31.60000038147</ele>
        <time>2019-08-04T09:54:25.000Z</time>
      </trkpt>
      <trkpt lat="47.28105" lon="-2.40428">
        <ele>-31.60000038147</ele>
        <time>2019-08-04T09:54:28.000Z</time>
      </trkpt>
      <trkpt lat="47.28109" lon="-2.40411">
        <ele>-31.60000038147</ele>
        <time>2019-08-04T09:54:30.000Z</time>
      </trkpt>
      <trkpt lat="47.28112" lon="-2.40391">
        <ele>-31.60000038147</ele>
        <time>2019-08-04T09:54:32.000Z</time>
      </trkpt>
      <trkpt lat="47.28116" lon="-2.40357">
        <ele>-31.60000038147</ele>
        <time>2019-08-04T09:54:36.000Z</time>
      </trkpt>
      <trkpt lat="47.28123" lon="-2.40299">
        <ele>-31.60000038147</ele>
        <time>2019-08-04T09:54:44.000Z</time>
      </trkpt>
      <trkpt lat="47.28128" lon="-2.4026">
        <ele>-31.60000038147</ele>
        <time>2019-08-04T09:54:51.000Z</time>
      </trkpt>
      <trkpt lat="47.28129" lon="-2.40257">
        <ele>-31.60000038147</ele>
        <time>2019-08-04T09:54:54.000Z</time>
      </trkpt>
      <trkpt lat="47.28129" lon="-2.40257">
        <ele>-31.60000038147</ele>
        <time>2019-08-04T09:54:55.000Z</time>
      </trkpt>
      <trkpt lat="47.2813" lon="-2.40254">
        <ele>-31.60000038147</ele>
        <time>2019-08-04T09:55:16.000Z</time>
      </trkpt>
      <trkpt lat="47.28131" lon="-2.40249">
        <ele>-31.60000038147</ele>
        <time>2019-08-04T09:55:18.000Z</time>
      </trkpt>
      <trkpt lat="47.28132" lon="-2.40226">
        <ele>-31.60000038147</ele>
        <time>2019-08-04T09:55:22.000Z</time>
      </trkpt>
      <trkpt lat="47.28136" lon="-2.40186">
        <ele>-31.60000038147</ele>
        <time>2019-08-04T09:55:27.000Z</time>
      </trkpt>
      <trkpt lat="47.28142" lon="-2.40122">
        <ele>-31.60000038147</ele>
        <time>2019-08-04T09:55:34.000Z</time>
      </trkpt>
      <trkpt lat="47.28148" lon="-2.40037">
        <ele>-31.60000038147</ele>
        <time>2019-08-04T09:55:43.000Z</time>
      </trkpt>
      <trkpt lat="47.28151" lon="-2.40009">
        <ele>-31.60000038147</ele>
        <time>2019-08-04T09:55:47.000Z</time>
      </trkpt>
      <trkpt lat="47.28153" lon="-2.39991">
        <ele>-31.60000038147</ele>
        <time>2019-08-04T09:55:50.000Z</time>
      </trkpt>
      <trkpt lat="47.28156" lon="-2.39976">
        <ele>-31.60000038147</ele>
        <time>2019-08-04T09:55:52.000Z</time>
      </trkpt>
      <trkpt lat="47.28157" lon="-2.39968">
        <ele>-31.60000038147</ele>
        <time>2019-08-04T09:55:53.000Z</time>
      </trkpt>
      <trkpt lat="47.28156" lon="-2.3994">
        <ele>-31.60000038147</ele>
        <time>2019-08-04T09:55:56.000Z</time>
      </trkpt>
      <trkpt lat="47.28157" lon="-2.39931">
        <ele>-31.60000038147</ele>
        <time>2019-08-04T09:55:57.000Z</time>
      </trkpt>
      <trkpt lat="47.2816" lon="-2.39894">
        <ele>-31.60000038147</ele>
        <time>2019-08-04T09:56:01.000Z</time>
      </trkpt>
      <trkpt lat="47.28161" lon="-2.39874">
        <ele>-31.60000038147</ele>
        <time>2019-08-04T09:56:03.000Z</time>
      </trkpt>
      <trkpt lat="47.28164" lon="-2.39835">
        <ele>-31.60000038147</ele>
        <time>2019-08-04T09:56:07.000Z</time>
      </trkpt>
      <trkpt lat="47.28168" lon="-2.39765">
        <ele>-31.60000038147</ele>
        <time>2019-08-04T09:56:14.000Z</time>
      </trkpt>
      <trkpt lat="47.2817" lon="-2.39715">
        <ele>-31.200000762939</ele>
        <time>2019-08-04T09:56:19.000Z</time>
      </trkpt>
      <trkpt lat="47.2817" lon="-2.39705">
        <ele>-30.799999237061</ele>
        <time>2019-08-04T09:56:20.000Z</time>
      </trkpt>
      <trkpt lat="47.28171" lon="-2.39695">
        <ele>-30.39999961853</ele>
        <time>2019-08-04T09:56:21.000Z</time>
      </trkpt>
      <trkpt lat="47.28171" lon="-2.39686">
        <ele>-30</ele>
        <time>2019-08-04T09:56:22.000Z</time>
      </trkpt>
      <trkpt lat="47.28171" lon="-2.39677">
        <ele>-29.39999961853</ele>
        <time>2019-08-04T09:56:23.000Z</time>
      </trkpt>
      <trkpt lat="47.28171" lon="-2.39667">
        <ele>-29.39999961853</ele>
        <time>2019-08-04T09:56:25.000Z</time>
      </trkpt>
      <trkpt lat="47.28171" lon="-2.39657">
        <ele>-29.39999961853</ele>
        <time>2019-08-04T09:56:29.000Z</time>
      </trkpt>
      <trkpt lat="47.28172" lon="-2.39641">
        <ele>-29.39999961853</ele>
        <time>2019-08-04T09:56:35.000Z</time>
      </trkpt>
      <trkpt lat="47.28173" lon="-2.39616">
        <ele>-29.39999961853</ele>
        <time>2019-08-04T09:56:39.000Z</time>
      </trkpt>
      <trkpt lat="47.28176" lon="-2.39567">
        <ele>-29.39999961853</ele>
        <time>2019-08-04T09:56:45.000Z</time>
      </trkpt>
      <trkpt lat="47.28176" lon="-2.39506">
        <ele>-29.39999961853</ele>
        <time>2019-08-04T09:56:52.000Z</time>
      </trkpt>
      <trkpt lat="47.28177" lon="-2.39448">
        <ele>-29.39999961853</ele>
        <time>2019-08-04T09:56:59.000Z</time>
      </trkpt>
      <trkpt lat="47.28176" lon="-2.39392">
        <ele>-29.39999961853</ele>
        <time>2019-08-04T09:57:05.000Z</time>
      </trkpt>
      <trkpt lat="47.28176" lon="-2.39326">
        <ele>-29.39999961853</ele>
        <time>2019-08-04T09:57:12.000Z</time>
      </trkpt>
      <trkpt lat="47.28176" lon="-2.39268">
        <ele>-29.39999961853</ele>
        <time>2019-08-04T09:57:19.000Z</time>
      </trkpt>
      <trkpt lat="47.28176" lon="-2.39255">
        <ele>-29.39999961853</ele>
        <time>2019-08-04T09:57:23.000Z</time>
      </trkpt>
      <trkpt lat="47.28176" lon="-2.39252">
        <ele>-29.39999961853</ele>
        <time>2019-08-04T09:57:26.000Z</time>
      </trkpt>
      <trkpt lat="47.28176" lon="-2.3925">
        <ele>-29.39999961853</ele>
        <time>2019-08-04T09:57:56.000Z</time>
      </trkpt>
      <trkpt lat="47.28175" lon="-2.39246">
        <ele>-29.39999961853</ele>
        <time>2019-08-04T09:57:57.000Z</time>
      </trkpt>
      <trkpt lat="47.28174" lon="-2.39223">
        <ele>-29.39999961853</ele>
        <time>2019-08-04T09:58:01.000Z</time>
      </trkpt>
      <trkpt lat="47.28171" lon="-2.39178">
        <ele>-29.39999961853</ele>
        <time>2019-08-04T09:58:06.000Z</time>
      </trkpt>
      <trkpt lat="47.28167" lon="-2.39098">
        <ele>-29.39999961853</ele>
        <time>2019-08-04T09:58:14.000Z</time>
      </trkpt>
      <trkpt lat="47.28164" lon="-2.39055">
        <ele>-29.39999961853</ele>
        <time>2019-08-04T09:58:18.000Z</time>
      </trkpt>
      <trkpt lat="47.2816" lon="-2.39032">
        <ele>-29.39999961853</ele>
        <time>2019-08-04T09:58:20.000Z</time>
      </trkpt>
      <trkpt lat="47.28154" lon="-2.38966">
        <ele>-29.39999961853</ele>
        <time>2019-08-04T09:58:26.000Z</time>
      </trkpt>
      <trkpt lat="47.28138" lon="-2.389">
        <ele>-29.39999961853</ele>
        <time>2019-08-04T09:58:32.000Z</time>
      </trkpt>
      <trkpt lat="47.28137" lon="-2.38889">
        <ele>-29.39999961853</ele>
        <time>2019-08-04T09:58:33.000Z</time>
      </trkpt>
      <trkpt lat="47.28132" lon="-2.38842">
        <ele>-29.39999961853</ele>
        <time>2019-08-04T09:58:37.000Z</time>
      </trkpt>
      <trkpt lat="47.28124" lon="-2.38775">
        <ele>-29.39999961853</ele>
        <time>2019-08-04T09:58:43.000Z</time>
      </trkpt>
      <trkpt lat="47.28116" lon="-2.38688">
        <ele>-29.39999961853</ele>
        <time>2019-08-04T09:58:51.000Z</time>
      </trkpt>
      <trkpt lat="47.28115" lon="-2.38679">
        <ele>-29.39999961853</ele>
        <time>2019-08-04T09:58:52.000Z</time>
      </trkpt>
      <trkpt lat="47.28109" lon="-2.38616">
        <ele>-29.39999961853</ele>
        <time>2019-08-04T09:58:58.000Z</time>
      </trkpt>
      <trkpt lat="47.28106" lon="-2.38584">
        <ele>-29.39999961853</ele>
        <time>2019-08-04T09:59:01.000Z</time>
      </trkpt>
      <trkpt lat="47.28096" lon="-2.38499">
        <ele>-29.39999961853</ele>
        <time>2019-08-04T09:59:09.000Z</time>
      </trkpt>
      <trkpt lat="47.28094" lon="-2.38489">
        <ele>-29.39999961853</ele>
        <time>2019-08-04T09:59:10.000Z</time>
      </trkpt>
      <trkpt lat="47.28078" lon="-2.38403">
        <ele>-29.39999961853</ele>
        <time>2019-08-04T09:59:18.000Z</time>
      </trkpt>
      <trkpt lat="47.28064" lon="-2.38325">
        <ele>-29.39999961853</ele>
        <time>2019-08-04T09:59:25.000Z</time>
      </trkpt>
      <trkpt lat="47.2805" lon="-2.38247">
        <ele>-29.39999961853</ele>
        <time>2019-08-04T09:59:32.000Z</time>
      </trkpt>
      <trkpt lat="47.28046" lon="-2.38225">
        <ele>-29.39999961853</ele>
        <time>2019-08-04T09:59:34.000Z</time>
      </trkpt>
      <trkpt lat="47.28031" lon="-2.38149">
        <ele>-29.39999961853</ele>
        <time>2019-08-04T09:59:41.000Z</time>
      </trkpt>
      <trkpt lat="47.28027" lon="-2.38128">
        <ele>-29.39999961853</ele>
        <time>2019-08-04T09:59:43.000Z</time>
      </trkpt>
      <trkpt lat="47.28013" lon="-2.38043">
        <ele>-29.39999961853</ele>
        <time>2019-08-04T09:59:51.000Z</time>
      </trkpt>
      <trkpt lat="47.28008" lon="-2.38022">
        <ele>-29.39999961853</ele>
        <time>2019-08-04T09:59:53.000Z</time>
      </trkpt>
      <trkpt lat="47.27998" lon="-2.3798">
        <ele>-29.39999961853</ele>
        <time>2019-08-04T09:59:57.000Z</time>
      </trkpt>
      <trkpt lat="47.27994" lon="-2.37959">
        <ele>-29.39999961853</ele>
        <time>2019-08-04T09:59:59.000Z</time>
      </trkpt>
      <trkpt lat="47.27983" lon="-2.37893">
        <ele>-29.39999961853</ele>
        <time>2019-08-04T10:00:05.000Z</time>
      </trkpt>
      <trkpt lat="47.27978" lon="-2.37872">
        <ele>-29.39999961853</ele>
        <time>2019-08-04T10:00:07.000Z</time>
      </trkpt>
      <trkpt lat="47.27969" lon="-2.37822">
        <ele>-29.39999961853</ele>
        <time>2019-08-04T10:00:12.000Z</time>
      </trkpt>
      <trkpt lat="47.27963" lon="-2.37785">
        <ele>-29.39999961853</ele>
        <time>2019-08-04T10:00:16.000Z</time>
      </trkpt>
      <trkpt lat="47.27961" lon="-2.37775">
        <ele>-29.39999961853</ele>
        <time>2019-08-04T10:00:17.000Z</time>
      </trkpt>
      <trkpt lat="47.27958" lon="-2.37766">
        <ele>-29.39999961853</ele>
        <time>2019-08-04T10:00:18.000Z</time>
      </trkpt>
      <trkpt lat="47.27952" lon="-2.37746">
        <ele>-29.39999961853</ele>
        <time>2019-08-04T10:00:20.000Z</time>
      </trkpt>
      <trkpt lat="47.2795" lon="-2.37736">
        <ele>-29.39999961853</ele>
        <time>2019-08-04T10:00:21.000Z</time>
      </trkpt>
      <trkpt lat="47.27931" lon="-2.37653">
        <ele>-29.39999961853</ele>
        <time>2019-08-04T10:00:29.000Z</time>
      </trkpt>
      <trkpt lat="47.27929" lon="-2.37642">
        <ele>-29.39999961853</ele>
        <time>2019-08-04T10:00:30.000Z</time>
      </trkpt>
      <trkpt lat="47.2791" lon="-2.37565">
        <ele>-29.39999961853</ele>
        <time>2019-08-04T10:00:37.000Z</time>
      </trkpt>
      <trkpt lat="47.27905" lon="-2.37542">
        <ele>-29.39999961853</ele>
        <time>2019-08-04T10:00:39.000Z</time>
      </trkpt>
      <trkpt lat="47.27886" lon="-2.37462">
        <ele>-29</ele>
        <time>2019-08-04T10:00:46.000Z</time>
      </trkpt>
      <trkpt lat="47.27883" lon="-2.37451">
        <ele>-28.60000038147</ele>
        <time>2019-08-04T10:00:47.000Z</time>
      </trkpt>
      <trkpt lat="47.2788" lon="-2.3744">
        <ele>-28.200000762939</ele>
        <time>2019-08-04T10:00:48.000Z</time>
      </trkpt>
      <trkpt lat="47.27877" lon="-2.37428">
        <ele>-27.799999237061</ele>
        <time>2019-08-04T10:00:49.000Z</time>
      </trkpt>
      <trkpt lat="47.27875" lon="-2.37417">
        <ele>-27.39999961853</ele>
        <time>2019-08-04T10:00:50.000Z</time>
      </trkpt>
      <trkpt lat="47.2786" lon="-2.3736">
        <ele>-27.39999961853</ele>
        <time>2019-08-04T10:00:55.000Z</time>
      </trkpt>
      <trkpt lat="47.27839" lon="-2.37284">
        <ele>-27.39999961853</ele>
        <time>2019-08-04T10:01:02.000Z</time>
      </trkpt>
      <trkpt lat="47.27834" lon="-2.37264">
        <ele>-27.39999961853</ele>
        <time>2019-08-04T10:01:04.000Z</time>
      </trkpt>
      <trkpt lat="47.27823" lon="-2.37214">
        <ele>-27.39999961853</ele>
        <time>2019-08-04T10:01:09.000Z</time>
      </trkpt>
      <trkpt lat="47.2782" lon="-2.37206">
        <ele>-27.39999961853</ele>
        <time>2019-08-04T10:01:10.000Z</time>
      </trkpt>
      <trkpt lat="47.27815" lon="-2.3718">
        <ele>-27.39999961853</ele>
        <time>2019-08-04T10:01:13.000Z</time>
      </trkpt>
      <trkpt lat="47.27813" lon="-2.3717">
        <ele>-27.39999961853</ele>
        <time>2019-08-04T10:01:14.000Z</time>
      </trkpt>
      <trkpt lat="47.27807" lon="-2.37152">
        <ele>-27.39999961853</ele>
        <time>2019-08-04T10:01:16.000Z</time>
      </trkpt>
      <trkpt lat="47.27793" lon="-2.371">
        <ele>-27.39999961853</ele>
        <time>2019-08-04T10:01:21.000Z</time>
      </trkpt>
      <trkpt lat="47.27778" lon="-2.37045">
        <ele>-27.39999961853</ele>
        <time>2019-08-04T10:01:26.000Z</time>
      </trkpt>
      <trkpt lat="47.27755" lon="-2.36967">
        <ele>-27.39999961853</ele>
        <time>2019-08-04T10:01:33.000Z</time>
      </trkpt>
      <trkpt lat="47.27732" lon="-2.36889">
        <ele>-27.39999961853</ele>
        <time>2019-08-04T10:01:40.000Z</time>
      </trkpt>
      <trkpt lat="47.27729" lon="-2.36878">
        <ele>-27.39999961853</ele>
        <time>2019-08-04T10:01:41.000Z</time>
      </trkpt>
      <trkpt lat="47.27706" lon="-2.368">
        <ele>-27.39999961853</ele>
        <time>2019-08-04T10:01:48.000Z</time>
      </trkpt>
      <trkpt lat="47.27702" lon="-2.36789">
        <ele>-27.39999961853</ele>
        <time>2019-08-04T10:01:49.000Z</time>
      </trkpt>
      <trkpt lat="47.27677" lon="-2.36713">
        <ele>-27.39999961853</ele>
        <time>2019-08-04T10:01:56.000Z</time>
      </trkpt>
      <trkpt lat="47.27669" lon="-2.36691">
        <ele>-27.39999961853</ele>
        <time>2019-08-04T10:01:58.000Z</time>
      </trkpt>
      <trkpt lat="47.27643" lon="-2.36614">
        <ele>-27.39999961853</ele>
        <time>2019-08-04T10:02:05.000Z</time>
      </trkpt>
      <trkpt lat="47.27617" lon="-2.36535">
        <ele>-27.39999961853</ele>
        <time>2019-08-04T10:02:12.000Z</time>
      </trkpt>
      <trkpt lat="47.27597" lon="-2.36479">
        <ele>-27.39999961853</ele>
        <time>2019-08-04T10:02:17.000Z</time>
      </trkpt>
      <trkpt lat="47.27592" lon="-2.36469">
        <ele>-27.39999961853</ele>
        <time>2019-08-04T10:02:18.000Z</time>
      </trkpt>
      <trkpt lat="47.27583" lon="-2.36447">
        <ele>-27.39999961853</ele>
        <time>2019-08-04T10:02:20.000Z</time>
      </trkpt>
      <trkpt lat="47.27571" lon="-2.36413">
        <ele>-27.39999961853</ele>
        <time>2019-08-04T10:02:23.000Z</time>
      </trkpt>
      <trkpt lat="47.27563" lon="-2.36392">
        <ele>-27.39999961853</ele>
        <time>2019-08-04T10:02:25.000Z</time>
      </trkpt>
      <trkpt lat="47.27552" lon="-2.36361">
        <ele>-27.39999961853</ele>
        <time>2019-08-04T10:02:28.000Z</time>
      </trkpt>
      <trkpt lat="47.27527" lon="-2.36295">
        <ele>-27.39999961853</ele>
        <time>2019-08-04T10:02:34.000Z</time>
      </trkpt>
      <trkpt lat="47.27497" lon="-2.36219">
        <ele>-27.39999961853</ele>
        <time>2019-08-04T10:02:41.000Z</time>
      </trkpt>
      <trkpt lat="47.27489" lon="-2.36197">
        <ele>-27.39999961853</ele>
        <time>2019-08-04T10:02:43.000Z</time>
      </trkpt>
      <trkpt lat="47.27463" lon="-2.36125">
        <ele>-27.39999961853</ele>
        <time>2019-08-04T10:02:50.000Z</time>
      </trkpt>
      <trkpt lat="47.27457" lon="-2.36106">
        <ele>-27.39999961853</ele>
        <time>2019-08-04T10:02:52.000Z</time>
      </trkpt>
      <trkpt lat="47.27448" lon="-2.3609">
        <ele>-27.39999961853</ele>
        <time>2019-08-04T10:02:54.000Z</time>
      </trkpt>
      <trkpt lat="47.27442" lon="-2.36072">
        <ele>-27.39999961853</ele>
        <time>2019-08-04T10:02:56.000Z</time>
      </trkpt>
      <trkpt lat="47.2744" lon="-2.36062">
        <ele>-27.39999961853</ele>
        <time>2019-08-04T10:02:57.000Z</time>
      </trkpt>
      <trkpt lat="47.2742" lon="-2.36015">
        <ele>-27.39999961853</ele>
        <time>2019-08-04T10:03:02.000Z</time>
      </trkpt>
      <trkpt lat="47.27412" lon="-2.35995">
        <ele>-27.39999961853</ele>
        <time>2019-08-04T10:03:04.000Z</time>
      </trkpt>
      <trkpt lat="47.27399" lon="-2.35966">
        <ele>-27.39999961853</ele>
        <time>2019-08-04T10:03:07.000Z</time>
      </trkpt>
      <trkpt lat="47.27394" lon="-2.35955">
        <ele>-27.39999961853</ele>
        <time>2019-08-04T10:03:08.000Z</time>
      </trkpt>
      <trkpt lat="47.27365" lon="-2.35882">
        <ele>-27.39999961853</ele>
        <time>2019-08-04T10:03:15.000Z</time>
      </trkpt>
      <trkpt lat="47.27356" lon="-2.3586">
        <ele>-27.39999961853</ele>
        <time>2019-08-04T10:03:17.000Z</time>
      </trkpt>
      <trkpt lat="47.27335" lon="-2.35807">
        <ele>-27.799999237061</ele>
        <time>2019-08-04T10:03:22.000Z</time>
      </trkpt>
      <trkpt lat="47.27331" lon="-2.35797">
        <ele>-28.60000038147</ele>
        <time>2019-08-04T10:03:23.000Z</time>
      </trkpt>
      <trkpt lat="47.27327" lon="-2.35787">
        <ele>-29</ele>
        <time>2019-08-04T10:03:24.000Z</time>
      </trkpt>
      <trkpt lat="47.27324" lon="-2.35775">
        <ele>-29.39999961853</ele>
        <time>2019-08-04T10:03:25.000Z</time>
      </trkpt>
      <trkpt lat="47.27321" lon="-2.35765">
        <ele>-29.39999961853</ele>
        <time>2019-08-04T10:03:26.000Z</time>
      </trkpt>
      <trkpt lat="47.27311" lon="-2.35748">
        <ele>-29.39999961853</ele>
        <time>2019-08-04T10:03:28.000Z</time>
      </trkpt>
      <trkpt lat="47.27307" lon="-2.35739">
        <ele>-29.39999961853</ele>
        <time>2019-08-04T10:03:29.000Z</time>
      </trkpt>
      <trkpt lat="47.27301" lon="-2.3572">
        <ele>-29.39999961853</ele>
        <time>2019-08-04T10:03:31.000Z</time>
      </trkpt>
      <trkpt lat="47.27297" lon="-2.3571">
        <ele>-29.39999961853</ele>
        <time>2019-08-04T10:03:32.000Z</time>
      </trkpt>
      <trkpt lat="47.27285" lon="-2.35683">
        <ele>-29.39999961853</ele>
        <time>2019-08-04T10:03:35.000Z</time>
      </trkpt>
      <trkpt lat="47.27259" lon="-2.35626">
        <ele>-29.39999961853</ele>
        <time>2019-08-04T10:03:41.000Z</time>
      </trkpt>
      <trkpt lat="47.27232" lon="-2.35566">
        <ele>-29.39999961853</ele>
        <time>2019-08-04T10:03:47.000Z</time>
      </trkpt>
      <trkpt lat="47.27198" lon="-2.3549">
        <ele>-29.39999961853</ele>
        <time>2019-08-04T10:03:54.000Z</time>
      </trkpt>
      <trkpt lat="47.27164" lon="-2.35425">
        <ele>-29.39999961853</ele>
        <time>2019-08-04T10:04:00.000Z</time>
      </trkpt>
      <trkpt lat="47.27158" lon="-2.35414">
        <ele>-29.39999961853</ele>
        <time>2019-08-04T10:04:01.000Z</time>
      </trkpt>
      <trkpt lat="47.27122" lon="-2.3535">
        <ele>-29.39999961853</ele>
        <time>2019-08-04T10:04:07.000Z</time>
      </trkpt>
      <trkpt lat="47.27084" lon="-2.35288">
        <ele>-29.39999961853</ele>
        <time>2019-08-04T10:04:13.000Z</time>
      </trkpt>
      <trkpt lat="47.27071" lon="-2.35269">
        <ele>-29.39999961853</ele>
        <time>2019-08-04T10:04:15.000Z</time>
      </trkpt>
      <trkpt lat="47.27032" lon="-2.35209">
        <ele>-29.39999961853</ele>
        <time>2019-08-04T10:04:21.000Z</time>
      </trkpt>
      <trkpt lat="47.27025" lon="-2.35198">
        <ele>-29.39999961853</ele>
        <time>2019-08-04T10:04:22.000Z</time>
      </trkpt>
      <trkpt lat="47.26986" lon="-2.35139">
        <ele>-29.39999961853</ele>
        <time>2019-08-04T10:04:28.000Z</time>
      </trkpt>
      <trkpt lat="47.26974" lon="-2.35121">
        <ele>-29.39999961853</ele>
        <time>2019-08-04T10:04:30.000Z</time>
      </trkpt>
      <trkpt lat="47.26961" lon="-2.351">
        <ele>-29.39999961853</ele>
        <time>2019-08-04T10:04:33.000Z</time>
      </trkpt>
      <trkpt lat="47.2695" lon="-2.35082">
        <ele>-29.39999961853</ele>
        <time>2019-08-04T10:04:37.000Z</time>
      </trkpt>
      <trkpt lat="47.26943" lon="-2.35071">
        <ele>-29.39999961853</ele>
        <time>2019-08-04T10:04:39.000Z</time>
      </trkpt>
      <trkpt lat="47.26929" lon="-2.35054">
        <ele>-29.39999961853</ele>
        <time>2019-08-04T10:04:42.000Z</time>
      </trkpt>
      <trkpt lat="47.26894" lon="-2.35002">
        <ele>-29.39999961853</ele>
        <time>2019-08-04T10:04:49.000Z</time>
      </trkpt>
      <trkpt lat="47.26852" lon="-2.34937">
        <ele>-29.39999961853</ele>
        <time>2019-08-04T10:04:57.000Z</time>
      </trkpt>
      <trkpt lat="47.26846" lon="-2.34929">
        <ele>-29.39999961853</ele>
        <time>2019-08-04T10:04:58.000Z</time>
      </trkpt>
      <trkpt lat="47.26812" lon="-2.34878">
        <ele>-29.39999961853</ele>
        <time>2019-08-04T10:05:04.000Z</time>
      </trkpt>
      <trkpt lat="47.26773" lon="-2.34822">
        <ele>-29.39999961853</ele>
        <time>2019-08-04T10:05:11.000Z</time>
      </trkpt>
      <trkpt lat="47.26767" lon="-2.34815">
        <ele>-29.39999961853</ele>
        <time>2019-08-04T10:05:12.000Z</time>
      </trkpt>
      <trkpt lat="47.26763" lon="-2.34808">
        <ele>-29.39999961853</ele>
        <time>2019-08-04T10:05:13.000Z</time>
      </trkpt>
      <trkpt lat="47.26747" lon="-2.34786">
        <ele>-29.39999961853</ele>
        <time>2019-08-04T10:05:16.000Z</time>
      </trkpt>
      <trkpt lat="47.26701" lon="-2.34728">
        <ele>-29.39999961853</ele>
        <time>2019-08-04T10:05:24.000Z</time>
      </trkpt>
      <trkpt lat="47.26667" lon="-2.34689">
        <ele>-29.39999961853</ele>
        <time>2019-08-04T10:05:30.000Z</time>
      </trkpt>
      <trkpt lat="47.26631" lon="-2.34643">
        <ele>-29.39999961853</ele>
        <time>2019-08-04T10:05:37.000Z</time>
      </trkpt>
      <trkpt lat="47.26612" lon="-2.34618">
        <ele>-29.39999961853</ele>
        <time>2019-08-04T10:05:42.000Z</time>
      </trkpt>
      <trkpt lat="47.2658" lon="-2.34584">
        <ele>-29.39999961853</ele>
        <time>2019-08-04T10:05:49.000Z</time>
      </trkpt>
      <trkpt lat="47.26531" lon="-2.34532">
        <ele>-29.39999961853</ele>
        <time>2019-08-04T10:05:58.000Z</time>
      </trkpt>
      <trkpt lat="47.26493" lon="-2.34502">
        <ele>-29.39999961853</ele>
        <time>2019-08-04T10:06:04.000Z</time>
      </trkpt>
      <trkpt lat="47.26454" lon="-2.3447">
        <ele>-29.39999961853</ele>
        <time>2019-08-04T10:06:10.000Z</time>
      </trkpt>
      <trkpt lat="47.26414" lon="-2.34442">
        <ele>-29.39999961853</ele>
        <time>2019-08-04T10:06:16.000Z</time>
      </trkpt>
      <trkpt lat="47.26393" lon="-2.34429">
        <ele>-29.39999961853</ele>
        <time>2019-08-04T10:06:19.000Z</time>
      </trkpt>
      <trkpt lat="47.2638" lon="-2.34418">
        <ele>-29.39999961853</ele>
        <time>2019-08-04T10:06:21.000Z</time>
      </trkpt>
      <trkpt lat="47.26335" lon="-2.3438">
        <ele>-29.39999961853</ele>
        <time>2019-08-04T10:06:28.000Z</time>
      </trkpt>
      <trkpt lat="47.26309" lon="-2.34357">
        <ele>-29.39999961853</ele>
        <time>2019-08-04T10:06:32.000Z</time>
      </trkpt>
      <trkpt lat="47.26271" lon="-2.34315">
        <ele>-29.39999961853</ele>
        <time>2019-08-04T10:06:38.000Z</time>
      </trkpt>
      <trkpt lat="47.26226" lon="-2.34266">
        <ele>-29.39999961853</ele>
        <time>2019-08-04T10:06:45.000Z</time>
      </trkpt>
      <trkpt lat="47.2622" lon="-2.34259">
        <ele>-29.39999961853</ele>
        <time>2019-08-04T10:06:46.000Z</time>
      </trkpt>
      <trkpt lat="47.26181" lon="-2.34216">
        <ele>-29.39999961853</ele>
        <time>2019-08-04T10:06:52.000Z</time>
      </trkpt>
      <trkpt lat="47.2615" lon="-2.34187">
        <ele>-29.39999961853</ele>
        <time>2019-08-04T10:06:57.000Z</time>
      </trkpt>
      <trkpt lat="47.26143" lon="-2.34183">
        <ele>-29.39999961853</ele>
        <time>2019-08-04T10:06:58.000Z</time>
      </trkpt>
      <trkpt lat="47.26123" lon="-2.34168">
        <ele>-29.39999961853</ele>
        <time>2019-08-04T10:07:01.000Z</time>
      </trkpt>
      <trkpt lat="47.26116" lon="-2.34163">
        <ele>-29.39999961853</ele>
        <time>2019-08-04T10:07:02.000Z</time>
      </trkpt>
      <trkpt lat="47.2608" lon="-2.34144">
        <ele>-29.39999961853</ele>
        <time>2019-08-04T10:07:07.000Z</time>
      </trkpt>
      <trkpt lat="47.2603" lon="-2.3412">
        <ele>-29.39999961853</ele>
        <time>2019-08-04T10:07:14.000Z</time>
      </trkpt>
      <trkpt lat="47.25997" lon="-2.34102">
        <ele>-29.39999961853</ele>
        <time>2019-08-04T10:07:19.000Z</time>
      </trkpt>
      <trkpt lat="47.2599" lon="-2.34099">
        <ele>-30</ele>
        <time>2019-08-04T10:07:20.000Z</time>
      </trkpt>
      <trkpt lat="47.25983" lon="-2.34096">
        <ele>-30.39999961853</ele>
        <time>2019-08-04T10:07:21.000Z</time>
      </trkpt>
      <trkpt lat="47.25977" lon="-2.34093">
        <ele>-30.799999237061</ele>
        <time>2019-08-04T10:07:22.000Z</time>
      </trkpt>
      <trkpt lat="47.25971" lon="-2.3409">
        <ele>-31.200000762939</ele>
        <time>2019-08-04T10:07:23.000Z</time>
      </trkpt>
      <trkpt lat="47.25965" lon="-2.34087">
        <ele>-31.799999237061</ele>
        <time>2019-08-04T10:07:24.000Z</time>
      </trkpt>
      <trkpt lat="47.2596" lon="-2.34084">
        <ele>-31.799999237061</ele>
        <time>2019-08-04T10:07:25.000Z</time>
      </trkpt>
      <trkpt lat="47.25939" lon="-2.34075">
        <ele>-31.799999237061</ele>
        <time>2019-08-04T10:07:29.000Z</time>
      </trkpt>
      <trkpt lat="47.25929" lon="-2.34074">
        <ele>-31.799999237061</ele>
        <time>2019-08-04T10:07:31.000Z</time>
      </trkpt>
      <trkpt lat="47.25913" lon="-2.34073">
        <ele>-31.799999237061</ele>
        <time>2019-08-04T10:07:34.000Z</time>
      </trkpt>
      <trkpt lat="47.25907" lon="-2.34069">
        <ele>-31.799999237061</ele>
        <time>2019-08-04T10:07:35.000Z</time>
      </trkpt>
      <trkpt lat="47.259" lon="-2.34046">
        <ele>-31.799999237061</ele>
        <time>2019-08-04T10:07:38.000Z</time>
      </trkpt>
      <trkpt lat="47.25906" lon="-2.34016">
        <ele>-31.799999237061</ele>
        <time>2019-08-04T10:07:41.000Z</time>
      </trkpt>
      <trkpt lat="47.25912" lon="-2.33986">
        <ele>-31.799999237061</ele>
        <time>2019-08-04T10:07:44.000Z</time>
      </trkpt>
      <trkpt lat="47.25919" lon="-2.33968">
        <ele>-31.799999237061</ele>
        <time>2019-08-04T10:07:46.000Z</time>
      </trkpt>
      <trkpt lat="47.2593" lon="-2.33944">
        <ele>-31.799999237061</ele>
        <time>2019-08-04T10:07:49.000Z</time>
      </trkpt>
      <trkpt lat="47.25931" lon="-2.33936">
        <ele>-31.799999237061</ele>
        <time>2019-08-04T10:07:50.000Z</time>
      </trkpt>
      <trkpt lat="47.25928" lon="-2.33913">
        <ele>-31.799999237061</ele>
        <time>2019-08-04T10:07:53.000Z</time>
      </trkpt>
      <trkpt lat="47.25917" lon="-2.33899">
        <ele>-31.799999237061</ele>
        <time>2019-08-04T10:07:56.000Z</time>
      </trkpt>
      <trkpt lat="47.25893" lon="-2.33881">
        <ele>-31.799999237061</ele>
        <time>2019-08-04T10:08:01.000Z</time>
      </trkpt>
      <trkpt lat="47.25888" lon="-2.33878">
        <ele>-31.799999237061</ele>
        <time>2019-08-04T10:08:02.000Z</time>
      </trkpt>
      <trkpt lat="47.25867" lon="-2.33872">
        <ele>-31.799999237061</ele>
        <time>2019-08-04T10:08:05.000Z</time>
      </trkpt>
      <trkpt lat="47.25826" lon="-2.33857">
        <ele>-31.799999237061</ele>
        <time>2019-08-04T10:08:11.000Z</time>
      </trkpt>
      <trkpt lat="47.25796" lon="-2.33843">
        <ele>-31.799999237061</ele>
        <time>2019-08-04T10:08:17.000Z</time>
      </trkpt>
      <trkpt lat="47.25788" lon="-2.33839">
        <ele>-31.799999237061</ele>
        <time>2019-08-04T10:08:19.000Z</time>
      </trkpt>
      <trkpt lat="47.25775" lon="-2.33833">
        <ele>-31.799999237061</ele>
        <time>2019-08-04T10:08:22.000Z</time>
      </trkpt>
      <trkpt lat="47.25739" lon="-2.33816">
        <ele>-31.799999237061</ele>
        <time>2019-08-04T10:08:30.000Z</time>
      </trkpt>
      <trkpt lat="47.2572" lon="-2.33808">
        <ele>-31.799999237061</ele>
        <time>2019-08-04T10:08:35.000Z</time>
      </trkpt>
      <trkpt lat="47.25717" lon="-2.33807">
        <ele>-31.799999237061</ele>
        <time>2019-08-04T10:08:38.000Z</time>
      </trkpt>
      <trkpt lat="47.25716" lon="-2.33806">
        <ele>-31.799999237061</ele>
        <time>2019-08-04T10:08:48.000Z</time>
      </trkpt>
      <trkpt lat="47.25703" lon="-2.33801">
        <ele>-31.799999237061</ele>
        <time>2019-08-04T10:08:53.000Z</time>
      </trkpt>
      <trkpt lat="47.25685" lon="-2.33794">
        <ele>-31.799999237061</ele>
        <time>2019-08-04T10:08:57.000Z</time>
      </trkpt>
      <trkpt lat="47.2568" lon="-2.33791">
        <ele>-31.799999237061</ele>
        <time>2019-08-04T10:08:58.000Z</time>
      </trkpt>
      <trkpt lat="47.25647" lon="-2.33779">
        <ele>-31.799999237061</ele>
        <time>2019-08-04T10:09:04.000Z</time>
      </trkpt>
      <trkpt lat="47.25612" lon="-2.33764">
        <ele>-31.39999961853</ele>
        <time>2019-08-04T10:09:10.000Z</time>
      </trkpt>
      <trkpt lat="47.25606" lon="-2.33761">
        <ele>-30.799999237061</ele>
        <time>2019-08-04T10:09:11.000Z</time>
      </trkpt>
      <trkpt lat="47.256" lon="-2.33759">
        <ele>-30.39999961853</ele>
        <time>2019-08-04T10:09:12.000Z</time>
      </trkpt>
      <trkpt lat="47.25594" lon="-2.33758">
        <ele>-30</ele>
        <time>2019-08-04T10:09:13.000Z</time>
      </trkpt>
      <trkpt lat="47.25587" lon="-2.33758">
        <ele>-29.60000038147</ele>
        <time>2019-08-04T10:09:14.000Z</time>
      </trkpt>
      <trkpt lat="47.25581" lon="-2.33758">
        <ele>-29.60000038147</ele>
        <time>2019-08-04T10:09:15.000Z</time>
      </trkpt>
      <trkpt lat="47.25531" lon="-2.3376">
        <ele>-29.60000038147</ele>
        <time>2019-08-04T10:09:22.000Z</time>
      </trkpt>
      <trkpt lat="47.25495" lon="-2.33757">
        <ele>-29.60000038147</ele>
        <time>2019-08-04T10:09:27.000Z</time>
      </trkpt>
      <trkpt lat="47.25475" lon="-2.33754">
        <ele>-29.60000038147</ele>
        <time>2019-08-04T10:09:30.000Z</time>
      </trkpt>
      <trkpt lat="47.25463" lon="-2.33748">
        <ele>-29.60000038147</ele>
        <time>2019-08-04T10:09:32.000Z</time>
      </trkpt>
      <trkpt lat="47.25447" lon="-2.33724">
        <ele>-29.60000038147</ele>
        <time>2019-08-04T10:09:36.000Z</time>
      </trkpt>
      <trkpt lat="47.25446" lon="-2.33707">
        <ele>-29.60000038147</ele>
        <time>2019-08-04T10:09:38.000Z</time>
      </trkpt>
      <trkpt lat="47.25444" lon="-2.33684">
        <ele>-29.60000038147</ele>
        <time>2019-08-04T10:09:41.000Z</time>
      </trkpt>
      <trkpt lat="47.25443" lon="-2.3367">
        <ele>-29.60000038147</ele>
        <time>2019-08-04T10:09:43.000Z</time>
      </trkpt>
      <trkpt lat="47.25443" lon="-2.33656">
        <ele>-29.60000038147</ele>
        <time>2019-08-04T10:09:45.000Z</time>
      </trkpt>
      <trkpt lat="47.25441" lon="-2.33649">
        <ele>-29.60000038147</ele>
        <time>2019-08-04T10:09:46.000Z</time>
      </trkpt>
      <trkpt lat="47.25439" lon="-2.33635">
        <ele>-29.60000038147</ele>
        <time>2019-08-04T10:09:48.000Z</time>
      </trkpt>
      <trkpt lat="47.25439" lon="-2.33613">
        <ele>-29.60000038147</ele>
        <time>2019-08-04T10:09:51.000Z</time>
      </trkpt>
      <trkpt lat="47.25439" lon="-2.33585">
        <ele>-29.60000038147</ele>
        <time>2019-08-04T10:09:56.000Z</time>
      </trkpt>
      <trkpt lat="47.25448" lon="-2.33581">
        <ele>-29.60000038147</ele>
        <time>2019-08-04T10:09:59.000Z</time>
      </trkpt>
      <trkpt lat="47.25453" lon="-2.33577">
        <ele>-29.60000038147</ele>
        <time>2019-08-04T10:10:01.000Z</time>
      </trkpt>
      <trkpt lat="47.25455" lon="-2.33573">
        <ele>-29.60000038147</ele>
        <time>2019-08-04T10:10:02.000Z</time>
      </trkpt>
      <trkpt lat="47.25452" lon="-2.33557">
        <ele>-29.60000038147</ele>
        <time>2019-08-04T10:10:05.000Z</time>
      </trkpt>
      <trkpt lat="47.25451" lon="-2.33552">
        <ele>-29.60000038147</ele>
        <time>2019-08-04T10:10:06.000Z</time>
      </trkpt>
      <trkpt lat="47.2545" lon="-2.33546">
        <ele>-29.60000038147</ele>
        <time>2019-08-04T10:10:07.000Z</time>
      </trkpt>
      <trkpt lat="47.25447" lon="-2.33521">
        <ele>-29.60000038147</ele>
        <time>2019-08-04T10:10:11.000Z</time>
      </trkpt>
      <trkpt lat="47.2544" lon="-2.33482">
        <ele>-29.60000038147</ele>
        <time>2019-08-04T10:10:17.000Z</time>
      </trkpt>
      <trkpt lat="47.25432" lon="-2.33448">
        <ele>-29.60000038147</ele>
        <time>2019-08-04T10:10:22.000Z</time>
      </trkpt>
      <trkpt lat="47.25432" lon="-2.3344">
        <ele>-29.60000038147</ele>
        <time>2019-08-04T10:10:23.000Z</time>
      </trkpt>
      <trkpt lat="47.25431" lon="-2.33376">
        <ele>-29.60000038147</ele>
        <time>2019-08-04T10:10:30.000Z</time>
      </trkpt>
      <trkpt lat="47.25433" lon="-2.33341">
        <ele>-29.60000038147</ele>
        <time>2019-08-04T10:10:34.000Z</time>
      </trkpt>
      <trkpt lat="47.25435" lon="-2.33334">
        <ele>-29.60000038147</ele>
        <time>2019-08-04T10:10:35.000Z</time>
      </trkpt>
      <trkpt lat="47.25446" lon="-2.33306">
        <ele>-29.60000038147</ele>
        <time>2019-08-04T10:10:39.000Z</time>
      </trkpt>
      <trkpt lat="47.25448" lon="-2.33298">
        <ele>-29.60000038147</ele>
        <time>2019-08-04T10:10:40.000Z</time>
      </trkpt>
      <trkpt lat="47.25444" lon="-2.33274">
        <ele>-29.60000038147</ele>
        <time>2019-08-04T10:10:43.000Z</time>
      </trkpt>
      <trkpt lat="47.25441" lon="-2.33266">
        <ele>-29.60000038147</ele>
        <time>2019-08-04T10:10:44.000Z</time>
      </trkpt>
      <trkpt lat="47.25433" lon="-2.33244">
        <ele>-29.60000038147</ele>
        <time>2019-08-04T10:10:47.000Z</time>
      </trkpt>
      <trkpt lat="47.25429" lon="-2.33237">
        <ele>-29.60000038147</ele>
        <time>2019-08-04T10:10:48.000Z</time>
      </trkpt>
      <trkpt lat="47.25401" lon="-2.3317">
        <ele>-29.60000038147</ele>
        <time>2019-08-04T10:10:57.000Z</time>
      </trkpt>
      <trkpt lat="47.2539" lon="-2.3315">
        <ele>-29.60000038147</ele>
        <time>2019-08-04T10:11:01.000Z</time>
      </trkpt>
      <trkpt lat="47.25375" lon="-2.33134">
        <ele>-29.60000038147</ele>
        <time>2019-08-04T10:11:08.000Z</time>
      </trkpt>
      <trkpt lat="47.25375" lon="-2.33133">
        <ele>-29.60000038147</ele>
        <time>2019-08-04T10:11:10.000Z</time>
      </trkpt>
    </trkseg>
  </trk>
</gpx>